ECMWFFLT1_sfc_temp_000.txt.gz
Temp
94 92 91 90 90 90 89 89 89 89 87 87 88 89 89 88 87 87 86 86 86 85 85 86 86 86 85 85 85 84 84 83 82 82 82 81 80 80 79 80 79 79 80 80 80 80 80 81 81 81 81 81 80 80 80 80 80 80 81 81 80 79 78
92 92 91 91 90 90 90 89 89 89 88 88 88 88 90 87 87 87 86 86 86 85 85 86 85 85 85 85 84 84 83 83 82 81 81 81 80 81 81 80 80 79 80 80 81 80 81 81 81 81 80 81 80 80 80 80 80 79 80 80 79 79 78
92 92 91 90 90 90 89 90 89 90 89 90 90 90 89 87 87 87 86 86 85 86 86 85 85 85 85 84 84 83 83 83 82 82 81 82 81 81 81 80 80 80 81 80 81 80 81 81 81 81 80 80 80 80 80 80 80 79 79 79 79 79 79
90 91 91 90 90 90 90 89 89 90 91 91 91 90 88 87 88 87 88 87 86 85 84 85 85 85 85 84 83 83 82 82 82 82 81 82 81 81 81 81 81 81 80 81 81 81 81 81 80 80 80 80 79 80 80 80 80 80 79 79 78 79 79
89 91 91 90 90 89 89 89 89 89 91 93 91 89 89 88 88 88 88 88 88 86 86 86 86 85 84 84 84 83 82 82 82 82 82 82 81 81 80 80 81 80 80 81 81 80 80 80 80 80 80 80 80 80 80 80 80 80 79 79 78 78 78
88 88 89 90 90 89 89 90 91 93 92 92 90 89 90 91 92 92 90 87 86 87 86 85 85 84 83 84 84 83 82 82 82 82 81 81 81 81 81 80 80 80 80 80 81 81 80 80 80 80 80 81 82 80 80 80 81 80 79 79 78 78 78
88 88 89 90 90 90 90 91 93 93 93 92 92 90 92 93 92 92 91 88 87 85 85 85 85 85 84 84 83 82 81 82 82 81 82 82 82 81 81 80 80 81 81 81 80 80 80 79 79 79 79 80 79 79 79 78 79 80 78 78 78 78 78
89 89 90 90 92 93 92 91 91 92 92 92 91 92 93 93 92 92 91 91 90 91 89 88 86 84 84 83 83 82 82 82 83 83 82 82 82 81 81 81 81 81 80 80 80 80 80 79 80 80 79 79 79 78 79 78 78 80 79 78 77 77 78
90 90 90 92 93 94 93 91 90 90 89 89 88 89 90 90 91 90 90 90 89 88 88 90 88 86 84 83 83 82 83 82 82 82 82 81 82 82 83 84 83 83 80 80 81 81 80 80 80 79 79 79 78 78 78 78 78 79 79 78 77 77 74
88 88 90 92 93 93 91 91 90 88 87 86 86 87 88 88 88 89 89 90 91 89 88 88 88 88 85 83 83 83 82 82 82 82 83 82 83 82 84 84 84 84 82 81 82 80 80 80 80 79 79 78 78 78 78 78 79 78 78 78 77 76 73
88 88 88 90 90 90 89 89 87 84 84 84 85 86 87 86 86 88 87 90 91 90 89 88 87 86 85 84 84 83 82 82 83 82 82 82 85 83 85 87 85 83 82 81 80 80 80 80 80 79 79 79 78 78 78 79 79 78 78 79 78 76 75
87 87 86 87 87 87 87 86 85 84 84 84 85 86 85 85 86 87 87 87 90 90 88 87 88 87 86 86 84 82 82 82 82 82 82 82 83 83 83 82 82 83 85 84 83 82 82 81 81 79 79 79 79 79 79 79 79 78 78 78 78 77 76
87 86 85 86 86 86 86 84 83 84 84 85 86 86 86 86 86 87 85 86 88 88 88 86 85 84 84 85 85 83 83 83 83 83 83 83 82 83 83 84 85 85 82 83 83 83 82 82 81 81 79 79 80 80 79 79 79 78 78 77 77 76 75
84 86 86 86 85 84 84 83 84 84 84 85 86 86 87 87 87 86 85 86 87 88 88 87 84 84 83 83 83 82 83 83 83 83 83 83 82 82 82 82 81 80 81 82 82 83 82 82 81 82 82 81 80 80 80 79 79 78 77 77 76 76 76
85 85 85 85 83 84 83 83 83 84 85 85 86 86 86 87 86 86 86 87 86 88 87 86 84 83 83 83 82 82 83 83 83 83 83 82 82 81 81 80 79 80 81 81 81 82 82 82 82 81 80 81 80 80 80 80 79 79 78 76 75 76 75
85 85 85 84 83 84 84 84 84 84 84 85 86 85 86 86 85 85 86 86 88 86 87 85 83 82 82 82 82 83 83 83 82 82 82 82 81 81 81 80 80 81 81 81 82 81 81 81 81 82 81 80 79 78 80 79 79 73 66 67 73 74 74
85 85 85 85 84 84 84 84 85 85 84 85 85 85 85 85 86 86 88 89 89 86 86 86 83 82 82 82 83 83 83 83 82 82 81 81 81 80 80 79 80 81 80 80 80 80 80 80 80 81 82 81 80 80 79 79 78 69 64 63 63 70 74
85 85 85 85 84 84 84 85 85 85 85 86 86 86 86 85 86 86 87 88 87 88 88 85 84 83 82 83 83 83 83 82 82 81 81 81 80 80 80 80 80 80 80 80 80 80 81 80 80 80 80 80 81 80 79 80 73 65 63 63 63 64 70
85 85 85 84 84 84 85 86 86 86 87 87 87 87 87 87 87 85 86 86 87 87 86 86 85 83 83 83 83 83 83 82 82 81 81 81 81 80 80 79 79 79 79 80 81 81 79 79 80 80 80 80 79 79 80 81 69 63 62 62 62 62 64
85 86 86 86 86 86 86 87 88 88 88 87 88 91 90 89 87 87 88 88 87 86 85 84 84 84 83 83 83 83 83 82 82 81 81 81 80 80 80 79 79 80 81 81 81 80 79 80 79 80 80 80 79 79 80 80 69 63 62 61 60 60 62
84 85 85 85 85 86 86 87 87 87 87 88 90 90 89 88 88 88 88 88 87 86 84 84 84 83 83 83 83 83 83 83 82 81 81 81 80 80 79 79 80 80 81 81 80 80 79 79 79 80 80 81 81 80 80 81 67 63 61 60 57 58 61
85 86 85 86 85 86 86 87 86 87 87 89 90 90 90 89 90 90 88 89 87 86 85 84 83 83 84 83 84 83 83 83 82 82 82 81 81 80 79 79 80 79 80 80 81 81 81 81 81 80 80 80 81 80 79 81 63 61 60 58 57 57 67
89 88 88 88 89 88 87 88 88 88 87 88 89 89 89 90 91 89 89 88 87 86 86 85 83 83 83 83 84 84 84 84 83 82 82 81 81 80 80 79 79 80 81 80 79 80 80 81 81 80 77 74 74 75 77 81 67 57 57 56 56 60 72
90 89 88 89 88 89 87 88 89 88 89 89 88 89 90 90 90 88 86 86 87 87 86 85 84 84 84 84 84 84 84 84 83 82 81 81 80 80 80 81 81 81 81 79 78 79 81 79 78 79 77 75 75 75 73 75 69 54 55 53 55 61 73
90 91 89 89 89 88 87 87 88 89 89 88 87 89 89 89 89 88 85 85 87 87 86 84 84 84 84 84 85 85 85 84 83 82 82 81 81 82 80 80 79 80 80 78 77 75 74 75 75 73 73 77 78 74 74 76 70 54 55 53 55 61 72
86 87 88 88 90 89 87 87 87 87 88 87 87 89 88 89 88 86 85 86 87 86 84 84 85 85 86 86 85 85 84 84 82 82 82 82 82 82 79 77 79 79 80 79 79 77 77 77 75 73 73 75 75 74 77 76 74 73 53 53 53 56 69
87 88 88 90 89 86 87 87 87 87 87 87 87 89 89 89 87 85 84 84 84 84 85 86 86 86 85 85 85 84 84 84 83 82 82 81 80 80 79 78 79 79 78 78 79 78 76 75 75 73 72 73 74 75 74 73 78 78 59 54 53 55 57
88 88 91 90 87 87 87 89 87 88 90 88 88 90 89 87 84 84 84 83 83 84 87 86 86 86 85 83 83 83 83 83 83 83 82 80 78 78 78 78 79 79 79 79 77 74 74 74 73 73 72 73 75 73 74 73 70 78 65 55 53 52 54
85 86 88 87 86 87 88 87 86 88 90 92 94 90 87 86 83 83 83 82 83 86 87 86 86 84 83 82 82 81 81 81 81 82 82 80 79 79 78 78 77 78 77 77 75 74 74 73 74 74 74 74 75 75 74 74 69 64 73 63 56 54 53
86 87 87 91 91 88 88 86 87 88 90 93 90 87 86 84 82 82 81 82 85 86 86 84 83 82 81 80 80 81 81 82 82 81 80 79 79 78 78 77 77 77 76 76 75 74 73 74 73 72 72 73 72 73 73 69 67 68 63 67 60 54 51
86 86 87 88 92 88 88 88 86 87 87 87 85 85 84 85 82 81 80 83 85 84 83 82 80 80 79 80 81 80 81 81 81 80 80 80 79 77 77 76 77 76 75 75 75 74 73 74 72 70 70 71 70 70 71 72 72 74 66 62 61 55 51
85 86 87 87 85 85 87 88 87 86 84 83 84 83 83 83 83 80 81 84 84 84 83 81 79 79 79 80 80 80 80 79 79 78 78 78 79 78 78 77 77 76 75 75 75 74 73 73 71 70 71 72 70 69 70 70 68 69 74 70 68 66 60
83 84 84 84 83 83 84 85 85 84 84 83 83 84 86 84 84 83 83 83 83 84 82 80 79 78 79 79 79 78 77 76 79 79 78 77 79 78 77 78 77 76 74 75 75 75 74 73 73 72 72 72 71 69 70 70 71 71 72 70 70 72 69
82 82 83 83 82 83 83 83 83 84 83 83 83 83 84 85 85 85 85 86 87 86 81 79 79 79 79 78 78 78 76 77 73 74 78 79 78 79 79 77 73 70 72 75 75 75 74 74 74 73 72 71 71 71 72 74 73 69 65 65 64 63 66
82 82 81 80 80 80 81 81 81 81 81 80 81 81 81 81 84 87 84 84 85 82 80 79 78 77 77 78 77 75 74 76 76 77 77 76 75 76 76 74 74 72 70 69 70 71 71 72 74 75 76 76 73 69 69 68 66 63 52 50 47 50 55
82 82 80 81 81 80 79 78 79 79 79 78 79 79 79 79 80 82 86 84 82 81 79 76 76 75 78 78 77 78 79 77 79 78 76 77 77 75 70 53 46 54 68 70 53 48 45 50 65 65 71 73 72 65 65 62 60 48 42 41 41 41 41
82 81 81 81 81 79 79 78 78 78 77 78 78 79 79 78 80 80 82 81 81 80 77 76 75 75 78 77 79 78 76 77 78 76 74 73 75 73 74 72 61 45 44 50 51 46 42 42 42 44 48 58 69 60 50 50 45 41 41 41 40 40 41
82 81 81 82 81 79 78 78 78 78 77 78 78 78 78 79 80 79 82 80 80 80 78 77 75 75 77 78 77 72 72 76 75 74 74 74 74 72 72 70 63 58 46 43 45 45 42 41 41 41 43 44 49 56 63 52 46 41 42 41 41 40 41

ECMWFFLT1_sfc_temp_003.txt.gz
Temp
97 97 95 94 92 93 93 91 88 89 90 89 88 89 91 90 89 88 88 87 86 85 87 87 87 88 87 87 87 86 86 85 85 83 83 83 82 82 82 82 81 81 82 81 82 81 82 83 82 83 82 82 82 82 81 81 81 81 81 80 80 80 79
96 96 97 96 93 93 93 92 90 90 90 90 88 89 90 90 89 88 87 87 87 86 87 87 87 87 87 87 87 86 85 85 85 84 84 83 83 82 83 82 81 81 81 81 82 82 82 83 83 82 82 82 82 82 82 81 81 80 80 80 79 79 79
96 96 96 95 93 92 90 91 89 89 91 90 90 89 90 89 88 88 87 87 87 87 87 87 87 87 87 87 86 86 86 85 85 84 83 83 83 83 83 82 82 82 82 82 81 82 83 82 82 82 82 81 81 81 81 81 81 81 80 80 79 79 79
94 96 96 95 94 93 92 91 86 88 92 89 90 89 90 89 89 89 88 88 87 87 86 87 87 87 87 86 85 85 85 85 84 84 84 84 83 83 82 83 83 83 82 82 83 83 83 82 82 82 82 81 81 81 81 81 81 81 80 80 79 79 78
94 92 93 93 94 92 91 90 87 86 87 90 92 88 90 90 90 90 89 89 89 87 87 87 88 87 87 87 87 86 85 85 84 84 84 84 83 83 82 82 83 83 82 83 82 82 81 81 81 81 82 81 81 82 81 82 81 80 80 80 78 79 78
95 95 93 94 94 93 92 89 88 89 89 90 90 91 92 91 90 94 91 89 88 89 88 88 87 87 86 87 86 85 85 85 84 84 83 83 82 82 83 83 83 82 82 82 83 82 82 81 81 81 81 82 82 82 81 81 81 81 80 80 78 78 79
94 94 92 91 92 94 93 91 89 88 89 91 95 94 95 93 92 94 93 90 90 88 88 88 87 87 86 86 86 85 84 84 83 83 84 83 83 82 82 83 82 83 83 82 81 82 81 80 80 80 81 81 81 81 80 79 79 80 79 79 78 78 77
95 94 94 90 93 92 90 90 89 87 90 92 96 95 94 94 95 95 93 93 93 93 91 90 87 86 86 86 86 85 85 84 85 85 84 83 83 82 82 83 83 83 83 82 82 82 82 81 81 81 81 81 80 80 80 80 79 81 79 78 78 78 79
96 94 94 97 95 92 92 91 88 86 86 89 92 91 93 93 94 93 94 93 92 92 91 93 91 88 86 85 85 85 85 85 84 84 83 83 83 84 85 86 85 85 83 83 84 83 82 81 81 80 80 79 80 80 80 79 79 80 79 78 77 77 77
94 92 92 95 93 93 92 91 89 87 88 90 90 90 91 92 92 93 94 94 94 93 92 92 92 91 87 85 85 85 85 84 84 84 85 85 84 84 86 86 85 86 85 84 84 83 82 82 81 81 80 79 79 79 79 80 80 80 80 79 78 76 77
94 92 91 91 91 92 92 91 87 87 89 88 88 90 89 90 91 92 92 93 95 93 93 91 91 91 89 87 86 86 84 84 84 84 83 83 86 86 87 89 89 86 84 83 83 84 83 83 83 81 81 80 79 78 78 77 78 79 80 80 79 78 77
92 92 91 90 90 90 90 89 90 88 88 87 89 89 88 89 90 91 90 91 94 94 92 91 92 90 89 89 87 85 85 84 84 84 84 85 85 85 85 85 84 85 86 85 84 83 84 83 83 82 81 81 81 80 78 77 74 71 72 76 79 78 77
92 91 90 92 90 89 89 89 88 88 87 88 89 89 89 89 89 90 88 89 91 91 91 90 89 88 88 88 88 86 85 85 84 84 85 84 84 85 85 87 88 87 83 83 84 84 84 85 83 83 82 81 81 82 80 78 76 72 70 69 70 75 77
88 91 91 91 90 91 90 88 88 87 87 88 88 88 89 89 89 88 87 88 90 90 91 91 88 87 86 86 85 85 85 85 85 85 84 84 84 84 83 84 83 82 81 82 82 84 84 85 83 84 83 82 81 81 82 80 77 75 72 71 70 70 76
89 90 90 90 89 90 90 88 87 86 87 86 87 87 87 88 88 88 87 88 86 90 90 89 87 86 86 85 84 83 84 85 85 85 85 84 83 83 82 82 82 81 81 81 82 83 84 84 83 81 80 81 81 81 81 80 78 76 75 74 73 76 77
90 88 90 90 89 90 90 89 87 86 86 86 86 86 87 87 87 87 86 82 85 88 90 89 86 85 84 84 84 84 84 84 84 83 83 83 82 82 82 82 82 82 81 81 82 82 82 81 81 82 81 81 81 81 81 80 78 74 70 72 76 77 76
92 91 90 90 89 89 89 89 87 86 86 86 87 86 86 86 87 86 83 83 91 88 89 89 86 84 84 83 84 84 84 84 83 83 82 82 82 82 82 82 82 81 80 80 81 81 80 81 81 82 82 81 81 81 80 80 77 66 65 65 68 74 75
91 91 91 91 90 89 88 88 87 86 86 87 87 87 87 86 86 83 81 86 90 91 90 88 86 85 83 84 84 84 84 84 84 83 82 82 81 81 82 82 81 80 80 80 81 81 82 81 81 80 80 81 81 81 80 81 70 62 64 65 65 67 73
90 91 91 91 90 89 89 90 89 87 88 88 88 87 88 87 86 77 83 87 89 90 89 88 88 85 84 84 84 84 84 84 83 83 82 82 82 82 82 81 81 80 81 81 81 82 80 80 80 80 80 81 80 79 78 80 64 62 63 64 63 64 67
91 92 93 93 92 91 90 90 90 89 90 89 89 91 90 89 82 84 86 90 89 88 88 87 86 85 85 84 84 84 84 84 83 82 82 82 82 82 81 81 80 81 82 82 81 80 80 80 80 80 79 75 74 74 77 76 64 60 62 62 62 62 65
89 89 90 91 91 92 90 89 89 88 88 90 91 90 90 89 91 87 89 90 89 88 86 86 86 85 85 84 84 84 84 84 83 82 82 82 82 81 81 81 80 81 81 82 81 80 79 80 79 80 76 73 76 77 78 80 63 59 60 60 60 61 64
92 92 90 91 90 90 89 90 89 89 88 91 91 91 91 91 92 92 90 91 90 88 86 86 84 85 85 84 85 85 84 84 83 82 82 82 82 81 81 81 80 80 81 81 82 82 81 81 81 80 80 79 79 78 77 80 66 62 60 59 59 60 70
96 94 93 92 93 91 90 91 91 90 87 89 91 91 91 92 93 91 90 90 90 88 87 86 84 84 84 85 85 85 85 85 84 82 81 81 81 81 81 81 81 81 81 80 81 81 81 80 80 80 80 79 78 77 77 78 71 63 59 58 58 61 72
96 95 93 94 92 93 90 91 92 90 91 91 91 92 92 93 92 90 89 89 90 89 88 86 85 85 84 85 85 86 86 85 84 83 82 81 80 81 82 83 82 82 82 81 80 80 81 81 79 80 80 79 78 81 78 79 71 58 58 55 55 59 71
97 96 94 93 93 92 91 91 90 90 91 91 90 90 91 92 91 90 88 88 90 90 87 85 85 86 85 85 86 86 86 86 85 84 83 81 82 83 82 82 81 82 82 82 81 80 80 80 79 80 80 82 82 74 76 79 75 64 61 58 56 60 70
92 92 92 92 94 92 90 89 89 88 90 89 89 91 91 92 91 89 88 89 90 88 87 86 86 86 87 87 87 86 86 85 84 83 82 82 82 82 82 82 82 82 81 81 81 81 80 82 81 79 80 81 81 81 80 79 78 75 61 56 56 58 66
93 94 93 94 93 88 90 90 89 89 89 89 89 91 91 91 90 88 87 87 86 85 86 88 88 87 87 86 86 87 86 86 84 83 83 84 82 84 82 82 82 81 79 80 80 77 79 79 79 79 78 80 80 80 81 81 78 76 62 58 55 54 55
94 95 96 93 88 88 90 91 89 91 92 90 90 91 92 90 87 86 86 85 85 86 88 88 88 87 87 85 85 86 86 85 83 82 82 82 83 81 80 81 80 79 79 79 78 77 77 76 76 77 77 77 76 78 73 75 71 75 66 60 56 53 52
91 92 92 90 88 91 91 90 90 92 92 93 94 93 92 91 87 86 86 85 85 87 88 88 88 87 86 84 84 84 84 83 81 82 82 82 83 80 79 80 79 78 77 75 76 76 76 75 75 76 75 74 76 75 73 72 73 66 71 63 57 53 52
91 92 91 94 94 92 94 90 90 91 92 94 92 92 91 89 86 85 84 83 86 86 86 86 87 86 85 84 84 84 83 82 82 81 82 82 81 80 79 78 78 77 75 76 76 76 75 75 75 75 76 76 76 75 72 71 73 70 64 66 60 54 51
91 92 92 93 94 93 93 93 90 90 91 92 91 89 88 88 85 84 82 84 85 86 87 87 86 85 84 83 81 81 82 79 77 76 80 82 81 79 78 79 78 75 76 76 76 75 74 75 75 74 70 73 72 73 70 71 73 73 69 63 61 57 55
90 92 93 94 92 90 92 89 89 91 90 86 84 84 83 86 85 82 80 83 85 83 82 81 81 81 80 81 80 81 81 78 78 77 80 81 81 79 79 78 75 76 74 74 75 75 74 72 70 67 66 63 65 66 71 74 73 71 70 69 67 65 62
89 90 90 89 88 88 90 91 91 89 86 82 84 86 86 85 85 83 84 86 86 84 83 82 81 80 80 79 80 81 81 79 80 81 81 80 81 80 80 79 78 76 74 74 72 74 74 71 68 63 62 63 61 64 73 69 71 69 69 68 68 68 67
85 86 86 86 87 87 87 86 86 89 86 83 82 83 84 84 86 87 88 90 91 90 84 81 81 81 79 80 80 80 79 79 76 76 78 77 76 75 77 79 79 78 76 74 74 72 71 70 68 66 65 64 62 62 64 69 70 67 62 62 60 61 63
84 84 84 85 85 85 84 85 85 84 83 83 85 85 85 85 88 91 89 88 88 87 83 81 80 81 81 81 81 79 78 79 79 77 74 72 76 79 73 73 77 75 75 67 66 67 69 69 69 68 68 69 66 67 68 67 68 60 48 50 46 48 56
83 85 84 85 84 84 83 82 83 83 82 82 83 84 84 84 85 87 92 91 87 84 82 80 80 80 81 82 82 83 81 77 78 78 78 79 76 77 64 50 46 53 66 68 52 46 45 51 62 62 66 67 67 64 65 63 60 45 41 41 40 40 41
82 83 83 84 83 83 82 82 82 81 81 82 82 83 83 83 85 84 87 84 84 83 81 80 78 79 81 80 82 78 80 78 78 78 77 77 77 76 75 68 58 44 42 48 49 45 42 41 42 45 49 59 66 58 47 49 44 41 41 40 40 39 40
81 81 83 84 84 82 81 80 80 80 79 81 82 82 82 84 84 82 86 84 83 82 79 78 78 77 79 81 81 75 77 78 77 77 77 76 76 75 73 74 67 59 45 42 44 44 41 41 42 43 44 45 49 56 63 52 46 41 41 41 40 41 40

ECMWFFLT1_sfc_temp_009.txt.gz
Temp
85 85 85 85 84 83 83 83 82 82 81 81 80 81 81 81 80 79 78 77 77 76 76 76 76 76 75 75 75 74 74 74 73 72 71 70 72 71 69 70 70 69 69 71 70 70 71 74 73 72 72 73 73 73 72 73 72 73 71 71 71 70 70
85 84 84 85 84 83 83 83 82 83 82 81 81 81 82 81 80 79 78 78 77 77 76 77 76 75 76 75 75 74 74 74 75 75 73 73 73 70 70 69 70 69 68 70 70 70 72 72 73 72 73 73 72 71 72 72 72 70 70 70 69 69 69
85 83 84 84 84 82 82 83 83 83 83 83 82 82 81 80 80 79 78 78 76 76 76 76 76 75 76 75 75 74 75 74 74 74 72 71 71 72 71 71 69 69 71 71 71 71 72 71 72 72 72 71 71 71 71 70 71 71 70 69 69 69 68
83 83 83 84 84 83 83 83 83 83 84 84 83 83 81 80 80 80 79 79 77 76 76 76 76 75 75 75 75 74 74 74 74 74 73 72 72 72 72 70 70 70 72 70 72 73 73 72 72 71 74 71 70 70 70 70 70 70 70 70 69 69 69
83 83 82 83 83 81 82 82 83 83 84 85 84 83 82 81 81 80 80 79 79 77 77 77 77 76 75 76 76 75 75 74 74 74 73 73 72 72 71 71 71 71 71 72 71 72 71 70 70 70 70 70 70 70 70 70 70 70 69 69 68 69 69
83 81 81 83 83 82 82 84 85 85 84 84 83 82 82 82 82 81 80 79 79 79 78 77 76 76 75 75 76 75 75 75 74 74 73 72 72 72 71 70 71 71 71 70 71 70 71 69 70 70 69 70 71 70 70 70 70 70 70 70 69 69 70
83 81 81 83 83 83 83 84 85 86 86 85 84 83 84 83 82 82 81 80 80 77 77 77 77 76 75 75 75 75 74 74 74 74 74 73 72 71 71 71 73 72 71 71 71 70 71 70 70 70 70 70 70 70 69 69 69 69 70 69 69 68 68
80 78 79 82 84 84 85 84 85 86 85 84 84 84 84 83 83 82 81 81 81 80 79 79 77 76 75 75 75 75 75 74 74 74 73 73 72 72 72 72 72 72 70 70 71 71 72 71 71 71 71 70 70 70 70 69 69 70 70 69 68 67 70
81 81 80 82 84 85 85 84 84 84 83 82 82 82 83 82 83 82 82 82 81 80 80 81 79 77 76 76 74 74 74 74 74 74 73 73 72 73 73 73 73 72 72 72 72 72 72 72 72 71 71 70 70 70 70 70 70 70 69 68 68 67 68
79 79 80 83 86 86 85 84 84 82 81 81 81 81 82 82 82 82 82 82 82 81 81 81 80 79 77 76 75 75 74 74 74 75 75 74 73 73 75 75 74 74 73 73 73 72 72 72 72 71 70 70 70 70 70 70 69 70 69 69 68 68 67
80 79 80 81 82 83 83 82 81 81 80 80 81 81 82 81 82 82 81 83 83 82 82 82 80 79 78 77 76 75 74 74 75 75 74 74 74 75 76 77 77 73 73 73 72 71 70 70 71 70 70 71 70 70 70 70 70 69 69 69 69 69 68
79 79 78 80 80 80 81 81 80 80 80 80 80 81 81 81 82 82 82 82 84 83 82 81 81 80 79 78 76 74 74 75 75 75 74 74 74 75 76 77 72 72 72 71 71 71 71 70 69 70 69 68 69 68 68 67 68 68 69 69 69 68 67
78 78 79 80 80 81 80 78 78 79 80 80 80 81 81 81 81 82 81 81 84 83 82 81 80 79 79 79 77 75 75 75 75 75 75 74 74 74 75 74 76 76 72 73 73 74 72 71 70 70 70 69 69 70 70 69 68 68 68 69 68 68 66
80 78 78 80 78 79 79 79 79 78 78 79 80 80 81 81 81 81 80 81 83 83 83 82 80 79 78 77 75 75 75 76 76 75 75 75 74 74 74 73 71 70 71 71 70 71 70 70 70 70 70 69 70 69 69 69 68 68 67 68 68 67 67
76 79 79 79 78 77 79 79 78 78 78 79 80 80 80 80 80 80 80 82 81 82 82 80 79 78 77 77 75 75 75 75 76 75 75 75 73 73 73 72 70 70 70 71 71 72 71 71 71 69 69 69 69 69 69 70 70 69 69 68 68 68 67
77 76 77 79 79 78 78 80 79 79 79 78 79 79 80 79 79 80 80 80 78 79 79 78 78 77 76 75 75 75 75 75 75 75 74 74 73 72 72 71 71 70 69 70 70 69 70 70 70 71 70 70 69 68 70 70 71 71 71 70 69 68 68
75 76 76 78 77 78 78 79 80 79 79 78 79 79 79 80 80 80 81 79 77 77 78 79 77 76 76 75 75 75 76 75 74 74 74 73 72 71 71 71 71 70 69 69 69 70 70 71 70 71 72 71 69 69 70 71 71 68 66 67 69 68 66
75 75 75 74 77 78 78 78 78 78 78 79 79 79 79 79 79 76 69 70 69 73 77 78 77 75 74 74 73 73 74 74 73 73 73 72 71 71 71 70 70 69 69 69 70 70 71 70 70 70 70 70 69 68 69 69 69 65 64 65 65 67 66
76 76 75 75 75 77 78 79 79 78 79 80 80 79 80 78 71 66 68 68 69 69 71 73 73 72 72 70 71 73 74 73 73 72 71 71 71 71 70 70 70 69 69 70 71 71 70 70 70 69 69 69 68 68 69 68 68 64 64 64 64 64 65
77 77 78 77 76 76 79 80 80 80 80 79 79 78 74 71 68 69 69 70 70 71 71 69 69 69 70 70 71 73 74 73 73 72 72 71 71 71 70 70 70 71 71 71 71 70 70 70 69 69 68 69 68 68 68 67 68 64 62 62 62 62 63
75 76 75 75 76 78 75 79 80 79 77 77 76 71 69 69 70 70 70 70 70 69 68 69 69 68 69 70 72 74 74 73 72 72 71 71 71 70 70 70 70 71 71 72 71 70 69 69 68 68 69 69 69 68 68 70 66 64 62 60 60 61 63
76 76 77 79 79 78 77 76 78 79 76 74 72 72 71 70 71 71 68 68 67 66 67 68 68 69 70 71 74 75 74 73 72 71 71 71 71 71 70 70 70 70 71 71 70 69 69 68 68 69 68 68 69 68 66 69 66 63 60 58 59 60 63
82 80 79 77 79 78 76 75 79 77 72 72 72 70 69 70 70 68 68 68 68 68 68 68 68 69 70 73 75 75 74 73 73 72 71 71 71 70 71 70 70 70 71 70 69 68 68 68 69 69 70 68 68 67 66 66 61 59 59 58 58 60 62
86 83 83 80 79 80 81 79 75 71 72 71 69 69 69 69 69 69 68 67 67 68 67 68 70 71 71 73 75 75 74 74 73 73 72 71 71 71 71 71 71 71 71 69 68 68 69 69 69 69 68 68 68 68 65 65 60 56 55 56 57 60 62
83 83 82 81 80 74 71 70 69 70 69 68 66 67 68 68 68 69 68 67 67 68 68 68 70 71 73 75 76 75 75 75 74 73 73 72 72 73 72 71 71 71 71 70 69 68 67 69 69 68 68 68 66 68 64 62 62 57 56 56 56 59 62
77 79 80 81 73 68 69 70 69 69 69 68 66 67 68 68 67 66 66 66 68 67 68 69 70 73 76 77 76 76 75 75 75 74 74 73 72 72 72 72 71 70 70 67 68 68 67 69 69 67 64 64 63 64 63 63 63 62 57 55 55 56 60
79 80 80 76 68 70 70 70 70 68 68 67 66 67 67 68 67 66 66 67 67 68 70 71 73 75 76 76 76 75 75 75 75 74 74 73 73 73 72 71 70 69 67 68 69 68 66 67 66 64 61 62 63 63 62 64 63 63 57 54 53 54 56
79 81 76 72 71 70 69 69 68 67 67 67 68 68 68 68 68 67 67 67 67 69 73 74 75 75 75 75 75 76 75 74 74 75 74 73 72 70 68 68 68 67 66 66 66 67 66 66 64 62 60 61 62 63 61 63 66 63 59 54 52 51 53
75 75 72 70 69 71 70 67 66 66 67 70 71 70 69 70 69 68 68 68 71 74 75 74 75 74 75 75 75 74 74 73 73 73 73 71 70 69 66 64 64 64 64 65 65 65 65 65 64 61 60 61 58 60 60 61 63 62 62 55 50 50 52
75 76 74 73 72 70 70 66 67 67 70 71 71 69 69 70 69 69 70 71 71 72 72 72 72 72 72 71 71 71 70 71 71 71 70 70 68 67 65 64 63 63 63 63 62 63 63 63 64 61 60 59 59 59 61 61 60 61 60 59 54 51 51
72 73 74 72 71 70 71 70 68 70 70 70 70 70 70 71 71 71 70 71 71 70 71 70 70 70 70 69 70 70 70 70 69 69 69 68 67 65 64 64 64 62 63 63 63 63 64 62 61 61 58 59 59 59 59 60 60 60 60 60 57 55 52
71 73 74 73 72 72 73 73 73 72 70 70 70 71 71 73 73 71 71 71 70 71 70 70 69 69 69 70 69 68 68 68 68 68 68 68 67 65 64 64 64 63 63 63 63 63 63 62 61 60 60 59 59 59 59 59 59 56 56 59 58 56 55
70 70 71 70 72 74 73 74 73 72 72 71 73 74 74 73 73 73 72 71 71 70 69 68 68 67 67 66 66 65 65 64 65 66 66 66 64 64 63 62 61 63 64 64 63 63 63 61 61 59 58 59 59 59 59 58 55 54 54 54 54 54 55
68 69 69 71 72 73 73 73 72 72 71 70 70 70 70 70 70 71 72 75 75 72 70 69 68 66 65 65 65 65 65 66 71 68 65 63 63 63 63 64 65 62 60 57 59 59 60 60 60 58 58 57 59 57 58 56 53 52 51 51 51 52 51
67 67 67 68 68 69 68 68 70 70 69 69 69 69 68 69 71 77 74 75 73 71 70 69 69 68 68 67 66 66 68 67 67 66 65 62 55 51 50 53 58 58 54 54 52 56 59 60 59 59 59 57 55 56 57 55 53 53 50 49 47 46 48
68 69 68 69 69 69 69 69 69 69 69 69 69 71 71 72 72 77 77 76 74 72 70 69 68 68 67 67 68 69 68 68 68 68 66 62 56 53 52 49 43 48 56 54 52 48 47 51 56 56 57 54 53 53 54 54 54 49 42 40 40 40 41
69 69 69 69 68 68 68 68 69 69 68 68 68 69 69 68 68 69 72 74 74 73 71 70 68 69 69 70 71 70 69 68 67 67 66 63 59 56 54 51 49 42 42 47 48 45 41 41 44 48 53 55 52 51 50 51 47 42 41 40 40 40 39
70 70 71 70 69 68 68 69 69 69 68 69 69 70 70 69 69 69 74 74 73 72 70 69 68 66 66 67 66 68 68 67 68 67 67 65 61 58 56 53 51 50 43 40 42 42 41 41 42 43 45 49 52 52 51 47 43 42 41 41 41 40 40

ECMWFFLT1_sfc_temp_012.txt.gz
Temp
81 79 79 79 79 79 79 78 79 79 79 78 78 79 79 79 79 78 77 76 76 75 74 74 74 74 73 72 72 71 71 72 71 70 70 68 69 68 68 67 68 66 66 67 66 66 69 69 69 69 68 68 68 69 68 69 69 71 68 68 68 67 67
79 79 79 79 79 79 79 79 79 80 79 79 79 79 80 79 79 78 77 76 76 76 75 75 75 74 74 73 72 71 71 71 72 73 71 71 72 69 69 68 68 67 67 67 67 67 68 69 69 68 68 69 68 67 68 68 68 68 68 67 67 66 66
79 79 79 79 79 79 79 79 79 80 80 80 80 80 79 79 79 78 77 77 76 76 75 75 75 74 74 73 71 71 72 71 71 71 70 70 70 70 69 69 68 68 68 68 68 69 70 68 67 68 68 67 67 67 68 67 68 68 67 67 67 68 66
79 79 80 80 80 80 80 80 80 81 81 81 81 80 80 79 80 79 79 77 76 76 75 75 75 74 73 73 72 71 71 71 72 72 71 70 70 69 69 68 68 68 68 68 69 70 71 69 68 67 71 67 67 67 67 67 67 67 67 67 66 67 66
80 81 80 79 79 79 79 79 80 80 81 82 82 81 81 81 80 80 79 78 78 76 77 76 76 75 74 73 73 72 72 71 71 71 71 70 71 70 70 69 69 69 69 68 68 70 69 68 67 67 67 66 67 66 67 66 66 66 66 66 66 67 67
79 79 79 79 80 79 79 80 81 82 82 82 81 81 81 81 81 80 79 78 78 78 77 77 76 75 73 73 73 73 71 71 72 71 71 71 70 69 70 70 70 69 68 68 69 68 68 68 68 68 68 68 68 67 66 66 67 66 66 66 67 67 68
79 79 79 80 80 80 80 81 82 82 83 83 82 82 82 81 80 80 80 78 78 76 76 77 76 74 73 73 73 73 71 71 71 71 72 71 70 70 69 70 71 68 69 67 68 68 67 68 68 68 68 68 68 68 67 66 67 67 66 66 66 66 66
79 79 79 80 81 82 81 81 82 83 83 82 81 81 81 81 80 80 79 79 79 78 78 78 76 74 73 73 73 73 72 71 71 72 71 71 69 70 70 70 70 69 67 68 68 67 68 68 69 68 67 67 67 67 67 67 67 67 66 67 66 66 67
80 80 80 81 82 83 82 81 81 81 81 80 80 80 81 80 80 79 79 79 78 78 78 79 77 76 74 73 73 73 73 72 71 71 70 70 69 71 71 71 70 69 69 68 69 68 69 69 69 68 67 67 67 67 67 67 67 67 66 66 66 66 66
77 77 79 81 83 83 82 81 81 80 79 79 79 79 79 80 80 80 79 79 79 78 79 79 78 76 75 74 73 73 72 72 71 71 72 71 70 71 72 72 70 69 69 69 69 69 69 69 68 68 67 67 67 67 67 67 66 66 66 67 67 67 66
77 78 77 78 79 80 80 79 77 78 79 79 79 79 79 79 79 79 78 79 79 79 79 79 78 76 75 74 74 73 72 72 72 72 72 72 71 72 72 73 72 70 70 70 69 69 69 69 68 68 67 68 68 68 67 67 67 66 66 67 67 67 67
76 75 74 76 77 77 77 78 78 78 78 78 79 79 79 79 79 79 79 79 80 79 79 78 78 77 76 75 73 72 72 72 72 72 72 72 72 72 72 73 72 70 71 70 70 70 69 69 68 68 67 67 67 67 66 66 66 66 67 67 67 67 67
75 75 75 76 76 77 77 75 76 77 78 79 79 79 79 79 79 79 78 78 80 79 79 78 77 76 75 74 73 72 73 72 72 72 72 72 71 72 72 73 73 72 71 71 70 70 68 67 66 66 66 66 65 66 66 65 65 65 65 65 66 66 66
77 75 76 75 75 74 75 76 76 76 77 78 78 79 79 79 79 79 78 78 79 80 79 79 77 76 75 74 73 73 73 72 72 72 72 73 72 72 72 72 71 70 70 70 69 70 69 68 67 66 66 65 65 66 66 64 64 63 64 65 65 66 66
74 75 75 75 74 74 75 75 75 76 77 78 78 78 78 78 78 78 78 79 79 79 79 78 77 76 75 72 71 70 70 71 73 73 73 73 72 72 72 71 70 69 70 70 70 70 69 68 67 66 65 64 65 66 66 67 67 67 66 65 65 65 66
74 74 75 75 75 75 75 76 76 75 76 76 77 77 77 77 77 78 78 77 77 77 76 74 74 73 72 69 68 68 71 71 72 72 72 72 72 72 72 71 70 69 69 69 69 69 69 67 67 67 67 67 66 65 67 68 68 69 70 69 68 66 66
74 74 74 75 75 75 75 75 76 75 75 75 76 77 77 77 76 74 74 74 75 75 73 73 71 70 71 68 68 69 71 71 71 71 70 71 72 72 71 71 71 69 69 69 68 68 68 68 67 68 68 67 67 67 67 68 69 69 66 67 69 68 66
70 69 70 72 72 72 71 71 71 72 73 75 76 76 76 74 72 72 72 74 75 76 75 73 71 71 70 68 69 70 70 70 70 69 68 70 71 72 71 71 70 69 68 68 67 67 67 67 67 68 68 68 67 67 67 68 69 66 65 66 66 68 67
69 69 69 70 72 73 73 75 75 75 75 76 76 75 75 74 72 71 72 74 75 71 69 69 71 72 70 70 69 70 70 69 68 67 68 70 71 71 70 69 69 69 68 68 68 68 67 67 67 67 67 67 67 68 68 68 67 65 64 64 64 65 66
71 72 73 73 73 73 73 73 73 75 75 74 73 75 74 74 74 73 73 72 68 68 70 71 70 70 69 68 69 69 69 68 68 67 69 70 71 71 70 69 69 70 70 69 68 68 67 67 67 67 67 67 67 67 68 67 66 64 63 62 63 64 64
71 72 73 73 71 71 70 71 71 70 70 70 71 70 70 68 68 69 68 68 67 68 67 68 67 67 67 67 68 68 68 68 67 68 69 71 71 70 70 70 69 69 69 69 69 68 67 67 67 67 68 67 67 67 68 69 65 62 61 59 59 60 63
72 71 72 71 69 68 68 69 70 70 68 70 70 69 69 68 69 68 66 67 67 67 67 67 67 67 67 67 67 67 67 68 68 69 70 70 70 70 70 69 69 69 69 69 68 68 68 67 67 67 67 67 67 68 67 65 59 61 60 59 58 59 62
75 72 69 68 70 70 69 70 69 68 68 68 68 68 68 68 68 67 67 67 67 67 67 67 67 67 67 67 67 67 68 69 70 70 70 70 69 69 70 69 68 69 69 68 68 67 67 67 67 67 67 67 66 64 64 62 59 58 58 58 57 58 60
74 72 72 70 68 69 69 69 68 68 68 67 67 67 67 67 67 67 66 67 67 67 66 67 67 67 67 67 69 69 69 70 71 71 71 70 70 70 70 71 70 70 69 68 68 67 68 67 66 66 65 65 65 65 62 61 60 57 54 56 56 59 59
75 73 70 71 70 69 68 68 68 67 67 66 65 66 67 67 67 66 66 67 67 67 66 67 67 67 68 69 70 70 70 71 72 72 72 71 72 72 71 71 70 70 69 69 69 68 67 67 66 64 63 64 64 69 63 60 60 57 55 55 55 58 58
69 68 68 69 70 70 69 68 67 66 65 66 65 66 66 67 67 67 66 67 67 67 67 68 69 70 70 71 71 71 72 73 72 72 73 72 72 72 71 71 70 69 69 68 68 67 65 66 64 63 62 62 62 63 61 60 61 60 55 55 54 55 57
72 71 69 69 69 71 68 68 67 66 66 65 66 66 66 67 66 66 66 67 67 67 68 70 70 70 70 70 71 71 72 73 73 73 73 73 73 72 71 70 70 69 68 67 66 63 63 63 63 63 61 60 61 61 60 61 60 59 54 50 52 53 55
69 69 69 69 70 69 68 67 65 65 64 65 66 67 67 66 66 66 66 66 67 69 70 70 70 70 69 69 70 71 72 72 73 73 73 73 71 68 66 66 67 67 67 65 64 62 61 61 62 62 60 60 60 60 57 62 64 58 54 52 50 51 52
67 67 66 66 66 67 68 65 64 64 64 66 67 67 67 67 66 66 67 66 68 69 69 69 70 69 69 69 70 70 71 72 73 73 72 71 69 67 65 65 65 64 64 63 61 61 61 61 62 61 58 58 56 56 58 58 62 59 55 51 49 49 51
68 67 67 68 68 67 67 65 64 64 65 67 67 66 67 68 66 67 66 67 69 68 68 68 68 68 68 69 69 68 66 66 67 66 65 65 65 64 64 62 62 62 62 61 60 60 60 60 61 59 59 58 55 55 58 58 58 58 59 55 50 49 49
68 67 67 67 67 68 67 66 64 64 65 65 66 66 67 68 67 67 66 66 66 66 67 67 67 67 67 65 64 64 64 65 65 66 65 65 65 64 64 62 62 60 60 61 61 60 60 60 60 60 58 56 56 55 56 58 57 57 58 58 56 54 51
66 66 67 66 66 67 66 66 66 65 64 64 65 66 66 66 67 66 67 67 66 66 66 66 65 65 64 65 65 64 65 65 64 65 65 65 66 66 64 63 61 60 59 60 59 59 60 59 59 58 57 56 57 56 57 56 53 52 53 58 57 55 53
65 66 66 66 66 67 66 66 66 65 65 64 65 66 67 67 68 68 67 66 67 66 66 65 64 64 63 63 63 64 65 65 63 63 63 62 62 62 63 61 60 62 61 60 59 59 59 60 60 59 57 57 56 57 58 55 52 50 50 50 50 51 53
65 65 66 66 67 67 66 66 65 65 65 64 65 66 67 67 67 68 68 68 68 66 66 65 65 64 64 65 64 63 63 63 68 65 62 60 60 60 59 59 60 61 60 59 59 59 58 59 59 58 58 56 55 56 58 54 51 51 50 49 49 49 49
63 64 64 66 66 66 66 66 66 65 65 65 66 67 65 66 70 71 68 68 67 66 65 64 66 66 64 64 64 64 66 65 65 62 59 54 51 49 49 51 55 55 51 51 50 55 59 58 57 56 54 54 53 56 58 54 52 53 52 50 49 47 48
63 64 64 65 66 66 66 66 66 66 65 64 65 66 66 66 67 68 69 68 68 67 65 66 66 65 65 65 65 66 65 64 63 61 58 55 53 52 51 48 42 46 53 53 52 48 46 51 55 55 53 51 50 52 53 52 52 47 42 41 40 40 41
63 63 64 65 66 66 66 66 67 66 65 64 65 65 66 65 65 65 66 66 66 66 66 67 66 65 65 65 66 66 65 64 62 61 57 56 54 54 52 50 49 41 41 46 46 44 42 43 46 49 51 54 51 50 49 48 44 42 41 40 40 40 39
65 65 65 65 67 66 66 66 66 66 65 64 64 64 64 64 65 64 66 66 65 67 67 67 67 66 65 65 64 66 65 63 64 61 58 56 56 55 54 53 51 50 44 41 41 41 40 41 43 44 45 47 50 50 50 45 43 42 41 41 41 40 40

ECMWFFLT1_sfc_temp_015.txt.gz
Temp
78 77 77 77 77 77 76 76 77 76 76 76 76 76 76 76 76 76 75 75 75 75 74 74 73 73 73 72 72 71 71 70 70 69 68 67 68 67 66 66 67 67 65 66 67 67 68 69 68 68 68 68 67 67 66 68 67 69 67 66 66 66 65
76 76 77 77 77 77 77 77 77 77 77 77 76 76 77 76 76 76 76 75 75 75 75 74 74 73 73 73 72 70 70 70 70 71 69 68 70 67 68 67 67 66 66 67 66 67 68 68 68 67 67 67 67 66 66 66 67 67 67 66 65 65 64
76 76 76 76 76 77 76 76 77 77 77 78 77 77 77 77 77 77 76 76 75 75 76 74 74 74 73 73 71 70 70 69 69 69 68 69 68 67 67 67 67 67 67 67 67 67 68 68 66 66 66 67 67 66 66 65 66 66 65 65 65 66 64
76 76 76 77 77 78 77 77 77 78 79 79 78 78 78 77 78 78 77 77 76 76 75 75 75 74 73 72 72 70 69 69 70 70 69 69 68 67 67 66 67 67 67 66 68 68 69 67 66 65 69 66 66 65 65 65 65 65 66 65 65 65 65
76 77 77 76 76 76 76 76 77 77 78 79 79 79 79 79 78 78 78 77 77 76 76 76 76 75 74 73 73 71 71 70 70 70 69 69 69 67 68 67 66 67 68 68 66 68 67 66 65 66 66 66 65 65 65 65 65 65 65 64 65 65 65
76 75 75 76 77 77 77 77 78 79 79 79 79 78 79 79 79 78 78 77 77 77 77 75 75 75 74 74 73 71 70 70 70 70 69 69 68 67 68 68 67 67 67 67 68 67 67 66 66 66 66 66 66 66 65 65 65 65 64 63 64 65 65
76 76 76 77 77 77 77 78 78 79 80 80 80 80 80 80 79 79 79 77 77 76 76 75 75 75 74 73 72 72 71 70 69 69 69 69 68 68 68 68 69 67 68 67 67 67 66 66 66 66 66 66 67 66 66 65 65 65 64 63 64 64 64
77 77 77 78 78 79 78 78 78 79 80 79 79 79 79 80 79 79 78 79 78 78 77 76 75 75 74 73 72 72 72 71 71 70 69 69 68 69 68 68 68 68 67 67 67 66 67 66 67 67 66 66 66 66 66 65 65 65 64 64 64 64 65
78 79 79 79 79 79 79 78 78 78 78 78 78 78 79 79 79 79 79 79 78 77 77 78 77 76 74 73 72 72 72 72 70 70 69 69 68 69 69 69 68 68 68 67 67 66 67 67 66 66 65 65 66 65 65 65 65 65 64 64 65 65 65
77 77 78 80 81 80 79 78 77 76 76 77 77 77 78 78 79 79 79 79 79 78 78 78 77 76 74 72 72 73 72 70 69 70 70 70 69 70 70 70 69 68 68 68 67 66 67 66 66 66 65 65 65 65 65 65 65 65 64 65 65 65 65
77 77 78 77 76 76 75 74 74 75 76 76 77 78 78 78 78 78 78 79 79 79 79 78 77 76 74 73 72 70 69 68 68 69 69 70 70 71 71 71 71 69 69 68 67 67 66 66 66 65 65 66 66 66 65 66 66 65 65 65 65 65 65
76 76 76 76 76 73 73 75 75 75 76 76 77 78 77 78 78 78 79 79 80 79 78 78 78 76 74 73 71 68 68 68 70 70 71 71 71 71 72 72 71 70 70 69 69 67 67 66 66 67 66 66 66 66 66 66 65 65 65 65 65 64 64
75 75 76 76 75 75 75 73 73 75 75 77 77 78 78 78 78 78 78 78 79 79 78 77 77 75 73 72 69 67 68 69 70 69 71 71 71 71 72 72 72 72 70 70 70 69 68 67 66 67 67 67 66 66 65 65 65 64 64 64 64 64 64
77 75 75 75 74 73 73 74 74 74 75 76 77 77 78 78 79 78 78 78 78 79 78 78 75 72 71 68 67 67 67 68 68 70 69 70 70 70 71 71 71 70 70 70 69 69 69 68 67 68 67 67 66 66 65 65 64 63 63 64 64 64 64
72 73 74 74 73 73 73 73 73 74 74 75 76 76 77 77 77 77 77 78 77 78 77 75 72 70 68 68 67 67 69 68 69 69 69 70 70 70 70 69 70 70 70 70 70 70 70 69 68 67 66 65 65 65 65 65 65 65 65 65 64 63 64
72 73 74 74 73 72 72 74 74 73 74 73 75 75 76 76 76 77 77 77 77 77 76 72 70 68 68 68 67 68 69 68 69 69 68 68 68 69 69 69 69 70 69 69 70 69 69 68 68 69 68 67 66 65 65 65 66 68 68 68 67 64 64
72 73 73 72 70 71 71 71 70 71 69 70 72 74 75 76 77 76 77 76 75 75 73 71 68 68 68 68 68 69 68 68 68 68 68 69 69 69 69 69 70 70 69 69 69 69 69 69 68 68 68 68 68 66 66 66 67 68 65 66 68 68 65
71 70 69 69 68 68 68 69 69 69 69 70 71 72 73 73 73 73 74 75 74 73 72 70 69 68 68 68 68 68 68 67 68 68 68 68 68 69 68 69 69 69 69 69 69 68 69 68 68 68 67 67 67 67 67 67 68 65 64 65 65 67 67
69 66 68 66 67 68 68 69 69 69 69 70 72 72 73 73 72 71 71 71 70 70 69 68 68 68 68 68 68 68 68 68 68 68 67 67 69 70 69 68 68 68 68 68 69 68 67 67 67 67 67 67 67 67 67 67 67 64 64 64 64 64 65
66 67 66 66 68 70 71 71 71 72 71 71 71 73 73 73 72 70 70 70 69 69 68 68 67 68 68 68 68 68 68 67 68 67 67 68 68 68 66 66 67 68 70 70 69 68 67 67 67 67 66 67 66 67 67 66 66 63 62 61 61 62 63
66 67 68 67 66 67 67 68 68 68 68 69 71 70 70 70 69 67 68 69 69 68 68 68 67 66 67 67 67 67 67 67 67 67 67 68 67 66 65 66 67 69 69 69 69 68 67 67 67 67 67 67 67 66 67 68 65 62 61 60 59 60 62
69 68 70 69 69 66 66 68 69 69 68 68 69 69 70 68 68 68 67 68 68 68 68 68 67 66 66 66 67 67 67 66 67 67 68 67 66 66 66 67 68 68 69 69 68 68 68 67 67 67 67 67 66 66 66 67 63 62 61 59 57 59 61
73 72 72 69 69 70 68 69 69 68 67 67 68 68 68 68 68 67 66 66 67 67 67 67 66 66 66 66 67 67 67 67 67 66 66 66 66 66 67 67 68 69 69 68 67 67 66 67 67 67 67 67 66 64 64 64 61 58 57 57 57 60 59
69 67 66 66 65 66 66 66 67 67 68 66 66 67 67 67 66 66 65 65 66 66 66 66 66 66 67 66 67 67 68 68 68 67 66 67 67 67 67 68 69 69 69 68 68 67 67 67 66 66 66 66 65 64 63 64 61 56 55 55 56 59 59
69 69 68 68 69 68 66 66 67 67 66 65 65 64 66 66 66 65 65 65 66 66 66 66 66 66 67 67 67 68 68 68 67 67 67 67 67 68 68 68 68 69 68 68 67 67 66 66 65 64 63 64 65 68 65 61 60 56 55 55 55 58 58
67 68 68 68 68 67 67 66 67 65 65 65 65 65 65 65 66 65 65 65 66 65 65 66 67 68 69 69 69 69 69 68 68 67 68 68 68 68 68 68 68 66 66 66 67 66 64 64 64 63 61 62 63 65 62 60 60 58 53 54 53 55 57
67 68 68 67 67 69 65 65 66 66 65 64 64 65 65 66 65 65 65 65 65 65 67 68 68 68 68 68 69 69 68 67 67 67 68 68 67 67 67 65 64 64 64 65 64 64 63 61 62 62 61 60 61 61 60 60 59 59 52 51 52 53 56
66 66 67 67 68 65 63 64 63 63 63 63 64 65 66 65 65 65 65 65 64 66 67 67 67 67 67 67 68 69 68 68 68 69 68 67 68 65 63 63 64 64 64 63 62 62 60 61 61 61 60 59 59 59 57 61 63 57 52 51 50 51 52
63 63 64 64 64 65 65 62 62 63 62 64 65 65 65 65 65 64 64 63 63 65 66 66 66 66 66 66 67 68 68 67 68 68 68 67 67 65 63 63 63 63 63 62 61 61 60 60 60 60 60 59 57 57 58 58 61 58 55 50 48 48 49
63 64 65 66 66 65 64 62 62 63 63 65 64 64 64 64 63 64 63 62 63 65 66 66 65 65 66 66 65 65 65 66 66 65 66 66 65 65 65 63 62 62 62 61 60 59 59 58 59 60 59 59 58 57 59 59 59 57 56 53 49 47 46
64 65 65 64 65 66 65 63 63 63 62 63 63 63 63 63 64 65 63 62 64 64 65 65 65 64 63 63 63 64 63 64 64 65 65 65 66 65 64 62 61 60 60 60 60 59 58 57 59 59 58 58 58 56 58 58 56 55 57 55 53 51 50
65 65 66 65 64 64 64 63 62 61 62 62 63 63 64 63 64 64 63 63 64 63 64 64 63 63 62 62 63 63 64 65 66 66 65 65 64 65 64 63 61 61 59 60 60 58 57 58 58 58 58 57 56 56 58 57 55 53 53 58 57 54 52
64 64 64 64 64 65 63 62 62 62 62 62 62 64 65 64 64 64 64 64 64 64 64 64 64 64 63 64 64 64 64 64 63 64 63 63 63 63 62 61 61 62 61 60 59 58 58 60 59 59 57 57 56 57 58 56 52 50 49 48 48 50 50
64 64 64 64 64 65 62 63 62 62 62 61 62 64 64 65 64 64 64 64 65 64 64 63 63 62 62 62 62 62 62 62 67 64 60 60 60 60 60 60 61 62 61 60 60 58 58 59 59 58 58 57 56 57 58 55 51 49 48 47 48 49 49
63 63 62 63 64 64 63 62 62 62 62 62 63 64 64 65 66 66 64 64 64 64 64 64 65 63 62 62 63 63 65 63 63 62 60 55 52 49 49 51 54 55 52 50 51 55 59 60 58 58 58 57 56 57 57 56 54 55 50 49 50 47 48
62 62 63 63 64 63 63 63 62 63 62 62 63 64 65 65 65 65 67 66 65 65 64 64 64 63 62 62 62 63 64 63 62 60 58 55 53 51 50 47 42 45 51 51 52 48 46 52 56 56 54 51 49 52 55 55 53 45 42 41 41 41 42
63 62 63 63 63 63 63 63 64 63 63 62 64 64 64 64 65 65 65 64 65 65 64 63 62 62 62 64 64 64 63 61 59 58 55 54 53 52 51 50 48 41 41 45 46 44 42 44 46 49 52 55 49 48 48 48 43 41 41 40 40 40 40
62 63 64 64 64 63 63 63 63 63 62 63 63 64 64 64 64 63 63 63 64 64 62 63 63 62 62 63 62 63 63 60 60 58 55 53 52 52 52 51 50 49 44 41 41 42 41 41 42 43 46 49 50 48 47 44 41 41 40 40 40 39 39

ECMWFFLT1_sfc_temp_021.txt.gz
Temp
86 86 85 84 84 84 84 83 83 83 82 82 82 83 83 83 82 82 82 81 80 81 81 81 80 81 81 81 81 81 82 82 81 81 80 80 81 79 79 79 79 79 80 79 80 80 80 81 80 80 80 80 80 80 80 80 79 80 79 79 78 78 78
85 85 85 85 84 84 84 84 84 84 83 83 83 82 84 82 82 82 82 81 81 81 81 81 80 81 81 81 81 81 81 81 81 81 80 80 80 79 80 78 79 78 79 80 80 80 80 80 80 80 80 80 80 80 80 80 79 79 79 79 78 77 78
85 85 85 85 85 85 83 84 84 84 84 85 84 84 83 82 82 82 82 82 81 81 82 81 81 81 81 81 81 81 81 81 80 80 79 80 79 80 79 79 79 79 79 80 79 79 80 80 79 79 80 79 80 79 80 80 79 79 79 79 78 78 77
83 84 85 85 84 84 84 84 84 85 86 86 85 85 83 82 83 83 83 83 82 81 81 81 81 81 81 81 81 81 80 80 80 80 80 80 79 79 78 78 78 79 78 79 79 80 80 80 79 78 78 79 79 80 80 80 80 79 79 78 78 78 78
84 85 85 84 84 84 84 84 84 84 85 87 86 84 84 84 84 84 84 84 84 82 83 83 83 82 82 82 82 81 80 80 80 80 80 80 80 79 78 78 78 79 79 79 78 78 78 78 79 79 78 79 80 79 79 79 79 79 78 78 77 77 78
84 83 83 84 85 85 85 85 86 87 86 86 85 84 85 86 86 86 85 83 83 84 83 83 82 81 81 82 82 81 81 80 80 79 79 79 79 78 78 78 78 79 79 78 78 78 78 78 78 78 78 79 80 80 80 79 79 79 78 77 77 78 78
83 83 83 84 84 85 85 86 87 87 87 87 87 87 87 88 87 87 87 85 85 83 83 83 83 82 82 82 81 81 79 79 79 79 80 79 79 78 78 78 78 79 79 77 76 77 76 76 76 76 76 77 77 78 77 77 77 77 77 77 77 77 77
84 83 83 84 86 87 87 86 86 87 87 87 87 87 87 87 87 87 86 87 86 87 86 85 84 82 82 82 82 81 80 80 80 79 79 79 78 78 79 78 78 78 78 77 77 76 75 74 75 75 75 75 74 75 76 76 76 77 77 76 76 77 78
85 83 84 86 87 88 88 86 85 85 84 84 84 84 85 86 86 86 87 87 87 86 86 88 86 84 82 82 81 80 80 79 79 78 78 78 78 79 79 79 78 78 77 77 76 75 74 73 74 74 74 73 73 73 74 75 75 76 76 76 76 76 77
82 82 83 85 87 88 86 85 84 83 82 82 82 83 84 85 85 86 86 87 88 87 87 87 87 86 83 82 81 81 79 78 78 79 80 79 79 80 80 80 78 77 77 76 73 71 72 75 74 73 72 72 72 72 73 74 75 75 76 76 76 76 76
82 81 81 83 83 84 84 84 82 81 81 81 81 83 83 83 84 85 85 87 87 87 88 87 87 86 84 83 82 80 78 78 78 78 79 79 80 81 81 80 80 77 76 74 72 71 72 73 74 73 72 71 71 72 73 74 75 74 76 76 76 76 76
80 80 80 81 82 82 82 81 81 81 81 81 82 83 82 82 84 85 85 85 87 87 87 87 87 86 84 84 81 79 78 78 78 79 79 79 79 80 80 79 77 77 76 75 73 72 73 73 72 72 70 71 72 73 74 74 74 75 75 77 76 75 75
81 80 80 81 80 81 81 80 80 80 80 82 83 83 83 83 84 85 83 84 86 87 87 86 85 84 84 83 82 78 78 78 78 78 79 78 78 78 79 79 77 77 76 75 73 72 72 73 72 71 71 72 73 73 73 73 74 75 75 75 75 75 74
79 81 81 80 80 80 79 79 79 79 80 81 82 83 83 84 84 84 83 84 85 87 87 86 84 83 82 82 80 78 78 78 78 78 78 78 76 76 76 75 74 74 74 73 72 72 73 73 72 71 72 73 74 74 74 74 74 75 75 75 75 74 74
80 81 80 80 79 79 79 79 79 79 80 81 82 82 82 83 83 83 83 85 84 86 86 85 83 82 82 80 79 78 79 78 78 78 77 76 74 75 74 73 74 74 73 71 69 71 72 72 73 72 72 73 73 74 74 74 74 75 75 74 74 74 74
81 81 81 80 80 80 79 80 79 79 80 80 81 81 82 82 82 83 83 83 85 84 85 84 82 81 81 79 79 79 79 78 78 77 76 74 73 72 71 71 72 71 71 69 68 69 69 72 73 75 74 73 72 73 73 73 74 71 67 69 75 76 76
81 81 82 81 80 80 80 80 80 79 79 79 80 81 81 81 82 82 85 84 84 83 85 84 82 81 80 79 79 79 78 78 77 76 75 75 74 72 71 70 69 69 69 68 68 69 70 71 72 73 73 73 72 72 72 74 74 68 65 65 67 74 77
80 80 81 81 80 79 78 79 79 79 79 80 80 81 81 81 82 82 82 83 83 85 85 83 82 81 79 80 79 78 78 78 77 76 75 75 74 73 70 69 69 69 69 67 67 68 69 69 70 71 72 73 73 73 73 74 69 65 64 64 64 67 76
81 81 81 79 79 78 79 81 80 79 81 81 81 81 82 82 82 81 81 81 82 83 83 81 81 80 79 79 78 78 78 78 77 75 75 74 74 73 71 69 69 69 67 66 68 69 69 70 71 71 72 73 73 74 75 77 69 64 63 63 63 64 69
82 82 82 82 81 81 80 81 81 81 81 80 81 83 82 82 82 82 83 82 82 81 81 80 80 80 79 78 78 78 77 77 77 75 75 74 73 71 71 69 68 67 66 66 67 69 70 71 71 72 72 72 73 74 77 77 70 64 62 62 62 63 66
79 80 80 80 80 81 79 80 80 80 79 81 82 82 82 82 83 83 82 82 81 81 80 80 80 79 79 78 77 77 77 77 76 75 74 74 72 70 71 69 67 67 68 69 69 71 71 72 72 73 74 75 76 76 76 78 67 63 62 60 60 60 65
81 83 81 81 79 78 78 80 80 81 80 82 83 83 84 83 84 84 81 81 81 80 79 79 79 78 78 77 76 76 76 76 76 75 74 73 71 69 68 68 67 67 68 71 73 74 75 74 75 74 75 75 77 77 76 80 66 63 61 59 59 60 72
86 84 82 80 83 81 80 82 82 83 81 81 82 82 83 84 83 82 80 79 80 79 78 78 78 78 77 76 76 76 76 76 76 74 73 73 71 70 68 67 67 69 71 71 73 74 74 75 75 75 76 76 76 75 76 78 69 60 59 58 58 63 74
83 83 83 83 81 81 80 81 81 81 82 81 80 80 80 80 81 80 78 78 78 78 77 77 77 77 76 76 76 76 76 76 75 73 73 72 72 71 69 69 71 72 73 72 73 74 75 76 75 76 77 77 77 78 77 79 69 58 57 57 56 65 74
83 82 81 81 81 80 79 78 78 79 78 78 76 75 77 78 79 79 77 77 77 77 77 76 77 77 76 76 76 76 76 76 75 74 73 72 72 71 70 70 71 73 74 74 75 75 75 76 76 77 77 79 79 72 76 79 70 55 57 56 56 64 73
76 77 77 77 78 77 75 76 76 76 76 75 73 74 76 77 78 77 76 76 77 77 77 76 77 77 77 77 76 76 76 75 74 73 73 73 71 70 71 72 73 74 74 75 76 76 76 76 76 76 77 79 78 78 78 76 76 66 55 55 54 59 70
77 78 78 78 76 76 76 76 76 75 74 73 73 75 76 77 77 75 74 75 75 75 76 77 76 76 76 76 76 76 75 75 74 73 74 73 70 69 71 73 74 74 74 75 76 75 74 74 75 75 75 76 77 76 77 77 73 64 54 53 54 56 62
77 77 78 76 74 75 75 75 72 72 72 72 74 75 76 76 74 73 74 74 74 75 76 76 76 76 76 76 76 75 75 74 74 74 74 72 69 68 69 73 75 75 74 74 74 73 73 73 73 73 74 74 74 74 73 68 66 67 55 53 52 53 56
75 75 75 74 74 75 76 73 72 72 72 75 75 75 76 76 73 73 73 74 74 75 75 75 75 75 76 75 75 74 75 75 74 74 72 70 68 69 69 72 73 73 73 72 72 72 72 72 72 72 71 72 72 70 68 67 66 60 59 52 50 50 53
75 75 75 76 75 75 75 71 71 70 71 73 73 74 75 75 73 73 74 73 74 75 75 75 75 76 75 74 74 73 74 74 74 73 72 70 69 70 71 71 72 72 72 72 72 72 72 71 72 72 72 72 69 66 66 66 65 59 57 56 50 49 49
73 74 74 74 74 74 76 74 71 71 71 71 72 73 74 76 75 73 73 73 74 74 74 74 74 75 74 74 74 73 74 73 73 73 73 72 72 71 71 72 72 70 71 72 72 72 72 71 72 70 70 70 69 66 66 67 67 65 58 54 50 48 46
74 75 75 74 73 73 74 74 74 72 70 70 72 73 73 75 76 75 73 73 74 74 74 74 73 74 74 74 74 73 73 72 72 72 73 73 73 73 73 72 72 71 71 72 73 72 72 71 71 71 70 67 66 65 67 67 65 65 62 58 55 54 50
73 73 74 73 72 73 74 74 74 73 73 71 72 74 76 75 76 76 74 73 75 75 74 73 72 71 72 72 72 73 73 72 71 71 72 73 74 74 73 72 72 72 71 72 72 71 71 72 69 67 66 67 67 68 68 66 64 66 68 67 66 66 61
73 73 72 72 72 73 74 74 74 73 73 72 72 74 75 75 75 75 75 76 77 76 73 72 72 72 72 73 72 72 72 72 71 71 73 73 73 73 73 72 73 72 72 72 70 70 70 70 69 69 70 71 72 71 69 66 65 67 69 68 68 68 67
71 71 72 72 71 72 73 72 72 71 72 72 72 73 73 74 76 78 75 75 76 74 73 72 71 73 73 73 73 72 72 73 72 72 72 72 69 64 60 63 67 69 71 69 73 73 74 72 69 71 73 75 73 72 70 70 68 70 62 68 60 66 70
71 72 72 72 72 72 71 71 72 71 71 71 72 73 73 74 74 75 78 76 75 74 73 71 71 72 71 72 72 74 74 73 74 73 71 71 67 64 57 48 43 48 61 67 56 50 46 50 69 72 77 76 75 73 73 75 74 53 47 44 44 44 46
70 71 71 72 72 71 71 71 71 71 70 71 72 72 73 73 74 73 75 74 74 74 73 72 71 72 74 73 75 75 75 74 74 70 69 69 68 68 65 63 55 42 40 43 46 44 42 43 42 45 53 69 74 62 46 48 45 43 43 40 40 40 41
72 71 72 73 73 71 71 70 70 70 70 71 71 72 72 73 73 72 73 72 73 74 73 73 72 73 74 75 75 72 73 75 73 71 70 69 68 67 66 66 64 58 44 40 42 43 40 40 42 45 49 54 59 61 61 47 43 41 41 41 39 40 39

ECMWFFLT1_sfc_temp_024.txt.gz
Temp
97 96 94 94 93 93 92 91 91 91 90 90 90 90 91 90 90 90 89 87 86 86 87 87 86 87 87 87 87 87 88 88 88 87 87 87 88 87 86 87 86 86 87 87 86 86 86 86 86 86 86 85 85 84 84 84 84 84 84 83 82 82 82
96 96 96 95 94 93 93 92 91 92 91 91 90 89 91 90 89 89 88 88 87 87 87 87 86 87 87 87 87 87 87 87 88 88 88 87 88 87 87 86 86 86 86 87 87 87 86 86 86 85 85 85 84 84 84 83 83 83 84 83 82 82 82
96 96 96 95 94 94 92 93 92 92 92 93 92 91 91 89 89 88 88 88 87 87 88 87 87 87 87 87 87 87 87 88 87 87 87 88 87 88 87 87 87 87 87 87 87 87 87 86 86 85 85 84 85 84 84 83 83 83 83 83 82 82 81
94 95 96 95 94 93 93 93 92 93 94 94 93 93 91 89 90 89 89 89 88 87 86 87 88 87 88 87 87 87 87 87 87 88 88 88 87 87 87 87 86 87 87 87 87 87 87 86 85 85 84 84 83 83 83 83 83 82 82 82 82 82 82
95 96 96 95 95 93 93 93 93 92 94 96 94 91 91 91 91 91 90 90 91 88 89 89 90 89 88 88 88 88 87 87 87 88 88 88 88 87 87 87 87 87 86 87 86 85 85 85 85 84 83 83 84 83 82 82 81 80 80 80 79 81 81
95 93 94 95 95 95 94 95 96 96 95 96 94 92 93 94 94 94 92 90 90 91 90 89 89 88 87 88 88 88 88 87 87 87 87 88 87 86 86 86 86 86 86 85 86 85 85 84 84 84 84 84 83 82 82 81 81 81 79 78 78 79 80
95 94 94 94 95 95 95 96 97 97 97 97 96 95 96 96 95 95 95 93 92 89 90 90 90 90 88 89 88 88 87 87 87 87 88 87 87 86 86 86 85 86 87 85 84 85 85 84 83 83 83 82 79 79 79 79 78 78 79 78 78 79 80
97 94 94 95 96 98 98 96 96 97 97 96 97 97 96 96 96 96 95 96 94 95 93 93 91 89 88 89 89 88 88 88 88 88 87 87 86 85 85 85 85 85 85 85 85 84 85 83 82 81 80 80 77 77 77 77 77 79 79 77 77 79 81
98 95 95 97 97 99 99 96 96 95 93 93 93 93 94 95 96 95 96 95 95 94 94 96 95 92 89 89 88 87 88 88 87 87 86 86 86 85 85 87 85 85 85 86 86 84 84 83 82 81 80 79 78 77 76 76 77 77 78 77 77 78 80
95 93 93 96 97 99 97 97 94 92 91 90 91 91 92 93 94 95 95 96 97 95 95 95 96 95 90 89 89 88 87 87 87 87 88 87 86 84 86 88 86 85 85 86 86 83 82 82 81 80 79 79 79 78 77 76 76 76 77 77 77 79 79
94 92 91 93 94 95 95 95 91 89 89 88 89 91 91 91 92 94 94 96 97 96 97 95 95 95 93 90 90 89 87 87 87 87 87 87 87 86 88 90 89 87 86 86 85 84 83 82 82 80 79 78 77 77 77 76 76 75 77 77 78 79 80
90 90 89 90 91 92 92 90 89 88 88 88 89 90 89 89 91 93 93 94 97 97 96 95 96 96 93 93 90 87 86 86 87 87 87 87 87 87 88 89 87 87 87 87 86 84 84 81 80 79 78 77 78 78 77 77 76 75 77 78 79 79 79
91 89 88 90 89 90 90 88 87 87 87 89 90 90 90 90 91 92 91 92 95 96 95 94 94 92 93 93 91 87 86 86 86 87 87 86 86 87 88 89 89 87 86 86 86 85 85 83 80 78 77 76 77 77 78 78 77 76 77 78 79 78 77
88 90 90 89 89 88 87 87 87 86 87 88 89 89 90 91 91 91 90 91 93 95 96 96 93 92 91 91 89 88 86 86 87 87 87 87 85 86 87 88 86 85 85 85 85 85 84 83 80 78 77 76 77 78 78 78 77 76 76 78 79 79 79
92 91 90 89 87 87 87 87 86 86 87 87 89 88 89 90 90 90 90 92 91 95 94 93 91 90 90 89 88 87 87 86 87 87 87 86 85 85 85 86 83 81 82 81 82 83 84 83 80 76 75 76 76 77 78 77 76 76 77 77 78 80 80
93 93 92 90 88 89 87 87 87 86 87 87 88 87 89 89 89 90 90 90 92 91 93 92 90 88 89 88 87 88 87 87 86 86 86 84 83 84 84 82 77 78 79 78 80 80 81 80 78 78 76 75 76 76 76 76 76 73 69 72 79 80 79
93 93 93 91 89 89 88 88 87 87 86 86 87 87 88 88 89 89 92 91 91 90 92 92 88 87 87 87 87 87 87 86 86 85 85 84 83 83 82 79 76 76 78 79 79 79 78 78 77 77 77 77 77 76 75 76 76 69 66 67 68 76 78
93 92 93 93 91 90 88 88 87 86 86 88 88 88 88 87 89 89 90 90 90 92 93 91 89 88 87 87 87 87 86 86 85 84 83 83 82 83 82 80 78 77 78 78 77 77 77 75 74 74 76 77 78 77 76 76 70 65 65 65 65 67 75
94 94 93 91 89 88 89 90 89 87 88 89 89 88 89 89 90 88 89 89 89 90 90 89 89 88 87 87 87 86 86 86 85 84 83 82 82 83 81 80 78 77 77 77 78 77 75 75 75 75 77 77 76 77 78 79 68 65 64 64 64 64 69
94 95 95 94 92 91 89 90 90 89 89 89 89 91 90 90 90 89 90 90 89 88 88 88 87 87 87 87 86 86 86 85 85 84 82 82 81 80 79 78 78 77 76 77 77 76 75 74 75 76 76 76 76 76 78 79 70 64 63 63 62 64 67
91 92 92 92 90 91 89 88 89 88 88 90 92 91 90 90 91 90 89 89 88 88 87 87 87 86 87 86 86 86 85 84 84 84 82 80 79 79 78 78 77 76 75 75 75 76 74 73 74 75 75 76 77 76 76 78 67 62 62 61 61 62 66
94 94 92 93 89 89 87 89 89 89 89 90 91 91 91 90 93 92 89 89 88 87 87 87 86 86 86 86 85 85 85 84 84 83 81 79 78 78 77 77 76 75 74 72 73 75 75 75 76 75 75 75 77 78 77 81 67 63 61 60 60 62 73
98 95 94 92 93 91 89 90 90 91 89 89 90 91 91 93 93 91 89 88 88 87 86 86 85 86 85 85 85 85 85 84 84 83 80 79 78 77 76 75 75 74 73 71 71 72 72 73 73 74 76 76 76 77 78 82 70 60 61 60 59 64 76
99 97 96 95 93 91 88 90 91 90 90 90 90 90 90 91 90 88 86 86 86 86 85 85 85 86 85 85 85 84 84 85 85 82 80 79 78 77 76 76 75 74 72 71 71 71 73 73 74 75 75 76 76 81 80 82 72 58 59 59 58 66 77
98 98 95 93 92 90 91 89 89 90 89 89 87 87 88 88 87 87 85 85 85 86 86 85 86 85 85 85 85 84 84 85 84 83 81 79 78 77 77 76 75 74 72 72 72 72 73 73 74 76 78 82 81 76 80 83 76 58 59 57 57 66 77
92 92 92 92 93 91 88 87 86 86 86 86 84 86 86 87 88 87 85 84 87 86 86 85 85 86 86 86 84 84 85 84 83 82 81 80 79 78 78 77 76 75 73 73 73 74 75 76 76 77 79 82 83 84 82 81 82 71 56 56 55 59 76
90 91 91 92 89 83 86 86 86 86 85 84 84 86 87 87 86 85 84 85 85 84 85 85 85 84 84 84 84 84 84 84 83 81 81 81 79 79 79 78 77 75 73 75 76 76 76 76 79 80 79 82 83 83 83 83 82 74 55 55 54 57 65
89 90 90 86 83 85 87 88 84 83 83 83 86 87 87 86 83 82 83 84 83 83 85 83 83 83 82 82 82 83 84 84 83 82 81 80 79 76 76 76 77 76 76 77 76 75 75 76 77 78 78 79 80 80 80 80 74 79 58 55 53 56 60
84 85 84 84 85 86 87 84 83 83 84 88 89 87 86 85 82 82 83 82 81 82 83 83 82 82 82 81 81 81 82 82 80 79 80 79 78 76 74 75 75 76 76 76 75 75 75 76 75 76 77 78 78 79 79 78 74 65 66 52 53 53 57
85 86 87 89 88 86 85 82 83 84 85 86 85 85 86 84 81 81 81 79 81 82 81 81 81 81 81 81 81 80 80 80 80 79 79 78 76 75 75 74 75 76 76 76 75 75 75 76 76 76 77 75 76 76 76 76 75 63 59 56 53 52 53
84 84 85 84 85 84 84 83 80 80 80 81 81 82 83 83 81 80 78 79 81 81 81 81 81 81 79 80 80 79 79 79 79 78 78 77 76 75 75 75 75 74 75 75 75 76 75 75 76 75 76 75 73 73 74 75 73 69 59 56 52 52 51
83 84 85 85 83 82 82 82 82 80 78 79 80 80 81 84 83 79 78 80 80 81 81 80 80 80 80 80 79 78 78 78 78 77 77 76 77 77 77 76 75 75 75 75 75 76 75 75 76 76 76 73 74 73 72 74 73 71 65 59 55 55 52
80 80 80 80 82 83 84 85 85 82 81 79 82 84 85 84 84 81 80 80 82 82 80 80 80 79 80 79 78 77 77 76 77 76 76 76 77 77 77 77 76 75 74 75 76 77 76 76 76 75 75 74 74 73 71 71 73 73 74 71 70 69 61
79 79 80 81 82 83 83 83 82 80 80 79 81 82 84 84 83 83 83 85 85 83 80 79 79 79 79 79 78 77 76 75 75 75 76 75 76 76 76 77 77 76 74 75 76 75 75 75 75 75 76 76 76 72 71 70 72 73 77 76 75 75 72
79 79 80 80 80 81 81 81 80 80 80 80 82 83 83 84 86 86 84 85 83 81 80 78 78 80 80 79 78 75 75 76 75 76 75 74 70 63 61 62 69 70 74 72 73 75 77 77 76 76 78 79 73 70 71 73 73 78 71 76 66 72 78
80 81 80 81 81 81 80 80 80 79 79 79 80 81 81 82 83 85 87 85 83 81 79 78 79 80 80 79 79 79 77 76 77 76 76 75 70 66 60 49 44 50 65 70 56 48 45 53 72 73 77 78 77 72 74 75 79 57 49 48 45 41 43
80 80 81 81 80 79 78 78 78 78 78 78 79 79 80 80 81 82 84 82 81 80 79 79 79 81 83 82 84 80 79 79 78 77 75 74 73 71 68 66 60 43 40 47 48 45 41 43 43 46 51 66 74 59 49 50 47 46 45 43 42 42 43
81 81 82 82 80 78 78 78 78 77 76 77 78 78 79 80 81 80 81 80 80 80 80 79 79 80 82 83 83 78 78 80 78 76 74 73 74 75 72 70 68 64 46 40 43 43 40 40 41 43 47 48 55 65 65 49 43 42 42 42 41 42 41

ECMWFFLT1_sfc_temp_027.txt.gz
Temp
98 99 97 96 97 98 97 95 95 95 93 93 92 93 94 94 92 92 91 90 88 88 89 89 89 89 89 89 90 90 90 90 89 89 89 89 89 89 89 89 88 88 89 88 87 88 88 89 89 89 88 87 86 86 85 85 85 85 85 84 83 83 83
97 98 99 99 98 97 97 96 95 95 94 94 93 92 94 93 92 92 91 90 89 89 89 89 89 89 89 89 90 90 89 89 90 89 90 89 89 89 90 89 88 88 88 88 89 88 88 89 88 88 87 87 86 86 85 85 84 84 84 83 83 82 82
101 99 100 99 99 98 96 97 96 96 95 95 95 94 93 92 92 91 91 91 89 89 90 89 89 89 90 90 90 89 90 90 90 90 89 90 90 91 90 90 89 89 89 89 89 88 89 88 88 87 87 86 86 85 85 85 84 84 84 83 82 82 81
100 99 100 100 99 97 97 97 96 97 98 97 96 95 93 92 93 92 92 92 90 89 89 90 90 90 90 89 89 89 89 90 90 90 91 91 90 90 89 89 89 89 88 88 89 89 89 88 87 87 86 86 85 85 85 85 84 83 82 82 80 80 80
99 100 99 100 99 98 97 97 96 95 98 99 97 94 94 94 94 94 94 93 93 90 91 91 93 91 91 91 91 90 90 90 90 91 91 91 91 90 89 90 89 90 89 90 89 88 87 87 87 86 86 85 85 84 84 84 84 83 82 81 79 79 80
100 99 99 100 100 99 98 99 99 99 99 99 97 96 96 97 97 97 95 93 93 93 92 92 91 91 90 91 91 91 90 90 90 90 90 90 90 90 90 89 90 90 90 89 90 88 88 87 87 86 86 86 85 84 83 83 83 83 82 81 80 79 79
100 99 98 99 99 99 99 99 100 100 100 101 100 98 98 98 97 98 97 96 95 92 93 93 93 92 91 91 90 90 90 90 90 90 91 91 91 90 89 89 90 90 90 89 88 88 87 86 86 85 85 85 84 84 82 82 81 82 81 80 79 78 78
102 100 99 100 102 103 102 99 100 101 100 100 101 99 99 99 99 99 98 98 97 98 96 96 93 92 91 91 91 91 91 91 91 91 91 90 90 89 90 90 89 89 89 88 88 88 88 86 86 85 84 85 84 83 83 82 81 83 81 80 79 79 79
105 101 100 102 102 104 103 100 100 99 97 98 98 96 98 99 99 99 99 99 98 97 97 99 97 95 91 91 90 90 91 91 91 91 90 90 91 92 92 91 90 89 88 89 89 87 87 86 86 84 83 83 83 82 82 81 81 81 81 79 78 78 78
102 100 99 101 102 103 102 101 99 96 96 95 95 95 96 98 98 99 100 100 100 99 98 98 98 97 93 91 91 91 91 90 91 91 92 92 91 92 92 92 90 89 89 89 89 87 86 86 86 84 82 82 82 81 81 80 80 80 80 79 78 77 77
102 100 98 99 99 100 100 100 97 94 94 93 94 96 95 96 97 99 98 100 101 100 100 99 98 97 95 93 93 92 90 90 91 91 91 92 93 93 93 92 92 90 90 89 89 87 87 86 86 83 82 82 82 81 80 81 80 79 80 79 77 77 77
98 98 94 96 96 98 98 96 95 94 93 92 94 96 94 94 97 98 98 99 102 101 100 99 100 99 96 95 93 90 89 90 91 92 91 91 93 94 93 93 91 92 90 90 90 88 88 86 85 83 82 82 82 81 80 81 80 79 79 80 78 77 77
98 95 94 96 95 96 95 94 94 93 93 94 96 95 95 96 96 97 95 97 101 101 100 98 98 96 96 95 94 90 89 90 90 91 92 91 91 93 93 93 94 94 91 91 91 90 88 88 85 84 83 82 83 82 81 81 81 79 79 79 78 77 77
93 95 95 94 94 94 93 93 93 92 92 93 94 94 95 95 96 96 95 96 99 101 101 100 97 96 95 94 92 90 89 90 90 91 91 91 90 91 91 92 91 91 90 90 90 90 89 88 86 85 84 83 83 82 82 81 80 79 79 78 78 78 77
97 96 94 94 92 92 92 92 91 91 91 92 93 93 93 94 94 94 95 96 96 101 100 98 96 95 95 93 91 90 90 90 90 90 90 90 90 89 90 90 90 90 90 88 89 90 90 89 87 84 83 83 82 82 82 80 80 80 79 78 79 79 79
100 100 97 94 93 93 92 92 91 90 90 90 91 91 93 92 92 94 94 95 97 97 99 96 94 93 93 92 91 91 90 90 90 89 89 89 88 88 88 88 88 89 89 88 89 89 88 87 86 86 84 83 82 82 81 81 81 76 72 75 79 79 79
102 101 102 98 93 94 93 92 91 90 90 90 90 91 91 91 92 93 97 95 96 95 97 97 92 92 91 91 91 91 90 89 89 89 88 87 88 88 87 87 88 87 87 87 87 87 87 87 86 86 86 84 82 81 80 81 80 69 67 69 73 79 79
101 100 101 101 97 93 92 92 91 90 90 91 92 91 91 91 92 93 94 94 94 97 98 95 93 91 90 91 91 90 90 89 89 88 88 88 87 87 87 86 86 87 86 85 85 85 86 85 85 84 85 83 82 81 81 80 72 65 66 68 67 72 79
101 101 101 97 95 93 94 95 94 91 92 92 92 92 93 93 94 91 93 92 93 94 94 92 92 90 90 90 90 89 89 89 89 88 87 87 87 86 86 85 85 84 84 84 85 85 84 83 84 83 83 81 80 81 81 82 67 64 65 66 66 66 72
102 103 104 103 99 98 95 95 95 94 93 92 93 95 94 93 93 93 94 93 93 92 92 91 90 89 89 89 89 89 89 89 89 87 87 86 86 85 84 84 82 83 83 83 84 83 83 83 81 80 79 79 79 78 80 81 65 64 63 64 63 64 68
100 100 101 101 98 101 96 95 94 94 92 93 95 94 94 94 95 94 93 92 91 91 90 90 90 89 89 89 89 89 89 88 88 86 86 86 85 84 83 83 82 82 82 82 82 82 81 81 80 79 79 79 79 79 80 81 62 63 61 61 61 63 66
103 103 103 103 99 97 95 96 95 95 93 94 95 96 95 94 96 95 92 92 91 91 90 90 89 89 89 88 88 89 89 88 87 87 86 85 84 83 83 83 83 82 81 81 82 82 81 80 79 76 76 77 79 80 77 77 61 62 61 60 61 62 71
106 104 105 102 103 100 96 96 95 96 93 94 95 95 95 96 96 94 92 91 91 89 89 89 88 88 88 88 89 89 89 89 88 87 86 85 84 83 82 82 81 81 81 79 80 81 79 78 77 75 75 73 74 75 74 75 63 60 59 60 60 63 73
108 107 108 106 101 100 95 96 96 95 94 94 94 94 93 95 94 91 89 89 89 89 88 89 88 89 88 89 89 89 89 88 88 86 86 84 83 83 83 83 82 81 80 79 79 79 80 77 75 75 75 74 73 76 75 77 68 58 58 59 58 65 76
106 108 107 104 101 98 96 94 94 94 93 93 92 92 93 93 92 90 89 88 88 89 89 88 89 89 89 89 89 89 88 88 87 87 86 83 84 83 82 81 80 80 80 80 79 79 78 78 76 76 75 77 78 72 76 79 72 57 60 58 58 65 77
102 104 104 102 101 98 94 93 92 91 92 92 91 92 92 93 92 89 88 88 91 90 89 89 89 90 90 90 89 89 88 88 86 86 86 84 83 83 82 81 80 78 78 78 78 77 77 77 77 75 75 78 79 79 79 80 81 70 56 58 57 60 75
101 103 102 102 99 92 93 92 92 91 91 91 91 92 92 91 90 88 88 88 89 88 89 90 90 89 89 88 89 88 88 88 87 86 87 85 83 83 82 81 79 77 76 77 78 77 76 76 76 76 76 79 81 81 80 80 81 74 57 57 57 58 65
101 101 101 97 90 90 92 93 90 91 92 91 92 92 92 90 88 87 87 88 88 89 90 89 88 88 87 87 87 87 87 87 86 87 87 85 83 81 79 79 79 77 76 77 77 75 75 75 75 77 78 78 80 80 79 79 77 76 60 58 55 56 58
94 95 93 90 90 92 93 90 89 89 89 93 94 92 92 90 86 86 87 86 86 88 87 87 87 86 86 85 86 85 85 85 85 85 85 83 83 81 79 78 77 76 75 75 76 75 75 75 76 76 76 77 78 79 78 75 72 67 67 56 53 53 56
91 90 90 94 94 92 92 87 88 89 92 93 91 91 90 88 86 85 84 83 85 86 85 85 85 84 83 83 84 84 85 85 85 85 83 82 81 79 77 76 76 75 75 75 75 75 75 75 76 75 75 75 75 73 69 72 71 62 61 59 53 52 52
88 89 91 91 92 90 90 91 89 90 88 89 88 88 88 87 84 82 81 83 84 84 84 83 82 81 81 82 83 84 84 84 82 82 81 81 80 77 76 76 76 75 75 75 75 75 75 76 77 75 74 72 72 71 69 71 72 70 62 59 55 53 52
89 90 91 89 88 88 88 89 88 86 85 85 86 86 85 86 84 80 80 83 83 83 83 82 81 80 80 82 82 83 83 82 81 80 80 80 79 78 77 77 77 77 76 77 77 76 76 76 77 76 74 72 72 68 70 75 73 69 65 61 59 58 54
87 87 87 86 87 87 88 87 86 85 85 85 86 87 87 86 84 82 82 82 84 84 82 81 80 79 80 80 81 82 82 80 80 79 78 78 79 79 79 79 79 78 76 77 78 78 77 77 76 75 72 69 69 70 73 74 72 71 71 69 67 68 63
84 85 87 88 87 87 87 86 86 85 85 84 85 86 86 85 84 83 83 86 87 85 82 79 79 79 80 80 81 80 80 80 78 77 78 78 79 79 78 78 79 78 76 77 77 77 77 77 73 73 72 72 70 70 72 73 75 75 73 73 72 71 69
83 83 84 85 85 84 83 83 83 82 83 83 85 85 85 85 87 88 86 85 84 82 81 80 80 82 82 82 81 79 78 78 78 79 77 76 73 69 67 70 76 78 77 70 69 72 79 77 73 70 71 70 68 68 73 76 75 79 69 75 64 71 71
84 85 85 85 85 84 83 83 83 82 83 84 86 86 86 86 87 88 90 87 86 84 81 81 82 82 83 83 82 81 79 78 79 79 78 79 77 72 64 50 44 54 72 73 56 48 48 58 71 69 74 73 71 71 74 78 79 52 45 47 44 46 48
83 84 85 85 84 83 82 82 82 82 82 83 84 85 86 86 87 87 88 86 85 84 82 82 81 83 84 83 85 82 81 81 81 79 77 78 77 75 71 69 61 44 41 49 49 46 41 41 43 46 53 71 77 62 46 50 47 45 45 43 44 44 45
85 84 85 85 83 81 81 81 81 81 81 83 83 84 84 85 85 84 85 84 84 84 83 84 83 83 84 86 84 80 81 83 81 79 76 74 74 74 72 72 69 63 46 40 44 44 41 41 40 42 44 50 61 67 66 50 43 43 43 43 42 42 41

ECMWFFLT1_sfc_temp_030.txt.gz
Temp
98 97 96 95 95 95 94 92 92 93 92 90 90 91 92 91 89 88 88 87 85 85 86 86 86 86 86 86 86 86 86 86 86 85 85 85 85 85 85 85 85 84 84 83 83 83 84 85 84 83 83 83 83 82 81 81 81 82 81 80 81 80 80
96 97 97 97 96 95 94 93 92 93 93 92 91 90 91 90 89 89 88 87 86 86 86 86 86 86 86 86 86 86 86 86 86 85 86 85 85 85 86 85 84 84 84 84 84 84 84 85 85 83 83 83 83 82 82 81 81 81 80 80 79 79 79
96 96 96 96 96 95 92 93 93 94 94 94 93 92 91 89 89 88 88 87 86 86 87 86 86 86 86 86 86 86 86 87 86 86 86 86 86 88 87 86 85 85 86 86 85 85 85 85 84 83 83 82 83 81 81 81 81 81 80 79 79 78 78
94 96 96 96 95 93 94 94 94 95 96 96 94 93 91 88 90 89 89 89 87 86 86 86 87 87 87 86 86 86 86 86 87 87 87 87 86 87 86 86 85 86 85 85 87 86 86 85 84 83 84 82 81 82 81 81 81 80 80 79 78 79 78
94 97 97 95 96 94 94 94 95 94 96 98 95 91 91 91 91 91 90 90 90 87 88 88 89 88 87 87 87 87 87 87 87 87 88 87 87 87 86 87 86 87 86 87 86 84 84 84 84 83 83 82 82 81 81 81 81 80 80 79 77 78 78
95 95 95 96 96 96 96 97 98 99 97 97 95 93 93 94 94 94 93 90 90 90 88 88 88 87 87 88 88 88 87 87 87 87 87 87 86 86 87 87 87 87 87 85 86 85 85 84 84 83 83 84 83 82 82 81 81 81 80 79 78 78 78
95 96 95 96 97 97 97 97 99 100 99 98 98 95 95 95 94 94 94 92 92 89 89 89 89 89 87 88 87 87 87 87 87 87 88 88 87 87 86 86 86 87 87 86 85 85 85 84 83 83 82 83 81 82 80 79 80 80 79 78 77 77 77
95 96 95 96 99 100 100 97 97 99 98 97 98 97 95 95 95 95 94 94 93 92 91 91 89 88 87 88 88 88 88 88 88 88 88 88 87 87 87 87 87 86 86 86 85 85 86 84 84 83 82 83 81 80 80 79 79 80 79 78 77 77 78
97 96 96 98 99 100 100 96 95 94 94 95 95 94 95 94 95 94 94 94 93 92 91 92 91 91 88 88 87 87 88 88 88 88 88 88 88 89 89 89 87 87 86 87 87 85 85 84 84 82 82 81 80 80 80 79 79 79 79 78 77 77 77
94 93 94 98 98 99 96 96 93 91 92 92 92 92 93 93 93 94 94 95 95 93 92 93 93 92 89 88 88 89 88 87 88 89 90 89 89 89 90 91 89 88 87 87 88 86 84 84 84 82 81 81 80 79 79 79 79 79 79 78 77 77 76
94 92 93 96 95 95 95 95 92 89 91 90 90 93 92 92 93 94 93 95 95 94 94 93 93 92 91 90 90 89 87 88 88 88 88 89 90 90 91 92 91 89 88 88 87 86 85 83 83 82 81 81 80 79 79 79 79 78 79 78 78 77 77
92 92 91 93 93 93 93 90 90 90 90 90 92 93 91 91 93 94 94 94 96 95 94 94 95 94 91 91 90 87 87 87 88 89 89 89 90 91 91 92 90 90 89 89 88 87 86 84 83 82 81 80 80 80 79 79 78 78 78 79 78 77 77
93 91 91 94 92 93 91 90 90 90 90 92 94 94 93 93 93 94 92 93 96 96 95 93 93 92 91 91 91 87 86 87 88 89 89 88 89 90 91 92 93 92 90 89 89 88 87 85 83 82 81 80 80 80 79 79 79 78 78 78 77 77 76
91 94 94 93 93 92 91 91 91 90 90 92 93 93 93 94 95 93 92 93 95 97 97 97 93 92 91 90 89 87 87 87 88 89 88 89 88 89 90 91 90 90 89 88 88 89 87 86 84 83 82 81 81 80 80 79 78 77 77 77 77 76 76
93 94 93 93 90 90 91 91 90 90 91 91 93 93 93 93 93 93 92 94 93 98 96 94 92 91 91 89 88 87 87 87 88 88 88 88 88 88 88 89 88 88 88 87 87 88 88 87 86 83 81 81 80 80 80 79 78 78 78 77 76 76 76
98 95 94 93 91 92 91 91 90 90 90 90 91 91 93 92 91 93 93 93 95 94 95 93 91 90 90 88 88 87 87 87 87 87 87 87 87 87 87 88 88 88 87 87 87 86 86 86 85 85 82 80 80 80 79 79 79 75 70 72 76 76 76
97 97 95 93 91 92 91 91 91 90 89 89 90 90 91 91 91 92 97 94 96 93 95 94 90 89 89 88 88 88 87 87 87 87 87 87 87 87 87 87 87 86 86 86 85 86 85 85 85 85 83 82 81 80 79 79 79 68 67 69 72 76 76
96 94 94 93 92 91 90 91 90 89 90 91 91 91 91 90 91 92 93 93 93 97 98 94 91 90 88 89 88 88 87 87 87 86 86 87 86 86 86 86 86 85 85 85 85 84 85 85 84 83 83 81 82 81 79 79 72 65 66 68 69 73 77
98 97 93 91 90 90 92 93 92 90 91 92 92 91 92 92 92 90 91 91 92 93 94 91 91 90 89 89 88 88 87 87 86 86 86 86 86 86 86 85 85 84 84 84 85 85 84 83 83 82 81 81 80 80 80 80 66 64 65 67 67 69 75
100 101 100 96 94 93 92 92 92 92 91 90 91 94 93 92 92 91 92 91 91 91 90 90 89 89 89 88 88 88 87 87 86 86 86 86 86 86 85 85 84 84 85 85 84 83 83 83 82 82 80 80 79 78 79 79 64 64 63 64 65 67 71
95 97 97 97 92 95 91 91 91 91 90 92 94 93 92 92 93 92 92 91 90 90 89 89 88 88 88 88 88 87 87 87 86 86 86 85 85 85 84 84 84 84 83 84 83 82 81 81 81 80 80 79 80 78 77 79 62 62 62 62 63 64 69
100 101 100 99 94 91 90 93 92 93 91 93 94 95 94 93 95 94 91 91 90 90 89 88 88 87 88 87 87 87 87 87 86 85 85 85 85 84 83 83 83 82 82 82 83 83 82 80 80 78 78 77 78 78 76 75 59 61 61 61 62 64 71
104 102 102 99 101 97 92 94 93 95 91 92 94 94 94 95 95 93 91 90 90 89 88 88 87 87 87 87 87 87 88 87 87 85 85 85 84 83 83 82 82 82 82 81 81 82 80 79 78 77 77 77 77 76 74 72 61 60 59 60 60 63 71
105 103 103 103 99 100 94 94 95 94 93 93 92 92 92 93 92 90 89 88 88 88 87 87 87 87 87 87 87 87 88 87 87 85 84 84 83 83 83 83 83 82 82 81 81 80 79 79 77 77 77 77 77 78 74 70 61 56 57 58 58 65 71
104 105 104 103 102 102 98 94 94 94 92 92 90 91 91 91 91 90 88 87 88 88 88 87 87 87 87 87 88 88 88 88 86 85 84 83 83 83 82 82 82 82 81 82 82 80 78 77 76 76 76 78 78 72 73 73 64 55 57 57 57 64 71
99 101 102 102 104 103 94 92 91 91 91 91 90 91 91 91 91 89 87 87 89 88 87 87 87 88 88 89 88 88 87 87 85 85 85 83 83 82 82 82 82 81 80 80 81 79 77 76 76 75 75 77 77 76 76 75 71 61 56 56 56 60 71
98 100 101 104 101 88 92 92 91 91 91 90 90 92 91 91 90 87 87 87 87 86 88 88 88 88 88 88 88 88 87 87 86 85 86 85 83 83 82 82 81 80 78 79 79 77 75 76 76 76 75 77 77 77 76 77 76 67 55 55 56 58 64
98 97 103 100 89 90 92 94 90 91 91 90 92 92 92 90 87 86 86 86 86 87 89 88 88 87 87 86 87 87 87 86 85 86 86 84 81 80 80 80 80 79 79 78 76 75 74 74 74 75 75 76 77 76 76 74 72 74 59 57 55 56 58
93 91 90 90 91 92 93 90 88 90 91 94 95 93 91 90 86 85 85 85 86 88 88 88 87 86 86 85 85 84 85 84 84 84 84 82 81 79 78 78 77 77 76 75 75 74 73 73 73 74 73 73 73 75 75 74 74 68 66 57 55 54 55
90 90 92 95 94 93 94 88 89 91 93 94 92 91 90 88 85 84 85 85 87 87 86 86 86 85 83 83 83 83 83 84 84 84 82 80 79 78 76 75 75 75 74 74 74 73 73 72 73 73 73 73 73 72 72 73 71 67 66 63 55 53 53
89 91 92 92 93 91 91 91 89 90 90 90 89 89 88 87 85 84 83 84 85 84 84 84 83 82 82 82 82 81 82 82 81 81 80 79 78 77 76 75 75 73 73 73 74 73 73 73 73 73 73 73 71 71 71 71 72 70 63 61 56 54 52
89 90 93 91 90 90 90 91 90 90 88 88 88 86 86 86 85 81 81 84 83 84 83 83 81 81 80 81 81 81 81 81 80 79 79 79 78 77 77 75 74 73 73 73 74 74 74 73 74 74 74 72 71 70 71 71 70 69 66 62 59 57 53
82 90 88 87 88 86 88 88 89 88 87 85 85 84 85 85 85 83 83 82 84 83 82 81 80 79 79 79 79 80 80 79 78 77 77 76 77 77 76 76 75 74 73 74 74 74 74 74 74 73 73 72 71 71 71 70 70 69 69 67 64 63 59
64 67 81 88 87 87 87 87 85 82 80 79 80 82 83 84 84 84 84 85 85 83 81 79 79 79 79 79 79 78 78 77 76 76 77 78 78 77 77 76 76 75 74 74 75 74 73 74 73 73 73 71 71 71 71 70 71 71 70 69 68 67 66
67 66 65 69 74 78 82 82 80 79 81 81 81 81 82 83 86 87 85 84 83 81 80 78 78 79 80 79 79 77 76 76 76 77 76 72 65 60 59 64 71 74 67 62 61 67 74 76 74 73 74 74 72 70 70 72 72 73 65 70 63 68 70
68 67 68 68 69 72 74 74 77 80 80 81 83 84 84 84 85 85 86 84 83 81 79 78 78 79 79 79 80 80 79 78 79 78 76 75 70 65 59 51 44 54 69 66 56 50 47 58 72 73 77 75 73 71 73 75 74 58 54 53 53 55 58
68 67 67 68 68 68 72 78 80 81 81 82 82 83 84 83 84 83 84 83 82 81 79 79 78 79 81 81 81 79 80 80 79 77 77 75 72 70 66 63 57 44 43 50 50 47 44 43 45 50 61 71 71 57 46 50 48 48 50 50 49 49 48
70 69 68 69 69 70 75 78 80 81 81 82 83 83 83 83 84 82 83 82 82 82 81 81 80 80 81 82 80 77 77 80 78 77 77 74 73 71 69 67 62 58 46 42 44 45 42 42 42 45 54 58 60 61 58 49 45 45 45 45 43 43 42

ECMWFFLT1_sfc_temp_033.txt.gz
Temp
93 92 90 90 89 89 88 87 87 87 87 85 85 86 86 86 85 84 83 82 81 81 81 82 82 82 81 81 81 81 82 82 81 81 81 80 80 80 79 80 79 79 79 78 79 79 79 80 79 79 79 78 77 76 75 76 75 75 74 75 74 74 73
91 91 90 89 88 88 88 88 88 88 87 86 85 86 87 86 85 84 83 83 82 82 82 82 82 81 82 81 82 81 81 81 81 81 81 80 80 80 81 80 80 79 79 79 79 79 79 80 80 80 78 78 77 76 76 75 75 74 74 74 74 73 73
90 90 90 89 87 87 86 87 87 88 88 87 87 86 86 85 85 84 83 83 82 82 82 82 82 82 82 82 81 81 81 82 81 81 81 81 81 82 81 81 81 80 80 80 80 80 80 80 79 80 78 77 77 76 76 76 75 75 74 74 74 74 73
88 89 89 89 88 87 87 87 87 88 89 89 88 87 86 85 86 85 85 84 82 82 81 82 82 82 82 81 81 81 81 81 82 82 82 82 81 82 81 80 80 81 79 80 81 81 81 79 79 79 79 77 76 76 76 76 76 75 74 74 73 73 73
88 90 90 88 88 87 87 87 87 87 89 90 89 87 87 86 86 86 85 85 85 83 83 83 84 83 83 83 82 82 82 82 82 82 82 82 82 82 81 81 80 81 80 81 81 80 80 78 79 79 78 77 76 76 76 75 76 75 74 74 73 73 72
88 88 88 89 89 89 89 90 89 89 90 90 88 87 87 88 88 87 86 85 84 85 84 83 83 83 82 83 83 82 82 82 82 82 82 82 82 82 81 81 81 81 81 81 81 81 80 80 79 78 78 78 77 76 76 76 75 75 74 73 73 73 72
89 89 89 89 90 90 89 90 91 90 91 91 90 88 89 89 88 88 88 86 85 84 84 83 84 83 83 83 82 82 81 82 82 82 83 83 82 82 82 82 81 82 82 81 80 81 80 80 79 78 78 78 77 77 76 75 75 75 74 73 73 73 73
90 89 90 90 91 92 91 89 90 91 91 91 89 89 89 89 89 88 88 87 86 86 85 84 84 83 83 83 83 82 82 82 83 83 83 83 82 82 82 82 81 82 81 81 81 81 81 80 80 79 78 78 77 77 76 75 75 75 75 73 73 73 73
91 91 90 92 92 92 91 90 90 90 89 89 89 88 88 88 89 88 88 88 87 86 85 86 85 85 84 83 83 82 83 83 83 83 83 83 83 83 83 83 82 82 81 81 81 81 81 80 80 79 78 78 77 76 76 75 75 75 75 74 73 73 73
88 88 89 91 92 92 90 90 89 87 87 87 87 87 87 88 88 89 89 89 88 87 86 86 86 86 84 83 83 83 83 83 83 83 83 83 83 83 83 84 83 82 82 82 82 81 81 81 80 79 78 78 77 76 76 75 75 75 75 74 74 73 73
89 87 86 88 89 89 88 89 87 86 87 87 87 87 87 87 88 88 88 89 89 88 88 87 87 86 85 84 84 83 83 83 83 83 83 83 84 84 85 85 84 83 83 82 82 81 81 80 80 79 78 77 77 76 76 75 75 75 75 75 75 74 73
88 87 86 88 88 87 87 87 87 85 85 85 87 87 86 86 87 88 88 89 90 89 88 88 88 87 85 85 84 83 82 83 83 83 83 84 84 84 85 85 84 84 83 83 82 81 81 80 80 79 78 78 77 77 76 76 75 75 75 75 75 74 74
86 84 83 87 86 86 86 84 84 84 84 85 87 87 86 87 87 88 87 88 90 90 89 87 87 86 86 85 84 83 82 83 83 84 84 83 84 85 85 86 86 85 84 84 84 83 81 81 80 79 78 78 77 77 76 75 75 75 74 74 74 73 73
85 86 87 88 87 85 83 83 83 82 82 83 85 86 86 87 88 87 87 87 89 90 89 89 87 86 85 85 84 83 82 83 84 84 84 84 84 84 85 85 85 84 84 84 83 83 82 81 80 80 79 78 78 77 76 75 75 74 74 74 74 74 73
84 86 86 86 83 82 81 81 81 81 82 84 85 85 86 86 87 87 87 88 88 90 89 88 87 86 85 84 83 83 83 83 84 84 84 84 83 83 84 84 84 84 84 83 83 84 83 82 81 79 78 78 77 77 76 75 75 75 75 74 73 74 73
85 86 86 86 85 84 83 83 82 81 82 83 84 85 86 86 86 87 87 87 89 89 89 88 86 85 85 84 83 83 83 83 83 83 83 83 83 83 83 84 84 84 83 83 83 83 83 82 81 80 79 77 77 77 76 75 75 72 69 71 74 73 74
86 86 85 84 83 83 83 83 83 82 82 83 84 86 86 86 87 87 88 88 88 88 89 89 86 85 85 84 84 84 83 83 83 83 82 83 83 83 83 83 83 83 82 82 82 82 82 81 80 80 80 78 77 76 76 76 75 67 66 68 70 73 74
84 85 86 86 86 86 84 85 84 83 83 85 86 86 87 86 87 87 87 87 88 90 90 88 87 85 84 84 84 84 83 83 83 82 82 82 82 82 83 83 82 82 82 81 81 81 82 80 80 80 79 78 78 77 76 76 70 65 66 67 67 70 74
86 86 86 85 85 85 87 87 86 85 86 87 87 87 88 88 87 86 87 87 88 89 89 87 87 86 85 85 84 84 83 83 83 82 82 82 82 82 82 82 81 81 80 80 81 81 80 80 79 79 78 78 77 76 77 77 68 65 65 66 66 68 72
84 86 88 89 88 87 86 86 86 86 87 87 88 89 89 88 88 88 89 88 88 88 88 86 86 85 85 84 84 84 84 83 83 82 82 82 82 82 81 81 81 80 80 80 79 80 80 80 78 78 77 77 77 76 77 77 66 64 63 64 65 66 70
80 81 85 85 85 87 86 86 86 86 85 87 88 89 88 88 89 88 87 87 86 87 87 86 85 85 85 84 84 84 84 83 82 82 82 82 82 81 81 81 80 79 79 79 79 78 78 78 77 77 77 77 77 76 76 77 63 62 62 62 63 65 68
82 82 83 86 86 86 86 87 86 86 86 87 87 88 88 88 89 88 87 87 87 87 87 86 85 84 85 84 84 84 84 83 82 82 82 82 81 80 80 80 79 79 78 78 77 77 77 77 77 76 76 76 77 76 75 76 61 62 61 60 62 64 70
87 85 85 84 89 87 85 87 87 88 87 87 87 87 88 89 89 88 86 86 86 86 86 85 84 84 84 84 84 84 84 84 83 82 81 81 81 80 79 79 78 77 77 77 76 75 75 75 74 74 75 75 76 75 74 70 61 59 58 59 60 63 71
92 89 89 86 86 88 85 84 86 87 87 87 86 88 87 88 88 86 85 85 85 85 85 84 84 84 84 84 85 84 84 84 83 82 81 81 80 80 79 78 78 77 77 77 75 74 74 73 73 73 74 74 74 74 72 69 61 57 57 58 59 64 70
92 94 91 90 85 87 87 87 88 88 87 86 86 87 87 87 87 86 84 84 85 85 85 84 84 84 84 85 85 85 84 84 83 82 81 80 80 79 78 77 77 76 77 77 76 74 73 73 73 72 73 75 75 72 72 71 63 55 57 57 57 64 71
84 84 85 86 88 88 86 87 85 87 86 86 86 87 86 87 86 85 84 84 85 85 85 85 85 85 86 86 85 85 84 84 82 81 81 80 79 78 78 77 76 76 76 75 74 72 72 72 72 71 71 72 73 73 73 72 67 59 55 56 56 61 72
83 85 83 85 85 84 83 83 87 87 87 87 87 87 87 86 86 84 84 84 84 84 86 86 86 85 85 85 84 84 83 83 82 81 81 80 79 78 77 77 76 75 74 73 72 72 71 72 72 72 71 72 74 73 72 72 68 62 54 54 55 59 65
81 82 84 81 79 80 82 87 84 86 87 87 87 87 87 86 84 83 83 83 83 85 87 85 85 85 84 84 83 83 83 82 82 82 81 79 78 77 75 75 75 75 73 72 71 71 70 71 71 71 71 71 72 71 69 69 67 64 55 55 54 56 59
74 77 80 80 81 84 86 81 80 84 86 88 89 88 87 86 83 83 82 82 83 85 85 84 84 84 83 83 82 82 81 81 80 80 80 78 77 76 74 74 74 73 72 71 71 70 70 70 70 70 70 70 69 69 69 68 69 63 61 54 53 53 55
72 73 74 78 78 77 81 82 81 83 86 88 87 86 86 85 82 81 81 82 83 84 84 84 84 83 82 81 81 81 80 80 80 80 78 77 76 74 72 72 72 71 70 70 70 69 69 69 70 70 70 69 67 67 67 68 69 64 62 60 54 53 53
69 69 70 70 70 69 70 70 70 73 78 85 85 85 85 84 82 79 80 81 82 82 83 83 82 81 80 80 80 79 79 79 78 77 76 76 75 72 72 71 71 69 69 70 69 69 68 68 69 68 67 66 66 66 66 67 67 67 64 61 56 54 53
67 68 68 68 69 71 70 71 71 71 72 76 80 80 80 81 82 80 80 81 82 82 82 81 80 79 79 79 78 78 78 76 76 76 75 74 73 72 71 70 69 68 68 70 70 69 67 66 67 66 66 65 66 66 66 65 65 63 62 63 61 58 55
65 66 66 65 66 68 69 70 69 67 68 71 76 81 82 81 80 80 80 80 81 81 80 79 78 77 76 76 77 76 76 75 74 74 73 72 72 72 71 70 69 69 69 70 70 68 67 68 67 66 66 66 66 66 66 65 63 62 61 59 58 59 57
65 65 66 66 66 68 69 67 67 68 68 68 69 70 70 71 72 74 77 80 81 80 78 76 76 76 76 75 74 74 74 73 74 73 72 72 72 72 71 70 70 70 68 68 69 67 67 67 66 66 66 66 66 66 65 64 64 63 63 61 61 59 58
64 65 66 66 66 67 66 67 67 67 68 68 69 69 70 70 70 72 73 75 78 78 76 74 73 74 75 74 73 72 72 73 71 68 64 60 55 54 57 63 71 67 61 57 58 65 71 68 67 67 68 68 66 66 65 66 65 66 61 64 58 61 62
64 64 65 66 67 66 68 68 67 67 67 67 69 69 70 71 71 71 71 71 72 73 72 72 73 73 73 73 73 73 72 70 68 67 65 64 61 59 55 49 47 57 66 61 56 50 51 60 67 70 70 69 66 66 69 67 69 59 53 51 51 52 54
64 64 64 65 65 65 65 66 68 68 68 68 69 70 71 70 72 71 71 71 72 73 72 72 72 72 74 73 73 72 72 71 69 67 64 63 62 61 58 56 54 43 43 50 50 47 45 48 52 58 63 67 64 53 49 52 54 52 49 49 49 49 50
66 66 66 66 66 66 66 67 66 66 66 66 68 69 71 70 71 71 72 72 72 73 73 75 74 74 74 74 73 72 71 71 69 67 65 64 64 62 60 59 57 56 48 43 45 45 43 43 46 50 54 57 58 59 57 51 48 49 49 48 48 48 48

ECMWFFLT1_sfc_temp_036.txt.gz
Temp
87 86 86 87 86 86 85 84 85 85 85 84 83 84 83 83 82 81 81 80 80 79 79 80 80 80 79 79 79 79 80 80 79 79 79 79 79 79 78 77 77 77 77 76 76 76 77 78 77 77 77 77 76 75 74 73 73 73 73 72 72 71 71
86 86 86 87 86 86 86 85 85 86 85 85 84 84 84 83 82 81 81 80 80 80 80 80 80 80 80 80 80 79 79 79 80 80 79 79 79 79 79 78 77 77 77 77 77 77 77 77 78 77 77 77 76 75 74 73 73 73 72 72 71 70 71
86 86 86 86 86 86 85 86 85 86 86 86 85 84 84 83 83 82 81 80 80 80 80 80 80 80 80 80 79 79 79 80 79 79 79 79 79 79 79 79 78 78 78 78 78 77 78 77 78 77 77 76 76 75 75 74 73 73 73 72 72 71 70
86 86 86 86 86 86 87 87 86 86 87 87 86 85 84 83 84 83 82 82 80 80 79 80 80 80 80 80 79 79 79 79 80 80 80 80 79 79 79 78 78 78 77 77 78 78 78 78 77 77 78 76 76 75 75 75 74 73 73 72 71 71 71
86 87 87 86 86 86 86 86 86 86 87 88 87 85 85 85 84 83 83 83 82 81 81 81 81 81 81 81 80 80 80 80 80 80 80 80 80 79 79 79 78 78 78 78 78 78 77 77 77 77 77 76 75 75 75 75 74 73 72 72 71 71 71
86 85 85 86 87 87 86 87 88 87 87 87 86 85 85 85 85 84 84 82 82 82 82 81 81 81 80 81 81 80 80 80 80 80 80 80 80 79 79 79 79 78 78 78 79 78 78 77 77 77 77 76 76 75 75 75 74 73 72 71 71 71 71
87 86 86 86 87 87 87 87 88 88 88 88 87 86 86 86 85 85 85 83 83 81 81 81 81 81 81 81 80 80 79 80 80 80 80 80 80 80 79 79 79 79 79 79 78 78 78 77 77 77 77 76 75 75 74 74 74 73 72 71 71 71 71
88 87 87 88 88 89 88 87 87 88 88 87 87 86 86 86 86 85 84 84 83 83 82 82 81 81 81 81 81 80 80 80 80 80 80 80 80 80 80 80 79 79 79 79 79 79 78 78 78 77 77 76 75 75 75 74 74 74 73 72 71 70 71
88 88 88 89 90 90 89 87 87 87 86 85 85 85 85 85 85 85 85 84 84 83 82 83 82 82 81 81 80 80 80 80 80 80 80 80 80 80 80 80 80 80 79 79 79 79 79 78 78 77 77 76 75 74 74 74 74 74 73 72 72 71 71
87 86 87 90 91 91 90 88 86 85 84 84 83 83 84 84 85 85 85 85 84 83 83 83 83 83 82 81 80 81 80 80 80 80 80 80 80 80 81 81 80 80 80 80 80 79 79 79 78 77 76 76 75 75 74 74 74 74 73 73 72 72 71
87 86 87 88 88 88 87 85 82 81 83 83 83 83 83 84 84 85 85 85 85 84 84 84 84 83 82 81 81 80 80 80 80 80 80 80 81 81 81 81 81 81 80 80 79 79 79 78 78 77 76 76 75 75 74 74 74 73 73 73 73 72 72
85 85 85 86 86 85 83 83 82 81 82 82 83 83 83 83 84 85 85 85 86 85 84 84 84 83 82 82 81 80 79 80 80 80 80 80 81 81 81 82 81 81 81 80 80 79 79 78 78 78 76 76 76 75 75 74 74 74 73 73 73 72 71
85 84 84 84 83 83 81 80 81 82 82 83 84 84 84 84 84 85 84 84 86 86 85 84 84 83 82 82 81 80 79 80 80 80 81 80 81 81 82 82 82 82 81 81 81 80 79 79 78 78 77 76 76 76 75 74 74 73 73 73 72 72 71
83 83 83 83 82 81 79 80 80 81 81 83 83 84 84 84 85 84 84 84 86 86 85 85 84 83 82 81 81 80 80 80 81 81 81 81 81 81 81 82 81 81 81 81 80 80 80 79 78 78 77 77 76 76 75 74 73 73 73 72 72 72 71
83 83 81 81 81 80 80 80 80 81 82 82 83 83 83 83 84 84 84 85 85 86 85 85 83 82 82 81 80 80 80 80 81 81 81 81 81 81 81 81 81 81 81 80 80 81 81 80 79 78 77 77 76 75 75 74 73 73 73 72 72 72 72
84 84 83 83 82 82 82 82 81 81 81 81 82 82 83 83 83 84 84 84 85 85 86 85 83 82 82 81 81 81 81 81 81 81 81 80 80 80 81 81 81 81 80 80 80 80 80 80 79 79 77 76 76 75 75 74 74 72 68 70 74 72 73
80 82 82 83 82 82 82 82 81 80 80 80 81 82 83 82 83 84 85 84 85 85 86 85 83 82 82 81 81 81 81 81 80 80 80 80 80 80 80 80 81 80 80 80 80 80 79 79 79 79 78 77 76 75 75 75 74 66 65 67 69 73 73
79 81 83 83 82 81 80 80 79 79 80 80 82 82 83 82 83 83 84 84 85 86 86 85 84 82 82 82 82 81 81 81 80 80 80 80 80 80 80 80 80 80 80 80 79 79 80 79 78 78 78 77 77 76 75 75 69 63 65 66 67 69 74
78 78 79 77 77 78 80 81 80 79 81 82 82 83 84 84 84 83 84 84 85 86 85 84 84 83 82 82 82 81 81 81 80 80 80 80 80 80 80 80 79 79 79 79 80 79 79 78 78 78 78 77 76 76 76 76 67 63 64 66 66 66 71
80 81 82 82 81 81 81 81 82 82 82 82 83 85 86 85 85 85 85 85 85 84 84 84 83 83 82 82 82 82 81 81 80 80 80 80 80 80 80 79 79 79 80 80 79 79 79 79 78 78 77 77 76 76 76 76 65 62 63 64 64 65 68
79 80 82 82 83 84 84 83 84 83 83 84 85 85 85 85 86 86 85 84 83 84 84 84 83 82 82 82 82 82 81 81 80 80 80 80 80 79 79 79 79 79 80 80 79 79 78 79 78 78 77 77 77 76 75 77 62 61 62 62 62 64 66
77 80 82 84 85 84 83 84 84 85 85 86 85 85 85 85 86 86 84 84 84 83 84 83 83 82 82 82 82 82 82 81 80 80 80 79 79 79 79 79 79 79 79 79 79 79 79 79 79 78 77 77 76 76 74 74 60 61 61 61 61 63 68
76 76 79 82 83 81 81 84 85 86 86 85 85 85 85 87 87 85 84 83 83 83 83 83 82 82 82 82 82 82 82 82 81 80 80 79 79 79 79 79 79 79 79 78 78 78 78 78 78 78 77 76 76 75 74 73 61 60 60 60 60 62 68
81 79 77 76 78 84 85 83 83 83 83 84 83 84 85 86 85 84 83 82 82 82 82 82 82 83 82 82 83 83 83 82 82 80 80 79 79 79 79 80 80 79 78 78 78 77 78 78 77 76 76 76 75 75 74 73 64 58 59 59 59 63 69
76 77 77 76 77 80 81 82 84 86 83 81 81 82 82 82 83 83 82 82 82 82 82 82 83 83 83 83 84 84 83 83 82 81 80 80 80 80 80 79 79 79 78 79 78 77 76 75 75 73 73 75 76 73 74 73 66 57 59 58 57 64 70
70 72 74 77 76 76 78 79 78 79 81 81 82 83 82 81 82 82 82 82 83 82 82 83 84 85 85 85 84 84 83 83 82 81 81 80 80 80 80 80 78 77 77 77 77 74 73 73 73 72 72 73 74 74 74 71 67 60 56 55 55 60 71
70 71 72 73 72 74 73 74 78 80 82 83 84 84 82 82 82 82 82 82 81 81 83 85 85 85 85 84 84 84 83 83 82 82 82 82 81 80 79 78 78 77 76 75 73 73 72 72 72 71 70 71 71 71 70 71 67 61 54 54 55 58 64
68 69 71 71 71 71 73 73 71 73 76 77 78 79 79 80 82 82 82 81 81 83 85 85 85 85 84 83 83 84 83 83 83 83 82 81 80 78 77 78 78 77 75 73 72 71 70 70 69 69 68 68 68 69 69 68 65 63 54 54 54 56 60
65 66 66 68 69 70 71 69 69 70 71 75 79 80 80 79 77 79 80 81 82 85 86 85 84 84 83 82 83 82 82 82 81 81 81 80 79 78 76 76 75 74 73 72 71 70 69 68 68 68 67 67 66 66 66 66 65 60 60 54 53 54 56
65 65 66 68 68 68 70 68 68 70 71 71 71 74 79 80 79 78 76 78 83 84 84 83 83 83 82 81 82 82 82 81 81 81 80 79 78 77 75 74 73 72 71 71 70 68 67 66 68 68 67 66 64 64 64 64 63 60 59 58 53 52 54
65 65 66 65 66 67 68 68 67 68 68 69 70 70 71 77 79 77 78 80 79 78 80 82 82 81 81 81 81 80 81 80 80 79 79 78 77 75 73 72 71 70 69 70 68 68 67 67 68 67 67 66 64 63 63 63 63 61 60 58 54 53 54
65 66 66 66 65 66 67 68 68 67 67 67 68 69 69 71 74 78 79 80 79 80 80 80 79 80 80 80 80 79 80 79 78 77 77 76 76 75 73 72 70 69 69 69 69 69 68 67 68 68 67 65 64 63 64 63 63 62 60 60 58 57 55
64 64 64 64 65 66 65 66 66 66 66 66 67 68 70 70 69 69 70 71 73 75 76 76 77 77 78 78 78 78 78 77 76 75 75 74 73 73 72 71 70 69 68 69 69 68 68 68 67 67 65 64 64 64 64 64 63 63 61 60 58 59 58
63 63 63 64 65 66 65 65 65 66 66 66 68 69 69 68 68 69 70 70 71 71 71 70 70 73 76 77 77 77 76 75 75 74 72 72 71 70 70 70 71 70 68 68 68 67 67 67 66 65 64 64 64 64 64 63 63 62 61 60 60 60 59
63 63 63 63 64 65 65 66 66 66 66 66 68 69 68 68 68 69 68 69 70 70 68 67 67 68 71 73 74 73 72 72 71 70 70 68 64 63 65 69 71 68 66 65 68 70 68 67 66 65 66 66 65 64 63 64 63 64 59 63 57 60 59
64 64 65 65 65 64 66 67 66 66 66 66 67 68 68 68 68 69 70 69 69 69 68 67 67 68 68 68 68 67 68 68 67 66 64 62 60 59 56 50 47 56 67 62 55 56 60 59 66 67 67 66 66 67 67 65 67 58 53 50 50 50 53
63 64 65 65 65 65 64 65 66 66 65 65 66 67 68 68 69 69 69 69 69 70 69 68 67 67 67 67 66 66 66 66 65 65 64 63 61 60 58 57 54 44 43 49 52 50 49 52 53 57 60 66 65 57 54 59 53 48 47 47 47 47 48
65 64 64 66 66 66 65 64 65 65 64 64 65 66 67 68 68 68 69 69 69 69 69 69 67 66 65 66 66 66 65 65 65 64 63 62 62 62 61 60 57 55 45 42 45 45 44 48 51 52 54 57 60 59 56 51 47 47 46 46 46 46 46

ECMWFFLT1_sfc_temp_039.txt.gz
Temp
83 83 83 83 83 82 82 82 83 83 83 82 82 82 82 81 81 80 80 79 78 78 78 78 78 78 78 78 79 79 79 79 78 78 77 77 77 76 76 76 76 76 76 75 75 75 76 76 76 76 75 75 75 74 74 73 72 72 71 70 70 69 69
82 83 83 83 83 83 83 83 83 84 83 83 83 82 83 81 81 80 80 79 79 79 78 78 78 78 78 78 79 79 78 78 78 78 78 77 77 77 77 77 77 76 76 76 76 76 76 76 76 76 75 75 75 75 74 73 72 71 70 70 69 68 69
82 83 83 83 83 83 82 83 83 84 84 84 84 83 82 81 81 81 80 80 79 79 79 79 79 78 79 79 78 78 78 78 78 78 77 77 77 77 77 77 77 77 77 77 76 76 76 76 76 76 76 75 75 74 74 73 72 72 71 70 70 69 68
81 83 83 84 84 84 84 84 83 84 85 85 85 84 83 82 82 82 81 81 79 79 78 79 79 79 79 78 78 78 78 78 78 78 78 78 77 78 77 77 76 77 76 76 77 77 77 76 76 76 77 75 75 74 74 73 72 72 71 70 70 70 69
82 83 84 83 83 83 83 83 84 84 85 86 86 84 84 83 83 82 82 82 81 80 80 80 80 80 79 79 79 79 79 78 78 79 79 79 78 78 77 77 77 76 77 77 76 76 76 76 75 75 75 75 75 74 73 73 72 71 71 70 70 69 69
82 82 82 84 84 84 84 85 85 85 85 86 85 84 84 84 84 83 82 81 81 81 81 80 80 80 79 79 80 79 79 79 79 79 78 78 78 77 77 78 77 77 77 76 77 76 76 76 76 75 75 75 75 74 74 73 72 72 71 70 70 70 69
83 83 83 84 84 85 85 86 86 86 87 87 87 86 85 85 83 83 83 82 82 80 80 80 80 80 79 80 79 79 78 78 78 78 79 78 78 78 78 78 78 78 78 77 76 76 76 76 76 76 76 75 75 74 73 73 72 72 71 70 70 70 70
85 84 84 84 85 86 87 86 86 87 87 86 86 85 84 85 84 83 82 83 82 82 81 81 80 80 80 80 80 79 79 79 79 79 79 78 78 78 78 78 78 78 77 77 77 77 76 76 76 76 76 75 75 74 74 73 72 72 71 71 70 70 70
86 85 85 85 86 87 88 87 87 86 85 84 84 84 84 84 84 83 83 83 82 82 81 82 81 81 80 80 79 79 79 79 79 78 78 78 78 78 78 78 78 78 77 77 77 77 77 76 76 76 76 75 75 74 74 73 72 72 72 71 71 70 70
85 84 84 86 87 88 87 87 86 84 83 83 83 82 83 83 84 84 84 83 83 82 82 82 82 81 80 80 79 79 79 79 79 78 78 78 78 78 79 79 79 79 78 78 78 77 77 77 76 76 75 75 75 74 74 73 73 72 72 72 71 71 70
81 82 83 84 85 85 85 86 84 82 83 82 82 83 83 83 83 83 83 84 83 83 83 83 82 82 81 80 79 79 79 78 79 78 78 78 79 79 79 79 80 79 78 78 77 77 77 76 76 76 75 75 75 74 73 73 73 72 72 72 72 72 71
78 78 79 82 83 83 83 84 84 82 81 81 82 83 82 82 83 83 83 83 85 84 83 83 83 82 81 80 79 78 78 78 78 78 78 78 79 79 79 80 79 79 79 78 78 77 77 77 76 76 75 75 75 75 74 73 73 72 72 73 72 71 71
79 78 79 81 81 83 83 81 81 81 81 82 83 83 82 82 83 83 82 83 84 84 83 82 82 81 81 80 80 78 78 78 78 79 79 79 79 79 79 80 80 80 79 79 79 78 77 77 76 76 76 75 75 75 74 74 73 72 72 72 72 71 71
79 80 80 81 82 82 81 80 81 80 80 81 82 82 82 83 83 83 82 82 83 84 83 83 82 81 81 80 79 79 78 79 79 79 79 79 79 79 79 79 79 79 79 79 78 78 78 77 76 77 76 76 75 75 75 74 73 73 72 72 72 71 71
77 79 80 80 80 80 80 80 79 79 80 81 82 81 81 82 82 82 82 83 83 84 83 83 82 81 80 80 79 79 79 79 79 79 79 79 79 78 78 79 79 79 79 78 78 79 79 78 78 76 75 75 75 75 75 74 73 73 73 72 71 71 71
77 78 79 80 80 80 80 81 80 78 79 79 80 81 81 81 81 81 82 82 83 83 83 82 81 80 80 79 79 79 79 79 79 79 79 78 78 78 78 78 78 78 78 78 78 78 78 78 78 77 76 75 74 74 74 74 74 71 67 69 73 72 72
77 79 80 81 81 81 81 80 79 79 78 79 80 81 81 81 81 82 83 82 82 82 83 82 81 80 80 79 80 80 79 79 79 79 78 78 78 78 78 78 78 78 78 78 78 78 77 78 77 77 77 76 75 74 74 74 74 67 64 65 68 72 72
76 77 79 80 78 75 75 76 77 77 78 79 80 80 81 80 81 81 81 82 82 83 84 82 81 80 80 80 80 79 79 79 79 78 78 78 78 78 78 78 77 77 77 77 77 77 78 77 77 77 77 76 76 75 74 74 69 64 63 65 65 68 73
76 77 78 77 76 77 80 81 80 79 79 80 80 81 82 82 81 80 81 81 82 83 82 81 81 81 80 80 80 79 79 79 78 78 78 78 78 78 78 77 77 77 77 77 78 77 77 77 77 76 76 76 75 75 75 75 67 63 62 64 64 65 69
70 75 79 79 78 80 81 81 81 81 80 80 81 83 83 83 82 82 83 83 82 81 81 81 81 81 80 80 80 80 79 79 79 78 78 78 78 78 77 77 77 77 78 78 77 77 77 77 77 77 76 76 76 75 76 75 66 62 61 62 63 64 66
68 69 71 75 78 80 78 77 76 76 76 78 81 82 82 81 83 83 82 81 80 81 81 81 81 80 80 80 80 80 79 79 79 78 78 78 78 77 77 77 77 77 77 78 77 77 77 77 76 77 76 76 77 76 75 77 64 60 60 61 61 63 65
68 71 73 72 72 74 76 78 79 79 79 81 81 82 82 83 84 83 81 81 81 81 81 81 80 80 80 80 80 80 80 79 79 78 78 78 77 77 77 77 77 77 77 78 78 78 78 77 77 77 76 76 77 76 75 76 62 59 59 60 61 62 67
69 69 70 69 72 75 73 74 76 79 80 81 81 82 83 84 83 82 80 79 80 80 80 80 79 80 80 80 80 80 80 80 79 78 78 78 77 77 77 77 77 77 78 77 77 77 77 77 77 77 77 76 76 75 75 75 63 58 58 59 60 62 68
69 69 68 69 68 70 70 74 78 77 78 76 78 81 82 82 82 80 79 79 79 79 79 79 79 80 80 80 81 81 81 80 80 79 78 78 77 77 78 78 78 78 78 77 77 77 77 78 77 77 77 77 76 76 75 76 64 56 57 59 59 62 67
67 68 68 68 68 68 69 70 73 76 75 74 75 75 75 76 77 78 78 78 78 79 79 79 80 80 80 81 82 82 81 81 80 80 79 78 78 78 78 78 78 78 78 78 78 78 78 77 77 77 77 77 77 72 74 76 64 55 58 58 58 62 68
65 66 67 68 69 68 68 69 70 74 74 75 77 76 76 77 77 78 78 78 79 78 79 79 81 82 82 82 82 82 82 82 81 80 80 79 79 79 79 79 78 78 78 78 78 78 78 77 77 76 76 76 76 76 75 74 67 60 57 57 56 58 67
65 66 66 67 67 69 68 68 68 69 70 71 73 74 75 78 79 78 78 78 77 78 80 81 82 82 82 82 82 82 82 82 82 81 81 81 80 80 79 79 78 78 77 77 77 77 76 76 76 76 75 74 75 75 73 74 69 63 55 55 56 57 63
65 66 67 67 68 67 68 68 68 68 69 69 70 73 76 76 76 76 77 76 77 79 82 82 82 82 81 81 81 82 82 82 82 82 81 81 80 79 78 79 79 79 78 77 76 76 75 74 74 74 72 71 71 71 71 70 67 67 57 56 54 55 60
63 64 63 64 65 66 67 66 66 67 67 69 69 70 72 76 75 75 75 76 78 81 82 81 79 78 79 79 80 81 82 82 81 81 81 81 80 79 78 78 78 77 77 76 75 74 73 73 72 70 68 67 67 69 69 69 67 61 60 55 53 53 56
65 65 64 65 66 65 67 66 66 66 67 67 67 68 68 70 74 75 75 77 80 81 80 78 79 79 79 79 80 80 81 82 82 82 82 81 80 79 78 77 77 76 76 76 74 73 72 70 70 69 67 67 65 66 66 67 67 61 59 58 54 53 54
64 64 64 64 64 65 66 66 65 65 65 66 67 68 68 68 68 70 73 77 77 75 78 79 80 79 79 80 80 80 81 81 81 81 81 81 80 78 78 77 76 75 74 74 73 72 71 69 69 69 68 66 65 65 64 65 64 63 61 57 54 53 53
65 65 65 65 65 65 65 66 66 66 66 67 67 68 68 68 68 67 69 69 72 75 77 78 77 77 78 80 80 80 81 80 80 80 80 80 80 79 79 77 76 75 73 73 72 71 70 68 69 69 67 66 65 65 64 63 62 60 60 59 57 56 55
64 64 64 63 65 66 65 66 66 66 66 66 67 68 67 67 67 67 68 69 69 72 75 76 76 77 77 78 79 79 79 79 79 79 79 79 79 79 77 77 76 74 71 72 71 70 70 69 68 68 67 66 65 64 64 63 61 60 59 58 58 58 57
64 64 64 65 65 65 64 65 64 65 66 66 67 67 66 66 67 67 68 68 69 70 70 73 74 75 75 76 76 76 77 77 78 78 77 77 77 76 75 74 75 73 72 72 72 71 70 69 69 68 67 66 65 64 63 62 61 60 59 58 58 58 58
64 64 65 65 65 64 64 63 63 63 64 65 66 66 66 66 67 67 67 68 69 69 68 68 68 69 70 72 73 73 74 75 75 75 76 76 75 73 73 74 74 72 73 75 75 74 72 71 70 69 69 68 65 64 63 62 61 62 58 61 57 59 59
63 64 65 66 66 65 65 65 65 64 63 64 66 66 66 66 67 67 68 68 69 68 68 67 67 66 66 67 69 70 72 72 72 72 73 72 68 61 56 52 50 61 70 65 63 66 63 64 70 70 69 67 66 67 66 65 66 56 51 49 50 50 52
63 63 63 64 65 65 65 66 66 65 64 63 64 65 66 67 67 67 68 68 68 69 68 67 66 66 66 66 67 67 68 67 67 67 67 67 66 67 63 58 53 44 48 58 59 55 50 51 54 58 62 67 65 60 58 59 53 49 48 47 47 48 48
64 64 64 64 64 65 65 66 66 65 65 64 64 65 66 66 67 67 68 68 67 67 66 66 65 64 64 64 65 66 66 67 66 65 65 65 66 66 63 61 57 54 45 45 51 52 50 50 51 52 54 57 59 58 56 50 48 47 46 47 46 46 46

ECMWFFLT1_sfc_temp_042.txt.gz
Temp
81 80 80 81 80 80 80 80 80 80 80 80 80 80 80 80 79 78 78 77 77 76 77 77 77 77 77 77 77 78 78 78 78 77 77 77 77 77 76 76 76 76 76 76 76 76 77 77 76 77 77 77 76 76 75 75 74 74 73 72 72 71 71
79 80 80 81 81 80 80 81 80 81 81 81 80 80 81 80 79 79 78 78 77 77 77 77 77 77 77 77 78 78 77 78 78 78 78 77 77 77 77 77 76 76 76 77 77 77 77 77 77 76 76 77 76 76 75 74 74 73 73 72 71 70 71
79 80 80 81 81 81 80 81 81 81 81 82 82 81 80 79 80 79 79 78 77 77 78 77 77 78 78 78 78 78 78 78 78 78 77 77 77 78 77 77 77 77 77 77 77 77 78 77 77 77 77 76 76 76 75 74 74 74 73 72 72 71 70
79 80 81 81 81 81 82 81 81 82 83 83 83 82 81 80 81 80 80 80 78 78 77 78 78 78 78 77 77 77 77 78 78 78 78 78 78 78 77 77 77 77 77 77 78 78 78 77 77 76 77 76 76 76 75 75 74 74 73 72 71 71 71
79 80 81 80 81 81 81 81 82 81 83 84 84 82 82 82 82 81 81 81 81 79 79 79 80 79 79 79 78 78 78 78 78 79 79 79 78 78 77 77 77 77 77 78 77 77 77 76 76 76 76 76 76 76 75 75 74 73 73 72 71 71 71
79 78 79 81 82 82 82 83 84 84 84 84 84 83 83 84 83 83 82 81 80 81 80 79 79 79 78 79 79 79 79 78 78 78 78 78 78 77 77 77 77 77 77 77 78 77 77 77 77 76 76 77 76 76 75 75 74 74 73 72 72 72 71
80 80 80 81 82 82 83 83 84 85 85 85 86 85 85 85 83 83 83 82 81 80 80 80 80 79 79 79 78 78 78 78 78 78 79 79 78 78 77 77 77 78 78 77 77 77 77 77 77 76 76 76 76 76 75 74 74 73 73 72 71 71 71
81 81 80 81 83 84 84 84 84 85 85 85 85 85 84 84 84 83 82 83 82 82 81 81 80 79 79 79 79 78 79 79 79 79 79 78 78 78 78 78 77 78 77 77 77 77 77 77 77 77 76 76 76 75 75 74 74 74 73 72 72 71 72
81 81 81 82 83 84 85 84 84 84 83 83 83 83 84 83 84 83 83 83 83 82 82 82 82 81 79 79 78 78 79 79 79 79 78 78 78 79 79 79 78 78 77 77 78 77 77 77 77 76 76 76 76 75 75 75 74 74 73 72 72 72 72
79 79 80 81 82 83 83 84 83 81 81 81 81 81 82 83 83 83 83 84 83 82 82 82 82 82 80 79 79 79 79 78 79 79 79 79 79 79 79 80 79 79 78 78 78 77 77 77 77 77 76 76 76 75 75 75 74 74 73 73 72 72 72
76 76 77 77 78 80 81 82 80 79 80 79 80 82 82 82 82 83 82 84 84 83 84 83 83 82 81 80 80 79 78 78 79 78 78 79 80 79 80 80 80 79 79 78 78 78 77 77 77 76 76 76 76 75 75 75 75 74 74 73 73 73 73
72 72 74 76 78 78 79 80 80 79 78 79 81 82 80 81 82 83 83 83 84 84 83 83 83 82 81 81 80 78 78 78 78 79 78 79 79 80 80 80 80 79 79 79 78 78 78 77 77 76 76 76 76 76 76 75 75 74 74 74 74 73 73
71 72 74 76 77 78 77 77 78 79 78 81 82 82 82 82 82 83 81 82 84 84 83 82 82 81 81 81 80 78 78 78 78 79 79 78 79 80 80 80 80 80 79 79 79 78 78 78 77 77 77 76 76 76 76 76 75 74 74 74 73 73 72
71 72 73 72 73 74 75 77 78 78 78 80 81 81 82 83 83 82 81 82 83 84 84 83 82 81 80 80 79 78 78 78 79 79 79 79 79 79 79 80 79 79 79 79 78 79 78 78 77 77 77 77 77 77 76 76 75 74 74 74 74 73 73
69 70 72 71 71 73 75 77 77 77 78 79 81 80 81 81 81 81 81 82 82 84 83 82 81 80 80 79 78 78 78 78 79 79 79 79 78 78 78 79 78 79 79 78 78 79 79 79 78 77 76 77 76 76 76 76 75 75 75 74 73 73 73
70 72 73 73 73 74 75 77 78 77 78 78 79 79 81 80 80 81 81 81 82 81 83 81 80 79 79 79 78 79 79 79 78 78 78 78 78 78 78 78 78 78 78 78 78 78 78 78 78 78 77 76 76 76 76 76 76 72 67 69 74 73 73
70 71 73 73 72 74 76 77 78 77 77 77 78 79 80 80 80 81 83 82 82 81 82 82 79 79 79 78 79 79 79 78 78 78 77 78 78 78 78 78 78 78 77 78 78 78 77 78 77 78 78 77 76 76 75 76 76 67 64 65 67 73 73
69 70 71 72 72 73 74 76 76 76 77 78 79 79 80 79 80 80 81 81 81 83 83 82 80 79 78 79 79 79 78 78 78 78 78 78 77 78 78 78 77 77 77 77 77 77 78 77 77 77 77 77 77 76 76 76 69 65 64 64 64 67 74
69 70 70 67 69 71 74 77 78 77 79 79 79 80 81 81 81 79 80 80 81 81 81 80 80 79 79 79 79 78 78 78 78 78 77 77 78 78 78 77 77 77 77 77 77 78 77 77 77 77 77 77 76 76 77 77 68 64 63 63 63 64 69
66 69 70 70 70 73 74 75 77 78 78 78 80 83 82 81 82 81 82 81 80 80 79 79 79 79 79 79 79 79 79 78 78 78 78 78 78 78 77 77 77 77 78 78 77 77 77 77 77 77 76 77 76 76 77 77 68 63 61 62 62 63 66
62 63 65 68 69 72 73 73 75 75 75 78 81 81 80 80 82 81 80 79 79 79 79 79 79 79 79 79 79 79 79 78 78 78 78 78 78 77 77 77 77 77 77 78 77 77 76 76 76 77 77 77 77 77 77 78 66 61 60 60 60 61 64
64 64 64 66 66 68 70 73 74 76 76 78 78 79 80 81 82 81 80 79 80 79 79 79 78 78 78 78 79 79 79 79 78 78 78 78 77 77 77 77 77 77 77 77 78 78 78 77 78 77 77 77 77 77 76 78 64 60 59 59 59 61 68
65 65 65 66 67 66 66 69 73 74 74 75 77 78 79 79 80 79 78 78 79 78 78 78 78 78 78 79 79 79 79 79 78 78 77 77 77 77 77 77 77 77 78 77 77 77 77 77 78 77 78 77 77 76 76 77 66 59 58 58 58 62 70
66 66 67 67 67 68 69 67 70 73 76 74 74 75 76 78 79 78 77 77 77 77 77 78 78 79 78 79 79 80 80 79 79 78 78 77 77 77 77 78 78 78 78 77 77 77 78 78 78 78 78 77 77 77 77 78 68 57 57 56 57 64 69
65 66 66 66 66 67 68 68 68 73 74 73 74 74 75 76 77 77 76 77 77 77 78 78 78 79 79 79 80 80 80 80 79 79 78 78 78 78 78 78 78 78 78 78 78 78 78 78 77 78 78 79 79 71 75 78 70 56 57 55 57 65 70
64 64 65 66 67 68 68 69 70 69 69 71 72 73 76 76 77 77 76 76 77 77 77 78 79 80 81 81 80 80 80 80 79 79 79 78 78 78 78 78 78 78 78 78 79 78 78 78 78 77 78 79 78 78 77 77 76 62 55 55 56 60 70
65 65 64 66 66 68 67 68 68 67 68 68 68 70 74 76 77 76 76 75 75 76 78 79 80 79 79 79 80 80 80 80 80 79 80 80 79 79 79 79 79 78 78 78 78 78 77 77 77 77 77 78 78 78 78 78 76 63 54 54 55 58 64
64 65 65 67 67 66 67 66 66 67 67 67 68 69 72 74 75 75 74 75 75 77 80 79 79 78 78 78 79 80 80 80 80 80 80 80 80 78 78 79 80 79 78 78 77 76 76 76 76 76 76 77 77 77 77 75 70 67 55 55 54 56 59
63 63 64 64 64 66 66 65 65 65 66 67 68 68 69 72 74 74 73 74 76 78 79 79 78 78 78 78 78 79 79 80 79 80 81 80 80 79 78 78 78 78 78 77 76 76 75 75 75 75 75 75 75 76 76 76 72 62 61 55 54 54 56
64 64 65 65 65 65 66 66 66 66 67 67 68 68 68 69 69 70 71 71 71 73 76 78 77 77 77 77 78 79 79 80 80 80 80 80 79 79 78 78 78 78 77 77 76 75 75 75 75 75 75 74 74 73 73 74 73 63 60 59 54 53 55
64 64 64 64 65 65 66 66 66 66 66 67 67 68 68 68 68 68 68 68 69 70 72 75 76 76 76 77 78 78 79 79 79 79 80 80 79 78 78 78 78 77 77 77 76 76 75 75 75 74 74 73 72 71 71 71 71 70 64 59 54 53 54
65 66 66 66 65 66 66 67 66 66 66 66 67 67 67 67 67 67 67 68 69 70 71 73 74 75 76 77 77 78 79 79 79 79 80 80 80 79 79 79 78 77 77 76 76 76 75 75 74 74 74 72 72 70 70 69 69 67 65 61 58 56 54
64 64 64 64 65 66 65 65 64 64 65 65 66 67 67 67 67 67 68 69 69 70 70 72 73 74 75 75 77 77 78 78 79 79 80 79 80 80 79 79 79 77 76 76 76 76 75 75 74 73 73 72 71 70 68 66 67 65 63 61 60 60 58
64 64 65 65 66 66 65 64 64 64 64 65 66 67 67 67 67 67 67 68 69 69 69 69 70 71 73 74 75 75 76 76 77 78 79 79 79 80 79 79 79 78 77 76 77 76 75 75 74 73 73 72 71 68 66 65 65 64 61 60 60 60 61
64 64 65 65 65 66 65 65 64 64 65 65 66 67 67 67 68 68 67 68 69 69 69 68 68 69 70 71 72 72 73 74 75 76 77 78 78 78 79 79 79 78 79 80 80 78 77 76 75 74 74 74 70 67 65 65 64 64 59 62 58 60 63
64 64 65 66 66 67 67 67 66 64 64 64 65 67 67 67 67 67 68 68 68 68 68 68 68 68 68 68 68 69 71 72 72 73 73 75 76 76 76 71 61 68 77 76 70 69 67 66 73 75 74 73 71 71 69 67 68 57 52 51 51 52 55
64 64 64 66 66 66 66 66 66 65 65 64 65 66 67 67 67 67 67 68 67 67 67 66 67 66 66 66 66 66 67 67 67 69 71 73 73 74 73 72 67 53 52 60 66 63 59 57 60 62 65 69 68 65 62 59 53 50 50 48 49 50 50
64 64 65 66 66 66 66 66 66 65 65 66 65 65 66 66 67 67 67 68 67 67 66 66 66 65 64 64 65 65 65 65 64 64 64 65 67 70 72 70 68 65 54 52 56 59 55 55 54 54 56 58 62 62 61 53 50 48 47 48 48 48 48

ECMWFFLT1_sfc_temp_045.txt.gz
Temp
87 86 86 86 86 86 85 84 84 85 84 84 84 85 86 85 84 84 83 82 81 81 81 81 81 82 81 82 82 82 83 82 82 82 82 83 83 83 82 83 83 83 84 84 84 84 84 85 84 84 84 84 84 84 84 84 83 83 82 81 81 81 81
86 87 87 87 86 86 86 86 85 85 85 85 85 84 86 85 84 84 83 83 82 82 82 82 81 81 82 82 82 82 82 82 82 82 83 83 83 83 84 83 83 83 83 84 85 85 85 85 85 84 84 84 84 84 84 84 83 82 82 81 81 80 80
87 87 87 87 87 87 85 87 86 86 86 87 87 86 85 84 84 84 83 83 82 82 83 82 82 82 82 82 82 82 82 83 82 83 82 83 83 85 84 84 83 84 84 84 84 85 85 85 84 84 84 84 85 84 84 84 83 83 82 81 80 80 79
86 87 88 87 87 87 87 87 87 87 88 88 88 88 86 84 85 85 85 84 83 82 81 82 82 82 82 82 82 82 82 82 83 83 84 84 84 84 84 83 83 84 84 84 85 85 86 85 84 84 83 84 83 84 84 84 84 83 82 81 81 81 80
87 88 88 87 87 87 87 87 87 87 88 90 89 87 87 86 87 87 86 86 86 84 84 84 85 84 83 83 83 83 82 83 83 84 84 84 84 84 83 84 84 84 84 85 85 84 84 84 84 84 83 83 84 83 83 84 83 82 81 81 80 80 80
87 86 86 87 88 88 88 89 90 90 89 90 90 89 89 90 90 89 88 86 86 87 85 84 84 83 82 83 84 83 83 83 83 83 84 84 83 83 84 84 85 85 85 84 85 85 84 84 84 84 84 84 85 84 84 84 84 84 81 80 80 81 81
88 86 86 87 88 89 89 89 91 91 91 91 92 91 91 92 90 90 90 88 88 85 85 85 85 84 83 84 83 83 82 83 83 83 84 84 84 84 83 84 84 85 85 85 84 85 84 84 83 84 84 84 84 84 83 83 83 82 81 80 80 80 80
89 87 87 88 89 91 91 90 90 92 92 91 92 92 92 92 91 91 90 90 89 89 88 87 86 84 83 84 84 83 83 84 84 84 84 84 84 83 84 84 84 84 84 84 84 84 85 84 85 84 84 84 83 83 83 82 82 83 82 80 80 80 80
90 88 88 90 90 92 92 90 90 90 89 88 89 89 91 91 91 90 90 90 89 89 88 89 88 87 84 83 83 83 84 84 84 84 84 84 84 85 86 85 84 85 84 84 85 84 84 84 85 83 83 83 83 82 83 82 82 82 81 81 80 79 80
88 87 87 89 90 92 90 91 89 87 87 86 86 87 89 89 89 90 90 91 91 90 89 89 89 88 85 84 84 84 84 83 84 85 86 85 85 86 86 87 86 85 84 85 86 85 84 85 84 84 82 82 82 82 82 82 82 82 82 81 80 80 79
86 85 85 87 87 88 88 90 87 84 85 84 85 88 88 88 88 90 89 91 91 91 91 90 89 88 87 86 86 85 83 83 84 84 85 85 87 87 88 88 88 86 85 85 85 85 84 83 84 83 83 82 82 82 82 82 82 82 82 82 81 81 81
83 83 82 84 85 86 86 85 85 84 84 84 86 88 86 86 88 90 89 89 92 91 90 90 90 89 87 87 86 84 83 83 84 85 85 85 87 87 88 88 87 87 86 86 85 85 86 84 84 83 82 83 83 83 82 82 82 82 82 83 82 81 81
81 81 81 83 83 85 84 83 83 84 83 86 88 88 88 88 88 89 87 88 91 91 90 89 88 87 87 87 87 84 82 83 84 84 85 84 85 87 87 88 89 88 87 87 86 86 86 86 84 83 83 83 83 83 83 82 82 82 82 82 81 81 80
79 81 82 82 82 82 82 82 83 83 83 85 86 87 88 89 89 88 87 88 89 91 91 90 88 86 86 86 85 83 83 83 84 85 85 85 84 85 86 87 86 86 86 86 86 87 86 86 85 84 84 84 83 83 83 83 82 82 82 81 81 81 80
84 86 85 83 80 81 82 82 82 83 84 84 86 86 87 88 88 87 87 88 88 91 90 89 87 86 86 84 83 83 83 83 84 84 84 84 83 84 84 85 85 85 85 85 85 86 87 87 86 84 83 84 83 83 83 83 82 82 82 81 81 81 81
86 88 88 86 84 83 81 82 83 83 84 83 84 85 87 87 86 88 88 88 89 88 90 88 86 85 85 84 83 83 84 83 83 83 83 83 82 82 83 84 84 84 84 84 85 85 85 85 85 86 84 83 83 83 83 83 83 76 69 72 81 81 81
86 87 88 87 85 83 82 82 83 83 83 83 83 84 85 86 86 87 91 89 90 87 89 89 85 84 84 83 84 84 84 83 83 83 82 82 83 83 83 83 83 83 83 83 83 84 83 84 84 85 85 84 84 83 82 83 82 68 65 67 69 79 81
85 84 84 84 83 82 81 82 82 83 83 85 85 85 85 84 87 87 88 88 88 90 91 89 87 85 83 84 84 84 83 83 83 82 82 82 82 82 82 83 83 82 82 83 83 82 84 83 83 83 84 84 85 84 83 83 72 65 64 65 65 69 81
87 86 83 80 80 80 82 84 85 83 85 87 86 86 87 87 88 85 86 86 87 88 88 86 86 85 84 84 84 83 83 83 83 82 82 82 82 83 82 82 82 82 82 82 83 83 82 82 83 82 83 84 83 84 84 84 70 64 63 64 64 64 72
84 84 81 81 80 81 81 82 84 86 86 85 87 90 88 88 88 87 88 87 87 86 85 85 85 84 84 84 84 84 83 83 83 82 82 82 82 82 82 82 81 82 83 83 82 82 82 82 82 82 82 82 82 82 84 84 69 62 61 62 62 63 68
79 78 78 78 77 80 79 79 80 82 83 86 89 89 88 88 89 89 87 87 86 85 84 85 84 84 84 84 84 84 84 83 83 82 82 82 82 82 82 81 82 82 82 83 83 82 81 82 82 82 83 83 84 83 83 85 65 61 60 60 60 62 65
80 79 79 78 76 75 75 78 79 82 84 87 88 90 89 89 90 90 87 87 86 85 84 84 84 84 84 84 84 84 84 83 83 82 83 82 82 82 81 81 81 81 82 83 84 84 84 83 84 83 83 83 84 84 83 86 64 60 59 59 59 60 72
77 76 75 76 77 77 77 77 77 80 83 85 87 89 89 90 90 89 87 86 86 84 84 84 83 84 83 84 84 84 84 84 83 82 82 82 82 82 81 81 81 82 83 82 83 83 83 83 84 83 84 84 84 82 83 86 68 59 58 58 57 62 75
76 75 76 76 75 77 78 78 79 80 83 85 85 87 87 88 88 86 84 84 84 84 83 84 84 84 84 84 85 84 84 84 83 82 82 82 82 82 82 83 83 83 83 82 83 83 85 85 84 85 84 84 84 85 84 85 71 57 57 58 56 64 75
76 76 76 75 74 76 77 78 79 83 83 84 83 84 85 85 86 86 84 84 84 84 85 84 84 85 85 85 85 85 85 84 83 83 83 82 82 83 83 83 83 84 83 84 84 83 84 84 84 84 84 87 86 75 81 86 75 56 58 57 56 65 76
72 73 75 75 75 76 76 76 78 78 78 78 77 80 84 85 86 85 84 83 86 85 84 84 85 86 86 87 86 86 85 85 83 83 84 83 83 83 83 84 84 84 83 83 83 82 83 83 83 83 83 85 85 85 84 84 83 65 56 56 55 59 75
70 70 71 72 72 73 76 76 75 74 73 74 76 80 83 84 85 84 84 83 83 83 85 86 86 85 85 85 86 86 85 86 85 84 85 85 84 84 84 85 84 84 83 84 84 83 83 82 82 81 81 83 84 85 85 84 85 70 55 55 55 56 66
70 71 72 71 70 72 74 75 73 73 74 75 78 81 83 83 83 82 83 82 82 84 86 86 86 85 85 84 85 86 86 86 85 85 86 85 84 83 82 84 85 84 84 84 83 81 81 82 82 82 82 82 83 83 84 79 73 76 56 56 54 55 60
68 69 69 70 71 72 74 72 71 71 72 74 76 79 82 84 81 81 81 81 80 82 85 85 86 85 85 84 84 84 85 85 85 85 86 85 84 83 82 83 83 83 83 82 82 81 80 80 80 81 81 81 82 83 82 83 78 65 64 55 54 54 57
69 69 70 71 71 72 73 71 71 70 71 73 73 74 77 80 79 80 79 75 76 78 81 84 85 84 84 83 84 84 85 85 86 85 85 84 84 83 83 82 82 82 82 82 81 81 80 80 81 80 80 80 80 81 81 81 82 66 60 59 54 54 55
69 69 70 70 71 71 72 72 69 69 69 71 71 72 73 76 76 74 72 72 75 76 78 80 82 83 83 83 84 83 85 85 85 85 85 85 84 83 83 83 83 81 82 82 82 81 81 81 81 79 79 79 79 80 80 81 80 74 62 57 55 55 55
69 70 72 72 71 71 71 70 70 69 68 69 71 71 71 72 74 71 71 74 75 75 76 80 80 81 82 83 84 84 84 84 85 85 85 85 85 84 84 84 83 82 82 82 82 81 81 80 81 80 80 79 81 80 81 80 80 76 70 62 58 57 56
68 69 69 69 70 70 71 71 70 69 69 68 70 72 72 71 71 71 73 74 77 77 77 78 78 79 80 81 82 83 84 83 85 85 85 85 86 86 85 85 85 84 82 82 82 81 81 80 80 79 80 80 81 81 81 79 78 76 73 67 65 65 63
68 68 70 71 71 71 70 70 69 69 69 69 70 71 72 72 72 73 73 74 75 76 76 76 76 77 77 78 80 81 82 82 81 81 85 85 85 86 86 86 86 85 83 83 83 82 81 81 80 80 80 81 82 81 81 79 79 77 73 72 71 68 67
68 69 70 69 70 70 69 68 69 69 68 69 71 71 71 71 73 73 73 73 74 75 75 74 75 76 76 75 75 74 75 77 79 81 82 83 83 85 85 85 86 85 85 87 87 86 85 84 83 82 84 84 83 81 79 77 75 76 67 73 63 68 68
69 70 70 70 71 70 70 70 69 69 68 69 71 71 71 71 72 73 74 74 74 74 73 73 73 73 73 74 73 73 72 72 72 72 72 73 74 75 76 71 62 68 77 80 71 65 63 64 81 86 88 86 85 85 83 80 78 66 58 56 55 57 58
69 69 69 70 70 69 69 70 70 70 70 70 71 71 72 72 73 74 74 74 75 74 74 73 71 71 71 72 72 71 73 73 72 71 72 71 71 72 71 73 75 60 56 56 57 56 53 51 50 51 58 73 82 78 68 69 66 56 53 53 53 53 53
67 68 69 70 69 69 69 69 70 70 69 71 71 71 71 72 73 74 75 75 74 74 74 74 72 70 70 71 71 71 72 73 73 73 73 73 72 72 70 70 70 72 62 57 55 54 51 51 52 53 54 53 59 70 77 63 55 51 53 52 52 51 51

ECMWFFLT1_sfc_temp_048.txt.gz
Temp
98 97 95 95 93 94 93 92 91 91 90 90 90 91 91 91 90 90 89 87 86 86 86 86 86 87 86 86 86 87 87 87 87 87 87 88 89 88 88 89 88 88 90 90 90 90 90 91 91 91 90 89 90 89 89 89 88 89 89 88 87 86 86
98 98 97 97 95 94 93 93 92 92 91 91 91 90 92 90 90 90 89 88 87 86 86 86 86 86 86 86 87 87 86 87 87 87 88 88 88 89 89 89 88 88 89 90 91 91 91 91 91 90 90 90 89 89 90 89 88 88 88 87 86 85 85
98 98 98 97 96 95 93 94 93 93 92 93 93 92 91 89 89 89 89 89 87 87 88 87 86 87 87 87 87 87 87 87 87 88 88 89 89 91 90 89 89 90 90 90 90 91 92 91 90 90 90 90 90 89 89 89 88 88 88 87 87 86 85
97 98 99 98 96 95 95 94 93 94 95 95 94 93 91 89 91 90 90 90 88 87 86 87 87 88 88 86 86 86 87 87 87 89 89 89 89 89 89 89 89 90 90 90 92 92 92 91 91 90 89 89 89 90 90 89 90 88 88 87 87 87 86
97 99 99 98 97 95 95 95 94 93 95 96 95 92 92 92 92 92 92 92 92 89 89 89 90 89 88 88 88 88 87 87 88 89 89 90 89 89 89 90 90 90 90 91 91 90 89 90 91 90 89 89 90 90 89 89 89 88 87 87 86 86 87
98 97 97 98 98 97 96 97 97 97 96 97 96 95 95 95 95 95 94 91 91 92 90 89 89 88 87 88 88 88 88 88 88 88 88 89 89 89 89 89 91 91 92 90 92 91 90 90 90 90 90 91 91 91 90 89 89 89 88 87 86 87 88
98 98 97 97 98 98 97 97 99 99 98 99 99 98 98 98 96 96 96 94 93 91 91 91 91 90 88 88 88 88 87 88 88 88 89 89 89 89 89 89 89 91 91 91 90 91 90 89 89 90 90 91 89 90 89 88 88 89 87 86 86 86 87
100 98 97 98 99 100 100 98 98 100 99 99 99 99 98 98 98 97 96 96 95 95 94 93 92 89 88 88 89 88 88 89 90 89 89 89 89 89 90 90 89 90 90 91 90 91 92 90 91 90 90 91 89 89 90 88 88 90 88 86 86 86 87
101 99 98 100 100 102 101 99 98 98 97 96 97 97 98 98 98 97 97 97 96 95 95 96 94 93 89 89 88 88 89 89 90 89 89 90 90 92 92 92 90 91 90 91 92 91 90 91 91 89 89 89 89 88 88 88 88 88 88 87 86 86 87
98 95 95 98 99 101 99 100 98 95 95 94 94 94 96 97 97 97 98 98 98 96 96 96 96 95 91 89 89 89 89 88 89 91 92 91 91 92 93 94 92 91 91 91 93 92 90 91 91 90 88 88 88 88 88 88 88 88 88 87 87 86 86
97 94 94 96 96 96 97 99 96 92 93 91 92 96 95 95 96 97 97 98 99 98 98 96 96 95 93 92 91 91 88 89 90 90 91 92 93 93 94 95 95 93 92 92 92 92 91 90 90 89 88 88 88 88 88 88 88 87 88 88 88 87 88
93 93 91 92 94 94 95 94 94 92 92 91 93 95 93 93 96 97 97 97 99 99 97 97 98 96 94 93 92 89 88 88 90 91 91 91 93 94 95 96 95 95 93 93 92 92 93 91 90 90 88 88 89 88 88 88 88 87 88 89 89 88 88
94 92 90 93 92 93 92 92 91 91 91 93 95 95 95 95 95 96 94 95 98 99 98 95 95 94 94 93 93 89 88 89 89 90 92 90 92 94 95 96 97 96 95 94 93 93 93 94 91 90 89 89 89 89 88 88 88 88 87 88 88 88 87
88 92 93 92 91 91 90 90 90 91 90 92 94 94 95 96 96 95 94 95 96 99 99 98 95 93 93 92 91 89 88 88 89 91 90 91 90 91 93 94 94 93 94 94 93 94 94 94 92 92 91 90 89 89 89 88 88 88 87 87 88 88 87
98 99 95 93 90 90 90 91 90 90 92 92 94 93 94 95 95 94 94 95 95 99 98 96 94 93 93 91 89 88 88 88 89 90 90 90 90 89 90 92 92 92 92 92 93 93 95 94 94 92 90 90 89 89 89 89 88 88 88 87 87 88 88
98 100 101 98 93 93 90 91 91 90 91 90 92 92 94 94 93 94 94 94 96 95 97 95 93 91 91 90 89 89 89 88 88 88 89 89 88 88 89 90 90 91 91 91 92 92 91 92 92 94 92 90 89 89 89 89 89 81 73 76 87 87 88
97 99 101 101 96 94 93 92 92 91 90 90 90 91 92 92 93 94 97 96 96 94 96 97 92 90 90 89 90 89 89 88 88 88 87 88 88 88 88 88 89 89 89 89 90 90 89 90 91 93 93 92 91 89 89 89 88 72 68 69 72 84 87
97 97 99 100 100 97 93 92 91 91 91 92 93 91 92 91 93 94 95 95 95 97 98 96 94 91 89 90 89 89 88 88 88 87 87 87 87 87 88 88 88 88 88 88 89 88 90 89 89 90 92 92 92 91 90 90 76 67 66 67 68 73 87
98 99 99 97 98 95 97 98 97 92 93 95 95 94 94 93 95 92 93 93 94 95 95 93 93 90 89 90 89 88 88 88 88 87 87 87 87 87 87 87 87 87 87 88 88 89 87 88 89 89 89 90 89 91 91 92 73 66 64 66 66 67 77
99 100 101 101 101 98 96 94 94 96 95 92 95 99 96 94 95 94 94 94 94 93 92 91 91 90 89 89 89 89 88 88 88 87 87 87 87 87 87 86 86 87 88 88 88 87 87 88 88 88 87 88 89 88 91 92 72 64 62 64 64 66 72
95 95 96 96 95 96 94 91 90 91 90 94 97 96 96 95 96 96 94 93 92 92 90 91 90 90 89 89 89 89 88 88 88 87 87 87 87 87 86 86 86 87 87 89 88 87 86 87 87 87 88 89 90 89 90 93 69 62 61 61 61 63 69
97 98 98 98 94 90 88 90 90 92 91 93 95 97 97 96 97 98 94 93 92 91 91 90 89 89 89 89 89 89 89 88 88 87 87 87 87 86 86 86 86 86 87 88 89 89 89 88 89 88 88 88 89 89 88 92 67 60 60 60 60 62 77
99 96 93 90 91 90 87 87 87 89 89 89 92 95 96 98 97 96 95 92 93 90 90 90 89 89 89 89 89 89 90 89 89 87 87 87 86 86 86 85 86 86 88 87 88 89 89 88 89 88 90 90 88 87 88 92 73 59 59 59 58 65 81
94 90 90 90 87 87 87 87 88 88 89 89 90 92 94 96 95 93 92 91 91 90 89 90 89 90 89 89 90 90 90 90 89 88 87 87 86 87 87 88 88 88 88 88 88 89 91 90 90 90 90 90 89 91 90 91 76 57 58 58 57 67 80
93 92 88 86 86 87 87 85 85 89 89 88 89 90 92 92 93 93 91 90 90 91 91 90 90 91 90 90 91 91 91 91 89 89 88 87 87 87 87 87 87 89 89 89 89 89 90 90 90 91 90 93 93 77 86 92 79 56 58 56 56 68 81
85 85 86 85 86 85 83 83 85 86 88 88 87 89 90 92 92 91 90 89 93 92 91 90 91 91 92 92 92 92 91 91 89 88 89 88 88 88 88 88 89 89 89 89 90 90 90 91 90 90 91 93 93 93 92 90 90 69 56 56 55 60 80
82 82 82 84 82 80 84 84 84 84 83 84 84 88 90 91 91 90 90 90 89 89 92 92 92 91 91 91 92 92 91 92 90 89 91 90 89 89 89 90 89 89 88 89 90 90 89 89 90 90 89 92 93 93 92 92 91 77 54 55 55 57 68
83 83 83 81 79 81 83 84 82 83 84 85 88 89 90 90 88 88 89 89 89 90 93 93 92 91 91 90 91 92 92 92 91 90 91 90 89 88 87 89 89 89 90 90 88 87 86 87 87 88 89 89 90 90 90 87 77 89 58 56 54 56 59
79 79 79 80 81 82 84 81 80 82 84 88 89 90 90 90 87 87 87 87 88 92 92 92 91 90 90 89 90 90 91 91 90 90 91 90 89 88 87 88 88 88 88 87 87 86 86 86 86 86 87 88 88 89 89 88 83 70 70 55 54 54 57
78 79 79 82 83 82 82 79 80 82 83 84 85 87 89 89 86 86 85 83 85 87 89 89 90 89 89 89 89 89 90 91 91 90 90 89 88 88 87 87 87 87 87 87 87 87 86 86 86 86 86 86 87 88 88 88 89 72 63 63 53 54 55
78 79 80 79 80 80 83 82 78 80 80 81 81 83 84 85 82 81 80 81 84 85 87 87 88 88 88 88 89 88 89 90 90 90 89 89 89 87 87 87 87 86 86 86 86 86 85 85 86 85 85 85 85 86 87 88 87 89 72 60 56 54 54
77 79 80 79 77 78 79 80 79 79 78 79 81 80 81 82 82 79 79 82 82 84 86 86 86 87 87 88 89 89 89 89 90 89 89 90 90 89 89 88 88 88 87 87 87 86 85 85 86 85 85 84 86 85 86 87 88 87 86 66 61 57 55
76 76 77 75 76 77 78 78 78 77 77 77 81 82 83 82 82 82 83 84 86 85 85 86 86 85 86 87 88 88 88 88 90 91 90 90 91 92 90 89 90 89 86 87 88 88 87 85 84 84 85 85 86 86 85 86 87 88 89 80 74 69 65
75 75 76 76 76 77 78 78 77 76 76 76 77 78 78 79 79 80 82 83 85 85 84 83 84 85 85 87 88 89 89 89 86 87 91 91 91 91 91 91 90 88 85 86 86 85 85 86 85 84 85 86 87 86 86 86 88 88 89 86 80 77 74
75 75 75 75 75 75 75 75 75 76 76 76 77 77 77 78 78 79 79 82 83 83 83 82 81 82 81 80 79 79 81 84 85 87 89 90 89 91 88 84 85 84 85 87 85 81 80 81 82 82 84 85 85 85 86 87 86 89 75 86 68 77 79
75 75 74 75 75 75 75 75 74 75 75 75 76 77 77 77 79 80 81 81 81 82 82 81 81 80 80 81 79 79 79 80 81 81 81 82 84 83 83 74 61 72 82 83 70 59 55 58 75 78 78 77 78 79 80 83 89 68 59 59 57 58 61
74 74 74 75 74 74 74 74 75 75 74 75 76 77 77 76 77 79 80 81 82 82 80 79 78 78 79 79 79 78 81 80 81 80 80 80 80 81 80 84 80 57 56 62 63 57 51 49 50 50 53 65 73 73 64 61 58 55 56 54 51 54 55
74 74 74 75 75 74 74 74 74 75 74 76 76 77 76 76 77 77 79 79 80 80 80 79 78 77 77 78 78 78 80 80 80 81 81 80 81 81 80 82 81 80 63 57 61 56 50 50 48 47 47 49 54 61 73 64 58 56 55 56 52 51 53

ECMWFFLT1_sfc_temp_051.txt.gz
Temp
102 102 101 100 98 98 97 95 95 95 94 93 93 94 95 94 92 91 90 88 87 86 87 87 88 88 87 88 88 88 89 89 89 89 89 89 90 90 90 91 90 89 92 92 91 91 92 92 93 93 92 91 91 91 90 90 89 90 89 89 89 89 88
97 102 103 102 100 98 97 96 95 96 95 94 94 93 95 93 92 92 90 89 88 87 87 88 87 88 88 88 88 88 88 88 89 89 89 89 90 90 91 90 90 90 90 92 93 92 92 93 93 93 92 92 91 91 91 90 89 89 90 89 88 87 88
99 102 103 101 100 99 97 98 96 96 95 96 95 95 94 92 92 91 91 90 88 88 88 88 88 88 88 88 88 88 88 89 89 89 89 91 91 93 92 91 91 92 92 92 92 94 94 93 92 92 93 92 92 91 91 90 89 90 90 89 88 88 87
97 100 103 103 100 99 98 98 97 97 98 97 96 96 94 92 93 93 92 91 89 88 87 88 89 89 89 88 88 88 88 88 89 90 91 91 91 91 91 91 91 92 92 92 94 94 95 93 93 92 91 92 91 91 91 90 91 89 89 89 89 88 87
99 101 103 102 102 99 99 98 98 96 98 99 97 95 95 95 95 95 94 93 93 90 91 91 92 91 90 90 90 90 89 89 89 90 91 91 91 91 91 92 92 92 92 94 93 92 92 92 93 92 92 91 92 91 91 91 90 89 89 89 88 88 88
101 100 101 103 103 102 100 100 101 100 99 99 98 97 97 98 97 97 96 94 93 94 92 91 91 90 89 91 91 91 90 89 89 89 90 91 90 91 91 91 93 93 94 93 94 93 93 93 93 93 93 93 93 93 92 91 91 91 89 88 88 89 89
101 100 101 103 104 103 102 101 102 102 101 101 101 99 99 99 98 98 98 96 96 92 93 93 93 92 90 91 90 90 89 90 90 90 91 92 91 91 91 91 92 94 94 93 93 93 93 92 92 92 92 93 91 93 91 90 90 90 89 88 87 88 88
102 101 102 103 105 106 105 102 102 103 101 101 101 101 100 100 99 99 98 98 97 97 96 95 94 92 90 91 91 91 91 91 92 91 91 91 92 91 92 92 92 92 93 93 93 93 94 92 93 92 93 93 92 91 92 90 89 92 90 88 87 87 89
104 102 103 105 106 107 105 103 102 102 100 99 100 99 99 99 99 99 99 98 98 97 96 98 96 95 91 91 91 90 91 92 92 91 91 92 93 94 94 94 93 93 92 94 95 93 93 93 93 91 91 91 91 91 91 90 90 90 90 88 87 87 88
102 101 102 105 105 107 105 105 102 99 98 97 97 97 98 98 98 99 99 100 100 98 98 98 98 97 93 92 92 92 91 91 92 93 94 93 94 94 95 96 95 94 93 94 96 95 93 93 93 92 90 91 90 91 90 90 90 90 90 89 88 87 87
103 100 100 102 102 103 104 104 99 96 97 94 95 99 98 98 98 99 99 100 100 100 100 99 98 97 95 94 94 94 91 91 93 93 93 94 95 95 96 97 97 96 95 95 95 96 94 92 93 91 90 90 90 90 90 90 90 89 90 90 89 89 89
97 97 96 98 99 100 100 98 97 95 95 95 97 99 96 96 98 100 99 99 101 101 100 99 100 99 96 96 94 92 90 91 92 94 93 94 96 96 97 98 98 98 96 96 95 95 97 94 93 92 91 90 91 90 90 90 90 89 89 91 91 89 89
98 96 95 97 97 98 97 96 96 96 95 98 100 99 99 99 99 100 97 98 101 101 100 98 98 97 96 96 96 92 90 91 92 93 94 93 95 97 97 99 100 100 98 97 96 96 97 97 93 92 92 91 91 91 90 90 90 89 89 90 90 89 89
94 99 97 96 96 95 95 95 96 95 95 97 99 99 99 100 100 98 97 98 99 102 102 101 98 97 96 94 93 91 90 91 92 93 93 94 92 94 96 98 98 97 97 97 95 96 96 97 95 94 93 92 91 91 91 90 90 89 89 89 90 90 89
100 100 98 97 94 93 94 94 93 94 95 96 98 97 98 99 99 98 98 99 98 102 101 99 97 96 96 94 92 91 91 91 91 92 93 93 92 92 94 95 95 95 96 95 96 96 97 97 97 94 92 92 91 91 92 91 90 90 90 89 89 90 90
101 102 101 100 96 96 94 94 93 93 94 93 95 96 98 97 97 98 98 98 100 98 101 99 97 94 95 93 92 92 92 91 91 91 91 91 91 91 92 94 94 95 95 95 96 95 94 94 95 97 94 92 91 91 91 91 91 83 75 78 89 89 90
99 101 103 100 96 98 96 96 95 94 93 93 93 95 95 96 97 98 101 99 100 97 100 101 95 94 93 92 92 92 91 90 90 90 90 90 91 91 91 91 92 92 93 93 94 93 92 93 95 96 96 94 93 92 91 92 91 73 69 71 75 87 89
98 98 100 102 100 99 96 97 96 95 95 96 96 95 96 94 97 98 98 99 98 101 102 100 98 95 92 93 92 92 91 91 90 89 89 90 90 90 90 91 91 91 91 92 93 92 94 93 93 93 95 95 94 94 92 92 79 68 68 69 70 76 89
98 99 100 100 100 99 102 104 101 97 99 100 99 98 98 97 98 95 96 96 97 98 98 97 98 95 92 93 92 91 91 90 90 89 89 89 90 90 90 89 90 90 90 91 92 92 91 91 92 92 93 94 92 93 94 94 75 66 67 68 68 69 80
99 101 102 103 103 103 102 102 101 102 100 98 100 104 100 98 98 97 98 97 96 95 94 94 94 93 93 92 92 91 91 90 90 89 89 89 89 90 89 89 89 89 91 91 91 90 91 91 91 91 90 91 92 91 94 94 74 65 65 66 66 68 74
98 97 97 98 98 101 100 99 98 97 97 101 103 102 101 100 100 99 98 96 96 95 93 94 93 93 93 91 91 91 91 90 90 89 89 89 89 89 89 88 89 89 90 92 91 90 89 90 90 90 90 92 93 93 94 97 70 63 63 63 63 65 70
100 100 100 101 99 95 94 97 96 98 97 98 100 102 102 101 102 101 97 97 95 94 93 93 92 92 92 91 91 91 91 90 90 89 89 89 89 88 88 88 88 88 89 91 92 92 92 91 92 91 91 91 92 93 92 96 68 61 62 62 62 64 78
102 102 102 101 101 98 93 92 93 95 94 95 97 99 101 103 103 100 99 96 96 93 93 92 91 92 91 91 91 91 92 92 91 89 89 89 89 88 88 88 88 89 90 89 91 92 92 91 92 91 92 91 91 90 90 94 73 59 60 61 60 66 82
104 104 103 100 96 95 94 94 93 94 94 94 94 95 96 100 100 97 95 94 93 93 92 92 92 92 91 91 92 92 92 92 91 90 89 89 89 89 89 90 90 90 90 90 91 92 93 93 92 92 92 92 92 92 91 93 76 56 59 59 58 68 82
105 101 97 94 93 94 93 90 89 90 92 92 92 93 94 95 97 97 95 94 94 94 94 92 92 93 92 92 93 93 93 93 92 91 91 89 90 90 90 90 90 91 91 92 91 91 92 92 92 93 92 95 94 81 89 93 80 56 59 57 57 69 83
90 92 94 94 94 91 89 88 88 89 91 93 93 94 94 94 95 95 94 94 96 94 93 92 93 94 94 95 94 94 93 93 91 90 91 90 90 90 90 91 92 92 92 91 92 92 93 93 92 92 93 95 95 95 93 92 92 70 57 56 56 61 82
91 91 90 91 89 85 89 90 89 88 88 88 88 91 93 94 93 93 93 93 92 92 94 94 94 94 94 93 95 95 94 94 93 92 93 93 91 92 92 92 92 92 91 92 93 92 91 91 92 93 92 95 95 96 96 95 94 78 55 56 56 58 69
90 91 92 89 85 86 88 90 86 87 89 90 92 92 93 92 91 91 92 92 91 93 96 95 94 94 93 93 93 95 95 94 93 93 94 92 92 90 90 91 92 92 92 93 91 89 89 89 89 91 92 92 93 93 93 90 80 89 58 56 54 56 60
84 86 86 86 88 88 89 87 85 87 89 94 95 94 94 93 90 91 91 90 91 94 95 95 95 93 93 92 92 92 93 93 93 93 94 93 92 91 89 90 90 90 90 89 90 89 88 88 88 89 89 89 91 92 90 90 85 71 69 56 54 54 57
84 85 86 89 90 87 88 85 85 87 87 89 90 92 93 92 89 89 89 90 93 94 94 94 94 93 92 91 92 92 93 94 94 93 93 92 91 90 89 89 89 89 89 89 89 88 88 88 88 88 88 88 88 89 90 89 91 74 64 63 53 54 55
84 84 86 85 86 85 87 87 84 85 85 87 88 89 90 91 89 89 88 87 89 91 92 92 91 91 90 91 91 91 92 93 92 92 92 92 91 89 89 88 89 88 88 88 88 88 87 88 89 87 87 87 87 88 89 90 89 92 72 59 55 54 54
83 84 86 86 84 84 85 86 85 85 83 84 86 86 87 88 88 85 86 87 88 90 90 90 90 89 90 91 91 91 92 92 93 92 91 92 92 91 90 90 90 89 89 89 89 88 87 87 88 88 87 86 88 87 89 89 90 91 88 66 61 57 55
81 82 82 82 81 81 83 84 83 81 82 82 85 87 88 87 87 86 86 87 89 90 89 89 89 88 89 89 90 91 91 91 92 92 92 91 93 93 93 92 92 91 89 89 91 90 89 88 87 87 88 87 87 88 88 89 89 90 91 89 76 72 67
80 80 81 81 80 81 82 82 81 80 80 79 80 81 82 82 83 85 87 90 91 90 89 88 88 88 89 89 90 90 90 91 91 91 92 92 93 95 94 93 94 93 89 90 90 90 89 89 88 87 88 88 89 88 88 88 90 90 91 89 83 81 79
79 79 79 79 79 80 80 80 80 80 80 79 80 81 81 82 83 84 85 86 88 88 87 85 85 86 87 88 88 85 89 90 89 91 93 94 92 86 83 86 91 87 85 81 84 86 86 86 85 85 87 88 84 83 83 84 85 86 63 65 57 65 78
78 78 78 79 79 79 79 79 79 79 79 79 81 81 82 82 83 84 86 86 87 87 85 85 85 85 84 84 84 86 86 86 86 86 87 91 90 85 79 66 57 69 86 81 64 57 58 62 79 81 85 85 84 83 81 83 84 61 53 51 49 49 49
77 78 77 78 78 78 78 78 79 78 78 79 81 81 81 82 83 84 85 85 85 85 85 85 84 84 84 84 82 81 82 83 84 85 85 87 86 86 83 82 77 53 53 64 64 57 51 50 50 51 58 72 79 76 65 61 55 51 50 49 49 48 47
78 78 78 79 78 77 77 77 78 78 78 79 79 79 80 81 82 83 83 84 84 84 84 83 82 81 81 82 82 82 84 85 84 84 84 83 85 84 85 85 81 80 59 51 54 51 46 47 47 47 48 52 60 69 77 66 58 52 49 49 48 48 47

ECMWFFLT1_sfc_temp_054.txt.gz
Temp
98 94 94 94 93 93 92 91 91 91 92 91 91 92 92 91 89 88 87 85 84 84 85 85 85 85 85 85 85 85 86 85 85 85 85 85 86 86 86 87 86 86 87 87 86 86 87 88 88 88 87 87 87 87 86 86 86 87 86 86 86 84 84
97 94 94 95 94 92 91 91 91 93 93 93 91 91 93 91 89 89 87 86 85 85 85 85 85 85 85 85 85 85 85 85 86 85 86 85 85 86 87 87 86 86 86 87 87 87 88 89 89 88 88 87 87 87 88 87 86 86 86 86 85 84 84
96 98 91 93 92 92 90 91 91 94 94 95 93 93 92 89 90 88 87 86 85 85 86 85 85 85 85 85 85 85 85 86 86 86 86 87 87 89 88 87 88 88 88 88 88 89 90 89 88 88 88 87 88 87 87 87 86 86 86 85 85 85 84
94 97 95 94 93 91 92 92 91 93 96 96 94 94 92 89 91 90 89 87 86 85 84 85 86 86 86 85 85 85 85 85 86 87 88 88 87 88 87 87 87 89 88 88 90 91 91 89 89 88 88 87 87 88 88 87 88 86 86 85 85 85 84
96 99 99 96 96 95 95 95 95 94 96 97 95 92 93 93 93 92 91 89 89 86 87 87 88 87 86 87 87 86 86 86 86 87 88 88 88 88 87 89 89 89 89 90 89 88 87 88 89 88 88 87 88 87 87 87 87 86 86 86 84 85 84
96 96 97 96 96 96 97 98 98 97 97 97 96 94 95 96 95 94 92 90 89 89 88 87 87 87 86 87 87 87 86 86 86 86 87 87 87 88 88 88 90 89 90 89 90 90 89 89 90 89 89 90 90 89 89 88 88 87 86 85 84 85 85
94 96 97 98 99 99 98 98 98 98 98 98 98 97 96 97 95 95 94 92 91 88 88 88 89 88 87 87 87 86 86 87 86 87 88 89 88 88 88 88 88 90 90 89 89 90 90 89 89 89 89 90 88 89 87 86 86 86 85 84 84 84 84
96 96 97 99 100 102 101 98 99 99 98 98 98 97 96 97 96 95 94 93 92 92 90 90 89 88 87 87 88 87 87 87 88 88 88 89 89 88 89 89 88 89 89 90 89 90 91 89 90 89 89 90 88 87 88 87 86 88 86 84 84 84 86
98 97 98 101 100 101 100 97 98 99 96 96 96 96 96 96 96 95 95 94 93 92 91 92 91 90 88 88 87 87 88 88 88 88 88 89 89 90 91 91 90 90 89 90 91 90 90 90 90 88 88 88 88 87 87 86 87 87 86 85 84 84 85
96 95 96 100 102 102 99 99 98 95 94 94 94 93 95 95 95 95 96 95 95 93 93 93 93 92 89 89 89 89 88 87 88 89 89 89 90 90 91 92 91 90 90 91 92 91 89 90 90 89 87 88 87 87 87 87 87 87 87 85 85 84 84
97 94 95 99 99 97 97 99 95 92 93 91 92 96 94 94 95 96 95 96 96 95 95 94 93 93 91 90 90 90 88 88 89 89 89 90 91 91 92 93 93 92 91 92 92 92 91 89 90 88 87 88 87 87 87 87 87 86 87 87 86 86 85
93 94 92 95 95 95 96 93 92 91 91 91 94 96 93 92 95 96 96 96 97 96 95 95 95 94 92 91 90 88 87 88 89 90 90 90 92 92 93 94 93 93 92 92 92 92 93 90 90 89 88 87 88 88 87 87 87 86 87 88 88 86 86
94 93 94 97 95 95 92 90 91 91 91 94 97 97 96 96 95 96 94 95 97 97 96 94 94 93 92 92 91 88 87 89 89 90 91 90 91 93 93 94 95 95 93 93 93 92 93 93 90 89 89 88 88 88 88 87 87 86 86 87 87 86 85
94 97 96 95 96 94 92 91 91 91 91 94 96 96 97 97 97 95 94 95 96 98 98 98 95 93 92 91 90 88 88 88 89 91 90 90 89 90 92 94 93 93 92 92 92 93 93 94 92 91 90 89 89 88 88 87 87 87 86 86 87 87 86
97 97 95 96 92 92 93 92 91 91 93 93 96 95 96 97 96 95 94 96 95 99 98 96 94 93 93 91 89 88 88 88 89 89 89 90 89 89 90 91 91 91 91 91 92 93 94 94 94 91 89 90 89 88 89 88 87 88 87 86 86 87 87
99 98 97 95 94 94 92 93 92 91 92 92 94 93 97 95 94 95 96 96 97 95 97 95 93 91 92 91 89 88 89 88 88 88 88 88 88 87 89 90 90 91 91 91 92 91 91 91 91 94 91 89 89 88 88 88 88 82 75 78 86 86 87
98 97 97 96 91 94 92 92 92 92 91 91 92 93 93 94 94 96 99 97 98 95 97 98 92 91 90 90 89 89 89 88 87 88 87 87 88 88 88 88 89 89 89 89 90 90 89 90 91 93 94 91 90 89 88 89 88 74 70 72 75 84 86
99 95 96 96 95 94 92 93 92 91 92 94 95 93 94 92 95 96 97 96 96 99 100 98 95 92 90 91 90 89 88 88 88 87 87 87 87 87 88 88 88 88 88 89 90 89 91 90 90 90 92 92 91 90 89 89 78 69 68 69 70 75 86
97 99 97 93 93 92 95 96 94 92 94 95 95 95 97 95 97 93 94 93 94 96 97 95 96 92 90 91 90 89 89 88 88 87 87 87 87 88 88 87 87 87 88 89 89 90 88 88 90 89 90 91 89 90 90 90 76 67 67 68 68 69 79
98 99 101 102 99 97 96 95 95 95 95 93 95 100 97 95 96 95 95 94 93 93 92 91 92 91 90 90 90 89 89 88 88 87 87 87 87 87 87 87 87 87 89 89 89 88 89 90 89 89 88 89 89 89 91 90 76 66 65 66 66 67 73
95 96 96 95 94 99 93 92 94 94 94 99 101 98 96 96 97 96 95 93 93 92 91 91 91 91 90 90 90 90 89 89 88 87 87 87 87 87 87 87 87 87 88 90 90 89 87 89 89 88 89 90 91 90 91 93 73 64 63 63 64 66 68
98 100 99 98 96 91 91 94 94 97 94 96 100 102 100 98 99 99 95 94 93 92 91 91 90 90 90 89 89 89 89 89 88 87 87 87 87 87 87 87 86 86 87 89 91 91 90 89 90 90 89 90 91 91 90 94 72 63 62 62 63 64 73
100 100 100 99 97 92 91 93 93 94 93 95 96 98 98 101 100 97 96 94 94 91 90 90 89 89 89 89 90 90 90 90 89 87 87 87 87 87 87 86 86 87 88 88 89 90 90 89 91 89 90 90 89 88 89 91 77 61 60 61 61 64 76
95 95 96 95 94 93 91 90 92 93 93 93 93 94 93 96 97 94 92 91 91 90 90 90 90 90 90 90 90 91 91 90 89 88 87 87 87 87 87 89 89 89 88 88 89 90 91 91 90 90 90 91 90 91 90 90 79 58 59 59 59 66 77
94 94 94 91 90 90 90 89 89 90 90 89 90 91 93 93 92 94 93 91 91 92 92 91 90 91 91 91 91 91 91 91 90 89 88 87 87 88 88 88 88 89 88 90 89 90 90 90 90 90 90 93 92 81 87 91 82 58 59 57 58 65 78
89 91 91 91 90 90 89 89 89 89 90 92 89 92 93 93 92 91 92 92 94 93 91 90 91 91 92 93 92 92 91 91 89 88 89 88 88 88 88 88 89 89 89 89 90 89 90 91 90 90 90 92 92 93 91 90 90 72 56 56 56 59 77
89 90 90 90 88 86 89 90 88 87 88 88 88 90 91 92 91 90 90 91 91 90 92 92 92 91 91 91 93 92 91 92 90 90 91 90 89 89 89 90 89 89 89 89 90 89 88 89 90 90 89 92 92 92 92 92 91 79 56 56 56 57 64
89 88 91 89 89 88 88 89 86 87 89 90 91 90 91 90 89 89 90 90 90 92 94 93 91 91 91 90 91 92 92 92 91 91 91 90 89 88 87 89 89 89 89 90 88 86 86 87 86 88 89 90 91 90 90 89 80 90 59 57 54 56 57
85 85 86 87 88 88 89 86 85 87 88 92 92 93 93 92 89 89 89 89 91 93 93 93 92 91 90 90 90 90 91 90 90 90 92 90 89 88 87 88 88 88 87 86 87 86 86 86 86 86 86 87 87 88 88 88 85 75 73 56 55 54 55
85 85 86 89 89 86 87 86 86 87 87 89 89 89 91 91 89 89 89 90 93 93 93 93 92 91 90 89 89 90 91 91 92 91 90 89 88 88 87 87 87 87 86 86 86 86 85 85 85 86 86 86 85 86 87 88 90 76 65 63 53 54 54
84 84 85 86 87 86 86 87 84 85 85 86 86 87 88 91 89 89 86 86 90 92 91 91 91 90 89 90 90 89 91 90 90 90 90 90 89 87 87 87 87 86 86 86 86 85 85 84 86 84 84 84 84 86 87 88 87 89 69 59 55 54 54
84 83 85 85 83 82 84 86 86 85 85 86 87 88 87 87 89 87 84 89 89 90 91 91 90 89 89 89 89 90 91 91 92 90 90 90 90 89 88 88 87 86 86 86 86 86 85 84 85 85 85 83 85 84 86 87 87 88 83 65 60 56 54
82 82 81 81 81 82 81 82 84 82 81 80 82 83 85 87 88 86 86 87 89 91 90 90 89 87 88 88 89 89 89 89 91 91 91 90 91 91 89 88 88 87 85 85 87 86 85 85 84 85 85 84 85 86 85 85 86 86 80 76 74 72 68
79 80 81 82 81 81 81 81 82 81 81 80 82 83 83 83 83 84 85 88 89 90 89 87 87 87 88 88 88 87 88 89 90 89 90 90 91 92 91 90 90 89 86 87 87 86 86 85 84 84 85 86 86 85 86 85 81 72 72 74 74 76 77
79 79 80 79 80 80 78 79 81 81 80 80 81 82 82 83 83 85 85 85 87 87 87 86 86 87 88 89 88 87 87 88 88 88 89 83 76 73 71 76 87 81 77 75 76 82 85 87 85 83 86 83 79 80 81 82 77 72 59 63 58 63 68
79 80 80 81 80 80 80 80 80 79 79 79 81 82 82 82 84 85 86 85 86 86 84 83 83 83 83 84 85 86 86 86 87 86 84 82 81 77 75 64 55 69 78 71 62 57 59 63 75 79 84 81 77 78 79 78 75 55 48 48 48 49 51
77 78 78 80 79 78 79 79 79 79 79 79 80 80 81 82 83 83 84 84 84 84 83 83 82 82 81 81 81 80 83 83 83 84 83 81 79 79 75 75 70 50 52 60 60 55 49 48 51 56 61 73 76 70 58 60 55 51 50 47 47 46 47
78 79 79 79 78 78 77 78 79 78 78 79 80 80 81 81 82 82 84 84 84 84 82 82 81 80 81 82 81 81 82 83 83 82 82 82 80 79 77 76 73 72 55 49 52 52 49 49 49 50 52 57 63 71 72 63 58 49 47 48 47 47 46

ECMWFFLT1_sfc_temp_057.txt.gz
Temp
88 87 86 86 85 85 84 84 84 85 85 85 85 86 86 86 85 83 83 82 81 80 81 81 81 81 81 81 81 81 82 81 81 81 81 81 81 81 81 81 81 80 81 81 81 81 82 83 83 82 82 82 82 81 81 81 81 82 81 80 80 79 79
86 87 86 87 85 85 84 84 84 85 85 85 85 86 87 86 85 83 83 82 81 81 81 81 81 81 81 81 82 81 81 81 81 82 82 81 81 81 82 82 82 81 80 82 81 81 82 83 84 82 82 82 83 82 81 81 81 81 81 80 80 79 79
87 87 87 87 85 85 84 85 85 86 86 87 87 87 87 85 85 84 83 82 81 81 82 81 81 81 81 81 81 81 81 82 81 81 81 82 81 83 82 82 82 82 82 81 82 82 83 83 83 83 82 82 83 82 82 81 81 81 81 80 80 79 79
87 87 87 87 86 86 86 86 85 87 88 88 87 88 87 86 86 85 84 83 82 81 80 81 82 82 81 81 81 81 81 81 82 82 82 83 82 83 82 81 82 83 82 82 83 84 85 83 83 83 83 82 82 83 83 82 82 81 81 81 79 80 79
87 88 88 87 87 86 86 86 86 87 88 89 88 88 88 87 87 86 85 85 84 82 83 82 83 83 82 82 82 81 81 82 82 82 83 83 83 83 82 82 82 83 83 84 83 83 83 83 83 83 83 82 82 82 82 82 82 82 81 81 80 79 79
87 87 87 88 88 87 87 88 88 89 89 89 89 88 89 89 89 88 86 85 84 84 84 83 83 83 82 82 82 82 82 82 82 82 82 83 82 82 82 83 83 83 83 84 85 84 84 84 84 84 83 83 83 83 83 82 82 82 81 81 80 80 80
88 88 87 88 88 88 88 88 89 90 90 91 91 90 90 90 89 89 88 86 85 83 83 83 83 83 82 83 82 82 81 82 82 82 83 83 83 82 83 83 83 84 85 84 84 84 83 83 84 84 84 83 83 83 82 82 82 82 81 81 80 80 80
88 88 88 88 89 89 89 89 89 90 91 91 92 90 90 91 90 89 88 87 86 86 85 84 84 83 83 83 83 82 82 82 83 83 83 83 83 83 83 83 83 84 84 83 84 85 85 83 84 84 84 84 83 83 83 82 82 82 82 81 80 80 81
89 89 89 90 90 90 90 89 89 90 89 90 91 90 90 90 90 89 89 88 87 86 85 86 85 85 84 83 82 82 83 83 83 82 82 83 83 83 84 84 84 84 84 84 85 84 85 85 84 83 84 84 83 82 83 82 82 83 82 81 80 80 80
88 87 88 91 92 92 90 90 90 88 88 89 89 88 89 90 90 90 90 89 88 86 86 86 86 86 84 83 83 83 83 82 83 83 83 83 84 84 84 85 85 85 84 85 85 84 84 85 85 83 82 83 83 83 83 82 83 82 82 81 81 80 80
90 87 88 89 90 90 90 90 88 87 88 88 88 89 89 89 90 90 90 90 89 88 88 87 87 86 85 84 84 84 83 82 83 83 83 83 84 85 85 86 86 85 85 85 85 85 85 84 85 84 82 83 83 83 83 83 83 82 83 82 82 81 81
89 88 86 89 89 89 89 89 88 87 87 87 89 90 88 89 90 90 90 90 90 89 88 88 88 87 86 85 84 83 82 82 83 83 83 84 85 85 86 87 86 86 86 86 85 86 86 85 85 85 84 83 83 83 83 83 83 83 83 83 82 82 82
88 87 86 88 88 89 88 86 86 86 87 88 90 90 89 90 90 90 89 89 91 90 89 88 87 86 86 86 85 83 82 83 83 84 84 84 85 86 86 87 87 87 86 86 87 86 86 86 85 84 84 84 84 84 83 83 84 83 83 83 82 82 81
88 87 89 87 87 87 86 86 86 86 86 88 90 90 90 90 90 90 89 89 91 91 90 90 88 87 86 85 84 83 83 83 84 84 84 85 84 85 86 86 87 87 86 86 86 87 87 86 85 85 85 85 85 85 84 84 83 83 83 83 83 82 81
88 88 84 82 85 85 85 85 85 86 86 88 89 89 89 89 90 90 90 91 90 92 91 90 88 87 87 85 84 83 84 84 84 84 84 84 84 84 85 85 86 86 86 86 86 87 88 88 87 85 84 85 84 84 85 84 83 84 84 83 82 83 82
89 87 85 85 85 85 85 86 86 86 86 86 88 88 89 89 88 89 90 90 91 91 92 90 88 87 86 85 84 84 84 84 84 84 84 84 83 83 84 85 85 86 86 86 86 86 86 87 87 87 85 84 84 84 84 84 84 79 73 75 83 83 83
86 86 85 84 83 84 83 84 83 83 84 86 87 88 89 88 89 90 91 90 91 91 92 91 88 87 86 85 85 85 84 84 83 84 83 83 83 83 84 84 85 85 85 85 85 85 85 86 86 87 87 86 85 84 84 84 84 73 68 69 72 81 83
85 84 85 85 85 84 83 84 84 84 85 87 88 88 88 87 89 89 90 90 90 92 93 91 89 87 86 86 85 85 84 84 84 83 83 83 83 83 83 84 84 84 84 84 84 84 85 85 85 86 87 86 86 85 85 85 76 70 67 68 68 73 83
82 85 82 81 81 82 85 86 86 86 88 89 89 89 90 88 89 88 90 89 90 91 92 90 89 87 86 87 86 85 84 84 84 83 83 83 83 83 83 83 83 83 83 84 85 85 84 84 85 85 86 86 85 85 86 85 75 68 67 67 67 68 75
85 84 85 84 85 86 84 83 84 86 87 86 87 90 89 88 89 89 90 90 89 89 89 89 88 87 86 86 86 85 85 84 84 83 83 83 83 83 83 82 83 83 84 84 84 84 84 84 85 85 85 86 85 84 86 85 75 67 65 65 65 67 70
81 84 84 82 81 81 79 79 80 81 81 84 86 85 85 85 87 86 86 86 87 88 87 88 88 85 85 86 86 85 85 84 84 83 83 83 83 83 83 83 83 83 84 85 85 84 84 84 84 85 85 86 86 85 86 87 72 65 64 63 63 65 67
81 83 81 81 80 80 81 84 83 84 83 84 88 87 88 87 88 88 86 85 86 86 87 86 86 85 84 85 85 85 85 85 84 84 83 83 83 83 82 83 82 82 84 84 86 86 86 85 86 85 85 85 86 86 85 88 70 64 63 62 62 64 72
84 83 83 83 83 81 81 83 83 84 83 83 83 84 87 88 89 87 85 84 84 84 84 84 84 85 83 84 85 86 86 86 85 84 83 83 83 83 83 82 83 83 84 84 85 85 85 85 86 86 86 85 85 85 85 86 73 62 61 61 61 63 75
85 84 83 83 82 82 81 80 81 83 83 81 80 79 80 84 87 83 83 83 82 82 82 84 84 84 83 84 85 86 86 86 86 84 84 83 83 83 83 84 84 84 84 84 84 85 86 86 86 86 86 86 85 86 85 86 77 60 59 59 59 65 77
84 84 83 82 82 81 80 80 81 81 80 80 79 79 80 81 83 84 81 82 84 84 83 83 84 85 84 84 85 86 87 87 86 85 84 84 84 84 84 84 84 84 84 85 85 85 86 85 85 85 86 87 87 81 84 86 80 59 57 57 58 65 77
80 82 83 83 83 82 80 81 79 79 79 80 79 80 81 81 82 82 82 81 83 85 85 85 85 84 84 84 85 86 86 87 85 85 85 84 84 84 84 84 84 84 84 84 85 84 85 85 84 84 85 86 85 87 85 84 85 71 55 55 56 59 74
82 82 81 82 81 82 80 80 79 78 78 78 79 81 81 81 81 79 80 81 80 82 86 86 84 83 84 84 85 86 86 86 86 85 86 85 85 85 84 84 84 84 84 84 85 84 83 84 84 85 84 84 85 86 85 86 85 79 55 54 55 56 63
81 82 84 82 83 82 80 80 78 78 80 81 84 83 81 81 80 79 78 78 79 81 84 82 83 83 83 83 84 85 86 86 85 86 86 85 85 83 83 83 84 84 84 84 83 82 82 82 81 83 82 82 83 84 85 85 78 85 59 55 53 55 56
77 78 79 79 79 81 82 77 77 78 80 83 83 82 82 81 79 78 79 78 79 82 83 84 84 83 83 83 83 83 84 84 84 85 86 85 84 83 82 82 83 83 82 82 81 81 81 80 81 81 80 80 80 81 82 83 82 73 72 56 55 53 54
77 77 79 80 80 79 80 77 77 78 78 80 79 80 80 80 78 79 79 78 80 81 83 83 83 83 83 82 82 82 84 85 85 86 85 84 83 83 82 81 82 82 81 81 81 80 80 79 80 80 80 79 78 80 79 81 84 73 68 64 54 54 53
76 76 77 76 77 78 78 77 76 77 77 77 77 78 78 79 78 78 77 78 80 80 82 82 82 82 82 82 82 82 83 83 84 84 84 83 83 82 81 81 82 80 80 81 80 80 80 78 79 79 79 78 78 78 78 80 81 71 59 55 54 54 54
75 76 76 76 75 76 76 77 76 74 74 75 77 77 78 78 78 77 77 79 80 80 81 81 81 81 81 82 82 82 83 83 84 84 84 83 83 83 82 82 82 81 79 80 80 80 79 78 79 78 78 77 78 77 79 79 74 70 68 62 59 56 53
72 73 73 73 73 75 73 74 74 73 73 73 75 76 78 78 78 78 78 79 81 82 80 79 80 80 80 81 81 82 82 82 82 83 84 82 83 83 83 83 82 81 79 80 81 80 79 79 78 78 77 77 77 78 76 71 70 71 70 69 68 66 61
71 72 72 73 73 74 72 73 73 73 73 72 73 75 75 75 76 77 78 79 80 80 80 79 79 79 79 81 81 81 81 81 85 84 81 80 80 82 83 83 82 82 80 79 80 79 79 79 77 77 78 77 76 75 71 69 68 66 67 66 67 67 67
71 71 72 72 73 74 71 72 73 73 72 72 73 74 74 75 76 77 78 78 79 78 78 78 79 78 79 80 80 79 81 81 82 79 75 71 67 62 60 66 78 76 70 68 69 78 82 79 77 75 76 76 75 73 70 68 67 66 58 60 55 63 67
71 71 72 73 73 72 72 73 73 72 71 72 73 73 74 74 75 76 78 78 78 78 77 77 77 76 76 77 77 77 78 77 77 76 74 72 71 70 68 58 50 58 72 69 61 56 59 65 74 76 75 72 71 72 72 70 68 53 47 49 49 47 49
70 71 72 73 72 71 71 72 75 74 72 72 73 73 73 73 74 75 77 78 77 78 77 77 75 75 75 76 76 76 77 76 75 74 73 72 71 71 69 68 65 49 47 55 58 54 51 51 54 59 64 71 68 63 58 56 49 44 46 46 46 47 47
71 71 72 73 72 72 71 71 72 72 72 72 73 73 73 73 74 74 76 77 77 77 76 76 75 74 74 75 75 76 76 77 75 74 72 72 72 71 70 69 67 66 53 47 50 53 52 51 52 53 54 58 62 64 59 49 45 44 44 45 44 45 45

ECMWFFLT1_sfc_temp_060.txt.gz
Temp
84 83 83 83 83 83 83 83 84 83 84 83 83 83 83 83 82 81 80 80 79 79 79 79 79 79 79 79 79 79 80 79 79 79 79 78 78 79 78 78 79 78 78 78 78 78 79 80 80 80 80 80 80 79 79 79 78 79 78 78 77 77 77
83 83 83 83 83 83 83 84 84 84 84 84 83 82 83 83 82 81 81 80 80 79 79 79 79 79 79 79 80 79 79 79 79 80 79 78 78 78 79 79 79 78 78 79 79 79 79 80 80 80 79 80 80 79 80 79 79 78 78 77 77 76 77
82 83 83 83 83 83 82 83 84 85 84 85 84 83 83 82 82 81 81 80 80 80 80 79 79 79 79 79 79 79 79 79 79 79 79 79 79 80 79 80 80 79 79 79 79 79 80 80 80 80 80 80 80 79 80 79 79 79 78 77 77 77 76
82 83 83 83 83 83 83 84 84 85 86 86 85 84 84 83 83 83 82 81 80 80 79 80 80 80 79 79 79 79 79 79 79 80 80 80 80 80 79 79 79 80 78 79 80 80 81 80 80 79 80 79 80 80 80 80 80 79 79 78 77 77 76
83 84 84 83 83 82 83 83 84 84 85 86 86 85 85 84 84 83 83 82 82 81 81 81 82 81 80 80 80 79 79 79 79 80 80 80 80 80 79 79 80 80 80 80 79 79 80 80 80 80 79 79 79 79 79 79 80 79 79 78 77 76 76
83 83 83 83 83 83 83 84 85 85 85 86 86 85 85 85 85 84 83 82 82 82 82 81 81 81 80 80 80 80 80 79 79 79 80 80 79 80 79 80 80 80 81 81 81 80 80 80 80 80 80 80 80 80 80 79 80 80 79 78 78 77 76
83 83 83 83 83 83 83 84 85 85 86 87 87 86 86 86 85 84 84 83 83 81 81 81 81 81 80 80 80 80 79 79 79 79 80 80 80 79 80 80 80 81 82 81 81 81 80 80 80 80 80 80 80 80 79 79 79 79 79 78 78 78 77
84 84 84 84 84 85 85 84 84 85 86 86 86 86 86 86 86 85 84 84 83 83 82 82 81 81 81 81 81 80 80 80 80 80 80 80 80 80 80 80 80 81 81 81 81 81 81 81 81 81 81 81 80 80 80 79 79 80 79 78 78 78 79
85 85 85 85 85 86 85 85 84 85 84 85 85 85 86 86 86 85 85 84 84 83 82 83 82 82 81 81 80 80 80 80 80 80 80 80 80 80 80 81 81 81 80 81 82 82 82 82 82 81 81 80 80 80 80 80 80 80 79 79 78 78 79
85 84 85 86 87 87 86 85 84 83 83 83 84 84 85 86 86 86 85 85 84 83 83 83 83 83 82 81 80 81 80 80 80 80 80 80 81 80 81 82 81 81 81 81 82 81 82 82 82 81 80 80 80 80 80 80 80 80 80 79 79 79 78
85 84 84 85 85 84 84 84 83 82 83 82 83 85 85 85 86 86 85 85 85 84 84 84 84 83 82 81 81 81 80 80 80 80 80 80 81 81 82 82 82 82 81 81 81 82 82 81 82 81 81 81 80 80 80 80 80 80 80 80 80 80 79
84 83 82 84 84 83 83 83 83 82 82 82 84 85 84 85 86 86 86 86 86 85 84 84 84 84 82 82 81 80 80 80 80 80 80 80 81 82 82 83 82 82 82 82 82 82 82 82 82 81 81 81 81 81 81 81 80 80 80 80 80 80 80
84 83 82 83 83 84 83 81 81 82 82 83 85 85 85 86 86 86 85 85 86 86 85 84 84 83 83 82 81 80 79 80 80 81 81 81 81 82 82 83 83 83 82 83 83 83 82 82 82 82 81 81 81 81 81 81 81 80 80 80 80 80 79
85 84 84 84 84 83 81 81 81 81 82 83 85 85 85 86 87 86 86 85 86 87 86 86 84 83 83 82 81 80 80 80 81 81 81 81 81 81 82 83 83 83 83 83 82 83 83 83 82 82 82 82 82 82 82 81 81 80 80 80 80 80 79
84 84 84 83 83 82 82 81 81 81 82 83 85 85 85 86 86 86 86 87 86 87 86 86 84 83 83 82 81 80 81 81 81 81 81 81 81 81 81 82 82 82 82 82 83 83 84 84 83 82 81 82 82 82 82 81 81 81 81 80 80 80 80
84 85 84 83 83 83 82 82 82 82 82 82 84 84 85 85 85 86 86 86 87 87 87 86 84 83 82 82 81 81 81 81 81 81 81 80 80 80 81 81 82 82 82 82 82 83 83 83 83 83 82 81 82 82 81 81 82 78 72 74 81 80 81
84 84 84 84 83 82 82 82 82 82 82 82 83 84 85 85 86 87 88 87 87 86 87 86 84 83 82 82 82 82 82 81 81 81 80 80 80 80 80 80 81 81 81 81 82 82 82 82 82 83 83 82 82 81 81 82 82 72 68 68 71 79 80
83 83 84 84 83 82 81 82 81 82 83 84 85 85 86 85 86 86 86 87 87 88 88 86 85 83 82 83 82 82 81 81 81 80 80 80 80 80 80 80 80 80 80 81 81 81 82 82 82 82 83 83 83 82 82 82 75 69 67 67 67 71 81
82 83 83 83 82 81 83 84 83 83 84 86 86 87 87 87 86 85 86 86 86 87 87 85 85 84 83 83 83 82 82 81 81 80 80 80 80 80 80 80 80 80 80 80 81 82 81 81 82 82 82 82 82 82 83 83 74 68 66 66 66 66 73
79 82 82 83 84 84 84 83 83 83 84 84 86 88 88 87 87 87 87 87 86 86 86 85 84 84 83 83 83 82 82 82 81 80 80 80 80 80 80 80 79 80 81 81 81 81 81 81 81 82 81 82 82 82 83 83 75 67 65 64 64 65 68
74 75 76 76 76 78 77 78 79 80 81 84 86 85 85 85 87 86 86 86 85 86 85 85 84 83 83 83 83 83 82 82 81 81 81 80 80 80 80 80 80 80 81 82 81 81 81 81 81 81 82 82 83 83 83 84 73 65 63 63 62 64 66
75 76 75 75 75 75 77 79 79 81 80 81 84 83 85 85 86 86 85 85 85 85 85 85 84 83 83 83 83 83 83 82 81 81 81 80 80 80 80 80 80 80 81 81 82 82 82 82 82 82 82 82 83 83 82 85 71 65 63 62 62 63 70
77 77 77 77 78 76 76 78 78 79 79 80 81 82 83 85 85 86 84 84 85 84 84 84 83 83 83 83 83 83 83 83 82 81 81 81 80 80 80 80 80 80 81 81 81 82 82 82 82 82 83 82 82 82 82 84 74 63 61 60 60 62 73
79 78 78 78 78 78 77 78 79 79 78 77 76 76 76 79 82 82 82 83 83 83 83 83 84 84 83 83 84 84 84 83 83 82 81 81 80 80 81 82 82 82 82 81 81 82 83 83 82 83 83 82 82 83 83 83 76 61 59 59 59 64 75
78 78 78 78 78 77 77 77 78 79 78 77 77 76 76 76 77 79 79 80 81 82 83 83 84 84 83 83 84 84 84 84 84 83 82 81 81 82 81 81 82 82 82 82 82 83 83 83 83 83 83 84 83 79 82 83 77 58 59 58 58 64 75
76 77 77 78 78 77 76 77 78 77 77 77 76 77 77 76 77 77 76 76 77 79 81 83 84 84 84 84 84 84 84 85 83 83 83 82 82 82 82 83 83 82 82 82 83 82 83 83 83 82 83 83 83 84 83 82 82 68 57 57 57 59 74
76 76 76 77 77 78 76 76 76 75 75 75 76 77 76 76 75 74 76 75 74 77 79 79 79 80 81 81 83 83 84 85 84 84 84 84 83 83 83 83 83 82 82 82 82 82 81 82 82 82 82 83 83 83 83 83 82 73 56 56 56 57 63
76 76 77 76 78 77 75 75 74 75 75 76 77 77 76 75 74 75 74 74 74 75 77 78 80 79 79 80 81 83 83 84 84 84 84 84 84 82 81 82 83 83 82 83 81 80 80 81 80 81 82 81 81 81 81 81 78 79 58 57 55 56 56
72 73 73 74 74 76 76 73 72 73 74 76 77 77 76 75 75 73 75 73 75 76 77 77 79 79 79 79 80 81 82 83 83 83 84 84 83 82 81 81 81 81 81 81 80 80 79 79 79 79 79 78 77 78 79 79 79 71 69 56 54 54 55
72 73 73 75 75 74 74 72 72 72 73 74 75 75 75 75 74 76 74 72 76 76 77 77 78 79 79 79 79 79 80 82 82 83 84 83 82 82 81 80 81 81 80 80 80 79 79 78 78 78 78 77 75 77 76 77 80 72 66 64 54 54 53
70 70 71 71 73 74 73 72 71 71 72 72 73 74 74 74 74 75 74 74 76 76 76 76 77 78 79 79 79 79 80 80 81 82 82 82 82 81 81 80 80 79 79 79 79 79 78 77 77 77 77 75 75 75 76 77 72 67 59 59 57 54 52
69 70 70 70 71 72 72 72 72 71 71 72 72 73 74 74 73 73 73 75 76 77 76 76 77 77 78 78 78 79 79 79 80 81 81 81 82 82 81 81 80 79 78 78 79 78 77 76 76 76 75 75 76 75 74 69 68 67 65 61 59 56 53
67 68 68 68 70 72 70 71 70 70 71 71 71 72 74 73 74 73 74 75 76 77 76 76 77 77 77 77 77 78 79 79 79 79 80 80 81 81 81 81 80 79 77 78 78 77 77 76 75 75 75 75 75 73 69 68 67 67 67 66 64 62 59
66 67 68 69 70 71 70 70 69 69 69 70 70 70 72 72 73 73 74 75 76 75 75 76 76 76 76 77 77 77 78 78 82 80 78 77 77 78 79 80 80 79 78 78 78 77 76 76 76 75 76 76 73 69 68 66 66 66 66 66 66 65 65
66 66 67 68 69 69 69 69 69 68 68 68 69 69 70 71 72 74 74 75 75 74 74 74 75 74 76 76 76 76 79 78 79 77 72 65 60 55 55 59 68 75 74 69 72 79 80 77 77 77 77 77 72 69 66 67 66 66 58 60 59 65 66
65 66 67 68 70 68 69 70 69 68 67 68 69 69 69 70 71 73 75 75 75 74 73 72 72 72 72 73 74 75 75 74 73 72 71 69 66 65 62 56 48 51 66 69 62 58 66 67 74 76 74 71 68 69 71 71 69 51 46 46 46 47 49
65 66 67 68 68 69 68 68 70 68 68 68 69 69 69 69 70 71 73 73 74 73 72 72 72 71 71 73 72 72 72 72 71 70 70 70 69 68 67 66 62 49 47 53 55 51 48 49 52 58 63 70 66 59 56 55 48 45 45 45 46 45 46
66 66 67 68 68 68 68 67 67 67 68 68 69 68 68 69 70 70 72 73 73 73 72 72 72 71 71 72 71 72 72 71 71 71 70 70 70 70 69 68 66 65 52 47 50 51 49 49 50 51 53 56 59 61 58 50 46 45 45 45 45 46 44

ECMWFFLT1_sfc_temp_063.txt.gz
Temp
82 81 81 82 81 82 82 82 82 82 82 82 81 81 81 81 80 80 79 78 78 77 78 78 78 78 78 78 78 79 79 78 78 77 77 77 77 77 76 76 76 75 76 75 76 76 77 77 77 78 77 77 77 77 77 77 77 77 76 76 76 76 75
81 81 81 82 82 82 82 82 82 83 82 82 82 81 82 81 80 80 79 79 78 78 78 78 78 78 78 78 79 78 78 78 78 78 77 76 76 76 77 76 76 76 76 76 76 76 77 77 78 77 77 77 77 77 77 77 77 76 76 76 75 75 75
81 81 82 82 81 82 82 82 82 83 83 83 83 82 81 80 81 80 79 79 78 78 78 78 78 78 78 78 78 78 78 78 78 77 77 77 77 77 77 77 77 77 77 76 76 77 77 77 77 77 78 77 78 77 77 77 77 76 76 76 75 75 75
81 81 82 82 82 82 83 83 82 83 84 84 83 83 82 81 81 81 80 80 79 78 77 78 79 78 78 78 78 78 77 78 78 78 78 78 77 77 77 77 77 77 76 76 78 78 78 77 77 77 78 77 77 78 77 77 77 77 76 76 75 75 75
81 82 82 81 81 81 81 82 82 83 84 85 84 83 83 82 82 81 81 81 81 79 79 79 80 79 79 79 79 78 78 78 78 78 78 78 78 77 77 77 77 77 78 78 77 77 77 77 77 77 77 77 77 77 77 77 77 77 76 76 75 75 75
81 81 81 82 82 82 82 83 84 84 84 84 84 83 83 83 83 82 82 81 80 81 80 80 79 79 78 79 79 79 78 78 78 78 78 78 78 77 77 77 77 78 77 77 78 77 77 77 77 77 77 77 78 77 77 77 77 77 77 76 76 75 75
81 81 81 82 82 82 82 83 84 84 85 85 85 84 84 84 83 82 82 81 81 80 80 79 80 79 79 79 79 78 77 78 78 78 79 78 78 78 77 78 78 78 79 77 77 77 77 77 77 77 78 78 77 77 77 77 77 77 77 76 76 76 75
82 81 82 82 83 83 83 83 83 84 85 85 84 84 83 84 83 83 82 82 81 81 81 80 79 79 79 79 79 78 78 78 78 78 78 78 78 78 78 78 78 78 77 77 77 77 78 78 78 78 78 78 77 77 77 77 77 77 77 76 76 76 77
83 83 83 83 83 84 84 83 83 84 83 83 84 83 83 83 83 83 82 82 82 81 81 81 81 80 79 79 78 78 79 78 78 78 78 78 78 78 78 78 78 78 78 78 78 78 78 78 78 78 77 77 77 77 77 77 77 78 77 77 76 76 76
81 81 82 84 84 85 84 83 83 82 81 82 82 82 82 83 83 83 83 83 82 81 81 82 81 81 80 79 79 79 78 78 78 78 78 78 78 78 79 79 79 79 78 79 79 78 78 78 78 78 77 77 77 77 77 77 77 77 77 77 77 76 76
82 81 81 82 82 82 82 82 81 80 81 81 81 83 82 83 83 83 83 83 83 82 83 82 82 81 80 80 79 79 78 78 78 78 78 78 79 79 79 80 80 79 79 79 79 79 79 78 78 78 77 77 77 77 77 78 78 77 77 78 78 77 77
80 80 80 81 81 81 80 81 81 80 80 81 82 83 82 82 83 83 83 83 84 83 82 82 83 82 81 80 79 78 78 78 78 78 78 78 79 79 80 80 80 79 79 79 79 79 80 79 79 79 78 78 78 78 78 78 78 77 78 78 78 77 77
80 80 79 80 80 81 80 79 79 79 80 81 82 83 83 83 83 83 82 82 84 84 83 82 82 81 81 80 80 78 78 78 78 79 79 79 79 80 80 80 80 80 80 80 80 80 79 80 79 79 79 79 79 79 78 78 78 78 78 78 78 78 77
80 80 80 80 80 79 79 79 79 79 79 81 82 82 83 83 84 83 83 82 83 84 83 83 82 81 80 80 79 78 78 78 79 79 79 79 79 79 80 80 80 80 80 80 80 80 80 80 79 80 80 80 79 79 79 78 78 78 78 78 78 78 77
79 79 79 79 79 79 79 79 78 78 79 80 82 81 82 83 83 83 83 83 83 84 83 83 82 81 80 80 79 78 79 79 79 79 79 79 78 78 79 79 79 80 80 80 80 80 81 81 80 79 79 79 79 79 79 79 79 79 79 78 78 78 78
79 79 79 79 79 80 80 80 79 79 79 79 80 81 82 82 82 83 83 83 84 83 84 83 81 80 80 79 79 79 79 79 79 79 79 78 78 78 78 79 79 79 79 79 80 80 80 80 80 80 80 79 79 79 79 79 80 76 70 72 79 78 78
79 79 79 80 79 80 80 80 80 79 79 79 80 81 82 82 82 83 84 84 84 83 84 83 81 80 80 79 79 79 79 79 78 78 78 78 78 78 78 78 78 78 78 78 79 79 79 79 79 80 80 80 79 79 79 79 80 71 67 67 69 77 78
79 78 79 80 80 81 80 80 78 78 78 80 81 81 82 81 82 83 83 83 84 84 85 83 82 80 80 80 80 79 79 79 78 78 78 78 78 78 78 78 78 77 78 78 78 78 79 79 79 79 80 80 80 80 80 80 73 68 66 66 65 69 78
79 80 80 79 80 80 80 80 79 79 80 81 82 82 83 83 83 82 83 83 83 84 84 82 82 81 80 80 80 79 79 79 78 78 78 78 78 78 78 77 77 77 77 77 78 79 78 78 79 79 79 80 79 79 80 80 72 67 66 65 65 64 69
80 81 81 81 82 81 81 81 80 81 81 81 82 84 84 84 84 84 84 84 83 83 82 82 81 81 80 80 80 80 80 79 79 78 78 78 78 78 78 77 77 77 78 78 78 78 78 78 78 79 78 79 79 79 80 80 73 67 64 64 63 64 66
71 74 77 78 79 80 79 79 79 79 79 81 83 83 83 83 84 82 82 82 82 82 82 82 81 81 81 80 80 80 80 79 79 78 78 78 78 78 78 77 77 77 78 79 78 78 78 78 78 78 79 79 80 80 80 81 71 65 63 62 61 62 64
70 73 72 72 74 73 75 76 77 80 80 81 82 82 84 83 84 84 83 82 82 82 82 81 81 81 80 80 80 80 80 80 79 79 79 78 78 78 77 77 77 77 78 78 79 79 79 79 79 79 79 79 80 79 79 82 70 64 62 61 61 62 68
73 72 72 72 74 73 73 75 77 77 78 78 80 80 82 82 83 83 81 81 82 81 81 81 80 80 80 81 81 81 81 81 80 79 79 79 78 77 78 77 77 78 79 78 79 79 79 79 79 79 79 79 79 79 79 80 73 64 61 60 59 61 70
75 75 75 74 74 75 75 75 76 77 78 77 77 78 80 81 82 81 80 80 80 81 80 81 81 81 81 81 82 82 82 81 81 80 79 79 78 78 79 79 79 79 79 79 78 79 80 80 80 80 80 80 79 80 79 80 75 64 60 58 58 63 72
74 74 74 75 75 75 75 75 76 76 75 75 74 73 76 81 81 81 80 80 80 81 81 81 82 82 82 82 83 83 83 82 81 81 80 79 79 79 79 79 79 80 80 80 80 80 80 80 80 80 80 81 81 77 79 80 76 64 61 59 57 63 73
71 73 73 74 74 74 75 76 76 74 73 73 72 73 75 77 80 81 80 80 81 81 82 82 83 84 84 84 84 84 83 83 81 81 81 80 80 80 80 80 80 80 80 79 80 80 80 80 80 80 80 81 81 81 80 80 81 75 61 59 56 58 72
72 73 72 73 73 76 74 74 73 72 72 72 73 74 74 76 77 76 76 76 76 79 81 81 81 82 82 82 83 83 83 83 82 82 82 82 81 81 81 81 80 80 79 79 80 80 79 79 80 80 80 80 81 81 81 81 80 78 60 57 56 56 62
72 72 73 74 75 74 73 73 72 73 73 73 74 74 74 75 75 73 73 72 73 73 74 75 78 79 78 79 80 82 82 82 82 83 82 82 82 80 79 80 81 80 80 80 79 78 78 78 78 79 79 80 80 80 80 81 76 82 63 58 56 55 55
68 69 70 70 71 73 73 71 71 71 72 73 74 74 74 75 74 73 72 72 72 73 73 74 74 76 78 79 79 80 81 81 82 82 83 82 81 80 79 80 80 80 79 79 78 77 77 77 77 77 77 78 77 77 78 79 78 70 74 58 56 55 54
67 68 70 71 71 71 72 70 70 71 71 72 72 72 73 74 73 74 72 71 72 72 73 73 73 74 76 77 78 79 80 81 82 82 82 82 81 80 79 79 79 79 79 78 78 77 77 76 77 76 77 76 75 75 75 77 79 71 67 68 56 55 54
66 67 67 68 70 71 71 70 69 70 70 70 71 71 71 72 73 73 72 71 73 73 74 73 73 73 74 75 76 77 79 80 80 81 81 81 81 79 79 78 78 78 78 77 77 77 76 76 76 76 76 75 75 74 74 76 76 73 66 66 60 55 54
66 67 67 68 69 70 70 70 70 70 69 69 69 71 71 71 72 71 70 71 73 73 73 74 72 72 73 74 74 76 77 78 79 79 80 80 80 81 80 80 78 78 77 77 77 77 76 76 75 75 75 75 75 74 75 72 68 66 64 64 61 58 54
64 65 65 66 68 70 68 69 69 69 69 68 68 69 70 70 70 70 70 72 73 73 73 74 74 74 74 73 73 74 75 77 76 77 78 78 79 80 80 80 80 78 76 77 77 76 76 76 75 74 74 74 74 74 70 68 67 66 65 64 63 62 59
63 64 65 66 67 68 67 67 66 67 68 67 66 67 68 69 69 70 70 71 72 72 73 73 73 73 72 72 73 74 75 75 80 78 76 75 75 76 77 78 79 78 76 76 76 76 76 76 75 74 75 74 74 71 67 66 66 66 66 64 64 62 61
62 63 64 65 66 67 65 66 66 65 66 66 66 67 67 67 68 69 70 71 71 72 72 73 73 71 71 72 72 73 76 75 77 75 70 63 59 54 53 56 63 69 74 72 71 77 80 78 76 76 77 77 73 69 68 66 66 68 62 66 61 65 65
62 62 63 65 65 65 66 67 66 65 65 65 65 67 67 67 68 68 70 70 70 71 72 71 70 69 69 71 72 72 74 74 72 70 68 65 62 60 57 53 48 49 62 67 60 56 57 64 77 78 77 74 69 70 73 71 69 50 47 48 48 49 51
61 62 63 64 64 64 65 65 67 66 66 64 65 66 66 67 67 68 70 70 69 70 70 70 70 69 69 70 70 71 72 71 70 68 67 66 66 65 64 64 59 47 45 50 51 48 47 55 60 63 66 72 66 57 54 52 47 46 45 45 45 45 45
61 61 63 63 63 63 64 65 64 66 66 65 66 65 66 66 67 67 69 70 70 69 69 69 69 68 68 69 69 70 70 70 69 68 67 67 67 67 67 66 64 62 51 45 47 48 45 44 46 50 53 55 58 59 57 50 46 45 45 44 44 43 42

ECMWFFLT1_sfc_temp_066.txt.gz
Temp
80 80 80 80 79 79 79 79 79 80 80 80 80 80 80 80 79 78 78 77 77 76 77 77 77 77 77 77 77 77 78 77 77 77 76 76 76 76 75 75 75 75 76 76 76 76 77 78 78 78 78 78 78 78 77 78 77 78 78 78 78 77 77
79 80 80 81 80 80 80 80 80 81 81 81 80 80 81 80 79 78 78 77 77 77 77 77 77 77 77 77 78 77 77 77 78 78 77 76 76 76 76 76 76 75 75 76 77 77 77 78 78 78 77 78 78 78 78 78 78 78 78 77 77 77 77
79 80 80 80 80 80 79 80 80 81 81 82 81 81 80 79 79 78 78 78 77 77 78 77 77 77 77 77 77 77 77 78 78 78 77 77 77 78 77 76 76 76 77 77 77 77 78 77 77 78 78 78 78 78 78 78 78 78 77 77 77 77 77
79 80 81 81 81 81 81 81 81 82 83 83 82 82 81 80 80 80 79 79 78 77 76 77 78 78 78 77 77 77 77 77 78 78 78 78 77 77 76 76 76 77 76 76 78 78 78 78 77 77 78 78 78 78 78 78 78 78 77 77 77 77 77
79 80 81 80 81 80 80 81 81 81 82 84 83 82 82 81 81 81 80 80 80 78 79 79 79 79 78 78 78 78 78 77 78 78 79 78 78 77 77 77 76 77 77 77 77 77 77 77 77 77 77 78 78 78 78 78 78 78 77 77 77 77 77
79 79 79 80 81 81 81 82 83 83 83 83 83 82 83 82 82 82 81 80 80 80 79 79 78 78 78 79 79 78 78 78 78 78 78 78 77 77 77 77 77 77 77 77 78 77 77 77 77 77 78 78 78 78 78 78 78 78 78 77 77 77 77
79 79 80 81 82 82 82 82 83 83 84 84 84 84 83 83 82 82 82 81 81 79 79 79 79 79 78 78 78 78 77 78 78 78 78 78 78 77 77 77 77 78 78 77 77 77 77 77 77 77 78 78 78 78 78 77 78 78 78 77 76 77 77
80 80 80 81 82 83 83 83 83 84 84 84 84 83 83 83 83 82 81 82 81 81 80 80 79 79 78 78 78 78 78 78 78 78 78 78 78 77 77 77 77 78 77 77 77 77 78 77 78 78 78 78 78 78 78 78 78 78 78 77 77 77 77
82 81 81 82 83 84 84 83 83 83 82 82 83 82 83 82 82 82 82 82 81 81 80 81 80 80 79 78 78 78 78 78 78 78 78 78 78 78 78 78 78 78 77 78 78 78 78 78 78 77 77 77 78 77 78 78 78 78 78 77 77 77 77
79 79 80 82 83 84 83 83 82 81 80 80 80 80 81 82 82 82 82 82 82 81 81 81 81 81 79 79 78 79 78 78 78 79 78 78 78 78 79 79 79 78 78 79 79 78 78 78 78 78 77 77 77 77 77 78 78 78 78 78 77 77 77
80 79 79 81 81 81 81 81 80 79 80 79 80 82 81 81 81 82 81 82 82 82 82 82 81 81 80 79 79 79 78 78 78 78 78 78 79 79 80 80 80 79 79 79 79 79 78 78 78 78 77 77 77 77 77 78 78 78 78 78 78 78 78
77 78 78 79 80 80 79 79 79 79 79 79 81 82 80 80 81 82 82 82 83 82 82 82 82 81 80 80 79 78 77 77 78 78 78 78 79 79 80 80 80 79 79 79 79 79 79 78 78 78 78 78 78 78 78 78 78 78 78 79 79 78 78
77 78 78 79 79 80 79 77 78 79 79 81 82 82 81 81 81 82 80 81 83 82 82 81 81 80 80 80 79 77 77 78 78 78 79 78 79 80 80 80 81 80 80 80 80 80 79 79 78 78 78 78 79 79 78 78 78 78 78 78 78 78 78
78 78 79 79 79 78 77 77 78 78 79 80 81 81 81 82 82 81 80 81 82 83 82 82 81 80 79 79 78 77 77 78 78 79 78 79 78 78 79 80 80 79 80 80 79 80 80 80 79 79 79 79 79 79 79 78 78 78 78 78 78 78 78
76 78 78 78 77 77 77 77 77 77 79 80 81 80 81 81 81 81 81 81 81 83 82 81 80 79 79 78 77 77 77 78 78 78 78 78 78 78 78 78 79 79 79 79 79 80 81 81 81 79 79 79 79 79 79 79 78 79 79 78 78 79 78
77 77 78 77 77 78 78 78 77 77 78 78 79 79 81 80 80 81 81 81 82 81 82 81 80 79 79 78 77 78 78 77 78 78 77 77 77 77 78 78 78 79 78 79 79 79 79 79 79 80 79 79 79 79 79 79 79 75 69 71 79 79 79
76 77 77 78 77 78 78 78 78 77 77 77 78 79 80 80 81 81 82 82 82 81 82 82 79 79 78 78 78 78 78 77 77 77 77 77 77 77 77 77 78 77 77 78 78 78 78 79 79 80 80 80 80 79 79 79 79 70 66 66 68 77 79
75 76 76 77 78 78 77 78 77 77 77 79 80 80 80 79 81 81 81 81 82 83 83 82 80 79 78 79 78 78 77 77 77 77 77 77 77 77 77 77 77 77 77 77 78 77 79 78 78 78 79 80 80 80 80 80 72 67 65 65 65 68 78
75 76 77 77 77 77 78 79 78 78 79 80 81 81 82 82 82 80 81 80 81 82 82 81 81 79 78 79 78 78 78 78 77 77 77 77 77 77 77 77 77 77 77 77 78 78 77 77 78 78 78 79 78 79 80 80 71 66 65 64 64 63 69
74 77 78 79 79 79 79 79 79 80 80 80 81 83 83 82 83 82 82 82 81 81 80 80 79 79 79 79 78 78 78 78 77 77 77 77 77 77 77 76 76 77 78 78 78 77 77 78 78 78 77 78 78 78 80 80 72 65 63 63 63 63 65
70 73 74 75 76 78 78 78 79 78 78 80 82 81 82 81 82 80 80 80 80 80 79 80 79 79 79 78 79 79 78 78 78 77 77 77 77 77 77 77 77 77 77 78 78 77 77 77 77 78 78 79 79 79 80 81 69 64 62 61 60 61 64
70 73 74 75 76 75 75 78 78 79 78 80 81 82 82 82 83 82 81 81 80 80 80 79 79 79 79 78 79 79 79 79 78 77 78 77 77 77 76 77 76 76 77 78 79 79 79 78 79 78 78 79 79 79 79 81 69 64 62 60 59 61 69
69 72 74 73 76 75 75 77 77 77 77 79 81 81 82 82 83 81 80 80 80 79 79 79 78 79 79 79 79 79 80 79 79 78 78 78 77 77 77 77 77 77 78 77 78 78 78 78 79 79 79 79 79 78 78 80 72 63 61 60 59 61 71
72 71 72 73 73 73 74 75 76 78 79 78 79 79 79 81 81 79 78 79 78 79 79 79 79 79 79 79 80 80 80 80 80 78 78 78 77 77 78 79 79 79 79 78 78 78 79 80 79 79 80 80 79 80 79 80 74 63 60 59 58 64 73
72 72 72 73 75 75 75 76 77 78 78 78 77 76 78 79 79 79 78 79 79 80 80 79 80 80 80 80 81 81 81 81 80 79 79 78 78 79 78 78 78 79 79 79 79 79 79 80 79 79 80 81 81 76 78 80 76 63 60 58 57 64 74
70 71 72 73 74 74 75 76 77 76 77 78 77 77 79 80 80 80 79 79 80 80 80 80 80 81 82 82 82 82 81 81 80 80 80 79 79 79 79 80 80 80 79 79 80 80 80 80 80 79 80 81 81 81 80 80 81 75 59 58 56 58 73
72 72 72 72 73 75 74 74 75 75 75 75 75 77 79 80 80 79 79 78 78 78 80 81 81 81 81 81 82 82 82 82 81 81 81 81 80 80 80 81 80 80 79 79 80 79 79 79 79 80 79 81 81 81 81 81 81 78 61 56 56 56 62
71 72 73 74 75 74 73 73 72 72 73 74 76 78 79 79 78 77 77 77 77 78 79 80 81 81 81 80 81 82 82 82 82 82 82 81 81 79 79 80 80 80 80 80 79 77 77 78 78 79 79 80 80 80 80 81 75 82 65 58 55 55 56
67 68 69 70 71 73 73 71 71 72 72 75 77 78 78 78 76 76 76 75 74 74 75 76 77 79 79 80 80 81 81 82 81 81 82 82 81 80 79 79 79 79 79 78 78 77 77 77 77 77 78 78 78 79 79 79 78 68 75 59 55 54 54
67 68 69 71 72 71 72 70 70 71 72 73 74 76 77 77 75 75 74 73 74 74 75 75 75 77 78 79 80 80 81 82 82 82 82 81 80 80 79 79 79 79 78 78 77 77 76 76 77 77 77 77 77 77 78 78 79 71 66 68 56 54 53
66 66 67 68 70 71 71 70 69 70 70 71 72 73 74 76 75 74 73 73 74 74 74 74 74 75 76 78 79 79 81 81 81 81 81 81 81 79 79 79 79 77 78 77 77 77 76 76 77 76 76 76 77 77 77 78 78 80 71 65 61 55 54
65 66 67 68 68 70 69 70 70 70 69 69 70 71 72 73 74 73 72 73 74 74 74 74 74 74 75 76 77 78 79 80 81 81 81 81 82 81 80 80 79 78 77 77 78 77 77 77 76 76 76 76 77 77 78 77 77 77 76 69 67 62 56
63 64 64 64 67 68 68 69 69 69 69 68 69 70 71 71 72 72 72 73 74 74 74 75 75 74 74 74 75 76 77 78 79 79 80 80 81 82 81 81 80 79 77 78 78 77 77 77 76 76 76 76 76 77 77 76 76 76 74 72 72 73 70
62 63 64 65 66 67 67 67 67 68 68 67 68 69 70 70 70 70 71 72 74 74 74 74 75 74 74 74 74 75 76 77 79 79 78 79 79 80 80 80 80 79 78 78 77 78 77 77 76 76 77 77 77 77 76 75 74 74 73 72 72 72 70
62 62 63 64 65 67 66 67 67 67 67 67 67 68 69 69 69 70 71 71 72 73 74 74 73 72 72 73 74 74 76 76 78 78 75 68 61 57 57 63 71 76 79 78 79 81 80 79 78 78 79 79 78 76 75 75 72 74 66 73 64 70 70
62 62 63 64 65 66 67 67 67 67 67 67 67 68 69 68 69 69 70 71 71 73 73 72 71 72 71 71 73 74 76 75 76 73 70 69 65 63 59 52 46 49 66 73 60 58 61 64 78 81 80 80 77 76 78 77 78 61 55 55 54 54 56
61 61 62 63 64 65 66 66 68 67 68 67 67 67 68 68 68 69 70 70 70 71 72 71 71 70 70 71 72 73 75 74 72 71 70 69 69 68 66 65 60 47 43 48 51 49 49 54 58 60 65 75 73 59 50 53 48 46 45 45 45 45 45
61 62 63 64 64 64 65 66 66 66 66 66 66 66 67 68 68 67 69 70 70 70 70 71 71 70 70 69 71 73 73 73 71 70 69 69 69 69 68 68 67 64 49 44 46 46 43 42 47 52 56 59 61 60 58 49 45 44 45 44 44 44 44

ECMWFFLT1_sfc_temp_069.txt.gz
Temp
87 87 86 86 85 85 85 84 84 84 84 84 84 85 85 85 84 83 83 82 81 80 81 81 81 81 81 81 82 82 82 82 82 82 82 83 83 83 83 84 84 83 85 85 85 85 85 86 85 86 85 85 85 85 84 84 84 85 84 84 84 84 84
87 87 87 87 86 86 86 85 85 85 85 85 85 84 85 85 84 83 83 82 82 81 81 81 81 81 81 81 82 82 82 82 82 82 83 82 83 83 84 83 83 83 84 85 86 85 85 86 86 85 85 85 85 85 85 84 84 84 85 84 84 83 84
87 88 87 87 86 86 85 86 85 86 86 86 86 86 85 84 84 83 83 83 82 82 82 82 81 82 82 82 82 82 82 82 82 83 83 84 83 85 84 84 84 85 85 85 85 86 86 86 85 85 85 85 86 85 85 85 84 84 85 84 84 84 83
87 88 88 88 87 87 87 86 86 87 88 88 87 87 86 84 85 85 84 84 82 82 81 82 82 83 82 82 81 81 82 82 83 84 84 84 84 84 84 83 84 85 84 85 86 86 87 85 85 85 84 85 85 86 85 85 86 85 85 84 84 84 84
87 88 88 87 88 87 86 87 87 86 87 89 88 87 87 86 86 86 86 86 86 83 84 84 85 84 83 83 83 83 82 82 83 84 85 85 84 84 83 85 84 85 85 86 85 84 84 84 86 85 85 84 85 85 85 85 85 84 84 84 84 84 85
88 87 87 87 88 88 88 88 88 89 89 89 89 88 88 88 88 88 87 86 86 86 85 84 84 83 83 84 84 84 83 83 83 83 84 84 84 84 84 84 85 85 86 85 86 86 85 85 85 85 86 86 86 87 87 86 86 86 84 84 84 85 86
88 87 87 88 89 89 89 88 90 90 90 90 91 90 89 89 88 88 89 87 87 85 85 85 85 85 83 84 83 83 82 83 83 83 84 85 84 84 84 84 84 86 86 85 85 86 85 84 85 85 85 86 85 86 85 85 85 85 84 83 83 83 84
88 87 87 88 90 91 90 89 89 91 90 91 91 90 90 90 90 89 88 88 88 88 87 86 86 84 83 84 84 84 83 84 85 84 84 85 84 84 85 85 84 85 85 85 85 85 86 85 86 85 85 86 85 85 86 85 84 86 85 84 83 84 85
89 88 88 90 90 91 91 90 89 90 88 88 89 88 89 89 89 89 89 89 88 87 87 88 87 87 84 84 83 83 84 84 84 84 84 85 85 86 86 86 85 85 84 86 87 86 86 86 86 85 84 84 84 84 84 84 85 85 85 84 83 83 84
88 87 87 90 90 92 91 90 89 87 86 86 87 87 88 88 88 89 89 89 89 88 88 88 88 87 85 84 84 85 84 84 84 85 86 85 86 86 87 88 87 86 85 86 87 86 85 86 86 85 83 84 84 84 84 84 84 85 85 84 84 84 83
88 86 86 88 88 89 89 89 87 85 85 84 85 88 87 87 88 89 88 89 89 89 89 89 88 87 86 86 86 86 84 84 85 85 85 86 87 87 88 88 88 87 86 87 87 87 86 85 85 84 84 84 84 84 84 84 85 84 85 86 85 85 85
85 85 84 85 86 87 87 86 86 85 84 84 87 88 86 85 87 89 88 88 90 89 89 88 89 88 87 87 86 84 83 83 85 85 85 86 87 88 88 88 88 88 87 87 87 87 87 86 86 85 84 84 85 84 84 84 84 84 84 86 86 85 85
85 84 84 86 85 86 85 84 84 84 84 86 88 89 88 88 87 88 86 87 89 89 89 87 87 86 86 87 87 84 82 84 84 85 86 85 86 88 88 88 89 88 88 88 87 87 87 88 86 85 85 84 85 85 84 84 85 84 84 84 85 85 84
83 86 86 85 85 84 84 83 84 84 84 86 88 88 88 89 88 87 86 87 88 89 89 88 87 86 85 85 85 83 82 83 84 86 85 86 84 86 87 88 88 87 87 87 86 87 88 88 87 87 86 86 85 85 85 85 84 84 84 84 85 85 85
86 88 87 86 83 83 83 84 83 83 84 85 87 87 87 88 88 87 86 87 87 89 88 87 86 85 85 84 83 82 83 83 84 85 85 85 84 84 85 85 86 86 86 85 86 88 88 88 88 86 85 86 85 85 86 85 85 85 85 84 84 85 85
86 88 89 88 85 85 84 84 84 83 83 83 85 85 88 87 86 86 86 87 88 87 88 87 85 84 84 83 82 83 83 83 83 83 83 83 82 82 83 84 84 85 85 85 85 86 86 86 86 88 86 85 85 85 85 85 85 80 72 74 84 85 85
84 86 89 89 87 86 85 85 85 84 83 83 84 85 86 85 86 87 89 87 88 86 88 88 84 84 83 83 83 83 83 82 82 83 82 82 83 82 83 83 83 83 83 84 84 84 84 84 85 86 87 87 86 86 85 85 85 72 67 67 69 82 85
80 82 85 88 89 88 85 86 85 84 84 85 86 86 86 84 87 87 88 87 87 89 89 87 86 84 83 84 83 83 82 82 82 82 82 82 82 82 82 83 82 82 82 83 83 83 85 84 84 84 86 87 87 87 86 86 75 67 66 66 65 70 83
78 81 84 84 86 86 88 88 87 84 86 87 87 87 88 87 88 85 87 85 87 88 88 86 86 84 83 84 83 83 82 82 82 81 82 81 82 82 82 82 82 82 82 83 83 84 82 83 84 84 84 85 85 86 87 88 73 66 65 65 64 64 73
78 80 84 87 88 89 88 87 87 87 87 86 88 90 89 88 88 87 88 87 86 86 85 84 84 83 83 83 83 83 83 82 82 81 82 82 82 82 82 81 81 82 83 83 83 82 82 83 83 83 83 84 84 84 87 87 75 65 64 63 63 63 67
77 78 81 84 86 88 86 86 86 86 85 88 90 89 89 88 89 88 87 86 85 86 84 84 84 83 83 83 83 83 83 82 82 81 82 82 82 81 81 81 81 82 83 84 84 83 82 83 83 83 83 85 85 85 86 88 71 63 62 61 61 62 66
78 79 80 85 85 85 84 87 86 87 86 89 90 90 89 89 90 89 87 87 86 85 84 84 83 83 83 82 83 83 83 83 82 82 82 82 82 81 81 81 81 81 82 83 85 85 85 84 85 84 84 84 85 85 85 88 69 63 61 60 60 61 74
79 79 80 84 88 87 86 87 87 89 87 88 89 90 90 90 90 89 87 86 86 84 84 83 82 83 83 83 83 84 84 84 83 82 82 82 82 81 81 81 81 82 83 82 84 85 84 84 85 84 85 85 84 84 84 87 74 62 60 59 58 63 78
81 81 82 84 87 87 86 87 88 87 88 87 88 89 88 89 89 86 84 84 84 84 84 84 83 84 83 83 85 84 85 84 84 82 82 82 82 82 83 83 84 83 83 83 83 84 86 86 85 85 85 86 85 86 85 86 76 60 59 58 57 66 79
79 81 82 83 86 86 87 85 86 87 86 86 86 86 86 87 87 86 84 84 84 85 85 84 84 85 84 85 86 86 85 85 84 84 83 82 83 83 83 83 83 84 84 85 85 85 85 85 85 86 86 88 88 79 83 87 80 61 59 57 56 66 80
75 78 80 83 85 87 85 84 84 85 85 86 85 86 86 87 87 86 84 84 87 86 85 85 85 86 86 87 86 86 86 86 84 84 84 83 83 83 84 84 85 85 85 85 85 85 86 86 85 85 86 88 88 88 87 86 87 77 57 57 55 59 78
76 78 79 80 81 82 84 84 85 85 86 85 84 86 87 87 86 84 84 84 84 84 86 87 86 86 86 86 87 87 86 87 85 85 86 86 85 85 85 86 85 86 85 85 86 85 84 85 86 86 85 87 88 88 88 89 87 83 58 56 55 56 64
76 78 80 80 79 80 83 86 84 85 86 85 86 87 87 86 84 83 83 83 83 85 88 87 86 86 86 85 86 87 87 87 86 86 87 86 85 84 83 85 86 86 85 86 85 83 83 83 83 85 85 86 86 86 87 85 77 88 64 56 55 55 56
71 73 75 77 78 80 81 81 81 84 86 88 89 88 87 87 83 83 83 82 83 87 88 87 87 86 86 85 86 85 86 86 86 86 88 86 85 84 83 84 84 84 84 83 83 82 82 82 82 83 84 84 85 85 85 85 83 69 79 59 55 53 54
70 71 73 77 79 79 80 78 80 82 84 87 87 87 87 86 83 83 82 82 85 87 87 86 86 86 85 85 85 85 86 87 87 86 86 86 85 84 84 83 84 83 83 83 83 83 82 82 83 82 84 84 83 84 85 85 85 73 67 71 55 55 53
67 68 70 72 75 78 80 79 78 80 80 82 83 85 85 86 84 82 82 83 84 85 85 85 85 85 84 85 85 85 86 86 86 86 86 86 85 84 84 84 84 82 83 83 83 83 82 82 83 82 82 82 84 85 85 86 85 87 75 65 61 55 54
67 69 70 71 73 74 77 80 79 78 78 79 81 82 83 85 85 82 81 82 83 85 85 85 84 84 84 85 85 86 87 86 87 86 86 87 87 86 85 85 84 84 83 84 84 83 83 83 84 83 82 83 84 85 85 85 85 85 85 73 69 63 56
65 66 67 68 71 73 74 76 77 76 76 76 78 81 83 82 83 82 81 82 84 84 84 84 83 83 84 84 85 86 86 86 87 88 87 87 88 88 87 86 86 85 83 84 84 85 84 83 83 83 84 83 84 85 84 84 84 85 86 85 82 81 74
64 64 66 68 70 73 74 74 74 75 75 75 77 78 79 79 80 81 83 84 84 83 82 81 82 83 83 84 84 84 85 85 85 85 88 88 87 88 88 87 88 87 84 84 84 85 84 84 84 84 85 85 85 84 85 84 85 85 86 86 85 85 84
64 63 64 65 68 72 73 74 74 74 75 75 77 77 77 78 79 80 81 83 83 83 82 81 81 82 82 83 83 82 82 84 84 85 86 86 85 80 75 80 88 87 87 87 89 87 87 86 85 85 86 87 85 84 84 85 84 86 74 85 73 82 87
63 63 64 65 68 70 73 74 75 75 75 75 76 77 77 77 78 79 81 82 83 84 82 81 81 81 81 82 82 82 82 83 84 85 85 84 81 74 67 52 45 55 76 87 72 66 65 66 84 88 89 88 88 88 87 89 88 69 61 61 59 59 61
62 62 63 65 65 67 70 72 74 74 74 75 76 77 77 76 77 78 79 80 81 82 83 83 82 81 81 81 82 81 82 82 83 83 82 81 79 77 74 72 66 47 42 48 53 53 52 54 54 57 64 80 87 69 50 51 49 51 53 53 53 53 52
64 64 64 65 65 66 68 69 71 72 73 74 75 75 76 76 76 76 78 79 80 81 82 83 83 82 82 83 82 80 81 83 82 82 80 79 78 78 77 77 75 69 49 43 46 46 41 40 42 46 52 56 66 73 69 52 45 44 45 45 44 44 44

ECMWFFLT1_sfc_temp_072.txt.gz
Temp
97 96 95 94 92 93 92 91 90 90 90 90 90 91 91 91 90 89 88 87 85 85 85 85 86 86 85 85 86 87 87 87 87 87 87 88 89 88 88 90 89 89 91 91 91 91 91 91 91 92 91 91 91 90 89 89 89 90 89 89 89 89 89
97 97 96 96 94 93 92 92 91 91 91 91 90 89 91 91 89 89 88 87 86 86 86 86 85 86 86 86 87 87 87 87 87 87 88 87 88 88 90 89 89 89 89 91 92 91 91 92 92 91 91 91 91 90 91 90 89 89 90 89 88 88 88
98 98 97 96 95 94 92 93 92 92 91 92 92 91 91 89 89 89 88 88 86 86 87 86 86 87 87 87 87 87 87 88 88 88 88 89 89 91 90 89 90 91 91 91 91 92 92 92 91 91 91 91 92 90 90 90 89 89 89 89 89 89 87
96 97 98 97 95 94 94 94 92 93 94 94 93 93 91 89 91 90 90 89 87 87 86 87 87 88 88 87 87 87 87 87 87 89 90 90 89 90 89 89 89 91 91 91 93 93 94 92 92 91 90 90 90 91 91 90 91 90 90 89 89 89 88
97 99 99 97 96 95 95 94 93 92 94 95 94 92 92 92 92 92 91 91 91 88 89 89 90 89 88 88 89 88 88 88 88 89 90 90 89 89 89 91 91 91 91 92 92 91 90 91 92 91 90 89 91 90 90 90 90 90 89 89 88 89 89
97 97 97 98 97 97 96 96 96 96 95 95 95 94 94 94 94 94 93 91 91 92 90 89 89 88 87 89 89 90 89 88 88 88 89 90 89 90 90 90 91 91 93 91 93 92 91 91 92 92 92 92 92 92 93 91 91 91 90 89 88 89 90
98 98 98 98 98 98 97 97 98 97 97 97 97 96 96 96 95 95 95 93 93 90 91 91 91 90 88 89 88 88 88 89 88 89 90 91 90 89 89 90 90 92 93 92 91 92 92 90 90 91 91 92 92 93 91 90 91 91 90 88 88 89 88
99 98 98 99 100 101 100 97 98 99 97 97 97 97 96 96 96 96 94 95 94 94 93 93 92 90 88 89 89 89 89 90 91 90 90 90 90 89 90 90 90 91 91 92 91 92 93 91 92 91 91 92 91 91 91 90 89 92 91 89 88 88 90
100 99 99 100 101 102 102 99 98 98 96 95 96 95 96 96 96 95 95 95 95 94 94 95 94 93 89 89 88 88 89 90 90 90 90 90 91 92 92 92 91 91 91 92 93 92 92 92 93 90 90 90 90 90 90 89 90 91 90 89 88 88 90
99 98 98 101 101 103 101 100 97 95 94 93 94 93 94 95 95 95 96 96 96 95 95 95 95 94 91 90 90 90 89 89 90 91 91 92 92 92 93 94 93 92 91 92 94 93 91 92 92 91 89 89 89 89 89 89 90 90 91 89 89 89 88
100 98 97 99 99 100 99 99 95 93 93 91 92 95 94 94 94 95 95 96 97 96 97 96 95 94 92 92 91 91 89 90 91 91 91 92 94 94 95 95 96 93 92 93 93 94 93 91 91 90 89 89 89 89 89 89 90 89 91 91 91 90 90
93 94 93 94 96 97 96 95 94 92 91 91 94 95 92 92 94 96 96 96 98 97 96 96 96 95 93 93 92 89 89 89 91 92 92 92 94 95 96 96 96 95 93 94 93 93 95 92 92 91 89 89 90 90 89 89 89 89 90 92 92 91 91
95 93 92 93 93 95 94 93 92 91 91 93 95 96 95 95 94 96 93 94 97 97 96 94 94 93 93 93 93 89 88 90 91 91 93 92 94 95 95 96 97 96 95 94 94 94 95 95 92 91 91 89 90 91 89 89 90 89 89 90 91 91 90
90 96 95 94 93 92 91 91 91 90 90 93 94 95 95 95 96 94 93 94 95 97 97 96 94 93 92 91 91 89 88 89 90 93 92 92 91 93 95 96 96 95 94 94 93 95 95 95 94 93 92 91 91 90 90 89 89 89 89 89 90 91 90
95 97 96 95 91 90 91 91 89 90 91 92 94 94 95 95 95 94 94 94 94 97 96 94 93 92 92 91 89 88 88 89 90 91 91 91 90 91 92 93 93 93 93 92 93 95 96 96 96 93 92 92 91 91 91 91 90 90 90 89 89 90 91
95 97 99 97 94 93 91 91 90 89 90 89 92 92 95 94 93 94 94 94 95 94 96 94 92 91 91 90 89 89 89 88 89 89 89 89 89 89 90 92 92 93 92 92 92 93 92 93 93 95 93 91 91 91 91 91 91 85 77 80 89 90 91
93 93 95 95 96 95 93 92 92 90 89 89 90 92 93 93 93 94 96 95 95 94 95 95 91 90 90 89 89 89 88 88 88 88 88 88 89 88 89 89 90 90 90 90 91 91 90 91 92 94 95 93 92 91 91 91 91 76 69 70 74 88 90
89 89 91 92 92 94 95 94 93 91 91 92 93 93 93 92 94 94 95 94 94 96 97 95 92 91 89 90 89 88 87 88 87 87 87 87 87 87 88 89 89 88 88 89 90 89 91 91 91 91 93 94 94 93 92 92 80 69 67 68 69 75 89
86 88 89 88 89 89 93 97 97 93 94 94 94 94 95 95 95 92 93 92 93 95 95 93 93 90 89 90 88 88 87 87 87 87 87 87 87 87 87 87 87 87 88 89 89 89 88 88 90 89 90 92 91 93 94 94 76 66 66 67 67 67 78
85 86 88 89 90 90 91 92 95 97 95 93 95 98 97 95 95 94 95 94 93 93 92 91 90 89 89 89 88 88 88 87 87 86 86 87 87 87 87 86 86 87 89 89 88 87 88 89 88 89 88 89 90 89 93 94 77 65 64 65 64 65 71
83 84 85 86 87 90 89 90 92 95 95 97 98 97 96 96 97 95 95 93 92 92 90 90 89 89 89 88 88 88 88 87 87 86 87 87 86 86 86 86 86 87 88 90 89 88 87 88 88 88 88 90 91 90 92 96 71 63 63 62 62 63 69
82 84 85 86 86 86 86 90 93 96 96 97 98 99 98 96 98 97 94 94 92 91 90 89 88 88 88 88 88 88 88 88 87 86 87 86 86 86 86 86 86 86 87 89 91 91 91 89 90 90 89 90 91 91 90 94 71 62 61 60 61 62 78
82 83 85 86 89 89 89 91 93 96 96 96 98 99 97 98 98 96 95 93 92 90 90 89 87 88 88 88 89 89 89 89 88 87 86 86 86 86 86 85 86 87 88 88 90 91 91 90 91 90 91 90 89 89 90 93 76 61 59 59 59 65 83
83 85 87 88 88 90 90 92 94 96 97 96 96 97 96 97 96 93 91 90 90 90 89 89 88 89 88 88 90 90 90 89 89 87 86 86 86 86 87 88 88 88 88 88 89 91 92 92 91 91 91 92 91 92 90 92 79 60 59 58 57 70 83
83 86 88 88 89 90 93 94 93 95 94 94 94 95 94 94 94 93 90 89 90 90 90 89 89 90 89 89 91 91 90 90 89 88 88 87 87 88 88 88 88 89 89 91 91 91 91 91 91 92 91 95 94 83 88 93 83 59 60 57 57 70 84
79 83 86 90 91 90 91 92 91 92 93 93 93 95 93 94 94 91 89 89 92 91 90 90 90 91 91 92 91 91 90 90 88 88 89 88 88 88 88 89 90 90 90 90 91 91 92 93 92 91 92 94 94 94 92 91 93 75 58 57 55 61 83
79 82 83 88 88 85 90 92 91 92 93 93 92 94 94 94 93 90 89 89 89 89 91 92 91 91 91 91 92 92 91 91 90 89 91 91 89 89 90 91 90 91 90 91 92 92 91 92 92 92 91 94 94 95 94 95 93 83 56 57 55 57 68
77 80 84 85 85 85 89 92 90 91 93 92 94 94 94 92 90 88 88 88 89 90 94 92 91 90 90 89 91 92 92 92 90 90 92 90 89 88 88 90 91 91 91 92 91 88 88 89 89 91 92 92 93 93 93 91 82 93 62 57 55 56 58
72 74 77 80 85 87 89 89 89 91 93 95 95 95 94 93 88 88 87 87 88 92 93 92 91 90 90 89 90 90 90 90 90 90 93 91 90 88 87 89 89 89 89 88 88 87 87 87 87 88 89 90 91 91 90 90 87 74 79 58 55 54 55
71 72 75 81 85 86 88 86 88 92 94 95 94 93 93 91 88 87 87 87 90 92 92 91 91 90 89 88 89 90 91 91 91 91 91 90 89 88 87 87 88 88 88 88 88 88 87 87 87 87 89 89 88 89 90 89 91 77 70 69 54 54 54
69 69 71 75 81 84 87 88 86 89 91 93 92 92 91 91 88 87 86 89 90 90 91 90 90 89 88 89 89 89 91 90 90 90 91 90 89 87 88 87 87 87 87 87 87 88 87 86 87 85 86 86 87 89 90 92 90 94 78 65 58 55 53
68 69 70 72 75 80 84 86 87 86 86 88 90 90 90 91 90 86 87 90 90 91 91 90 88 88 88 89 89 90 91 91 92 90 90 91 91 90 89 89 88 88 88 88 89 88 87 87 87 88 86 85 88 88 91 90 92 92 91 73 67 61 56
65 66 67 68 72 75 78 82 83 83 84 84 87 90 92 91 91 90 90 89 91 92 90 89 88 87 88 88 89 90 90 90 92 92 91 91 93 92 91 91 91 90 87 89 90 89 88 87 87 88 88 86 87 89 89 90 92 92 93 88 83 81 72
64 65 67 69 71 74 76 76 77 80 82 83 85 86 87 88 89 89 90 91 93 92 90 88 87 88 88 89 90 90 90 90 87 89 93 92 93 94 93 93 94 93 89 89 90 90 90 89 88 88 89 90 90 90 90 90 92 92 92 92 89 88 86
64 65 66 67 69 72 73 74 76 77 79 80 83 85 86 87 88 89 89 90 91 91 88 87 86 88 89 90 90 90 89 90 91 91 93 93 90 94 89 89 95 93 93 93 95 94 95 95 92 90 92 94 92 90 91 92 90 94 80 90 78 86 93
64 65 66 68 69 70 71 74 75 76 77 78 80 81 82 83 84 87 89 89 89 89 87 87 87 87 87 89 89 89 89 90 91 92 91 93 93 89 75 51 46 60 81 89 67 59 59 62 85 87 93 96 95 93 92 94 90 67 65 61 60 57 52
65 65 65 66 67 67 69 71 73 75 76 77 78 79 80 81 82 83 84 85 87 88 88 87 86 87 88 88 88 87 88 88 90 90 90 91 91 88 83 81 71 46 42 50 56 51 42 42 41 46 52 70 87 69 50 51 48 49 51 52 50 48 48
67 66 65 66 67 67 67 68 70 72 73 76 77 78 78 79 80 82 84 85 86 86 87 87 87 86 88 89 89 86 87 88 88 89 89 89 89 87 86 87 83 77 50 42 45 46 42 42 41 40 43 50 60 76 75 52 45 45 46 45 46 48 47

ECMWFFLT1_sfc_temp_078.txt.gz
Temp
93 93 92 91 91 89 87 85 85 85 85 87 89 91 93 92 91 89 88 86 85 84 85 85 85 85 85 85 85 85 86 86 85 86 86 86 86 86 86 87 87 86 88 87 86 86 87 88 88 89 88 88 88 88 87 87 87 88 88 88 87 85 86
93 93 93 93 92 89 88 87 87 87 85 86 89 90 92 93 90 90 88 86 86 85 85 86 85 85 85 85 86 85 85 86 86 85 86 85 86 86 88 87 86 86 86 87 87 87 88 89 89 88 88 88 88 88 88 87 87 87 87 86 86 85 86
92 93 93 94 92 90 87 88 87 88 87 87 88 90 92 91 91 89 88 87 86 85 86 86 85 85 86 85 85 85 86 86 86 87 86 87 88 90 89 88 88 88 89 89 88 89 90 89 88 88 89 88 89 88 87 87 87 87 87 86 86 86 85
92 94 94 94 92 91 89 90 89 90 90 89 87 90 93 90 92 91 90 89 86 86 85 86 87 86 86 85 85 85 85 86 86 88 88 88 88 89 88 88 87 89 88 89 92 91 93 89 89 88 88 87 87 88 88 88 88 87 87 86 86 86 85
92 95 96 92 93 93 92 92 91 90 91 91 91 91 92 94 95 93 92 91 90 87 88 88 89 88 87 87 87 87 86 87 87 88 89 89 88 88 88 90 89 90 89 91 90 88 88 88 89 88 88 87 88 87 87 88 88 87 86 86 85 86 86
93 94 91 93 95 95 94 95 95 94 93 93 93 91 92 96 96 95 94 91 90 90 88 88 88 87 86 88 88 87 87 87 87 87 88 88 88 88 89 89 90 90 92 90 92 91 90 89 90 89 89 90 90 89 89 88 88 88 86 86 85 86 87
92 93 94 94 95 94 95 95 96 95 95 95 94 89 91 92 95 96 95 93 91 89 89 89 89 89 87 87 87 87 86 87 87 88 89 90 89 88 88 89 89 91 92 90 90 91 91 89 89 89 89 90 88 89 87 86 87 87 86 85 85 85 85
95 94 95 94 95 96 96 95 94 95 93 92 91 92 90 96 97 96 95 94 92 92 90 90 89 88 87 88 88 88 87 88 89 89 89 90 89 89 89 90 90 90 90 91 90 91 92 90 91 90 89 90 88 88 89 87 86 89 87 85 85 85 88
98 96 97 96 95 97 97 95 96 94 92 93 92 91 92 92 94 96 96 95 93 92 91 92 91 90 88 88 87 87 88 89 89 89 89 90 90 91 91 91 91 91 90 92 92 91 91 91 92 88 88 88 88 87 88 86 87 88 87 86 85 85 86
98 96 95 97 97 98 95 95 95 92 91 91 91 92 94 96 96 96 96 95 95 93 92 92 92 92 89 89 89 89 88 88 88 90 90 90 91 91 92 92 92 92 92 93 94 92 91 91 91 89 87 88 87 87 87 87 88 88 88 86 86 85 85
99 95 95 98 96 94 95 96 93 90 90 88 90 95 95 95 95 96 95 96 95 94 94 93 93 92 90 90 90 90 88 89 90 89 89 90 91 92 93 93 93 92 92 93 93 93 92 90 90 88 88 89 88 87 87 88 88 87 89 88 88 87 87
95 95 93 95 94 94 94 92 91 89 88 88 93 96 94 93 96 97 96 96 97 96 94 94 94 93 91 91 90 88 88 88 90 90 90 91 92 92 93 94 93 93 93 93 93 93 93 91 91 90 88 88 89 88 87 87 88 87 87 90 90 88 88
98 95 93 97 92 93 91 89 90 90 89 93 96 97 97 96 96 97 94 95 97 96 95 94 93 92 91 91 91 88 87 89 90 90 91 90 92 93 93 94 95 94 93 94 94 94 94 93 91 90 90 88 89 90 88 87 88 86 87 87 88 88 87
95 99 97 95 95 92 90 89 90 90 91 94 96 97 97 97 97 96 94 95 96 97 97 96 94 92 91 90 89 87 87 88 90 91 90 90 89 91 93 94 94 93 92 92 93 95 94 94 92 92 91 90 90 89 89 88 88 87 86 87 88 88 87
97 100 99 99 93 92 93 92 89 90 93 94 96 96 97 97 96 95 95 95 95 98 97 95 93 92 92 90 88 87 87 88 89 90 89 90 89 90 91 92 92 92 92 91 93 95 96 95 94 92 91 90 89 89 90 89 88 88 88 87 87 88 88
96 96 98 96 96 97 94 94 92 91 92 92 94 94 98 96 94 95 96 95 97 95 97 95 93 91 91 89 88 87 88 87 88 88 88 88 88 88 90 91 91 93 92 91 92 91 91 92 92 93 92 90 89 89 90 89 89 85 79 81 87 87 90
90 93 94 94 90 92 89 91 92 93 93 91 92 94 95 95 95 96 98 97 97 95 97 96 92 91 90 89 89 88 88 87 87 88 87 87 88 88 88 89 90 89 89 90 90 90 89 91 92 93 93 92 91 90 90 90 90 78 72 74 78 87 87
89 88 90 91 92 90 90 92 92 88 91 91 93 95 96 93 96 96 97 96 96 98 99 97 94 92 89 90 89 88 87 87 87 87 87 87 87 87 88 89 89 88 88 90 90 88 91 91 91 90 92 92 92 91 91 91 82 71 70 71 72 79 87
89 88 87 88 89 89 92 92 91 89 92 96 95 92 97 97 98 94 95 94 95 97 98 96 96 92 90 90 89 88 87 87 87 87 87 87 87 87 88 87 88 88 89 90 90 90 88 88 90 90 91 91 89 91 91 92 77 68 69 70 70 71 82
84 85 87 88 88 89 88 88 88 90 91 89 91 97 97 97 98 97 97 96 94 95 93 92 92 90 90 89 88 88 88 87 87 87 87 87 87 87 87 87 87 88 90 90 89 88 89 91 89 89 88 89 89 88 91 92 75 67 67 68 68 69 74
83 83 85 85 85 87 86 86 88 90 91 93 93 93 96 96 100 98 96 95 94 93 91 92 92 90 90 89 89 89 88 87 87 87 87 87 87 87 86 87 87 88 89 92 91 89 88 89 89 89 89 91 92 90 92 95 70 65 65 66 66 68 72
81 82 82 83 84 85 85 88 87 90 89 91 93 95 95 96 99 101 97 97 94 93 92 91 90 89 89 89 89 89 88 88 87 87 87 87 87 87 86 86 86 87 88 90 93 92 91 90 91 90 91 91 92 93 90 93 65 65 64 64 65 66 77
81 81 82 83 85 85 86 87 88 90 89 92 93 94 95 95 98 98 98 96 96 92 92 91 89 89 89 89 89 90 89 89 88 87 87 87 87 87 87 86 86 88 89 89 91 92 91 90 91 90 91 91 90 90 89 90 67 63 62 63 63 67 79
80 80 81 82 82 85 86 88 89 89 90 89 89 90 90 94 96 95 92 93 93 92 91 92 91 90 89 89 90 90 90 89 88 87 87 87 87 87 88 89 89 89 89 90 91 92 92 91 90 91 91 91 91 92 90 92 71 60 61 62 61 70 81
78 78 78 79 80 81 84 84 84 85 86 87 88 89 90 91 92 96 93 92 93 93 93 92 91 91 90 90 91 91 91 90 89 88 88 87 87 88 88 88 88 90 90 91 92 91 91 90 90 91 91 94 94 85 89 93 76 57 61 59 59 69 82
73 74 76 78 80 81 80 80 82 84 86 88 89 91 91 92 93 92 93 92 95 95 93 92 92 92 92 92 92 92 91 91 88 88 89 88 88 88 88 89 90 90 90 90 91 91 93 92 90 91 91 93 93 93 92 92 86 66 59 59 57 63 82
73 74 74 76 77 75 78 80 83 84 86 87 88 92 93 94 93 92 91 91 92 92 93 93 93 92 91 91 92 92 91 92 90 89 90 90 89 89 89 90 90 90 89 90 92 91 91 92 91 92 90 92 93 93 93 93 91 73 57 57 57 59 70
72 72 74 74 74 75 78 81 81 83 85 86 89 92 94 93 89 89 90 90 91 92 95 93 92 91 91 89 91 92 92 92 90 91 91 90 89 87 87 89 90 89 90 91 89 87 87 88 88 91 91 92 92 92 92 89 84 82 59 57 56 58 62
67 68 69 70 72 76 78 78 79 81 84 89 91 93 95 95 89 89 89 89 90 94 93 93 92 91 90 89 90 89 90 90 90 90 93 91 89 88 87 88 88 88 87 87 87 86 86 86 87 88 89 89 89 90 89 88 85 72 69 57 55 56 58
68 68 69 71 73 75 76 76 79 82 85 89 91 92 94 92 89 89 89 89 91 93 93 91 91 90 89 88 89 90 90 91 91 91 91 89 88 87 86 86 87 87 87 86 87 86 86 86 86 87 89 89 89 88 87 88 88 71 66 63 55 55 56
66 66 66 68 70 73 74 76 78 82 84 89 91 90 91 92 90 89 88 90 91 90 91 91 90 89 89 89 89 89 91 90 90 89 90 89 88 87 87 87 87 86 86 86 87 86 85 85 86 85 86 86 87 88 89 90 89 81 69 62 58 56 55
65 66 66 67 68 71 72 75 77 79 79 83 88 87 90 92 92 89 89 91 90 91 91 90 89 88 88 89 89 90 91 91 92 90 90 91 90 88 88 88 88 87 86 87 87 87 86 85 86 86 86 85 88 87 89 89 89 84 76 66 62 59 57
63 64 64 64 66 69 70 72 74 76 78 79 82 84 87 93 94 92 91 90 93 93 91 90 88 87 87 87 89 89 90 89 91 91 91 91 91 90 89 89 89 88 86 87 88 88 87 86 85 85 86 86 87 88 88 88 88 87 81 74 70 69 67
61 63 65 65 66 69 69 70 72 74 75 77 81 83 84 84 90 91 91 93 93 93 90 88 87 87 88 89 89 89 89 89 86 87 91 91 91 91 90 90 91 90 87 87 88 88 87 87 86 85 87 87 87 87 88 89 89 89 84 79 76 75 74
61 62 63 63 66 68 67 68 70 73 74 75 79 80 81 83 83 89 92 91 91 90 89 87 85 87 88 89 89 88 87 89 88 89 90 90 89 89 84 86 92 90 89 92 92 92 91 89 89 88 90 90 87 86 87 88 88 90 77 82 70 76 80
61 62 63 64 67 67 67 68 68 71 71 72 74 76 78 79 82 82 87 89 89 89 87 86 86 86 86 87 87 88 87 88 89 89 89 90 88 73 65 51 46 57 81 88 62 57 62 72 88 91 92 92 91 88 90 89 91 76 66 60 60 61 65
61 62 62 64 66 66 66 66 67 70 71 71 72 72 73 75 76 78 80 82 82 83 86 86 85 85 86 86 86 85 86 87 87 87 87 88 82 78 74 72 66 48 43 52 54 51 46 47 50 60 71 86 83 66 52 65 61 55 54 56 57 57 57
63 63 63 64 65 65 65 65 65 67 69 70 71 71 72 73 74 74 76 79 80 79 81 83 84 84 85 87 86 84 84 87 87 87 87 86 82 80 79 78 74 68 50 44 47 47 44 44 45 47 54 64 71 75 73 60 54 52 51 54 54 56 56

ECMWFFLT1_sfc_temp_081.txt.gz
Temp
84 86 86 87 87 87 86 86 86 86 87 87 87 88 87 87 86 85 84 82 81 81 81 81 81 81 81 81 81 81 82 82 81 81 81 80 81 81 80 80 80 79 80 80 80 81 81 83 82 82 82 82 82 81 81 81 81 83 80 80 81 80 81
84 85 87 88 87 86 86 86 85 86 87 87 87 87 88 87 86 84 84 83 82 82 82 82 81 81 82 81 82 81 81 81 81 82 81 80 79 80 82 81 81 79 80 81 80 80 81 83 83 82 82 83 82 81 82 81 81 80 80 80 80 79 79
84 85 87 87 87 87 86 86 85 86 87 88 88 88 88 86 86 85 84 83 82 82 82 82 82 82 82 82 81 81 81 82 81 81 81 81 81 82 82 82 82 82 82 82 82 81 82 81 82 82 83 83 83 82 81 81 81 81 80 80 80 80 78
84 86 87 87 87 87 87 86 85 86 87 88 88 89 88 86 87 86 85 84 83 82 81 82 83 82 82 81 81 81 81 81 82 82 83 83 82 83 82 82 82 83 81 82 84 85 86 83 81 82 84 82 82 82 82 82 82 81 81 80 80 80 79
86 87 87 87 87 86 86 86 86 86 86 88 88 88 89 88 88 87 86 85 85 83 84 84 85 84 83 83 83 82 82 82 82 83 83 84 83 83 83 83 83 83 83 84 84 83 83 83 83 81 82 82 82 82 82 82 82 81 81 80 80 80 79
86 86 87 87 87 86 86 86 87 87 87 87 87 88 89 89 89 88 88 85 85 85 85 84 84 83 82 83 83 83 83 83 83 83 83 83 83 83 83 83 84 84 84 84 84 84 84 84 84 82 83 83 83 83 83 82 82 82 81 80 80 80 80
86 87 87 87 88 87 86 86 87 88 88 88 89 88 89 90 89 89 89 87 86 84 84 84 85 84 83 83 83 83 82 83 83 83 84 84 84 84 84 84 84 85 85 85 84 84 85 84 84 84 83 84 83 83 82 81 81 82 81 80 79 80 79
88 88 88 88 88 88 87 87 87 88 88 89 88 88 88 89 90 90 89 88 87 86 85 85 85 84 83 83 84 83 83 83 84 84 84 84 84 84 84 84 84 85 85 85 85 85 85 84 85 85 84 84 83 82 83 82 81 82 81 80 79 80 81
89 89 89 89 89 89 88 87 88 88 87 87 87 87 88 88 89 90 90 89 88 86 86 86 86 86 84 84 83 83 84 84 83 83 84 84 84 84 85 85 85 85 85 85 86 86 85 85 86 84 84 84 83 82 82 81 82 82 81 81 80 80 81
89 88 88 90 90 91 89 89 88 87 86 86 86 86 87 88 89 89 90 90 88 87 87 87 87 86 85 84 84 84 84 83 84 84 84 84 85 85 86 86 86 86 86 86 87 86 86 85 85 84 83 83 83 82 82 82 82 82 82 81 81 80 80
90 88 88 89 89 90 89 89 88 86 86 85 85 87 86 87 88 89 89 90 89 88 88 87 87 87 86 85 84 84 83 83 84 84 84 85 86 86 86 87 87 87 86 87 86 87 86 84 85 84 83 84 83 82 82 82 82 82 82 82 82 81 81
86 87 87 88 89 89 88 88 87 85 85 85 86 87 86 86 87 88 89 91 91 89 88 88 88 88 86 85 84 83 83 83 84 84 84 85 86 86 87 87 87 87 87 87 87 87 87 85 85 84 83 84 84 83 83 82 82 82 82 83 82 81 81
87 87 86 88 88 88 87 85 86 85 85 86 87 87 87 87 87 88 88 90 92 91 89 88 88 87 86 86 85 83 83 83 84 85 85 85 86 87 87 88 88 88 87 88 88 88 87 87 86 85 84 84 84 84 83 82 83 82 82 82 82 82 81
85 87 88 89 88 87 85 85 85 85 85 86 87 88 88 88 88 89 89 90 91 91 90 90 88 87 87 86 84 83 83 84 84 85 85 86 85 86 87 88 88 87 87 87 88 88 88 87 86 86 85 84 84 84 84 83 82 82 82 82 83 82 81
83 84 84 84 81 80 84 85 84 84 85 86 88 88 88 88 89 89 90 91 91 92 90 90 88 87 87 85 84 83 84 84 85 85 85 85 85 85 86 87 87 87 87 87 88 89 89 89 88 86 85 85 84 84 84 84 83 83 83 82 82 82 82
82 83 83 81 80 82 80 80 79 80 82 84 87 87 89 89 89 90 90 91 92 91 91 90 88 87 86 85 84 84 84 84 84 84 84 84 84 84 85 86 86 87 87 86 87 87 87 87 87 87 86 84 84 84 84 84 84 81 77 78 83 82 84
80 81 81 82 80 80 81 78 75 75 75 73 75 79 84 87 91 91 92 92 92 91 92 91 88 87 86 85 85 84 84 83 83 84 83 83 84 84 84 85 86 85 85 86 86 86 85 86 87 87 87 86 85 84 84 85 85 76 71 72 76 83 82
78 78 79 80 81 81 78 81 77 75 76 76 77 76 73 69 72 81 91 91 91 93 93 91 89 87 86 86 85 84 83 83 83 83 83 83 83 83 84 85 85 84 84 85 85 85 86 85 85 86 87 87 86 85 85 85 79 71 69 70 71 77 83
76 77 78 77 76 79 77 75 81 79 76 76 74 74 74 74 74 72 70 78 90 92 92 90 89 88 86 86 85 84 84 83 83 83 83 83 83 83 84 83 84 84 84 85 86 86 85 84 84 85 86 86 84 85 86 85 76 69 68 69 69 70 79
74 75 76 77 78 78 78 74 74 82 80 77 78 80 76 76 76 76 75 73 73 83 90 88 88 87 86 85 85 84 84 83 83 83 83 83 83 83 83 83 83 84 85 85 85 85 85 86 84 83 84 85 85 84 86 85 76 67 66 67 67 68 73
71 72 73 73 74 75 75 75 76 79 81 83 84 81 81 80 79 81 81 79 78 84 88 88 87 87 86 85 85 85 84 83 83 83 83 83 83 83 83 83 83 84 85 86 85 85 84 85 85 83 84 86 86 85 85 88 72 65 65 65 65 66 70
70 70 70 72 72 73 73 76 77 78 78 81 82 85 82 80 84 85 84 86 86 87 88 88 85 86 86 85 85 85 85 84 83 83 83 83 83 82 82 83 83 83 84 86 86 86 86 86 86 85 84 85 86 86 85 88 68 64 64 64 64 66 74
70 70 71 71 73 73 75 76 75 76 77 79 81 83 84 86 87 86 86 88 90 88 88 88 85 85 85 86 85 86 86 85 84 83 83 83 83 83 83 83 83 84 85 85 86 85 85 85 86 86 86 85 84 85 84 86 70 63 62 63 63 66 76
70 70 70 71 72 73 73 74 74 76 76 77 79 81 82 84 84 84 83 82 83 85 87 88 87 86 85 86 86 86 86 86 85 84 83 83 83 83 84 85 85 85 85 85 86 86 86 87 87 87 87 86 85 85 85 87 73 61 62 61 61 68 78
68 69 69 70 70 70 71 71 73 75 76 77 78 80 82 82 83 84 83 84 84 85 87 87 88 87 86 86 87 87 87 87 86 85 84 84 84 84 84 84 85 86 86 86 87 87 87 86 86 87 87 88 88 83 84 87 75 59 62 60 60 67 79
66 67 68 69 70 71 71 72 73 74 75 76 76 79 80 82 82 82 82 83 86 86 87 88 89 90 88 88 88 88 87 87 86 85 85 84 84 85 85 85 86 86 86 86 87 87 87 86 86 86 87 87 87 88 87 86 80 66 59 59 58 62 78
66 67 66 67 68 69 70 71 72 72 73 74 75 78 80 81 81 81 82 83 84 84 88 90 90 89 87 87 88 88 88 88 86 86 86 86 85 86 86 86 86 86 86 86 87 87 86 86 86 87 86 87 87 88 87 88 85 71 57 57 57 58 68
65 65 67 67 68 68 68 69 70 71 73 74 77 79 81 82 80 80 81 82 83 85 89 90 89 88 87 86 87 88 88 87 87 87 87 87 86 84 84 85 86 86 86 87 86 85 84 84 84 85 85 86 86 87 87 85 80 82 59 57 56 57 60
62 62 63 64 65 67 68 67 68 71 72 75 77 79 80 80 79 80 81 81 83 86 88 88 88 87 86 85 86 86 87 87 86 86 88 87 86 85 84 84 85 85 85 84 84 83 83 83 83 84 84 84 85 85 85 85 83 74 70 57 55 55 56
62 63 63 65 66 66 67 67 69 71 73 74 75 77 79 79 78 79 80 81 85 86 86 86 87 87 86 85 85 86 87 87 87 87 88 86 85 84 84 83 84 84 84 84 84 83 82 83 82 83 83 83 83 84 84 84 86 74 68 65 55 55 55
62 62 63 63 64 66 67 67 69 70 71 72 73 76 77 79 79 78 78 81 84 84 84 85 86 86 85 85 85 85 87 86 86 86 87 86 85 84 84 83 84 83 84 83 83 83 82 82 82 82 82 82 82 83 84 85 85 84 71 64 59 56 55
62 63 63 63 63 64 66 68 69 69 68 70 73 75 76 78 79 77 78 81 83 84 84 85 85 85 85 85 85 86 87 86 87 86 86 86 86 85 85 84 84 83 83 83 83 83 82 82 82 82 82 81 83 83 84 84 85 83 78 68 64 60 56
60 61 61 61 62 65 65 67 66 67 67 68 71 74 75 75 77 77 77 78 83 85 85 85 85 84 84 84 85 85 86 86 86 86 86 86 86 86 85 85 85 84 82 83 83 83 83 82 81 82 82 82 82 83 83 83 83 82 79 75 72 69 65
59 60 62 63 63 64 64 65 65 65 65 66 70 71 72 73 74 75 75 76 79 85 84 84 84 84 84 85 85 85 86 86 83 84 85 86 86 86 86 85 86 85 82 82 83 83 82 82 82 81 82 83 83 83 82 82 83 83 81 76 74 72 70
59 60 61 61 63 63 62 63 64 64 64 65 67 68 69 71 73 74 74 75 77 77 81 83 82 83 85 85 85 84 84 85 85 85 85 86 85 86 86 86 87 84 84 86 87 86 85 84 84 83 85 85 84 83 82 82 82 84 73 79 66 72 73
59 59 60 62 62 62 62 63 64 63 63 64 65 66 67 69 71 72 73 74 75 76 76 77 80 82 83 84 84 84 83 83 85 85 84 85 85 83 70 56 50 59 77 85 79 72 71 71 84 86 86 86 86 86 85 84 87 74 62 59 57 57 61
58 59 61 61 60 61 61 62 63 63 63 63 64 64 66 67 69 70 72 73 75 75 75 75 76 78 81 82 82 81 82 83 83 84 83 82 82 79 75 72 67 50 44 48 62 67 63 60 65 68 72 83 84 79 70 73 72 60 55 55 54 54 54
59 60 61 61 60 61 61 62 61 61 61 62 62 63 64 66 68 69 70 72 74 74 73 74 74 73 72 74 73 72 70 71 74 75 78 81 80 76 74 74 71 66 51 45 46 50 51 54 58 58 60 66 72 74 74 63 59 56 52 53 53 53 53

ECMWFFLT1_sfc_temp_084.txt.gz
Temp
81 82 82 83 83 84 84 84 84 84 84 84 83 83 84 84 83 82 81 80 79 78 79 79 79 79 79 79 79 79 79 79 77 77 78 79 79 78 77 76 77 77 78 78 78 78 79 79 80 80 80 80 79 79 79 79 79 79 79 79 79 78 78
80 82 83 84 84 84 84 84 84 85 85 85 84 83 84 84 83 82 81 80 80 79 79 80 79 79 80 80 80 79 79 79 78 78 78 78 79 78 79 77 77 77 77 78 79 78 78 78 80 79 79 80 80 79 80 79 79 78 78 78 79 77 78
80 82 83 84 84 85 84 84 84 85 85 86 85 84 84 83 83 82 81 81 80 80 80 80 80 80 80 80 79 79 79 79 79 78 78 79 79 81 80 78 77 77 78 78 78 78 79 79 78 80 80 80 80 79 79 79 79 79 78 78 78 78 77
80 82 83 85 85 85 85 85 85 86 86 86 86 85 85 84 84 83 83 82 81 80 79 80 80 81 80 80 79 79 79 79 80 80 80 80 80 81 80 78 77 77 77 78 79 80 81 79 79 79 81 79 80 80 79 79 80 79 79 78 78 78 77
81 82 83 84 85 84 85 85 85 85 86 87 87 86 86 85 85 84 84 83 83 82 82 82 82 82 81 81 81 80 80 80 80 80 81 81 80 80 80 80 80 79 79 79 79 79 79 79 79 79 79 79 80 79 79 79 79 79 78 78 78 78 77
80 82 83 84 85 85 85 86 86 86 86 87 87 87 87 86 86 85 84 83 83 83 83 82 82 82 81 81 81 81 81 80 80 80 80 80 80 80 80 80 81 80 80 80 80 80 80 79 79 79 80 80 80 80 80 79 80 80 79 78 78 78 77
81 83 84 84 86 86 85 86 87 87 88 88 88 88 87 87 86 86 85 84 84 82 82 82 83 82 81 82 81 81 80 80 80 80 81 81 80 80 80 81 81 81 82 81 80 81 80 80 79 79 80 80 80 80 80 79 79 79 79 78 77 77 77
83 83 84 85 86 87 87 86 86 87 88 88 88 87 87 87 87 86 85 85 84 84 83 83 83 82 82 82 82 81 81 81 81 81 81 81 81 80 80 80 81 81 81 81 81 81 82 81 82 80 80 80 80 80 80 79 79 80 80 78 77 77 79
84 84 85 86 86 87 88 86 86 86 86 86 86 87 87 87 87 86 85 85 84 84 83 84 84 84 82 82 81 81 82 82 81 81 81 81 81 81 82 81 81 82 81 82 82 82 82 82 82 81 80 80 80 79 80 79 79 80 79 79 78 78 78
83 83 85 87 87 88 88 87 86 85 84 84 85 85 86 87 87 87 86 86 85 84 84 84 85 84 83 82 82 82 82 81 81 82 81 81 82 82 82 83 83 82 82 82 83 82 82 82 82 82 80 80 80 79 79 79 79 79 79 79 79 78 78
84 84 84 86 86 86 86 86 85 83 84 83 83 86 86 86 87 87 86 86 85 85 85 85 85 84 83 83 82 82 81 81 82 81 81 82 82 82 83 84 84 83 83 83 83 83 82 82 82 81 80 80 80 79 79 80 80 79 79 80 80 79 79
83 83 83 84 85 85 84 84 84 83 83 83 84 85 85 85 87 88 87 87 87 86 85 85 85 85 84 83 82 81 81 81 82 82 82 82 82 83 84 84 84 84 83 83 83 83 83 82 82 82 81 81 81 80 80 80 80 79 79 80 80 79 79
82 81 81 84 84 84 83 82 82 83 82 84 85 85 85 86 86 87 87 87 87 87 86 85 85 84 84 83 83 81 81 81 82 82 82 82 83 84 84 84 84 85 84 84 84 84 83 83 82 82 82 81 82 81 80 80 80 79 79 80 79 79 78
77 76 76 76 77 77 78 81 82 82 82 83 85 85 86 86 87 87 87 87 87 87 86 86 85 84 83 83 82 81 81 81 82 82 82 83 82 83 84 84 84 84 84 84 84 84 84 84 83 83 82 82 82 82 82 80 80 79 79 79 79 79 78
75 75 74 75 75 74 72 73 73 74 78 81 84 84 85 86 86 86 87 87 87 88 87 86 85 84 83 83 81 81 81 81 82 82 82 82 82 82 82 83 83 84 84 84 84 85 85 85 85 83 82 82 82 82 82 81 80 80 80 79 79 79 79
71 72 73 73 73 74 75 74 73 72 74 75 78 79 82 83 83 85 86 86 87 87 87 86 84 83 83 82 81 82 82 81 81 81 81 81 81 81 82 83 83 83 83 83 84 84 84 84 84 84 83 82 81 82 82 81 81 79 74 76 80 79 80
68 68 70 71 71 72 72 73 74 74 73 72 73 77 80 81 83 84 86 86 87 86 86 86 84 83 83 82 82 82 82 81 81 81 80 81 81 81 81 81 82 82 82 82 83 83 83 83 83 84 84 83 82 81 82 82 82 74 69 70 73 79 79
65 66 67 68 70 71 70 72 72 71 72 72 73 72 73 76 80 84 85 85 86 88 88 86 85 84 83 83 83 82 81 81 81 80 80 80 80 80 81 81 81 81 81 82 82 82 83 83 83 83 84 84 83 82 82 82 77 70 68 69 69 74 81
63 65 66 67 68 69 69 69 71 71 71 72 71 73 73 72 75 78 78 80 81 82 84 85 85 84 83 83 83 82 82 81 81 80 80 80 80 81 81 80 81 81 81 82 83 83 82 82 83 82 83 83 82 82 83 83 75 69 67 67 68 68 76
64 64 65 66 67 68 68 68 68 70 70 71 73 74 74 75 75 75 75 75 76 78 80 81 82 84 83 83 83 82 82 81 81 80 80 80 80 80 80 80 80 81 82 83 82 82 82 83 82 82 82 83 82 82 83 82 76 68 65 66 66 67 71
63 63 64 63 65 67 66 67 67 68 69 70 73 74 74 74 75 75 75 76 78 81 83 82 81 82 83 83 83 83 82 81 81 80 80 80 80 80 80 80 80 81 82 83 83 82 81 82 82 82 82 83 83 83 83 84 73 66 64 63 64 65 69
63 64 64 65 66 66 66 67 67 68 69 71 73 74 75 75 75 74 72 75 77 78 79 79 80 81 82 83 83 83 83 82 81 81 81 80 80 80 80 80 80 80 82 83 84 84 83 83 84 83 82 83 83 83 82 85 70 65 63 63 63 65 72
64 64 65 66 67 66 67 68 69 70 71 72 73 73 74 75 75 74 74 73 76 78 78 78 79 80 82 83 84 83 83 83 82 81 81 81 80 80 80 80 80 81 82 82 83 83 83 83 83 83 83 83 83 82 83 84 73 64 62 61 61 64 74
64 64 66 66 66 67 67 68 69 71 71 71 72 72 73 74 75 74 73 74 75 78 79 79 80 82 82 83 84 84 84 84 83 82 81 81 80 81 81 82 82 82 83 82 83 83 84 84 84 84 84 83 83 83 83 84 75 62 61 60 60 67 75
63 64 65 65 65 65 66 67 68 69 70 70 71 72 74 74 75 76 75 75 75 79 80 81 82 83 84 84 85 85 85 85 84 83 82 81 81 82 82 82 82 83 83 83 84 84 84 84 84 84 84 85 84 81 83 84 77 60 61 60 59 66 77
61 62 63 65 66 66 66 67 67 67 68 69 70 73 73 75 75 75 76 77 78 79 79 80 82 84 86 87 87 87 86 85 84 83 83 82 82 82 82 83 83 83 83 83 84 84 84 84 83 84 84 85 84 85 84 84 84 70 59 59 58 61 76
62 62 62 64 64 66 65 66 66 66 68 69 71 72 73 74 74 73 74 75 76 76 79 81 83 83 83 84 86 87 86 86 85 84 84 84 83 84 83 84 83 83 83 83 84 84 83 84 84 84 84 84 85 85 84 85 84 76 58 58 58 58 67
62 62 63 64 65 65 65 65 66 67 69 70 71 73 73 72 72 72 74 74 75 77 81 81 82 82 83 83 84 86 86 86 86 85 85 85 84 83 82 83 84 84 84 84 83 82 82 82 82 83 83 84 84 84 84 83 79 83 61 59 57 57 59
58 59 60 61 62 64 65 64 65 67 67 69 71 72 72 73 72 73 74 74 75 78 79 79 80 81 82 82 83 84 85 86 85 85 86 85 84 83 82 82 83 83 82 82 81 81 81 81 81 81 82 82 83 83 83 83 80 73 72 59 56 56 56
59 59 60 62 63 63 64 63 65 66 67 68 69 70 71 71 70 71 71 72 75 75 75 76 77 78 80 82 82 83 85 85 86 86 86 85 84 83 82 81 82 82 82 81 81 81 80 81 80 80 81 81 81 81 82 82 83 72 68 67 56 56 55
58 58 59 60 61 63 63 63 63 64 65 66 67 68 68 68 67 68 69 71 73 72 73 74 75 76 78 81 82 83 85 85 85 85 85 85 84 82 82 81 82 81 81 81 81 81 80 80 80 80 80 80 80 81 81 82 82 83 71 64 59 56 55
59 60 60 60 61 62 62 63 63 63 63 64 66 66 66 66 67 66 68 71 71 72 72 73 73 74 77 80 82 83 84 84 85 85 85 85 85 84 83 83 82 81 81 81 81 81 80 80 80 80 80 80 81 81 81 82 82 83 80 68 63 58 55
57 58 58 59 60 62 60 61 61 61 62 62 63 64 65 65 66 67 68 69 71 71 71 72 73 73 76 78 81 83 83 84 84 84 84 84 85 85 84 84 83 82 80 81 82 81 81 80 80 80 80 80 80 81 81 81 81 82 82 75 72 69 63
56 57 59 60 60 61 60 60 60 60 61 61 62 63 63 64 64 66 67 69 70 70 71 71 72 72 74 78 81 82 83 83 82 82 83 84 84 84 84 84 84 82 81 81 82 81 80 80 80 80 80 80 81 81 81 81 81 82 82 78 75 73 70
55 56 58 59 60 61 59 60 59 59 60 60 61 62 62 63 64 65 66 68 69 69 69 71 72 73 74 77 80 81 81 83 83 83 83 83 83 84 84 83 83 82 84 86 85 84 83 82 82 82 83 82 81 81 80 80 80 82 72 82 69 75 74
55 56 58 60 60 59 59 61 60 59 59 60 61 62 62 62 63 64 66 66 67 68 68 70 71 72 73 75 78 80 80 81 82 83 83 83 82 81 77 69 63 74 85 83 75 71 70 69 82 84 84 84 84 84 83 82 84 73 64 63 59 59 61
56 56 57 59 58 58 59 60 60 59 59 60 61 61 62 62 62 63 64 65 66 67 68 70 70 71 73 72 73 74 78 80 81 82 82 82 80 81 78 74 65 47 47 62 69 65 59 58 62 66 70 80 83 78 69 69 69 64 59 57 55 55 55
57 56 57 58 58 58 59 59 59 58 58 59 60 60 61 61 62 62 63 64 65 66 67 69 68 69 70 69 70 69 70 74 78 79 80 79 81 81 78 75 71 66 52 46 53 60 58 56 53 54 57 63 70 77 80 66 60 55 53 55 54 53 53

ECMWFFLT1_sfc_temp_087.txt.gz
Temp
79 80 80 82 82 82 82 82 82 82 82 81 81 81 81 81 80 79 78 78 77 77 77 77 77 77 77 78 78 77 77 77 76 76 75 74 74 74 74 74 74 74 74 74 74 74 75 75 76 77 76 77 77 77 77 77 76 77 76 76 76 76 76
79 80 80 81 82 82 82 83 82 83 82 82 82 81 82 81 80 79 78 78 78 78 77 77 77 77 78 78 78 78 77 77 76 77 76 75 75 74 75 74 74 74 74 75 75 75 74 75 76 76 76 77 77 77 77 77 76 76 76 75 75 75 76
78 80 81 81 82 82 82 83 83 83 83 83 82 82 81 81 81 79 79 78 78 78 78 78 78 78 78 78 77 77 78 77 76 76 76 76 75 76 75 75 75 75 76 76 75 75 75 75 75 76 76 76 77 77 77 77 77 76 75 75 76 76 75
78 79 81 82 82 83 83 83 83 84 84 84 83 83 82 81 82 81 80 80 78 78 77 78 78 78 78 78 77 77 77 77 77 77 77 77 77 77 75 74 75 76 75 75 77 77 78 76 75 75 78 76 76 77 77 77 77 76 76 75 75 76 75
79 80 81 81 81 82 83 83 83 84 84 85 84 83 83 83 83 82 81 81 81 79 79 79 80 79 79 79 79 78 78 78 78 78 78 78 77 76 76 76 75 75 76 77 76 76 75 75 75 75 76 76 76 76 77 77 77 77 76 75 75 75 75
78 79 80 81 82 83 84 84 85 85 85 85 84 83 84 84 84 83 82 81 81 81 80 80 79 79 79 79 79 79 79 78 78 78 78 77 77 76 77 77 76 76 76 76 77 76 76 76 76 76 76 77 77 77 77 77 77 77 77 75 76 76 76
79 79 80 81 82 83 84 85 86 86 86 86 86 85 84 84 83 83 83 82 81 80 80 80 80 80 79 79 79 79 78 78 78 78 78 78 77 77 77 77 78 77 78 76 76 76 76 76 76 76 77 77 77 77 77 76 77 77 77 76 75 75 75
79 79 80 82 83 84 84 85 86 86 86 86 86 85 84 84 84 83 83 83 82 82 81 80 80 80 80 80 80 79 79 79 79 79 79 78 78 77 77 77 77 77 76 76 76 76 77 77 77 77 76 77 77 77 77 77 77 77 76 76 75 75 76
81 81 81 82 83 84 85 85 85 85 85 85 85 85 84 84 84 84 83 83 83 82 81 82 82 82 81 80 79 79 80 80 80 79 79 79 79 78 78 78 78 78 77 77 77 76 77 77 77 76 76 76 77 76 77 76 77 77 77 76 76 76 76
79 79 80 82 83 85 86 86 85 84 83 83 84 83 84 84 84 84 84 84 83 82 82 82 82 82 81 80 80 80 80 79 80 80 79 79 79 79 80 80 79 78 78 78 78 77 77 77 77 76 75 76 76 76 76 76 76 77 77 77 77 77 76
78 79 79 80 82 83 84 85 83 83 83 82 83 84 84 84 84 84 84 84 84 83 84 83 83 83 82 81 80 80 80 80 80 79 79 79 80 80 80 81 81 80 79 79 79 79 78 77 77 76 75 76 76 76 76 76 77 77 77 77 78 77 77
69 70 72 76 79 81 82 83 83 82 82 82 83 85 84 84 84 85 84 84 85 84 83 83 84 83 82 81 80 79 79 79 80 80 80 80 80 80 81 81 81 80 80 80 79 79 79 78 78 78 76 76 76 76 76 76 77 77 77 78 78 77 77
67 68 69 69 69 72 77 79 80 81 82 83 84 85 85 85 85 85 84 84 85 85 84 84 83 83 82 82 81 79 79 80 80 80 80 80 80 81 81 81 82 81 81 81 81 80 80 80 78 78 78 77 77 77 77 76 77 77 77 77 77 77 76
67 66 67 68 69 69 68 69 74 79 78 80 83 83 84 85 85 85 84 84 84 85 84 85 83 82 82 81 80 79 79 80 80 81 80 81 80 80 81 81 81 81 81 81 80 81 81 81 80 79 79 79 78 78 78 77 76 76 77 77 77 77 76
63 64 65 66 66 67 67 69 67 71 76 78 79 80 82 83 83 84 84 85 84 85 85 84 83 82 82 81 80 79 80 80 80 81 80 80 80 80 80 80 80 81 81 80 81 82 82 82 81 80 79 79 78 78 78 78 77 77 77 77 76 77 77
62 63 63 64 65 66 66 67 68 69 69 70 74 76 80 80 80 83 83 84 84 84 85 84 83 81 81 81 80 80 80 80 80 80 80 79 79 79 79 80 80 80 80 80 81 81 81 81 81 81 80 79 78 78 78 78 78 77 73 74 78 77 78
62 62 63 63 64 65 65 66 67 67 68 69 70 69 71 75 78 82 84 84 84 84 85 84 82 81 81 80 81 80 80 80 79 79 79 79 79 79 79 79 79 79 79 79 80 80 80 80 80 81 81 80 79 78 79 79 80 73 68 69 71 77 77
61 61 62 63 63 64 64 65 65 66 67 68 69 70 71 70 71 78 82 81 83 85 85 84 83 82 81 81 81 80 80 80 79 79 79 79 78 79 78 79 79 78 79 79 79 79 80 80 80 80 81 81 80 80 79 79 75 69 67 68 68 72 78
59 60 62 62 63 63 64 64 65 66 67 68 69 70 70 71 71 70 72 78 80 81 83 83 83 82 81 81 81 80 80 80 79 79 79 79 79 79 79 78 78 78 78 79 80 80 79 79 80 80 80 81 79 80 80 80 73 68 66 66 66 67 74
59 60 60 62 63 64 64 64 65 67 67 67 70 72 72 73 72 72 72 72 73 76 76 79 81 81 81 81 81 80 80 80 79 79 79 79 79 79 78 78 78 78 79 80 79 79 79 80 79 80 79 80 80 79 80 80 74 67 65 65 65 66 69
59 59 59 60 61 63 63 63 64 65 66 68 69 70 72 71 73 73 73 72 72 73 74 74 75 76 78 80 81 81 80 80 79 79 79 79 79 78 78 78 78 78 79 80 80 79 78 79 79 79 79 80 81 80 80 82 72 66 64 63 63 64 67
60 60 59 60 61 61 62 63 63 64 65 68 69 70 70 70 72 73 72 73 72 71 72 72 73 73 74 75 76 78 80 80 79 79 79 79 79 78 78 78 78 78 79 79 80 80 80 80 80 80 80 80 81 80 80 82 70 65 63 62 62 63 70
60 61 62 62 63 63 64 64 65 65 67 67 68 70 69 70 71 72 72 72 73 71 72 72 73 73 74 74 74 75 76 77 80 79 79 79 79 78 78 78 78 78 79 79 80 80 80 80 80 80 80 80 80 80 80 81 72 64 62 61 61 63 71
62 62 63 63 63 65 65 65 65 67 67 67 68 69 69 70 71 71 71 72 72 72 72 72 72 73 73 74 75 74 75 75 76 79 80 79 79 79 79 80 80 80 80 79 79 80 81 81 81 81 81 81 80 81 80 81 75 63 61 60 59 65 72
62 62 62 63 63 63 64 65 66 67 67 67 67 68 70 70 70 71 71 72 73 74 74 73 73 74 74 75 76 76 75 75 75 76 79 80 80 80 79 79 80 80 81 81 81 81 81 81 81 81 81 82 82 80 80 82 77 63 60 59 58 64 74
60 61 62 63 64 64 64 65 65 65 66 66 66 68 69 70 70 71 71 71 73 74 76 76 76 76 77 76 76 78 79 79 77 79 80 80 80 80 80 81 81 80 80 80 81 81 81 81 81 81 81 82 82 82 81 81 82 74 59 59 57 60 74
61 62 61 62 63 64 63 64 65 65 66 65 66 68 69 70 70 70 71 72 72 72 73 73 74 75 76 77 79 80 80 82 82 82 83 82 82 82 81 81 81 81 80 80 81 81 80 81 81 81 81 82 82 82 82 83 82 78 60 57 57 57 65
60 61 62 63 64 64 64 64 63 64 65 66 67 67 67 67 66 67 68 69 70 71 73 73 72 73 74 75 76 78 81 83 83 84 84 83 82 81 80 81 82 81 81 81 80 79 79 79 79 80 81 81 82 82 82 81 76 83 64 58 56 56 58
57 58 59 60 61 63 64 63 62 63 64 66 66 66 66 65 64 65 66 66 68 70 71 71 71 72 72 73 75 76 78 80 82 83 84 83 83 81 80 81 81 81 80 79 79 78 78 78 79 79 79 80 81 81 81 81 80 71 74 59 56 55 55
58 58 59 61 61 62 63 62 63 63 64 64 64 64 64 64 63 64 64 64 67 68 69 70 71 71 72 73 74 76 78 80 82 84 84 83 82 81 80 80 80 80 79 79 79 78 78 78 78 78 79 79 79 80 80 81 82 72 68 68 55 55 55
58 58 58 58 60 62 62 62 61 62 62 63 63 63 63 63 62 63 62 64 66 67 69 69 70 70 71 73 74 75 77 79 81 82 83 83 83 81 80 80 80 79 79 79 79 79 78 78 78 78 78 78 78 79 80 80 80 82 71 65 60 56 55
58 58 58 59 60 61 61 61 62 62 61 62 63 62 63 63 63 61 62 64 65 67 68 68 69 69 71 72 73 74 76 78 80 82 83 83 83 83 82 81 80 79 79 79 79 79 78 78 78 78 78 78 79 79 80 79 80 81 80 69 65 60 56
56 57 57 57 59 61 60 60 60 60 61 60 62 62 62 62 62 62 63 64 65 66 67 67 68 69 70 71 72 73 75 77 79 81 82 82 83 83 83 82 81 80 79 79 79 79 79 78 77 77 78 78 78 79 79 79 79 80 81 76 72 69 65
56 57 58 58 59 60 59 59 59 59 59 59 61 61 61 61 61 62 62 63 64 65 65 66 67 68 70 71 72 73 75 76 77 79 80 81 82 82 82 82 82 81 79 79 80 79 78 79 78 78 78 78 79 79 79 79 80 80 80 79 74 73 69
57 57 57 57 58 60 57 59 59 59 59 59 60 60 60 60 61 62 61 63 64 64 64 65 67 69 70 71 72 73 74 74 76 78 79 80 80 82 83 82 82 81 82 83 83 83 82 81 80 80 81 81 80 79 78 79 79 81 71 80 67 73 72
57 57 56 57 58 58 58 60 59 59 59 59 59 59 59 60 60 61 62 62 63 64 63 64 66 68 69 69 70 71 71 72 74 76 78 80 80 80 79 76 70 76 83 82 75 70 69 68 81 83 83 82 82 82 81 81 82 71 63 62 59 58 61
56 56 56 57 57 56 57 58 60 59 58 58 59 59 59 59 60 60 61 61 62 62 62 63 65 67 67 67 68 69 69 70 72 74 76 78 79 79 78 77 72 57 56 61 67 64 59 57 60 64 69 79 81 78 70 70 68 62 57 56 54 54 55
57 56 56 57 56 56 56 57 58 57 57 57 58 58 58 58 59 59 60 61 61 61 61 63 64 64 64 65 66 67 68 69 70 71 73 75 77 78 78 77 76 73 60 55 55 58 55 54 55 55 57 62 69 76 79 65 58 57 53 54 53 53 53

ECMWFFLT1_sfc_temp_090.txt.gz
Temp
78 78 79 80 80 81 80 80 80 80 80 79 79 79 80 79 78 78 77 76 76 75 75 76 76 76 76 76 76 76 76 75 75 74 74 73 74 73 73 74 74 74 75 75 75 75 75 76 77 77 77 78 78 78 78 78 78 78 78 78 78 78 77
77 78 79 80 81 81 81 81 81 81 80 80 80 79 80 79 78 78 77 77 76 76 76 76 76 76 76 76 77 76 76 76 76 76 75 73 74 73 74 74 74 74 74 75 75 75 76 76 77 77 77 78 78 78 78 78 78 78 78 77 77 77 77
77 79 79 80 80 81 80 81 81 82 81 81 81 80 80 79 79 78 77 77 76 76 77 76 76 77 77 77 76 76 76 76 76 76 75 75 74 76 75 74 74 75 76 75 75 75 76 76 76 77 77 77 78 78 78 78 78 78 78 77 78 78 77
77 78 79 80 81 81 82 82 82 82 83 83 82 82 80 79 80 79 79 78 77 77 76 77 77 77 77 77 76 76 76 76 77 77 77 76 75 75 74 74 74 75 75 75 76 77 77 76 76 76 78 77 77 78 78 78 79 78 78 77 77 78 77
71 77 79 79 80 81 82 82 82 82 83 84 83 82 82 81 81 81 80 80 80 78 79 78 79 79 78 78 78 78 77 77 77 77 78 77 76 75 75 75 75 75 76 76 76 76 76 75 76 75 76 77 77 77 77 78 78 78 77 77 77 77 78
68 72 78 79 80 81 82 83 84 84 84 83 83 83 83 83 82 82 81 80 80 80 79 79 78 78 78 79 79 79 78 77 77 77 77 77 76 75 75 76 76 76 76 76 77 76 76 76 76 76 76 77 78 78 78 78 78 79 78 77 77 78 78
66 70 76 79 80 82 82 83 84 84 85 85 85 84 84 83 82 82 82 81 81 79 79 79 79 79 78 78 78 78 77 78 77 77 78 78 77 76 75 75 76 76 77 76 76 76 76 76 76 76 76 77 77 78 77 77 77 78 78 77 77 77 77
66 67 75 80 81 82 83 84 84 85 84 85 84 84 83 83 83 82 82 82 81 81 80 80 79 79 78 78 78 78 78 78 79 78 78 78 77 77 77 76 76 76 76 76 76 76 77 76 77 77 76 77 77 77 78 77 77 78 78 77 77 77 78
66 67 66 76 81 82 83 83 84 85 84 82 83 83 83 83 83 83 82 82 82 81 81 82 81 80 79 79 78 78 79 79 79 78 78 78 78 78 78 78 77 76 76 77 77 76 77 77 77 76 76 76 77 77 77 77 78 78 78 78 77 77 78
66 65 67 67 72 81 81 82 83 83 82 82 82 81 82 82 83 83 83 83 83 82 82 82 82 81 80 79 79 79 79 78 78 79 79 79 79 79 79 80 79 77 77 77 78 77 77 77 77 77 75 76 76 76 77 77 77 78 78 78 78 78 77
65 66 65 66 67 67 73 79 80 80 82 81 81 83 82 82 82 83 83 83 83 82 83 82 82 82 81 80 80 80 78 79 79 79 79 79 80 80 80 80 80 79 78 78 77 78 77 76 77 76 76 76 76 76 76 77 78 77 78 78 79 79 79
66 65 64 65 65 66 67 67 69 74 78 79 82 83 81 81 83 83 83 83 84 83 82 82 83 82 81 81 80 78 78 78 79 79 79 79 80 80 81 81 80 80 79 79 78 78 78 77 77 77 76 77 77 77 77 77 77 77 78 79 79 79 79
66 65 65 64 65 65 66 66 67 68 70 78 83 83 83 83 82 83 81 82 84 84 83 82 82 81 81 81 81 78 78 79 79 79 80 80 80 81 81 81 81 81 80 80 80 79 79 78 77 77 77 77 77 78 77 77 78 77 78 78 78 78 78
65 65 65 65 65 65 64 65 66 67 68 69 74 80 82 83 83 82 81 82 83 84 84 83 82 81 80 80 79 78 78 79 80 80 80 80 79 79 81 81 81 80 80 80 80 80 80 80 78 78 78 78 78 78 78 77 77 77 77 78 78 78 78
62 63 63 64 64 64 64 65 65 66 67 69 70 70 74 80 82 81 81 82 82 84 83 83 81 80 81 80 78 78 78 79 79 80 80 80 79 79 79 80 80 80 80 79 80 82 81 82 81 79 78 78 78 78 78 78 78 78 78 77 78 78 78
61 61 62 63 63 64 65 65 65 66 67 67 68 69 71 71 73 80 82 82 83 82 83 82 81 80 80 79 78 78 79 78 79 79 79 78 78 78 78 79 79 80 80 79 80 79 79 79 80 81 79 78 78 78 78 78 78 76 72 74 78 78 79
60 60 61 63 63 64 64 64 65 65 66 67 68 69 69 70 71 72 79 83 83 82 83 83 80 80 79 79 79 79 79 78 78 78 78 78 78 78 78 78 78 78 78 78 79 78 78 79 79 80 81 80 79 78 79 79 80 72 68 68 70 78 78
58 59 60 60 62 63 63 64 64 64 65 66 68 69 69 69 70 72 72 73 80 84 85 83 82 81 79 80 79 79 78 78 78 78 78 78 77 78 78 78 78 77 77 78 78 78 79 79 79 79 80 81 80 80 80 80 75 68 67 67 67 72 79
57 59 59 60 61 62 62 63 64 64 65 66 67 68 70 70 70 70 71 72 72 77 83 82 82 80 79 80 79 79 78 78 78 78 78 77 78 78 78 77 77 77 78 78 79 79 78 77 79 79 79 80 79 80 81 81 72 67 66 66 66 66 74
59 59 59 60 60 61 62 63 63 64 65 66 68 70 71 71 71 71 72 73 73 73 78 80 80 80 80 79 79 79 79 78 78 78 78 78 78 78 77 77 77 78 79 79 79 78 78 79 78 79 78 79 79 79 81 81 74 66 65 65 64 65 69
58 58 58 59 59 61 61 63 63 63 64 66 68 69 70 70 71 72 73 73 73 73 73 78 80 79 80 79 79 79 79 79 78 78 78 78 78 77 77 77 77 78 79 80 79 78 78 78 78 78 79 80 80 80 81 82 71 65 63 62 62 64 67
58 59 58 59 59 60 61 62 62 62 63 66 67 67 68 69 71 72 71 73 73 73 73 73 75 78 78 78 79 79 80 79 78 78 78 78 78 77 77 77 77 77 78 79 81 80 80 80 80 80 80 80 81 81 80 83 69 64 63 62 61 63 70
59 60 61 61 62 61 63 64 63 64 65 66 66 66 66 68 70 71 71 72 73 73 73 73 73 73 75 77 78 79 79 79 79 78 78 77 77 76 76 76 77 77 78 78 79 80 80 80 80 80 80 80 80 79 80 82 73 63 61 60 60 63 72
61 61 62 62 62 63 63 63 65 65 66 65 66 66 66 67 68 69 70 71 72 72 74 73 73 74 75 75 75 76 78 79 79 78 78 77 77 76 76 76 75 75 75 74 75 78 80 80 81 81 81 81 80 81 80 81 75 63 60 59 59 65 73
60 61 61 62 61 61 62 62 64 65 66 65 64 65 66 66 66 67 69 69 70 70 70 69 71 72 74 75 76 77 76 77 77 78 78 77 78 77 75 75 75 75 74 74 74 75 78 80 80 81 81 83 82 79 79 82 77 63 60 59 57 64 75
59 60 60 61 63 63 63 64 63 64 64 64 64 66 66 66 65 66 67 67 69 69 68 69 69 71 73 74 75 77 77 77 77 77 78 77 77 77 77 78 77 76 76 76 75 76 75 78 80 80 81 82 82 83 81 81 82 75 59 58 56 59 74
59 61 61 61 61 63 62 63 63 62 63 64 64 65 66 65 64 64 65 67 67 67 67 68 70 71 71 73 74 75 77 78 77 77 78 78 78 78 79 79 79 79 77 77 78 78 78 79 80 81 81 82 82 82 83 83 82 79 61 57 56 57 65
59 60 62 63 63 62 62 62 62 63 63 64 66 65 65 64 62 63 64 65 65 66 67 68 69 70 71 71 72 74 75 77 78 78 78 78 78 78 78 79 80 80 80 80 79 78 78 79 79 80 81 81 82 82 82 81 75 83 66 58 56 55 58
56 57 58 59 60 62 63 61 61 62 63 64 66 65 64 63 62 62 63 63 64 65 66 68 69 69 70 71 72 73 75 76 77 78 80 79 78 78 78 79 80 80 80 79 78 78 78 77 78 78 79 79 80 81 80 80 79 69 76 61 55 54 55
57 57 59 61 61 61 62 61 61 61 63 64 64 64 64 62 61 61 62 62 64 65 66 67 68 69 69 70 72 73 74 75 77 78 79 80 79 78 78 79 79 79 79 79 78 78 77 77 78 78 79 78 79 79 79 80 81 72 67 69 56 55 54
56 55 57 58 59 61 61 61 60 61 62 63 64 64 63 63 61 61 60 62 64 64 65 66 67 67 68 69 71 72 74 74 75 76 77 79 80 79 79 79 80 78 79 79 79 78 77 77 78 77 77 77 78 79 80 81 81 83 71 64 61 56 54
56 57 57 57 59 60 61 61 61 61 61 62 63 63 63 62 62 60 61 63 63 64 65 65 65 66 67 69 71 72 73 73 75 76 77 79 80 81 81 81 80 79 79 79 79 78 78 77 78 78 77 77 78 78 80 80 80 81 81 69 66 60 56
55 56 56 56 58 60 60 60 59 59 60 61 62 62 63 62 62 62 63 62 63 64 64 64 65 66 67 68 70 71 72 72 74 75 77 78 80 82 82 81 81 80 79 79 79 79 78 78 78 77 78 77 78 79 79 80 80 80 82 79 75 73 67
55 55 56 57 58 59 59 59 58 59 60 60 61 61 61 61 61 62 62 62 63 63 63 63 64 65 66 68 70 70 71 72 73 73 75 76 78 81 82 82 82 81 80 79 79 79 79 79 78 78 78 78 79 79 79 79 80 80 81 81 78 76 74
54 55 56 56 57 59 58 58 58 59 59 60 61 60 60 60 61 62 62 61 61 62 61 62 63 65 66 68 69 69 69 70 71 72 73 74 76 79 81 81 82 81 82 83 83 82 82 81 80 80 81 81 80 79 78 79 79 81 71 80 69 75 77
53 54 55 57 57 58 58 59 59 58 59 60 60 59 59 60 60 61 62 61 60 60 60 61 62 64 65 66 66 67 68 68 69 70 71 72 73 76 79 75 67 75 82 81 73 69 67 67 80 83 83 83 82 82 81 81 82 70 62 60 58 58 62
52 53 54 56 56 56 57 58 59 59 59 59 59 58 59 59 60 60 60 60 60 60 59 60 61 64 64 64 64 65 66 67 68 69 70 71 72 74 76 78 76 58 58 66 72 65 58 55 58 61 67 78 81 78 68 68 67 63 57 55 54 54 55
53 53 54 56 56 56 57 58 58 58 59 58 57 57 58 58 59 59 60 60 60 60 59 59 60 61 61 62 63 64 65 66 66 66 66 67 70 71 73 76 77 78 63 56 57 58 55 52 52 53 54 57 66 75 79 65 58 57 54 53 53 53 52

ECMWFFLT1_sfc_temp_093.txt.gz
Temp
86 86 86 87 86 86 86 86 86 86 85 85 85 86 86 86 84 84 83 82 81 81 81 81 81 81 81 82 82 83 83 83 83 83 83 83 84 84 84 85 85 84 85 85 85 85 85 85 85 85 85 85 85 85 85 85 84 85 85 85 85 85 85
78 84 87 87 87 87 86 86 86 86 86 86 85 85 86 86 84 84 83 82 82 81 81 81 81 81 82 82 83 82 82 83 83 83 83 82 83 83 85 84 84 83 84 85 85 85 85 85 85 85 85 85 85 85 85 85 85 85 86 85 85 85 85
76 77 79 84 88 88 86 88 87 87 87 87 87 86 86 84 84 84 83 83 82 82 83 82 81 82 82 82 82 82 83 83 83 83 83 84 84 86 85 84 85 85 86 85 85 86 86 85 84 85 85 85 87 85 85 85 85 86 86 85 85 86 85
73 74 77 79 82 87 88 88 88 88 89 89 88 88 86 84 86 85 85 84 83 82 81 82 83 83 83 82 82 82 82 83 83 84 85 86 85 85 84 84 84 86 85 85 87 86 88 85 85 84 84 85 85 86 86 86 87 86 86 85 85 86 85
73 74 75 76 80 84 88 88 88 87 89 90 89 87 88 87 87 87 86 86 87 84 85 85 86 85 84 84 84 84 83 83 83 85 85 86 85 84 84 85 85 85 86 87 85 84 84 84 85 85 84 84 85 85 85 86 86 86 85 85 85 86 86
72 72 72 75 77 82 85 88 90 90 90 90 89 89 89 89 89 89 88 86 87 87 86 85 85 84 83 84 85 85 84 83 83 83 84 85 84 84 85 85 86 86 87 86 87 86 85 85 86 86 86 87 87 87 87 86 87 87 86 85 85 86 87
71 72 73 74 76 81 86 87 89 91 91 91 91 90 90 90 89 89 89 88 88 86 86 86 86 86 84 84 84 84 83 84 84 84 85 85 85 84 84 85 85 86 87 86 86 86 86 85 85 85 86 87 86 88 86 85 86 86 86 84 84 85 85
71 71 73 74 76 78 85 89 88 90 90 90 91 90 90 91 90 90 89 89 89 89 88 87 87 85 84 84 85 84 84 85 86 85 85 86 85 84 85 85 85 85 86 86 86 86 87 86 87 86 86 87 86 85 87 85 84 87 86 85 84 85 87
73 72 72 74 74 76 77 80 87 91 89 89 89 89 90 90 90 90 90 89 89 88 88 90 89 88 85 84 84 84 85 86 86 85 85 86 86 87 87 87 86 86 85 87 88 86 86 87 87 85 85 85 85 84 85 84 85 86 86 85 85 85 86
71 71 72 73 74 75 75 77 77 77 82 87 87 87 89 89 89 90 90 90 90 89 89 89 89 88 85 85 85 86 85 84 85 87 86 86 87 87 88 89 88 86 86 87 89 87 86 87 87 85 83 84 84 84 84 85 85 86 87 85 86 85 85
71 71 71 72 72 72 73 74 73 74 75 76 83 89 88 88 88 90 89 90 90 90 91 89 89 88 87 87 86 87 85 85 86 86 86 87 88 88 89 89 89 88 87 88 88 88 87 86 86 85 84 85 84 84 84 85 86 85 87 87 87 87 87
69 69 69 70 70 71 70 71 74 74 74 75 77 82 87 86 88 90 89 89 91 91 90 90 90 89 87 88 87 85 84 85 86 86 86 87 88 89 89 89 89 89 88 88 87 87 88 87 87 86 84 85 86 85 85 85 85 85 86 88 88 87 87
69 68 68 68 69 70 69 69 71 72 74 77 78 78 81 88 89 89 88 88 90 90 90 88 88 87 87 88 88 85 83 85 86 86 87 86 87 89 89 89 90 89 89 88 88 88 88 89 87 86 86 85 86 87 85 85 86 85 85 86 87 87 86
68 69 68 68 68 67 67 68 69 70 72 74 76 77 78 80 83 87 88 87 89 90 91 90 88 86 86 86 85 84 83 84 86 87 86 87 85 86 88 89 89 88 88 88 87 88 88 89 88 88 88 87 87 87 86 85 85 85 85 85 86 87 86
67 67 66 65 65 66 67 67 67 68 70 73 75 76 76 77 79 80 83 88 88 91 90 88 87 86 86 85 84 83 83 84 85 86 86 86 85 85 86 87 87 87 87 86 87 89 89 89 90 88 87 87 86 86 87 87 86 86 86 85 85 86 87
66 66 65 65 63 65 66 66 67 67 68 69 72 73 76 76 77 79 81 82 88 88 89 88 86 85 85 85 83 83 84 84 84 84 84 84 83 83 84 86 86 87 86 86 86 86 86 87 87 88 88 86 86 86 87 86 87 81 75 77 86 86 88
64 64 65 65 64 65 64 66 66 67 67 68 69 71 73 74 76 78 82 82 83 85 89 89 85 84 84 83 84 84 84 83 83 83 82 83 83 83 83 83 84 84 84 85 85 85 84 85 86 87 88 88 87 87 87 87 87 75 69 69 71 83 86
63 63 65 65 65 65 64 64 65 66 66 67 68 69 70 71 74 77 77 79 81 83 86 89 88 85 83 84 84 84 83 83 83 82 82 83 82 83 83 83 83 83 83 84 84 83 86 85 85 85 87 88 88 88 88 88 78 69 68 68 67 72 84
62 64 64 65 64 64 64 64 65 66 66 67 67 68 69 70 71 71 73 75 78 81 82 83 88 86 84 85 84 83 83 83 83 82 82 82 83 83 83 82 82 82 83 84 84 85 83 83 85 84 85 87 85 87 88 89 76 68 67 67 66 66 74
64 64 65 65 65 65 64 65 65 66 66 67 69 70 70 70 70 71 72 74 77 78 80 80 83 85 85 84 84 84 84 83 83 82 82 83 83 83 82 82 82 83 84 85 84 83 83 85 84 84 83 84 85 84 87 88 77 66 65 65 64 65 69
64 64 64 64 64 64 64 64 64 65 65 67 69 69 69 69 70 70 71 73 75 77 78 80 81 83 85 84 84 84 84 83 83 82 83 83 83 82 82 82 82 83 84 86 85 84 82 84 84 84 84 86 86 86 87 89 73 65 63 63 62 63 67
65 66 65 65 65 64 64 64 64 64 65 68 69 69 68 68 68 69 69 72 74 73 76 77 79 81 84 84 84 84 84 84 83 83 83 83 83 82 82 82 82 82 84 85 87 87 87 85 86 85 85 86 87 87 86 89 71 65 63 62 62 62 75
66 66 67 67 68 67 67 67 66 66 66 66 67 68 67 68 68 68 68 70 71 72 73 74 75 75 78 82 85 85 85 85 84 83 83 83 82 82 82 82 82 83 84 84 86 87 86 86 87 85 86 86 86 85 85 88 75 63 62 61 60 64 78
68 68 69 69 69 70 68 68 68 69 68 67 67 67 68 68 68 67 67 68 69 70 70 70 69 71 73 77 80 83 85 85 85 84 83 83 82 83 83 84 84 84 84 84 85 86 88 88 87 87 87 87 87 88 86 87 78 62 61 60 59 67 79
68 68 68 69 69 68 69 67 67 68 69 68 66 67 68 67 67 68 67 67 67 68 68 67 66 67 70 74 76 79 82 84 85 85 85 83 84 84 84 84 84 84 84 84 85 86 86 87 87 87 87 90 89 81 85 88 81 62 61 59 58 67 79
65 66 67 69 71 70 68 68 67 67 67 68 66 68 68 68 68 68 67 67 67 67 66 65 65 67 69 71 73 75 78 82 83 84 85 85 84 84 85 85 86 86 85 85 85 85 86 87 86 86 87 89 89 90 88 87 88 77 58 59 57 60 78
66 67 67 68 69 67 68 69 68 67 67 67 67 68 68 68 68 68 67 67 66 66 67 67 67 66 67 69 71 73 75 79 82 83 85 86 86 86 86 87 86 86 85 85 86 85 84 85 85 86 86 88 89 89 89 90 88 83 58 58 57 57 66
66 67 69 68 67 67 68 69 68 67 67 67 69 69 68 68 66 66 67 66 66 67 68 67 67 67 67 67 68 71 74 76 77 79 84 85 84 83 83 85 86 86 85 86 85 82 82 82 82 84 85 87 87 87 88 87 78 90 63 58 56 56 57
63 64 65 65 66 68 69 67 66 67 67 68 68 69 69 68 65 65 66 67 66 68 69 68 68 67 66 67 68 70 72 74 75 75 77 81 84 83 82 84 84 84 83 83 82 81 81 80 80 81 82 83 85 86 86 85 84 71 79 59 56 54 55
63 63 65 67 68 68 68 66 67 67 68 68 67 67 67 66 64 64 65 65 67 68 69 69 67 67 67 67 67 69 72 74 75 75 74 74 75 79 81 82 82 83 83 82 82 82 81 81 81 81 82 83 83 85 85 85 87 74 68 69 54 56 54
61 61 63 64 66 66 66 67 66 67 67 68 67 66 65 66 64 64 64 65 66 67 68 68 67 66 66 67 68 69 71 73 74 74 74 74 73 73 75 80 82 82 82 82 82 82 81 82 82 81 81 82 83 85 87 87 86 89 74 64 59 55 54
61 62 63 64 64 65 65 66 67 67 66 67 67 66 65 64 64 63 63 66 66 67 67 66 66 65 65 67 68 69 71 72 74 75 75 74 73 74 74 78 79 81 82 82 82 82 82 82 82 82 82 82 84 85 87 87 87 87 87 72 67 61 56
59 60 60 60 62 63 63 64 64 64 65 65 66 66 65 63 65 65 65 65 66 67 65 65 65 64 65 65 67 68 70 71 73 74 75 76 77 77 78 79 81 81 81 83 84 83 82 82 81 82 83 83 84 86 86 87 87 87 88 87 82 79 72
58 58 60 61 62 62 62 62 62 63 64 64 65 65 64 63 63 64 64 65 65 64 63 64 64 64 64 65 66 68 70 71 71 72 73 75 77 79 80 81 83 81 82 83 84 83 83 83 82 82 84 85 86 86 87 86 88 88 87 88 87 85 83
58 58 59 59 60 61 60 61 62 62 63 64 66 65 64 62 63 63 63 64 64 63 62 62 63 64 64 65 67 67 68 69 70 71 72 73 75 78 79 79 80 80 82 86 88 87 87 87 87 86 88 89 87 85 86 86 86 88 74 86 73 83 87
57 58 58 60 60 60 60 61 61 62 62 64 66 65 64 62 62 62 62 62 63 62 61 61 62 62 63 65 65 66 67 67 68 69 70 71 72 73 75 72 62 68 77 80 74 68 66 66 85 89 91 90 90 89 87 88 90 73 63 60 60 59 63
56 56 57 59 59 59 59 60 61 62 62 64 66 65 63 61 62 61 61 62 61 61 61 60 60 61 63 64 63 64 64 65 66 68 68 69 69 70 71 73 75 59 56 59 65 64 58 55 57 59 63 79 88 84 70 68 67 64 58 55 55 55 55
57 57 58 58 58 58 59 59 60 61 62 64 65 65 64 62 61 61 61 61 60 61 60 60 60 59 61 63 63 63 63 64 65 66 66 67 68 70 70 70 70 72 64 60 57 55 55 53 53 54 56 57 65 78 87 67 57 57 55 52 53 53 53

ECMWFFLT1_sfc_temp_096.txt.gz
Temp
89 90 92 92 92 92 91 92 91 92 91 92 92 92 93 93 92 91 90 88 87 86 86 86 86 87 86 87 88 88 89 89 89 89 89 89 90 90 90 91 91 90 92 92 91 92 91 92 91 91 91 90 90 90 89 89 89 90 89 88 88 89 88
85 86 88 92 94 93 91 92 92 92 92 92 92 91 93 93 92 92 90 88 87 87 87 87 86 87 87 87 88 88 87 88 89 88 90 89 89 90 91 90 90 90 90 92 93 92 92 92 92 91 91 91 91 90 91 90 89 89 90 89 89 88 88
83 84 86 87 88 92 92 93 93 93 92 93 94 93 93 91 92 90 90 89 88 87 88 87 86 87 87 87 87 87 88 89 89 89 89 91 90 93 92 91 91 92 93 92 92 93 93 92 91 91 92 92 93 91 90 90 90 90 90 89 89 89 88
79 81 84 85 87 88 90 93 94 94 95 95 94 95 93 91 93 92 91 91 89 88 87 88 88 89 88 87 87 87 87 88 89 91 92 92 92 92 91 91 90 92 92 93 94 94 97 93 92 91 90 91 91 92 91 91 92 91 90 89 89 90 89
77 80 82 84 86 87 89 92 94 93 94 96 96 94 95 94 94 94 93 93 94 91 91 91 93 91 89 89 90 90 89 89 89 91 92 92 92 91 91 92 93 92 92 94 93 92 91 91 93 91 90 90 92 91 91 91 92 91 90 89 89 90 91
74 75 78 83 85 87 89 91 95 96 95 96 97 96 97 97 96 96 95 93 94 94 93 92 92 90 89 91 91 91 90 89 89 89 90 91 91 92 92 92 93 93 94 93 95 93 92 92 93 93 92 93 93 94 93 92 92 93 91 90 89 91 92
73 73 76 79 84 87 88 91 93 96 97 98 99 98 98 98 97 96 96 96 95 93 94 93 94 93 90 91 90 90 89 90 90 90 91 92 92 91 91 92 92 94 95 94 93 94 93 92 92 92 92 94 93 94 92 91 92 92 91 90 89 89 90
74 73 74 77 82 85 86 85 90 95 97 98 97 99 98 98 98 97 96 97 96 97 96 96 94 92 90 91 91 91 91 91 92 91 91 92 92 91 92 92 92 92 93 94 93 93 94 93 94 93 93 93 93 92 93 91 90 94 92 90 89 90 93
76 75 74 74 77 82 84 84 84 84 84 86 93 97 97 97 98 98 97 97 97 96 96 98 97 95 92 91 90 90 92 92 92 91 91 92 93 94 94 94 93 93 92 94 95 94 93 94 95 92 92 92 92 91 91 90 91 92 92 91 90 90 92
75 74 74 74 75 77 79 81 82 83 81 82 83 88 95 96 96 97 98 98 98 96 97 97 97 97 93 92 92 92 92 91 92 94 93 94 94 94 95 96 95 94 93 94 96 96 93 94 94 93 90 91 90 90 90 90 91 92 93 91 91 90 90
75 74 74 73 72 73 74 76 78 80 83 82 81 83 84 89 95 97 97 98 98 97 97 96 96 96 95 94 93 93 91 92 93 93 93 94 96 96 97 97 97 96 94 95 95 96 95 93 93 92 91 92 91 90 90 91 91 91 93 93 93 92 92
75 75 73 72 71 71 70 71 74 77 80 83 86 82 79 80 86 94 97 97 99 99 96 96 96 95 95 95 94 92 91 91 93 94 94 94 96 97 97 98 97 97 96 96 95 95 97 95 94 93 91 91 92 92 91 90 91 90 91 94 95 93 93
77 75 74 72 70 70 70 69 70 73 77 83 85 86 84 82 82 86 90 94 97 98 98 95 95 93 94 94 94 92 90 92 93 93 95 94 95 97 97 98 99 98 97 96 96 96 97 97 94 93 93 92 92 93 91 91 92 90 90 91 93 93 92
75 78 76 74 72 69 68 68 69 70 73 78 82 84 85 84 82 84 88 90 95 98 98 98 94 93 92 91 91 90 90 91 93 94 93 94 92 94 96 97 97 96 96 96 95 96 97 98 97 95 95 93 93 93 93 91 91 90 90 91 92 93 93
76 76 76 76 73 72 70 69 68 69 71 73 77 79 82 81 80 82 84 86 87 94 97 95 94 92 92 90 89 89 90 90 92 93 93 92 92 92 93 95 95 95 95 94 95 98 98 98 98 96 94 94 93 93 94 94 92 93 92 91 91 92 93
75 75 75 75 74 74 73 71 69 68 69 70 73 75 79 79 79 79 80 80 86 87 90 93 93 92 91 90 88 89 90 89 90 90 91 90 90 89 91 93 93 95 94 94 94 94 93 94 95 97 96 94 93 93 94 94 95 88 79 82 91 92 94
73 73 74 75 74 74 74 74 71 69 68 69 71 74 75 76 78 80 79 77 81 84 89 93 92 92 90 90 89 89 89 88 88 88 88 89 89 89 89 89 91 90 91 91 92 91 91 92 93 95 96 96 95 94 94 95 95 80 71 72 75 89 92
71 71 73 74 74 74 73 74 74 71 68 68 71 73 74 73 75 78 78 79 79 82 85 87 88 89 90 90 89 89 88 88 87 87 87 88 87 88 88 88 89 88 89 90 91 89 92 92 91 91 94 96 96 96 95 95 84 72 69 70 70 76 90
70 72 72 72 73 73 74 73 74 73 72 70 69 71 72 73 73 73 74 75 77 80 82 83 86 87 87 90 90 89 88 88 87 87 87 87 87 87 87 87 87 88 88 90 90 91 88 88 91 90 91 93 92 94 96 96 80 69 68 68 68 68 79
70 71 72 73 74 74 73 73 73 75 74 72 72 74 74 73 73 74 74 75 76 77 79 81 82 83 85 86 89 89 88 87 87 87 87 87 87 87 86 86 86 88 90 90 89 88 89 90 89 90 89 90 90 90 94 95 82 68 67 66 66 67 72
71 71 71 71 71 73 72 73 73 73 73 73 74 75 75 75 74 74 75 76 75 75 76 79 79 80 81 82 85 89 89 88 87 87 87 87 86 86 86 86 86 87 89 91 91 89 87 89 89 89 90 91 92 92 94 97 76 67 65 64 64 65 70
73 73 72 72 72 71 72 72 72 73 73 75 77 77 76 75 76 75 74 77 76 74 74 74 75 77 77 78 81 83 88 88 87 87 87 87 87 86 85 85 85 86 88 89 93 92 92 91 91 91 91 91 92 93 92 96 73 66 64 62 63 64 79
74 74 74 74 75 74 74 75 74 74 74 75 76 76 75 75 75 75 75 77 77 75 74 73 72 72 74 76 78 79 81 85 88 88 87 87 87 86 86 85 86 87 88 89 90 93 93 92 92 90 92 92 91 91 91 94 79 64 62 61 60 66 83
75 75 76 75 75 77 75 75 76 76 76 75 75 74 75 76 76 74 73 75 77 77 75 73 71 72 72 74 76 76 78 80 83 87 87 87 87 87 88 88 88 88 89 89 90 92 94 94 93 93 92 93 92 94 92 93 82 62 61 59 59 70 83
75 76 76 76 75 75 75 74 74 76 76 76 74 74 76 76 75 74 73 74 76 76 75 73 72 71 70 71 72 74 75 78 79 80 85 87 88 88 88 88 88 89 90 90 90 91 92 92 93 94 94 96 95 85 90 94 86 63 61 59 58 70 84
72 73 75 76 78 76 74 74 74 74 75 76 74 76 76 77 77 74 73 73 74 74 74 73 71 71 71 71 71 72 74 77 77 79 81 82 83 86 86 89 91 91 92 91 91 91 92 93 93 93 94 96 96 97 94 93 93 80 58 59 57 61 83
73 73 74 76 76 72 74 75 75 75 75 75 75 77 77 76 75 73 72 72 73 73 75 75 76 74 72 70 70 71 72 74 76 78 81 83 78 76 77 81 88 91 90 91 92 92 91 92 93 94 93 95 95 96 96 97 94 87 57 58 56 58 68
72 73 74 75 73 72 74 76 74 74 76 76 78 78 78 77 73 71 72 71 71 73 76 75 75 76 75 73 72 72 73 74 76 79 82 81 77 75 75 75 74 74 77 85 89 88 88 89 89 91 92 94 94 94 94 93 84 96 64 58 56 57 58
68 69 70 70 71 74 75 73 72 74 75 78 79 77 76 76 72 72 71 71 71 74 74 74 74 74 75 75 74 73 73 72 73 75 79 79 78 77 76 77 77 77 77 75 75 78 84 87 87 88 88 89 90 92 90 90 89 74 82 59 56 54 56
68 69 70 73 73 73 74 71 72 73 75 77 76 75 75 73 71 71 70 70 73 73 73 72 72 72 73 75 75 75 75 74 74 74 75 76 77 77 76 76 78 77 75 74 74 74 75 80 86 87 87 86 87 89 90 90 92 78 71 71 54 56 54
67 67 68 69 70 71 71 72 71 72 73 74 74 74 74 73 71 71 70 71 72 72 72 72 72 71 72 73 75 74 75 75 75 75 75 75 76 76 76 76 77 75 76 76 76 75 76 75 80 85 85 85 86 88 91 93 92 94 79 66 60 56 55
67 68 69 68 68 68 69 70 71 71 70 72 73 74 74 74 74 70 71 73 72 72 72 71 70 70 71 73 74 75 76 75 75 75 76 76 76 75 75 77 78 77 78 78 77 76 76 75 78 84 84 85 88 88 91 91 91 91 92 75 69 62 56
64 65 66 65 66 66 66 67 68 68 68 69 71 73 75 75 75 74 73 73 75 75 72 69 68 69 70 71 73 74 75 75 77 77 78 77 77 76 77 77 77 79 77 77 76 76 76 76 76 81 86 86 87 89 89 89 90 90 91 90 85 83 75
63 64 65 66 66 66 66 65 65 66 66 67 69 71 72 73 73 73 73 75 74 73 71 69 69 68 69 71 72 74 75 76 74 75 78 78 77 77 76 75 76 75 76 78 77 76 74 74 74 78 81 79 80 81 81 86 87 87 91 92 89 88 87
63 62 63 63 64 65 64 64 65 65 66 67 69 70 70 71 73 74 73 73 74 72 70 69 67 68 69 71 72 73 74 75 76 77 76 77 77 77 75 72 74 72 73 75 75 74 76 77 76 76 76 77 75 74 74 76 80 87 75 89 74 86 90
62 62 63 64 64 64 64 64 64 65 65 66 68 69 69 70 72 72 73 73 72 71 69 69 68 68 68 70 71 72 73 73 74 73 73 75 76 76 75 71 62 66 74 75 69 64 60 57 70 76 76 76 76 76 76 76 78 64 59 63 63 62 66
61 61 61 62 62 62 62 63 64 64 65 66 67 68 69 70 71 72 72 72 71 70 70 69 68 68 68 69 70 69 69 70 72 72 72 73 73 74 73 73 74 58 54 57 62 61 56 53 50 51 55 67 75 74 65 64 60 57 57 56 56 57 56
62 62 62 62 61 61 61 62 63 64 64 66 67 68 69 70 71 72 72 72 71 70 69 69 68 67 68 68 68 67 67 69 70 71 72 72 72 72 72 72 72 73 65 59 55 54 51 50 51 52 51 51 58 69 76 63 56 56 56 54 54 53 53

ECMWFFLT1_sfc_temp_102.txt.gz
Temp
83 82 80 80 80 79 79 81 84 87 88 89 91 94 94 93 91 89 88 86 85 85 86 86 86 86 86 86 87 87 87 87 87 87 87 87 87 87 87 88 88 87 88 87 87 88 88 89 87 88 88 88 88 87 87 87 86 88 87 87 85 83 86
81 83 82 81 80 77 78 81 83 85 87 89 91 91 93 93 91 90 87 87 86 86 86 86 86 86 87 86 87 87 86 87 87 87 88 86 87 87 88 88 87 87 87 88 88 89 89 90 90 88 88 88 88 88 88 87 87 87 87 86 86 84 85
83 83 84 82 80 78 77 79 83 84 84 87 91 92 93 90 91 90 88 87 86 86 87 87 86 87 87 87 86 86 87 88 88 88 88 89 89 91 89 88 89 89 90 90 88 90 91 89 89 89 89 88 89 88 88 88 87 88 87 86 86 86 86
83 82 83 80 77 80 81 80 82 84 79 88 91 92 91 89 92 91 91 89 87 86 85 87 88 88 88 86 87 86 87 87 88 89 90 90 90 91 89 89 88 90 89 89 92 91 93 89 89 88 89 88 88 88 89 88 89 88 88 86 86 87 86
81 83 81 84 79 77 78 82 85 80 78 81 89 91 92 92 89 93 94 91 90 88 88 88 90 89 88 89 90 89 88 88 88 89 90 91 89 89 90 91 90 91 89 91 90 88 88 88 89 88 88 87 89 88 88 88 89 87 87 87 86 87 86
79 79 80 84 86 85 83 79 81 83 88 86 88 90 91 87 85 82 81 84 83 84 87 88 87 88 88 90 90 90 89 88 88 88 89 90 89 90 91 91 91 91 92 91 92 91 91 89 90 89 89 90 90 91 90 89 89 90 87 87 86 87 88
77 79 81 81 81 82 84 85 88 88 88 90 83 84 88 85 79 83 84 83 84 80 82 81 85 89 88 89 89 89 88 89 89 90 91 92 91 91 90 91 90 92 93 91 90 91 91 90 89 89 89 90 89 91 88 87 87 88 87 86 85 86 86
77 79 81 80 80 81 83 85 86 86 86 84 85 83 82 82 83 81 82 82 84 85 82 80 78 84 88 89 90 90 90 90 91 91 91 92 92 91 92 91 91 91 91 92 91 91 92 90 92 91 90 91 89 88 90 87 86 90 88 86 86 86 90
78 77 77 79 79 79 78 79 80 81 80 80 80 79 80 81 80 82 82 81 81 82 82 81 80 81 81 88 89 90 92 91 91 91 91 92 93 93 94 94 93 92 92 93 94 92 92 91 92 89 89 89 88 87 88 87 88 89 88 87 86 86 88
75 75 76 77 77 76 76 78 79 79 79 78 78 79 79 79 80 79 80 80 80 79 79 78 78 79 77 78 84 91 92 90 91 92 92 92 93 93 94 95 94 93 93 95 95 94 92 92 92 90 87 88 88 87 87 87 88 89 89 88 87 87 86
76 75 75 76 75 74 73 74 75 76 76 76 76 77 77 79 79 78 79 80 80 78 79 79 79 78 79 81 82 88 88 92 93 92 92 93 94 95 95 96 96 94 94 94 95 95 93 91 91 89 88 90 89 88 87 88 88 87 89 90 89 88 88
76 75 74 75 75 74 73 72 73 75 76 74 74 75 75 75 77 79 79 80 81 81 81 82 84 81 79 80 80 78 77 82 90 92 93 93 94 95 96 96 96 96 95 95 94 94 95 92 93 91 88 89 89 89 88 87 88 87 88 90 91 89 89
78 76 75 75 75 75 74 73 73 73 75 76 73 74 76 76 76 76 76 74 75 77 79 81 83 83 83 83 83 81 80 81 84 89 94 94 94 96 96 97 97 97 96 95 95 95 96 96 92 91 91 89 90 91 88 88 89 86 87 88 89 89 88
78 79 78 76 76 75 74 73 73 74 74 77 77 76 74 76 78 75 75 75 75 77 80 81 81 82 81 80 80 80 80 78 75 73 76 83 90 93 96 97 97 96 95 94 94 95 95 97 95 93 93 91 91 90 89 88 88 87 87 87 88 89 88
80 80 78 77 75 75 75 74 73 73 75 75 77 78 79 78 79 78 77 77 77 78 79 80 80 81 83 80 78 78 78 77 78 78 78 80 81 89 92 93 93 93 93 92 94 97 96 96 98 94 92 92 90 90 91 91 89 90 88 87 87 88 89
80 79 79 78 76 77 76 76 75 75 75 75 75 74 78 80 80 77 78 79 78 77 77 78 79 80 81 79 76 77 78 78 78 78 78 78 80 83 89 92 92 95 94 94 94 92 91 91 92 96 94 92 91 90 92 91 92 86 81 82 88 87 90
77 78 78 78 76 77 77 76 76 75 75 75 75 75 74 77 79 81 82 81 80 78 77 77 77 80 80 78 77 78 80 80 79 79 78 79 80 82 84 86 88 89 89 91 91 91 89 91 92 95 96 95 93 92 93 94 94 81 74 74 78 87 87
76 76 77 77 77 76 76 77 76 75 75 76 77 76 76 74 77 79 80 81 81 83 80 77 78 79 79 78 78 78 78 79 81 81 81 82 82 84 83 84 83 83 86 90 92 89 93 92 91 90 94 96 95 94 94 94 85 75 72 73 73 78 88
74 75 76 76 75 75 76 76 76 76 77 77 76 76 76 76 76 76 78 79 80 82 81 79 80 79 78 79 78 78 77 78 80 80 80 80 81 79 77 78 79 78 76 77 86 93 89 88 91 91 91 93 90 94 95 94 82 73 69 71 71 71 81
74 75 75 76 77 76 75 75 75 76 77 77 79 81 80 78 78 78 78 79 80 80 80 79 78 78 78 78 78 77 78 78 78 78 79 79 79 78 78 77 77 76 76 77 76 76 84 91 90 90 88 89 89 89 93 94 84 72 68 68 69 70 74
76 75 74 74 74 75 74 75 75 75 76 78 79 79 79 79 80 79 78 79 78 79 79 79 78 77 77 78 78 77 76 76 77 78 78 79 78 78 78 77 76 77 76 76 74 75 75 77 84 89 90 92 92 92 94 97 80 70 67 66 67 69 72
78 78 76 76 75 74 74 75 75 75 76 78 80 79 79 79 80 79 77 78 77 77 78 78 77 77 77 77 78 78 77 76 75 76 77 77 77 76 76 77 76 75 76 75 74 75 76 78 80 83 89 92 92 93 92 95 78 69 64 65 65 67 77
79 78 79 78 79 78 77 77 76 76 77 78 79 79 78 79 79 79 78 77 77 75 76 77 76 76 76 76 78 78 78 77 76 75 76 75 75 76 76 75 75 74 76 75 76 76 78 80 83 84 87 89 90 90 89 93 82 70 61 62 63 67 79
80 80 80 80 79 81 78 77 78 79 79 78 78 76 77 80 80 78 76 76 76 76 75 76 75 75 75 76 77 77 79 78 76 75 75 76 74 74 74 76 77 77 77 77 77 77 79 80 82 85 86 85 80 83 83 88 85 71 60 59 61 70 80
79 79 79 79 79 79 78 76 76 78 79 79 78 77 78 79 79 78 76 76 76 76 75 74 74 74 75 76 77 78 78 81 79 77 75 75 75 74 73 74 75 77 78 78 78 78 79 81 82 85 86 89 89 85 85 87 82 71 60 59 58 68 80
75 76 78 79 80 77 76 76 76 77 78 78 76 78 79 82 80 77 75 75 76 75 75 74 74 75 76 76 76 77 78 80 79 78 77 75 75 74 74 74 74 75 76 77 78 79 80 81 81 82 85 88 90 91 92 89 86 77 61 56 56 61 80
77 77 76 77 76 75 76 76 77 77 77 76 76 80 81 80 78 75 75 75 75 75 76 76 77 76 75 76 77 77 78 78 79 78 79 77 75 75 74 74 74 75 76 77 78 78 78 79 80 82 83 85 87 88 86 83 83 75 61 56 55 57 69
75 76 77 76 75 75 75 76 75 75 76 76 79 80 80 77 74 73 73 74 74 75 78 77 77 77 76 75 76 77 78 78 78 79 80 79 77 75 74 75 75 75 76 77 77 76 75 77 78 79 80 83 83 84 85 80 77 79 65 56 54 54 57
72 72 72 73 74 76 75 73 72 74 75 77 78 77 77 76 73 72 73 72 73 76 77 77 77 76 76 76 75 75 76 77 77 78 80 79 79 77 75 75 75 76 76 76 75 75 76 77 77 78 79 80 82 82 82 82 78 71 77 62 54 54 53
72 72 73 75 75 74 73 71 72 72 74 75 74 74 74 73 71 71 71 71 75 76 77 76 76 76 76 76 75 75 76 77 78 78 78 79 79 79 77 76 76 76 75 75 74 73 74 74 75 75 76 76 76 77 77 80 82 77 75 71 54 54 53
71 70 71 71 72 72 71 71 70 71 71 73 72 72 71 72 71 71 70 73 75 75 75 75 75 75 75 75 75 75 76 76 77 78 79 79 79 78 79 78 78 76 76 75 74 73 72 72 74 73 73 73 72 73 75 78 80 84 76 67 58 53 53
70 71 71 70 70 70 70 70 70 70 69 70 71 71 71 71 71 69 70 73 73 74 74 75 75 74 74 74 74 75 76 76 78 79 79 79 79 80 80 80 79 76 75 74 73 73 72 72 72 73 73 73 74 74 75 77 78 80 82 76 68 61 54
68 68 68 67 68 68 68 68 68 67 67 67 69 70 71 71 71 70 70 71 74 75 74 73 73 73 73 73 74 75 75 75 76 77 78 79 81 81 80 79 80 78 75 74 74 73 73 73 72 71 72 72 74 75 75 77 77 78 79 80 79 77 71
67 67 68 68 68 68 68 67 66 66 66 66 67 69 69 69 69 70 70 71 72 73 72 72 72 72 73 74 74 74 75 75 75 75 77 79 78 78 79 79 80 77 76 75 74 72 72 72 72 71 71 71 72 73 74 74 76 77 77 77 79 79 78
66 66 67 66 67 67 66 66 65 65 66 66 68 68 68 69 70 71 70 70 71 71 70 70 71 72 73 74 74 73 73 74 75 76 75 75 75 77 77 76 77 76 76 78 76 75 74 73 72 72 73 72 71 70 71 73 74 76 69 75 68 73 78
66 66 66 67 67 67 66 66 65 65 65 66 67 68 68 68 69 70 71 71 70 70 69 70 70 70 71 72 72 72 73 73 74 74 73 73 73 74 75 75 66 69 76 75 73 66 60 60 69 73 72 70 71 72 70 71 74 62 54 53 55 56 57
65 65 65 66 65 65 65 65 65 66 65 66 67 67 68 68 69 70 71 71 70 70 69 69 69 69 70 71 71 71 71 71 71 71 71 72 71 72 72 73 74 57 53 60 65 60 56 52 51 52 55 62 66 67 61 60 57 54 54 54 53 50 49
66 65 65 65 65 64 65 65 65 65 64 65 66 66 66 68 69 69 70 71 70 70 68 69 68 68 70 72 72 71 71 71 70 70 70 70 71 71 71 72 71 73 60 50 52 54 48 47 49 49 50 51 54 61 66 59 54 52 52 52 51 51 48

ECMWFFLT1_sfc_temp_105.txt.gz
Temp
80 77 76 77 78 78 78 78 78 80 84 86 83 86 87 86 84 83 82 81 80 79 79 79 80 80 80 79 79 79 80 79 79 79 79 80 81 81 81 80 81 81 80 79 80 80 82 83 82 83 82 82 81 81 80 81 81 82 81 80 80 80 79
75 76 77 77 76 77 77 77 78 79 81 85 84 84 87 85 83 83 82 81 81 80 80 80 80 80 80 80 80 79 79 80 80 81 80 80 81 81 82 81 81 80 80 81 81 81 83 83 83 83 82 82 82 82 82 81 80 80 80 80 80 79 79
70 75 78 78 77 75 73 73 73 75 78 79 82 83 83 81 84 83 82 82 81 81 81 80 80 81 81 80 79 79 80 80 80 80 80 81 81 83 83 82 81 82 82 83 83 83 84 82 82 82 83 82 82 82 81 81 81 81 80 80 79 79 79
74 75 76 77 76 74 73 74 75 76 76 77 77 77 76 76 81 84 84 83 82 82 81 81 81 82 82 80 80 79 80 80 81 82 82 82 82 82 82 81 82 83 82 82 85 86 87 82 83 81 84 82 81 82 82 82 82 81 80 80 79 79 79
73 72 70 71 73 74 76 77 75 75 77 76 76 75 77 79 80 81 82 84 85 83 83 83 84 83 83 82 83 82 81 81 81 82 82 82 82 82 82 83 82 82 83 84 82 84 80 82 81 81 82 82 81 81 82 81 82 81 80 80 80 80 79
71 70 70 73 73 75 75 75 76 76 75 75 73 76 78 78 77 77 79 81 83 84 84 83 83 83 82 83 83 84 82 81 81 81 82 82 81 83 82 82 83 83 83 84 83 84 82 83 83 81 82 82 82 83 82 81 82 83 81 80 80 80 81
70 72 73 73 73 74 74 74 77 77 74 75 76 77 79 79 76 78 79 79 80 81 82 81 81 79 78 80 81 81 81 82 82 82 82 83 82 83 82 82 83 84 84 83 83 84 83 83 83 82 83 83 81 82 81 80 80 81 81 79 80 80 79
73 73 72 72 73 73 74 74 74 74 75 76 75 76 76 77 79 78 79 80 79 73 78 78 77 77 76 75 76 78 81 84 83 83 82 84 83 82 83 83 82 84 83 83 84 84 84 83 84 83 83 83 82 81 81 81 80 81 81 80 79 80 83
74 73 72 71 71 72 74 74 72 73 72 73 74 74 75 76 75 75 75 75 75 75 75 75 76 78 76 75 75 76 77 80 84 84 83 84 85 84 85 85 84 83 85 84 85 84 84 83 84 81 82 83 81 82 80 80 82 82 80 80 80 80 81
72 72 70 71 70 72 72 73 74 74 73 73 73 74 74 74 75 76 76 76 75 74 75 76 77 77 76 76 76 77 77 77 79 84 85 85 85 85 86 87 86 84 85 86 85 85 84 85 85 82 80 82 81 81 81 80 81 82 81 81 81 80 80
72 71 69 68 69 70 71 71 72 72 71 72 72 72 72 74 74 74 75 76 76 75 76 76 76 77 77 77 76 76 75 78 78 79 84 86 86 87 88 88 88 87 86 86 86 86 85 83 84 83 80 83 82 81 81 81 81 81 82 81 82 82 82
72 72 69 68 68 70 70 69 71 71 71 71 71 71 71 72 73 74 74 75 78 77 77 78 78 78 77 78 77 76 75 77 79 81 81 82 85 88 88 89 88 87 88 88 87 85 87 85 85 85 82 82 82 81 81 80 81 81 81 83 82 81 82
73 72 72 70 68 70 70 70 69 70 72 75 75 74 74 73 73 74 73 73 75 76 77 77 79 78 78 78 78 76 76 77 80 78 78 79 80 81 84 87 90 89 88 89 89 88 86 87 85 84 84 83 83 83 81 80 80 80 80 81 82 81 81
73 73 73 72 71 71 70 70 71 70 71 72 74 77 75 75 75 74 74 74 75 76 76 77 78 78 78 77 77 77 77 76 75 76 78 78 78 79 81 83 84 87 88 88 88 89 89 87 87 85 85 85 84 84 83 81 81 79 79 81 82 82 80
73 73 73 72 71 71 71 71 70 70 70 72 72 73 76 76 76 76 75 75 75 75 76 76 77 78 78 76 75 75 75 74 76 76 77 78 78 79 78 78 83 82 83 84 89 91 90 90 88 87 85 85 84 84 85 84 82 82 81 80 81 82 81
72 73 73 73 72 72 72 72 71 69 70 70 71 72 73 74 76 76 75 75 75 74 75 75 76 76 76 75 74 75 75 75 75 75 76 76 77 77 79 80 79 79 79 79 81 84 85 88 88 87 87 85 84 84 85 85 86 83 79 79 82 81 84
73 72 72 72 72 72 72 72 71 69 69 69 70 72 72 73 74 76 78 78 77 76 75 76 75 75 75 74 75 75 76 75 75 74 75 75 76 77 76 76 77 76 76 77 77 77 77 80 84 88 88 88 86 85 86 88 88 79 72 73 76 83 82
72 71 71 70 70 70 70 72 70 69 68 69 71 71 71 71 73 74 74 76 77 78 76 74 74 74 74 74 74 75 75 75 76 76 76 77 77 75 74 75 75 75 75 76 77 75 78 78 78 79 84 88 88 87 87 87 82 74 71 72 71 76 84
70 71 71 69 69 69 69 69 70 70 71 71 69 69 70 71 71 71 72 73 74 76 76 74 75 74 73 73 73 73 74 75 75 76 76 76 76 75 75 75 74 74 75 76 76 77 76 77 79 79 80 83 82 86 87 87 78 71 70 70 70 70 78
68 69 69 70 70 69 68 67 68 70 70 70 72 74 72 71 73 73 73 74 74 74 74 73 73 73 74 73 73 73 74 74 74 74 75 75 75 75 75 74 75 75 74 75 75 75 77 78 79 79 79 80 81 81 85 87 80 70 68 68 68 69 73
68 67 67 67 67 69 67 67 67 68 69 71 73 72 72 72 73 73 73 73 73 74 74 73 72 71 72 73 73 73 73 73 73 73 74 75 75 74 75 75 74 75 75 75 74 74 74 75 77 78 79 81 83 83 85 88 77 70 67 65 65 67 70
71 70 68 68 67 66 66 67 67 68 69 72 72 71 71 71 73 72 70 71 71 71 72 71 71 71 72 72 72 73 74 73 72 72 73 74 73 73 73 74 74 74 74 75 74 74 74 74 76 77 79 80 82 82 82 85 73 68 66 63 63 65 74
73 72 71 69 70 68 68 68 68 69 69 70 71 71 71 71 72 72 71 70 70 70 69 69 69 70 71 72 73 72 73 73 73 72 72 73 73 73 72 72 73 74 74 73 74 74 75 75 76 77 79 80 80 79 79 80 74 67 65 62 60 64 71
74 73 73 71 70 70 68 68 69 71 69 68 69 69 69 71 72 70 69 69 69 69 68 68 68 69 70 72 73 73 73 74 73 73 72 72 72 73 73 73 73 73 75 74 74 74 75 76 76 78 79 80 79 80 78 79 74 62 58 60 59 64 72
73 72 72 70 69 69 69 67 69 71 70 69 69 69 70 69 70 70 68 69 68 68 67 67 67 68 69 70 72 73 73 74 74 73 72 72 72 72 72 72 72 73 74 74 75 75 75 77 77 78 79 82 83 82 81 79 71 64 66 65 62 63 69
69 70 70 71 70 69 67 68 68 69 69 69 67 70 70 72 71 70 69 68 67 67 67 66 67 68 68 69 71 72 73 74 73 72 73 71 71 71 72 73 73 73 73 74 74 75 76 77 76 77 79 80 82 84 80 74 75 73 62 62 61 60 69
70 70 69 70 69 71 68 68 67 67 68 66 67 70 70 69 69 67 68 68 66 67 68 68 68 69 69 69 70 70 71 73 73 73 73 73 73 73 73 73 72 73 73 73 74 74 74 76 76 77 78 79 81 82 79 77 76 75 62 58 58 58 62
69 69 70 69 70 69 67 67 66 67 68 68 70 70 69 68 66 65 65 65 65 67 71 69 69 69 68 68 69 71 71 71 72 74 74 74 74 73 71 72 72 72 72 73 73 73 73 74 74 75 76 77 78 80 79 78 80 76 64 58 56 55 55
64 65 65 65 66 68 68 64 64 66 67 69 69 68 68 67 64 64 65 63 65 68 69 69 70 69 69 68 69 69 70 70 71 73 74 74 74 72 72 72 71 71 72 73 73 73 73 73 73 74 74 75 76 75 75 76 78 72 74 62 56 55 52
63 64 66 68 67 66 67 63 63 64 66 67 66 66 66 64 63 64 64 62 66 67 69 68 69 69 69 69 69 68 68 70 71 71 71 72 72 72 71 71 72 72 72 71 71 71 71 71 72 72 72 73 73 74 72 75 75 74 71 71 62 56 54
63 62 63 63 64 65 64 63 61 62 63 64 64 64 63 64 62 63 62 63 66 66 66 67 67 68 68 67 68 67 69 68 68 70 71 71 70 71 71 71 72 72 71 71 70 69 69 70 71 71 71 70 71 72 73 73 74 76 74 68 64 60 56
62 62 63 62 62 63 63 63 62 62 61 62 63 63 63 62 62 61 61 63 65 66 66 66 66 66 66 67 67 67 68 69 69 70 70 71 72 71 70 71 70 71 72 71 70 69 70 69 69 69 69 69 70 71 72 74 74 75 76 76 74 66 56
60 60 59 59 61 63 60 61 60 60 60 60 61 62 64 64 64 63 62 62 65 66 64 65 65 65 66 65 66 67 67 67 67 68 70 70 70 71 72 71 70 70 70 70 68 69 69 70 69 68 68 68 69 70 71 71 71 73 74 75 75 72 70
58 58 59 61 61 61 60 59 58 58 59 59 60 61 62 62 61 62 63 64 64 64 63 63 64 64 65 66 67 67 67 66 72 71 68 68 69 69 70 70 70 69 68 68 67 66 66 67 67 66 67 67 68 68 68 69 69 70 71 72 72 72 72
58 58 59 59 59 60 57 58 58 58 60 59 60 60 60 61 62 63 63 63 64 63 62 62 64 64 64 66 66 66 67 67 67 67 67 66 67 67 67 67 69 68 68 70 69 69 69 68 67 67 67 67 67 66 66 67 68 70 65 65 58 60 63
58 59 58 58 58 58 59 60 59 59 59 58 59 59 60 60 61 62 64 63 63 63 62 62 62 62 62 64 64 66 66 66 66 65 65 65 64 66 67 70 63 62 66 68 69 66 60 59 65 69 68 66 68 68 66 67 70 63 55 51 51 51 50
58 56 56 57 57 57 57 57 60 58 58 57 59 59 59 59 61 61 63 63 63 62 61 61 61 62 61 64 64 65 67 65 64 64 64 63 63 64 64 64 66 57 56 57 60 56 51 50 49 50 53 60 65 66 61 60 57 52 51 49 47 46 46
58 57 58 59 57 56 57 57 57 57 57 57 58 58 58 59 61 61 62 63 62 62 61 60 61 60 60 62 63 65 67 64 64 65 64 63 63 63 62 63 63 64 57 54 54 54 49 47 46 47 49 51 53 59 64 60 54 51 48 46 46 46 45

ECMWFFLT1_sfc_temp_108.txt.gz
Temp
69 69 70 71 73 74 74 76 80 81 81 81 81 82 82 81 80 79 79 78 78 76 76 77 77 77 77 77 77 77 77 76 77 78 77 77 78 78 78 78 79 78 78 78 77 78 79 79 79 79 79 79 79 78 77 78 78 79 78 78 78 79 78
69 70 69 70 70 71 73 73 74 78 80 81 81 82 82 81 79 79 79 78 78 78 76 77 77 77 77 77 77 77 77 77 77 79 78 77 79 78 79 78 79 78 78 79 78 79 79 80 80 79 79 79 79 79 78 78 78 78 78 77 77 77 77
69 69 69 70 71 71 71 72 72 72 73 75 78 81 81 80 80 80 79 79 78 78 77 77 78 78 78 77 77 77 77 77 77 78 78 78 78 80 80 79 79 80 80 80 79 80 81 80 79 80 80 79 80 79 79 78 78 79 78 77 77 78 76
69 69 70 71 72 72 73 71 71 72 73 74 75 76 75 77 80 80 80 80 78 78 77 77 78 78 78 77 77 77 77 77 78 79 79 79 79 80 79 78 79 80 79 79 81 82 83 81 80 79 81 79 79 80 79 79 79 78 78 78 77 77 77
69 71 71 71 71 71 72 72 72 72 73 74 74 74 75 77 78 80 80 81 81 79 79 79 80 80 79 79 80 79 78 78 78 78 79 79 79 79 80 80 79 80 80 81 80 80 79 80 80 79 80 79 79 79 79 79 79 79 78 78 77 77 78
69 69 69 70 71 72 73 73 74 74 74 73 73 74 76 77 77 79 79 79 80 81 81 80 79 80 79 80 81 80 79 78 78 78 79 78 78 79 79 80 80 80 80 80 81 81 79 80 80 80 80 80 80 80 80 79 79 80 78 78 78 79 78
67 69 69 70 71 72 72 73 74 74 74 74 75 76 76 75 74 75 76 76 77 78 79 79 80 79 79 80 80 80 78 79 78 79 79 79 79 79 79 79 80 80 81 79 80 81 80 79 79 80 80 81 80 80 79 78 79 79 79 77 78 78 78
68 68 69 70 72 72 71 71 72 73 73 74 74 74 75 75 74 74 75 76 76 77 77 76 77 78 78 79 80 80 80 80 79 80 79 80 79 79 79 79 79 80 80 80 80 80 81 80 81 80 81 81 79 79 79 79 78 79 78 78 77 78 80
68 68 69 70 71 73 72 72 71 72 72 72 72 73 73 72 72 73 73 74 75 75 76 77 77 79 78 78 78 78 80 81 80 80 79 81 80 80 81 80 80 80 80 81 81 80 81 81 81 79 79 80 79 78 78 78 78 78 78 78 77 77 78
67 67 69 71 71 72 72 72 72 71 71 71 71 72 72 73 73 73 73 74 74 74 75 76 76 76 76 76 77 78 77 78 80 81 81 81 81 81 81 83 81 81 81 82 82 81 80 81 81 80 79 79 79 78 78 77 78 78 78 78 78 78 77
67 67 68 69 69 70 71 71 71 70 70 70 70 71 71 72 72 72 73 74 74 74 75 76 75 75 74 74 75 76 75 77 77 79 81 82 82 82 82 83 83 81 82 82 82 83 81 79 80 79 79 80 79 78 78 78 78 78 79 78 79 79 79
67 67 67 67 68 69 68 69 71 71 70 70 70 71 71 71 72 72 73 73 74 74 74 75 74 74 73 73 72 71 72 73 76 78 78 81 83 83 84 83 83 83 82 83 82 82 83 81 80 80 79 80 80 79 79 78 78 78 79 79 79 78 79
68 67 68 68 67 68 69 69 69 69 70 71 71 71 72 72 72 72 73 73 74 75 74 75 75 74 74 74 74 73 73 73 75 78 79 79 80 81 82 82 82 83 83 84 84 83 82 83 81 80 80 79 80 80 79 78 78 78 78 79 79 78 78
68 68 69 69 69 68 67 68 69 70 70 71 73 73 72 72 72 72 73 73 73 73 73 74 75 74 73 73 73 72 72 73 73 76 76 77 76 77 79 79 78 79 78 80 83 84 84 83 83 82 82 81 80 80 80 79 78 77 78 78 79 79 78
67 67 68 68 68 68 67 67 67 68 70 70 71 71 72 71 71 72 72 72 72 72 72 73 74 74 74 73 72 72 73 73 74 75 76 77 76 77 77 76 77 76 78 78 80 85 85 85 84 83 82 82 82 81 81 80 80 79 79 78 78 79 79
67 68 68 68 69 69 68 68 67 67 69 70 70 70 71 71 73 73 72 71 72 72 72 72 74 73 73 73 73 73 73 73 74 74 75 75 75 76 76 77 77 77 76 76 77 77 78 79 81 83 83 82 82 81 82 81 82 80 77 77 80 78 81
66 67 68 69 69 69 68 68 68 68 67 68 70 71 71 71 72 74 75 74 72 71 72 73 72 73 73 73 73 74 73 73 73 73 73 74 74 75 75 76 76 74 75 75 75 75 75 77 80 81 82 82 82 81 82 84 85 77 70 71 74 81 79
65 65 66 67 68 68 69 69 68 67 66 68 70 71 71 71 72 73 72 72 71 72 72 72 71 71 71 72 72 73 73 73 74 73 74 74 74 74 74 74 74 74 74 75 75 74 76 76 77 78 80 82 82 82 83 83 80 72 70 69 69 75 81
64 65 65 66 67 67 67 68 69 68 68 68 67 68 70 71 71 70 70 70 71 72 71 70 71 71 71 71 71 72 72 72 73 73 74 74 74 74 73 73 73 73 73 74 75 75 74 75 76 76 77 79 78 81 82 83 77 70 69 69 68 68 75
64 65 65 66 66 66 65 66 66 68 68 67 68 70 70 71 71 70 71 71 70 70 70 70 70 70 71 71 71 71 72 72 72 72 73 73 73 73 73 73 73 73 73 74 74 73 74 76 75 75 74 75 76 75 78 80 78 70 67 67 67 68 70
63 64 63 63 63 64 63 63 64 65 66 68 69 68 68 69 70 69 69 69 69 69 68 69 69 68 69 70 70 71 70 71 71 72 72 73 72 72 72 72 72 73 73 73 73 73 73 73 74 75 75 76 77 76 78 82 74 68 66 65 65 66 68
65 65 64 63 62 62 63 64 63 64 65 67 67 67 66 67 69 68 67 67 67 67 67 66 67 67 68 68 69 69 70 71 70 71 71 72 72 72 71 71 71 71 73 73 73 73 73 73 74 74 75 76 76 77 77 81 71 68 65 63 63 65 70
67 66 65 63 65 64 64 65 65 65 66 66 67 67 66 66 67 68 66 65 65 65 65 65 65 66 67 68 69 69 69 70 71 71 71 71 71 70 71 71 71 71 72 72 73 73 72 73 74 74 75 76 76 75 76 78 71 65 64 60 60 64 71
68 67 67 65 64 66 65 66 66 67 66 66 65 65 64 66 67 66 65 64 64 63 64 64 64 65 66 67 68 68 69 69 69 69 70 71 71 71 71 71 71 71 72 71 72 73 74 74 74 74 75 76 75 77 76 77 75 63 62 62 58 66 71
67 67 66 65 65 65 65 64 66 66 65 65 64 64 65 65 65 66 64 64 63 64 63 63 64 65 65 66 66 67 68 69 69 69 68 68 69 71 71 71 71 72 72 72 72 73 73 75 74 74 76 77 78 79 79 78 76 63 58 59 57 64 71
64 64 64 65 65 64 64 64 65 64 64 63 62 64 65 65 65 66 65 63 63 64 64 64 64 65 65 65 65 65 68 68 68 68 68 68 68 69 69 72 72 72 72 71 71 72 73 74 74 74 75 76 77 79 79 76 76 73 59 55 55 58 70
64 65 64 64 64 66 63 63 63 62 62 60 62 64 64 64 64 63 63 63 62 62 64 65 65 66 65 65 65 65 66 66 66 67 68 68 68 69 69 70 70 71 71 71 71 72 72 73 73 74 75 76 77 77 77 77 76 74 64 59 56 56 63
64 64 65 66 66 64 62 62 61 62 62 62 64 64 63 62 62 61 61 60 61 62 64 65 65 65 65 65 64 66 66 67 67 68 69 69 69 67 67 68 69 71 70 70 71 71 71 72 72 73 74 75 75 75 74 75 77 75 69 64 59 55 54
60 60 61 61 61 64 63 59 59 60 61 63 63 62 62 62 60 60 60 59 60 62 63 64 64 64 65 66 66 66 66 66 67 68 68 69 69 67 66 67 69 70 71 70 70 70 70 70 71 71 71 72 71 72 73 73 75 71 73 66 61 59 55
59 60 61 62 63 62 62 59 59 59 60 61 60 60 59 59 59 60 59 58 60 61 63 63 63 63 64 65 65 65 65 66 66 66 66 67 67 67 66 66 68 69 71 70 70 69 68 68 70 70 70 69 69 71 71 73 73 73 71 69 62 58 56
59 58 59 59 61 62 61 59 58 59 59 59 59 58 57 57 58 60 58 59 60 60 61 61 62 63 63 63 63 64 65 64 64 65 66 65 65 66 66 66 66 66 67 68 68 67 66 67 68 68 68 68 69 69 70 71 72 73 72 68 65 61 59
58 58 58 58 58 60 59 58 58 58 58 58 58 59 59 58 58 58 59 59 60 60 60 60 61 61 62 62 63 63 64 65 64 64 65 65 65 65 65 65 65 65 65 64 65 64 65 65 67 67 66 65 66 67 68 70 70 71 72 73 72 68 62
56 56 56 57 58 59 57 56 55 57 57 57 57 56 59 59 59 59 58 60 60 61 60 60 60 61 61 60 62 63 63 63 63 64 64 64 64 65 67 65 64 65 64 63 62 63 64 65 66 65 65 65 65 65 66 67 67 68 68 69 70 70 69
55 55 54 55 56 56 54 53 54 55 56 56 55 56 57 57 57 58 59 60 60 60 59 60 60 60 58 60 61 62 62 63 68 67 63 63 63 63 64 64 65 63 63 63 63 62 62 63 63 63 64 64 65 65 65 65 66 66 66 67 68 67 66
54 54 55 55 55 57 53 55 55 55 56 55 55 55 56 57 58 58 58 59 60 59 59 60 61 60 59 59 60 60 63 63 63 63 61 61 61 63 62 63 63 63 62 64 64 64 64 62 62 64 63 63 63 63 63 65 65 67 63 64 57 57 59
54 55 54 54 55 54 56 56 54 55 55 54 54 55 56 56 57 57 59 59 60 59 58 60 60 58 58 58 58 60 61 62 62 62 62 61 61 60 61 67 59 58 61 62 66 60 52 53 60 61 60 60 62 63 62 63 66 61 53 49 48 47 47
54 53 54 53 53 54 52 53 57 54 54 54 55 55 56 56 56 57 59 59 59 58 58 57 58 60 59 59 59 60 63 61 61 62 60 59 59 60 60 60 61 53 53 55 57 52 47 47 48 50 54 58 59 61 58 57 54 50 49 47 46 45 44
55 54 54 53 53 52 54 54 54 54 54 54 55 54 54 56 57 57 58 58 59 58 57 57 57 56 56 58 58 61 62 60 61 62 62 60 58 59 59 58 57 59 54 51 52 52 50 48 48 48 49 51 53 56 59 57 54 51 48 45 44 43 42

ECMWFFLT1_sfc_temp_111.txt.gz
Temp
70 71 71 72 72 73 75 76 77 78 78 78 78 78 79 78 77 76 76 75 75 74 74 74 75 74 74 75 75 74 75 75 75 75 75 75 76 76 75 75 76 75 75 75 75 76 77 77 77 77 77 77 77 77 76 76 76 78 76 77 76 76 76
69 70 71 71 71 70 70 72 76 77 78 78 78 78 79 78 77 77 76 76 76 75 75 75 75 75 75 75 75 74 74 74 75 77 76 76 77 76 77 76 76 76 75 76 76 76 77 77 77 77 77 77 77 77 77 76 77 77 77 76 76 75 75
68 69 70 71 71 70 69 70 71 74 76 77 78 78 78 78 78 77 77 76 75 75 76 75 76 76 75 75 75 75 75 75 75 75 75 76 75 77 77 77 77 77 77 77 76 77 78 77 77 77 77 77 78 77 77 77 77 77 77 76 76 76 74
68 69 70 71 72 71 71 71 72 72 75 77 78 79 78 77 79 78 78 78 77 76 75 75 76 76 76 75 75 75 75 75 75 76 76 76 76 76 76 76 76 77 77 77 78 79 80 78 77 77 79 77 77 77 77 77 77 77 77 76 76 76 76
68 69 69 70 70 70 70 72 72 72 72 73 74 75 77 78 79 78 77 78 79 77 77 77 78 78 77 77 78 77 76 76 75 75 75 76 76 76 77 77 77 77 77 78 77 78 77 77 77 77 77 77 77 77 77 77 77 77 77 76 76 75 75
68 68 68 70 70 70 71 72 72 72 72 72 73 73 76 78 78 78 77 77 77 78 77 76 77 77 77 77 78 78 77 76 76 75 75 75 76 77 77 77 77 77 78 78 78 78 77 77 78 77 77 77 77 77 77 77 77 77 76 76 76 76 76
67 67 68 69 70 71 72 72 72 72 72 73 74 74 74 75 76 78 77 76 77 76 77 77 77 76 76 77 77 78 77 77 76 76 76 76 76 77 77 77 78 78 79 77 78 78 77 77 77 78 78 78 77 78 77 76 76 77 76 76 76 75 75
67 67 69 70 71 71 71 72 72 72 73 73 73 73 73 73 74 76 76 76 76 76 77 76 77 77 76 76 77 78 78 78 77 77 76 77 76 76 76 77 77 77 77 78 78 78 79 77 78 78 78 78 77 77 77 77 76 76 76 76 75 75 77
67 68 70 71 71 71 71 71 71 72 72 72 72 72 72 72 72 72 73 73 73 75 75 76 77 78 77 76 76 76 77 78 78 77 77 77 77 77 78 78 77 77 77 78 79 78 79 79 78 77 77 77 77 77 77 76 76 76 76 76 76 76 76
66 66 67 69 70 71 71 71 71 71 70 70 70 71 71 71 72 73 73 74 75 75 75 75 74 75 75 75 75 74 75 76 77 78 78 78 78 78 78 79 78 78 78 79 79 79 78 78 79 77 76 77 77 76 77 76 76 76 76 76 76 76 76
65 65 66 67 67 69 70 70 68 68 69 69 70 70 71 71 72 72 72 73 74 74 74 74 74 73 73 73 72 72 73 74 75 77 78 79 80 80 80 80 80 78 79 79 79 80 79 78 77 77 76 77 77 76 76 76 76 76 76 76 76 76 76
66 66 65 67 67 67 66 67 68 69 69 70 70 70 70 71 71 71 72 72 73 73 73 73 74 73 73 73 72 72 72 73 74 76 78 79 80 81 81 81 80 80 79 79 80 80 80 79 78 78 77 77 77 77 77 76 76 76 76 77 76 75 76
67 66 65 65 65 66 66 66 66 68 68 69 70 70 70 70 70 71 72 72 72 72 73 73 73 73 73 73 72 72 72 72 73 74 75 76 78 81 81 81 81 81 81 81 81 81 80 80 79 78 78 78 78 78 77 77 76 76 75 76 76 76 76
68 67 66 66 66 65 65 65 66 67 68 69 70 71 71 71 71 72 72 72 72 73 73 73 73 73 73 73 72 71 71 72 73 73 73 73 73 75 78 81 80 80 80 80 80 81 81 81 80 80 79 79 78 79 79 77 77 76 76 76 76 76 76
65 66 65 65 65 65 66 66 66 67 68 69 71 71 71 71 71 71 71 71 71 72 71 72 73 73 72 72 72 72 72 72 72 73 73 74 73 73 74 76 77 78 78 78 80 82 82 82 82 81 79 79 78 78 79 78 78 78 77 76 75 76 76
65 65 65 65 65 66 66 67 67 68 69 69 69 69 71 71 71 71 70 70 71 71 71 73 73 72 72 71 71 71 72 72 72 72 73 73 73 73 73 74 74 76 75 76 78 79 80 80 80 81 80 79 78 78 79 78 79 78 75 76 78 76 77
65 65 65 66 66 66 67 67 67 67 67 68 69 69 69 70 71 71 71 71 70 70 71 71 71 72 72 72 72 72 72 72 72 72 71 72 72 72 73 73 74 74 74 75 74 75 75 77 79 80 81 80 80 79 79 80 81 76 70 69 72 78 76
64 64 66 66 67 67 67 67 67 67 67 68 69 70 69 69 69 70 69 70 69 69 70 70 70 69 69 70 71 71 72 73 73 73 72 73 73 72 72 73 73 72 72 72 74 74 74 75 75 76 79 80 80 80 81 81 78 71 69 69 68 72 78
63 64 66 66 66 65 66 66 67 67 68 68 68 68 69 70 68 67 68 68 70 70 69 69 69 69 69 69 70 70 71 71 72 72 72 72 72 72 72 72 71 71 72 72 72 74 73 72 73 73 74 76 76 79 81 81 75 70 69 68 67 67 72
64 64 66 67 67 65 64 64 64 66 67 67 69 71 70 70 69 68 68 69 69 69 68 68 68 68 68 68 69 70 70 70 71 71 71 72 72 72 72 72 71 71 72 72 72 72 72 72 72 72 72 73 73 74 75 77 77 69 67 66 66 66 68
63 64 63 62 63 63 62 62 63 64 64 66 68 68 69 68 68 67 67 67 67 68 67 68 67 67 67 68 68 68 69 70 70 70 71 71 72 71 71 71 70 71 71 72 72 71 71 71 71 72 73 73 74 74 76 79 73 68 64 63 63 64 66
64 64 63 63 62 61 61 62 62 63 63 65 65 65 65 65 66 66 65 65 65 65 65 66 66 67 67 67 68 68 68 69 69 69 70 70 71 71 71 71 71 71 71 72 72 72 72 72 72 72 72 73 73 73 74 77 70 67 65 62 61 63 69
65 64 63 62 63 61 61 62 62 63 64 63 64 64 63 63 65 65 64 64 63 63 63 64 65 65 66 67 68 68 68 68 68 68 68 68 70 70 70 70 71 71 72 71 71 71 72 72 73 73 73 73 73 72 72 74 70 65 63 62 60 63 68
63 63 63 63 63 62 62 62 63 64 63 63 62 61 62 64 64 63 63 62 62 63 62 62 62 64 65 65 65 66 67 67 67 66 67 66 67 67 69 70 71 70 72 70 70 70 71 72 73 72 73 73 73 73 73 74 73 66 61 60 60 65 70
64 63 63 63 63 62 62 61 63 63 63 62 61 61 62 62 62 62 61 61 61 61 61 61 62 62 62 63 63 64 65 66 66 66 66 65 66 66 67 67 69 71 71 70 70 70 71 73 73 73 74 75 76 78 77 75 73 66 61 57 57 62 69
61 61 61 62 62 61 61 62 63 61 61 60 59 61 61 62 62 62 61 59 60 60 60 60 60 61 61 62 63 63 65 64 65 66 66 65 66 66 66 68 68 68 70 70 70 71 71 72 72 73 74 76 77 77 76 75 74 71 60 58 57 57 65
62 62 61 62 62 63 60 60 60 59 59 58 59 61 61 61 60 59 59 59 58 59 59 60 60 61 61 62 63 64 64 64 63 64 65 65 65 66 66 65 66 67 68 69 70 70 70 71 71 72 73 74 75 75 74 75 74 72 61 59 59 58 61
61 61 62 63 63 62 59 59 59 59 59 59 60 61 60 60 59 58 57 57 58 57 59 59 60 60 61 62 62 63 64 63 64 64 66 65 65 63 64 65 66 68 69 70 69 68 68 69 69 70 70 72 72 73 72 74 75 72 66 59 56 56 56
58 58 58 59 59 61 61 58 57 58 58 59 59 59 59 59 59 58 57 57 57 58 58 60 60 60 60 61 61 62 63 63 64 64 65 65 64 62 63 64 65 66 67 67 66 66 66 66 67 67 67 68 68 69 71 72 73 69 71 63 56 53 56
57 57 58 60 60 59 59 57 57 57 57 58 57 57 57 57 58 59 58 56 57 57 59 59 59 59 60 61 61 61 62 63 63 62 61 63 63 63 62 63 63 64 64 64 63 63 63 64 65 65 65 65 65 67 68 70 70 71 68 67 59 55 54
57 57 58 58 58 59 58 57 56 56 56 55 56 55 55 55 56 57 56 56 58 58 57 58 59 60 59 59 59 60 60 61 61 62 61 61 62 63 63 62 62 62 62 62 62 61 61 62 64 63 63 64 64 65 67 67 69 70 69 67 64 59 57
55 56 56 56 56 58 57 56 56 56 55 55 55 55 56 54 54 55 54 56 57 57 57 58 59 59 59 58 59 59 59 60 61 62 63 62 62 63 62 62 62 63 62 61 60 60 61 61 62 62 62 62 62 63 64 66 65 67 68 70 69 66 60
54 55 55 55 56 57 55 55 54 55 54 53 53 53 55 53 55 55 54 56 56 57 56 57 58 59 58 56 57 58 58 59 61 62 62 61 60 61 63 63 61 61 62 60 58 59 61 62 62 61 60 60 60 61 62 62 63 64 64 63 63 63 63
52 52 53 54 55 54 53 52 52 53 53 53 52 53 54 54 55 55 55 56 56 55 55 57 58 58 55 56 56 58 59 59 66 63 60 61 61 60 60 61 62 61 60 59 59 59 59 59 59 59 59 58 59 59 60 61 61 62 61 61 59 58 59
53 53 53 53 54 55 53 53 53 53 54 52 52 52 54 54 55 55 55 56 56 55 56 57 58 57 55 56 56 56 61 61 59 59 59 59 60 60 58 59 61 61 59 60 60 60 59 58 58 60 57 57 57 57 59 60 60 63 58 55 51 50 51
53 53 53 53 54 52 54 54 53 53 53 51 51 53 54 54 55 55 56 56 56 56 56 57 57 56 55 56 56 57 58 60 58 58 59 58 58 59 61 65 55 56 59 60 62 56 53 54 59 59 58 56 58 59 58 58 61 55 46 44 43 43 43
52 52 52 51 51 51 52 53 55 54 53 51 53 54 54 54 54 54 55 55 55 55 55 54 56 55 54 56 56 58 61 59 58 58 58 58 57 57 58 58 61 52 51 54 57 54 48 47 48 49 52 57 57 58 57 55 50 44 43 43 43 42 42
54 54 53 51 52 53 53 53 53 53 53 51 53 53 53 54 53 53 54 54 54 54 54 54 54 53 53 54 56 59 60 57 58 59 59 57 56 57 58 56 55 58 53 50 50 50 48 47 48 47 47 48 51 56 57 54 46 44 44 44 44 44 43

ECMWFFLT1_sfc_temp_117.txt.gz
Temp
79 79 79 80 82 83 83 83 83 84 83 83 83 84 85 85 83 83 83 81 81 81 81 81 81 82 82 83 83 83 84 84 84 85 84 85 85 85 85 86 86 85 86 86 86 85 86 86 86 86 86 86 86 86 85 85 85 87 86 86 86 86 86
77 79 80 79 81 82 83 83 83 84 84 84 84 83 85 84 83 83 82 82 82 82 81 81 81 82 82 83 84 83 83 84 84 84 85 84 84 84 86 85 85 85 85 86 86 86 86 86 86 86 86 86 86 86 86 86 86 86 87 86 86 86 86
77 79 79 79 80 81 82 83 83 84 84 85 85 84 84 83 83 83 82 82 81 82 83 82 81 82 83 83 82 83 84 85 84 85 85 86 85 88 86 86 86 87 87 87 86 87 87 87 86 86 86 86 88 86 86 86 86 86 86 86 86 87 85
77 78 79 80 80 81 82 82 82 83 85 85 85 86 85 83 85 84 84 84 82 82 81 82 83 83 83 82 82 83 83 84 85 87 87 87 87 87 86 85 85 87 86 86 88 88 89 87 87 86 85 86 86 87 87 86 87 86 86 85 86 86 85
77 78 78 78 79 80 82 82 82 82 83 84 84 85 85 85 85 85 85 85 86 84 85 85 86 85 84 84 85 85 84 85 85 86 87 87 86 86 86 87 87 87 87 88 87 86 85 86 87 87 86 85 87 86 86 86 87 86 86 86 85 86 87
76 76 77 78 78 79 80 82 84 83 84 82 83 84 85 86 85 84 84 83 84 85 85 85 84 84 83 85 85 85 85 84 84 85 86 86 85 86 87 87 88 88 89 87 88 88 87 87 88 88 88 89 89 89 89 88 88 88 87 86 86 87 88
74 75 76 77 78 79 80 80 83 84 83 83 83 84 86 86 84 85 85 84 84 83 84 84 85 84 84 84 84 84 83 85 84 85 86 87 86 86 86 87 87 89 90 88 87 88 88 87 87 87 87 89 88 89 87 86 87 87 87 86 85 86 86
70 72 74 77 78 80 80 79 80 82 82 83 83 82 84 85 86 84 83 83 83 83 83 83 84 84 83 83 84 84 85 86 86 86 85 86 86 86 88 87 87 87 87 88 88 88 88 87 89 88 88 88 88 87 88 86 86 88 88 87 86 86 89
70 71 72 74 77 78 78 79 80 81 80 80 80 81 82 82 82 82 82 82 82 82 82 83 83 86 84 83 83 84 85 86 86 86 85 86 87 88 90 89 89 88 87 89 90 88 88 89 89 87 87 87 87 86 87 86 87 88 87 87 86 86 88
70 69 70 72 74 73 75 78 78 79 78 78 78 79 80 80 81 82 82 81 82 82 82 83 84 84 82 83 83 85 85 85 86 87 87 87 87 87 89 90 90 89 88 89 91 90 88 88 89 87 85 86 86 86 86 86 87 88 88 86 86 86 86
71 70 70 70 70 71 73 76 77 76 77 77 78 78 79 79 79 80 81 81 81 82 83 84 84 84 84 83 83 82 83 86 86 86 86 87 88 87 88 89 90 89 89 90 90 90 90 88 88 87 86 87 87 86 86 87 87 87 88 88 88 88 88
69 70 70 70 70 70 71 73 75 76 76 77 78 78 77 78 79 80 80 81 82 82 82 82 83 83 82 82 82 82 81 82 85 86 86 86 87 87 87 88 89 89 89 90 89 89 90 89 89 88 87 87 87 88 87 86 87 86 87 89 89 88 88
68 68 69 69 69 69 70 72 73 74 74 76 77 77 77 77 78 78 78 79 80 80 80 80 81 81 82 82 82 81 81 82 84 85 86 85 86 87 87 88 89 89 89 90 89 89 90 91 89 88 88 87 88 88 87 87 87 86 86 87 88 88 87
66 66 68 69 69 69 69 71 72 72 73 75 76 76 76 77 77 77 77 77 78 79 78 77 77 77 78 80 80 80 81 82 82 82 82 83 83 84 86 87 87 87 87 88 88 89 89 90 90 90 89 89 88 88 88 87 87 86 86 86 87 88 88
67 67 67 66 67 69 71 70 71 71 72 73 74 74 76 76 76 76 76 76 76 76 76 76 77 75 74 75 77 78 80 80 80 81 80 80 80 81 83 83 84 84 85 85 87 89 89 90 90 89 89 89 88 88 88 89 88 88 87 86 86 87 88
70 68 67 66 66 67 69 70 71 71 71 70 71 73 74 74 74 74 73 73 74 73 73 74 76 74 73 72 73 75 76 77 78 78 79 77 77 78 79 82 83 84 84 84 85 85 85 86 87 88 88 88 88 88 89 89 89 85 79 80 87 87 89
69 67 67 67 67 67 68 69 69 70 70 70 71 71 70 70 71 72 72 72 73 72 72 74 73 73 72 72 74 74 74 73 73 75 76 76 75 76 77 78 79 80 80 81 82 82 82 84 85 87 88 88 88 88 90 90 91 79 71 69 71 83 86
66 66 66 68 68 68 67 67 66 67 67 68 69 69 69 70 70 71 69 70 71 71 72 73 74 73 72 72 73 74 75 74 73 73 73 73 74 76 77 77 77 78 78 80 82 81 84 84 83 83 86 87 88 88 89 90 75 68 69 69 67 72 83
66 66 66 67 67 67 66 65 66 66 66 67 67 68 69 69 69 67 68 68 70 71 71 71 72 72 71 72 74 75 75 75 75 74 74 73 74 74 75 76 76 77 78 78 80 81 81 81 82 83 83 84 83 85 86 87 68 66 66 67 66 65 74
65 66 66 66 66 66 66 66 66 65 65 66 66 67 67 68 67 68 69 68 69 69 70 69 69 70 70 71 72 73 73 74 75 74 75 75 74 74 75 75 75 76 77 78 78 78 79 81 81 81 80 81 81 82 84 84 70 63 63 63 64 64 71
64 64 64 64 64 65 66 67 67 66 65 66 66 67 67 68 69 69 68 68 68 70 69 69 69 69 70 70 70 71 72 72 73 73 74 75 74 74 73 73 73 74 75 76 77 77 77 77 78 80 81 83 85 84 85 79 61 60 59 60 62 62 72
66 64 64 64 64 65 66 66 65 65 65 66 66 66 67 67 68 69 67 69 68 68 70 70 70 70 71 71 71 71 72 73 72 71 72 73 74 74 73 72 72 72 73 74 75 77 77 78 79 79 79 79 80 80 78 74 60 59 59 58 60 63 82
69 67 67 67 67 65 66 68 68 68 68 67 66 66 66 68 69 69 69 69 69 69 70 70 70 70 70 70 71 72 72 73 73 72 72 72 73 72 71 72 72 72 73 73 73 74 74 76 76 77 77 77 77 75 73 74 64 58 57 58 59 71 81
72 71 69 68 68 68 67 68 69 69 69 67 66 67 68 70 69 68 68 69 70 69 70 71 70 71 70 71 73 72 72 72 72 71 72 73 74 73 71 72 73 74 75 73 71 70 71 72 73 74 75 76 75 75 74 73 66 56 56 57 59 72 78
72 71 71 71 70 69 69 68 69 69 69 69 67 67 68 68 68 68 67 69 70 69 69 69 69 69 70 71 73 74 74 74 73 73 72 71 71 73 73 73 73 74 74 72 71 70 70 70 70 71 72 74 74 73 73 73 69 57 56 57 58 69 77
69 69 69 70 71 71 69 69 69 69 67 66 66 69 70 71 70 67 66 66 68 67 67 68 68 70 71 71 72 74 74 75 74 74 74 72 72 72 72 73 73 73 73 73 73 72 71 71 70 70 71 74 74 74 73 72 72 65 55 54 56 60 72
71 71 70 71 70 69 69 68 67 66 66 65 67 70 71 71 69 67 67 67 68 67 68 69 70 71 72 72 73 73 73 75 74 74 74 73 72 72 72 73 72 72 72 72 73 74 74 74 73 73 73 75 76 75 74 74 72 66 55 54 54 56 64
70 71 71 69 68 69 69 69 67 67 67 68 70 71 72 70 67 66 67 67 67 68 70 70 71 71 72 71 72 73 74 74 74 75 76 74 74 72 72 72 73 73 73 72 72 72 72 73 74 74 73 73 73 73 72 73 72 71 61 55 54 53 57
68 68 68 68 68 70 70 68 68 68 69 70 71 71 71 70 67 66 66 65 65 68 70 70 71 71 71 70 70 70 71 72 72 74 75 75 74 73 72 73 73 73 73 72 72 72 71 71 72 73 72 72 72 72 72 71 72 66 68 58 53 52 53
67 68 69 71 71 70 70 67 67 68 69 69 68 68 69 68 66 66 65 64 67 69 70 70 70 70 70 70 70 70 71 72 72 72 73 73 73 73 72 71 72 72 72 72 72 71 70 70 71 72 73 72 72 72 72 72 72 69 65 64 55 52 51
66 67 68 68 69 69 69 68 66 67 67 67 67 67 68 68 66 65 64 65 67 68 69 69 69 69 69 69 70 70 71 71 72 72 72 73 73 72 72 72 72 71 71 72 71 71 70 69 70 69 70 70 70 72 72 73 74 74 69 64 62 56 53
62 65 65 66 66 67 68 68 68 66 65 65 67 67 67 68 68 64 63 65 66 68 69 69 68 68 68 69 69 70 72 72 73 72 72 73 73 73 73 73 72 71 70 71 70 70 70 69 70 70 70 69 70 70 71 72 72 72 72 70 69 66 59
63 64 64 63 64 65 66 67 66 65 65 64 66 68 68 67 67 66 66 66 68 69 69 68 68 67 67 67 69 70 70 70 72 73 73 73 74 74 74 74 73 72 70 70 70 70 70 70 70 70 70 69 70 70 70 70 70 71 71 70 71 72 71
63 64 64 65 65 66 65 65 64 64 63 63 64 65 66 66 65 66 67 68 69 70 68 67 67 67 67 68 69 69 70 70 68 70 73 73 74 74 74 74 74 72 70 70 70 69 69 70 69 69 70 71 70 70 70 70 70 69 68 68 67 70 72
63 63 63 64 64 65 64 64 64 63 63 62 64 65 65 65 66 67 66 67 68 68 67 65 65 66 67 68 69 68 68 69 70 71 72 72 72 72 72 72 74 72 70 71 71 70 71 71 69 69 70 71 70 69 70 69 69 67 55 56 51 55 63
62 62 63 64 64 64 64 63 62 61 61 61 63 64 64 64 64 66 68 67 67 67 66 65 65 65 65 66 67 67 68 69 69 69 70 71 72 71 69 60 52 59 71 70 62 49 46 53 68 68 71 70 70 70 69 69 67 51 45 44 43 43 44
62 61 60 60 61 62 63 62 62 61 60 61 62 63 63 63 64 64 66 66 67 67 66 65 65 65 65 66 66 66 67 68 68 68 68 69 69 69 68 68 66 47 46 56 58 50 41 39 41 44 50 62 70 64 50 51 47 44 42 41 42 41 41
64 63 62 61 60 60 62 62 62 62 61 62 63 63 63 63 63 64 65 65 66 66 66 66 65 64 65 66 66 65 66 67 67 67 67 67 68 68 68 69 67 65 50 46 50 47 42 43 43 43 45 46 51 62 67 54 47 42 42 41 41 42 41

ECMWFFLT1_sfc_temp_120.txt.gz
Temp
87 87 87 88 90 91 90 91 90 91 91 91 91 93 93 93 92 91 90 88 87 87 87 87 87 87 87 88 88 89 89 89 90 90 89 89 90 89 89 91 90 89 91 91 90 90 90 90 90 91 90 90 90 90 89 89 89 91 90 89 90 90 90
86 87 88 88 89 90 90 91 91 91 91 92 92 91 93 93 91 91 90 89 88 88 88 88 87 87 88 88 89 89 88 89 89 89 90 89 89 89 91 90 90 89 89 91 91 91 91 91 91 90 90 90 90 90 90 90 89 90 91 90 90 89 89
86 87 87 88 88 90 90 92 91 92 92 93 94 93 93 91 91 90 90 90 88 88 89 89 88 88 88 88 88 88 89 90 90 90 91 92 91 93 92 91 91 91 92 92 91 92 93 92 90 90 91 91 92 90 90 90 89 90 90 89 90 90 88
86 87 88 88 88 89 90 90 90 91 93 94 94 94 93 90 92 91 91 91 90 89 88 90 90 90 89 88 88 88 89 89 90 92 93 93 93 93 92 91 91 93 92 92 94 93 96 92 92 90 89 90 90 91 91 90 92 91 90 89 90 90 89
85 88 88 87 88 89 90 91 90 90 91 92 92 92 92 93 93 93 92 94 95 92 92 92 94 92 91 90 91 91 90 90 90 92 93 93 92 92 92 93 93 93 92 94 93 91 90 91 92 91 91 90 91 91 90 91 91 90 89 89 89 90 91
84 86 87 87 88 89 89 91 92 91 92 90 90 92 94 94 93 92 92 91 92 93 93 92 92 92 91 92 92 92 91 90 90 90 91 92 91 93 93 92 94 94 94 93 95 94 92 93 93 93 93 94 94 94 94 92 92 92 90 90 89 91 92
82 84 86 87 89 90 90 90 93 93 91 91 91 92 94 94 91 92 94 92 92 92 93 92 93 91 91 92 91 91 90 91 90 91 92 93 93 92 92 93 93 95 95 94 94 94 94 92 92 92 93 94 93 94 92 90 91 91 90 89 89 89 89
81 81 84 88 90 92 91 90 92 93 91 91 90 90 92 94 93 91 90 90 90 91 90 90 92 91 89 90 92 92 91 92 93 92 92 93 93 92 94 94 93 93 93 94 93 94 94 93 94 93 93 94 93 92 93 90 89 93 92 90 89 90 94
80 81 83 85 89 92 92 91 91 92 90 89 88 88 89 90 89 89 89 89 89 89 89 90 91 93 90 90 90 90 92 93 93 92 92 93 93 95 96 96 94 94 93 95 96 94 94 95 95 92 92 92 91 90 91 90 91 92 92 90 89 89 91
75 78 81 84 86 88 88 90 89 89 87 86 86 87 87 88 88 88 88 88 88 88 88 89 90 91 89 89 90 91 92 91 93 94 94 94 94 94 95 97 96 95 94 96 97 96 94 94 95 92 90 91 90 90 90 90 92 92 92 90 91 90 89
73 74 76 77 78 81 85 88 87 85 86 85 85 86 86 86 86 87 87 87 87 88 89 90 91 91 90 90 89 90 90 92 93 93 93 94 96 95 95 96 97 96 95 96 96 97 96 93 94 92 91 93 91 91 90 91 92 91 93 93 93 92 92
72 72 73 76 76 76 78 82 83 84 85 85 86 86 85 85 86 86 86 87 88 87 88 89 89 89 88 88 89 87 88 89 92 93 93 94 96 96 96 95 95 96 96 96 95 95 96 95 95 94 91 92 92 92 91 91 91 90 91 94 94 93 93
76 72 71 73 74 74 75 77 79 82 82 83 86 86 85 84 85 85 86 86 87 87 87 87 87 87 87 88 88 86 86 88 91 92 93 93 94 96 96 95 96 95 96 96 95 95 96 97 94 94 94 92 93 94 92 91 92 90 91 92 92 93 92
76 76 74 72 72 72 74 75 77 79 80 81 83 84 84 85 85 85 85 85 86 87 87 87 86 86 86 87 87 86 87 88 88 89 90 92 91 92 94 95 95 94 94 95 94 95 96 96 96 96 95 95 94 94 93 92 92 91 90 91 92 93 93
76 76 77 75 71 71 72 72 73 74 76 79 81 82 83 84 85 85 85 85 85 85 86 86 85 85 85 85 85 86 87 87 88 88 88 88 88 89 90 92 92 92 92 91 93 97 96 96 97 95 95 95 94 94 95 95 94 94 92 92 91 92 93
75 76 77 77 76 72 71 71 72 72 74 75 77 79 82 83 84 84 83 83 84 84 84 84 83 83 84 84 84 85 86 86 86 86 86 86 86 86 87 90 90 91 91 92 92 92 92 93 94 95 95 94 93 93 95 96 96 91 86 86 92 93 95
74 75 76 76 75 74 73 73 72 72 72 73 75 77 79 80 81 82 82 82 82 81 81 82 82 82 82 81 81 82 83 83 84 84 84 85 85 84 85 86 87 87 88 89 90 89 89 90 91 93 95 95 94 94 96 97 97 80 75 76 77 88 91
72 72 74 74 74 75 74 73 72 72 72 73 74 73 74 74 76 78 78 80 80 78 80 80 80 80 79 78 76 77 78 79 80 81 82 83 83 83 83 83 83 84 85 87 89 87 90 90 89 90 93 94 95 95 95 95 69 68 69 73 72 77 88
72 73 73 72 71 72 73 72 72 72 73 72 72 72 72 74 76 76 78 78 78 79 80 79 80 79 78 77 76 76 76 77 77 77 78 79 80 81 82 81 81 82 83 84 86 88 87 87 89 89 89 91 90 92 94 92 66 66 66 68 68 68 77
72 72 71 71 70 69 70 69 68 67 67 67 68 69 70 71 70 72 74 75 75 76 76 76 77 77 76 76 77 78 79 79 79 79 79 78 78 77 78 79 80 81 82 83 83 83 84 87 86 87 86 88 88 88 91 87 67 64 64 65 65 66 71
70 70 70 70 69 68 67 66 65 66 66 67 67 68 68 68 69 69 70 70 70 73 72 74 74 73 73 74 75 77 79 79 79 79 79 80 79 79 78 79 79 80 81 82 82 82 81 81 82 84 85 87 89 88 89 78 61 61 61 63 62 64 69
71 71 71 70 68 67 67 67 67 66 65 67 68 68 69 68 69 69 68 70 69 70 71 70 70 72 74 75 76 76 76 76 76 77 78 78 78 77 77 78 78 78 78 79 81 82 82 82 83 83 84 85 86 87 81 75 59 60 60 60 62 63 79
73 71 70 70 69 67 67 69 69 69 68 68 66 66 67 69 69 69 69 68 69 69 69 70 69 71 74 75 76 77 78 78 77 77 77 78 77 77 77 77 77 78 79 79 78 77 78 79 80 81 83 84 83 83 79 76 63 57 58 59 58 70 83
72 70 69 69 70 72 71 72 71 71 71 70 69 69 69 70 68 69 68 67 68 68 69 70 70 72 74 75 76 76 77 78 78 78 78 78 77 78 78 77 76 74 76 77 76 75 76 76 77 79 79 78 77 78 78 75 64 56 56 57 56 70 84
73 71 71 71 71 72 73 73 73 72 71 71 70 70 72 71 71 70 68 69 68 68 68 68 69 71 73 76 78 79 79 79 79 79 79 78 78 78 76 75 75 77 77 76 75 73 72 73 74 74 74 74 75 75 76 75 69 57 55 55 55 68 82
69 70 72 73 75 75 72 71 72 73 72 70 71 74 74 75 74 71 70 69 69 67 67 67 69 73 75 77 78 80 79 79 78 78 77 76 77 78 79 79 79 78 78 79 78 75 72 71 72 72 72 73 73 73 73 72 71 64 54 54 56 56 74
71 72 73 75 74 72 73 73 74 75 74 74 75 77 77 76 75 73 72 71 70 69 69 70 72 75 77 78 79 79 79 79 78 77 77 77 77 78 79 80 79 79 78 79 81 81 78 77 76 75 73 72 72 72 72 73 71 64 54 54 54 55 64
75 76 77 76 74 74 74 74 72 72 73 74 76 76 76 74 71 71 72 72 70 71 73 73 73 75 77 77 79 80 80 80 80 80 79 77 77 77 77 79 80 80 80 80 78 77 77 77 78 78 77 76 75 74 72 72 72 71 59 54 52 53 54
76 75 75 74 74 76 75 73 73 74 76 77 77 76 75 74 70 70 71 70 71 73 74 74 74 75 75 76 77 77 78 78 79 80 82 80 79 78 77 78 79 79 79 78 78 77 76 76 77 77 76 77 78 77 76 76 73 67 68 57 52 51 54
76 76 77 79 78 77 77 74 75 76 77 78 77 76 75 72 70 69 68 68 72 74 74 74 74 74 75 75 76 77 78 79 78 78 78 78 78 78 77 77 77 78 79 78 78 78 77 77 78 79 79 77 76 77 77 78 77 69 66 64 55 53 52
75 76 77 77 78 77 78 77 75 76 75 76 75 75 74 74 70 69 68 69 72 72 72 73 74 74 74 74 75 76 77 77 78 78 78 78 78 77 78 77 78 77 77 78 78 77 76 76 78 76 77 77 77 77 78 79 81 79 69 64 60 56 55
74 75 76 76 75 76 77 77 77 75 73 73 74 74 73 74 73 69 69 72 72 72 72 72 72 73 73 75 75 76 77 77 78 78 78 78 79 79 79 78 78 77 76 76 76 76 76 76 77 78 77 76 77 77 77 77 78 78 77 72 69 66 58
70 71 71 71 73 74 75 76 74 73 73 72 74 76 76 74 74 72 72 72 74 74 72 71 71 70 71 72 75 75 77 77 79 79 79 79 80 81 80 79 78 77 76 76 77 76 77 77 76 77 77 76 77 77 76 76 76 77 77 77 78 80 76
70 70 71 72 73 73 73 73 72 71 70 70 71 73 73 73 72 73 74 76 76 75 72 71 71 71 72 73 74 75 76 76 72 75 80 79 80 81 80 80 80 78 76 77 76 75 74 76 76 75 77 77 77 76 76 76 76 74 73 72 72 75 78
67 69 70 71 71 72 71 71 71 70 70 69 71 72 72 72 73 74 73 73 74 72 71 71 70 71 72 73 74 73 74 75 76 78 78 78 78 78 74 75 80 78 77 75 73 71 74 76 75 75 77 77 75 75 76 76 73 68 55 56 50 55 65
64 66 68 70 71 71 71 71 69 68 67 67 68 69 69 69 70 72 75 73 73 72 71 70 70 70 71 72 72 72 74 75 76 76 76 78 78 76 73 61 52 60 73 75 62 50 45 52 68 69 73 76 75 71 72 71 66 49 43 42 41 42 43
61 61 63 66 68 69 69 69 69 69 68 68 68 68 68 68 69 70 72 72 72 72 71 70 70 70 71 71 71 70 72 73 73 73 74 75 75 74 72 73 69 48 44 54 56 49 41 40 41 45 50 63 73 64 50 51 46 42 41 41 41 40 40
62 63 63 62 63 64 66 67 68 69 68 69 69 69 69 69 69 69 71 71 71 71 70 70 70 70 71 72 71 69 71 73 72 72 73 73 74 74 73 73 69 67 50 44 48 47 42 41 41 41 44 44 52 65 67 53 45 41 42 41 41 41 40

ECMWFFLT1_sfc_temp_123.txt.gz
Temp
90 89 88 89 91 92 93 92 92 93 93 93 93 93 95 95 94 92 92 89 88 87 88 88 89 89 89 89 89 90 90 90 90 90 90 90 91 90 90 92 91 90 92 91 89 90 91 92 91 92 91 91 91 91 90 90 90 92 91 91 90 89 92
89 90 90 90 90 91 92 92 92 93 93 93 93 93 94 95 93 93 91 90 89 88 89 89 88 89 89 89 90 90 89 90 90 89 91 90 90 90 92 91 91 89 91 90 92 91 91 92 92 91 91 91 91 91 91 91 90 91 92 90 91 90 90
89 89 89 89 90 91 92 93 93 93 93 94 95 94 94 92 94 93 92 91 90 89 90 90 89 90 90 89 90 90 90 91 91 91 91 92 90 94 93 92 92 93 93 93 92 93 94 93 91 91 91 91 93 91 91 91 90 91 90 89 91 91 89
88 89 89 89 90 90 91 92 91 93 94 95 95 96 95 93 95 94 94 93 91 90 89 91 91 91 91 89 90 90 90 90 91 93 93 93 92 94 92 91 91 92 92 93 95 95 96 93 92 91 91 91 91 92 92 91 92 91 91 90 91 91 89
89 90 89 89 90 91 92 92 92 92 92 94 94 94 95 96 97 96 95 96 96 93 94 94 95 93 92 92 93 93 91 92 92 93 93 93 90 93 94 94 94 94 93 94 93 92 91 92 93 91 91 90 91 91 91 91 92 90 90 90 90 91 92
88 89 89 89 90 91 92 93 94 93 94 93 93 95 97 97 96 96 95 95 95 95 94 93 93 92 92 93 92 93 92 91 91 92 91 92 93 94 94 94 95 94 91 93 94 94 93 94 93 92 93 93 94 94 93 92 93 93 91 90 90 92 93
86 88 89 90 90 92 92 93 95 96 94 94 94 95 97 97 94 95 96 95 96 95 95 94 95 93 92 93 92 92 91 93 92 93 94 95 94 93 93 93 94 95 96 94 94 93 95 93 93 92 93 95 93 94 92 91 91 92 91 90 89 90 90
84 86 89 91 93 94 93 93 94 95 94 95 94 94 95 96 97 95 93 93 93 93 92 92 94 93 91 91 93 93 93 94 94 93 94 95 95 94 94 95 94 95 95 95 94 95 95 94 95 94 94 95 94 93 94 91 90 94 93 90 90 90 94
80 79 79 86 94 95 95 94 94 94 93 92 91 90 92 91 91 92 92 92 93 93 92 93 94 96 92 92 92 92 94 94 94 93 94 95 95 95 97 96 96 95 95 96 96 95 95 96 96 93 93 93 93 92 92 91 92 93 93 91 90 90 92
78 76 75 73 87 93 93 94 94 93 92 91 89 89 91 92 91 91 91 91 92 92 92 92 94 94 91 92 92 93 94 93 94 95 95 95 96 96 97 98 96 96 96 97 98 95 95 95 96 94 91 93 91 91 92 91 92 93 93 92 91 91 90
78 78 80 83 87 90 92 93 92 90 90 88 89 89 90 90 90 90 90 90 91 91 93 94 94 95 93 92 91 91 92 94 95 95 95 96 97 97 97 98 98 97 96 97 97 98 97 94 95 93 92 94 92 92 91 92 93 92 94 93 93 92 93
78 77 76 80 83 87 88 88 89 89 89 88 89 89 89 89 90 89 89 90 91 91 92 92 92 92 90 91 91 90 90 91 94 95 95 96 98 98 97 98 98 98 97 98 96 96 98 96 96 95 92 93 93 93 92 92 93 91 92 95 94 93 93
80 78 77 77 78 80 81 83 85 86 86 87 89 90 89 89 89 89 89 90 90 90 90 91 90 91 90 91 91 89 89 91 94 95 96 95 97 99 98 98 98 98 98 98 97 97 97 97 95 95 95 93 94 95 92 92 93 91 91 93 93 94 93
78 81 80 78 78 78 78 79 80 82 84 86 89 90 89 89 89 88 88 88 89 90 90 90 89 89 89 89 90 89 90 91 92 92 94 95 94 96 99 99 98 97 96 96 96 97 97 97 97 97 96 96 95 95 94 91 92 92 91 92 93 94 94
79 79 79 79 77 77 78 77 78 80 81 83 85 86 88 88 89 88 88 89 88 89 89 89 88 88 88 88 89 88 88 89 90 91 92 93 93 93 94 96 96 96 96 95 96 99 98 98 98 96 96 95 95 94 96 96 95 96 93 92 92 93 94
77 79 82 81 80 78 78 78 79 78 79 80 82 83 87 88 87 88 87 87 87 87 88 88 87 86 87 87 88 88 88 89 89 89 89 89 89 89 91 93 94 96 95 95 95 94 94 95 96 98 96 96 95 95 97 97 98 93 89 88 92 92 94
79 80 81 81 81 80 78 79 79 79 77 78 80 82 84 85 87 87 87 87 88 87 87 87 86 86 86 86 87 87 87 88 87 88 87 88 88 88 88 89 91 91 92 92 93 92 91 94 95 96 98 97 97 95 97 98 95 81 78 79 82 92 93
81 79 79 80 80 80 79 79 78 78 78 78 79 81 83 83 85 87 86 88 87 87 88 86 86 85 85 86 86 86 86 86 86 86 87 87 86 87 87 87 88 88 89 90 92 91 93 93 93 93 96 97 97 97 97 95 70 68 70 73 73 80 90
79 80 80 78 79 79 78 77 77 77 77 78 77 77 79 81 83 83 84 85 86 85 84 84 84 84 84 83 83 84 84 85 85 85 85 85 85 85 86 85 86 86 86 87 89 91 89 89 91 92 92 94 94 96 97 85 67 66 67 67 68 68 80
76 76 75 75 75 73 74 73 72 71 71 73 74 73 73 75 74 73 74 75 77 80 81 81 82 82 82 82 82 82 82 82 82 83 83 84 84 84 84 84 84 85 86 86 86 86 87 90 89 91 90 91 92 92 93 80 67 64 64 66 66 67 74
73 72 71 71 72 73 74 73 73 73 72 71 71 72 71 70 71 72 71 72 72 72 72 75 75 76 78 80 80 81 81 81 81 81 82 81 82 83 83 83 83 83 84 85 84 84 84 82 79 81 85 91 92 91 82 74 61 63 63 63 64 64 73
73 72 71 72 71 72 72 72 71 72 71 71 72 70 70 69 70 69 69 71 70 70 72 73 73 74 75 77 78 80 81 81 81 82 81 80 80 80 81 82 82 83 83 82 82 80 77 77 78 77 78 78 77 74 79 73 59 60 60 60 62 65 82
73 72 73 73 73 71 72 72 71 71 72 72 72 71 70 70 71 70 69 69 69 70 71 72 73 74 75 76 77 77 78 80 81 79 79 76 76 79 80 80 81 82 82 81 82 77 75 76 76 74 74 75 75 74 74 76 63 57 57 59 57 71 84
75 75 75 73 73 73 72 72 72 72 72 71 71 72 71 70 69 69 68 68 68 68 68 70 71 73 73 74 75 76 77 78 78 77 75 75 75 76 80 80 80 80 80 78 74 73 75 77 75 75 75 75 74 75 74 71 64 57 56 57 56 67 81
75 75 74 75 75 75 76 75 75 75 74 73 71 71 72 70 68 67 66 67 67 68 67 67 68 70 72 73 75 77 78 79 78 75 74 75 75 77 78 78 78 78 78 77 77 76 76 75 74 73 74 73 73 74 73 72 68 57 56 55 55 66 79
73 75 77 78 78 77 75 75 76 77 76 75 73 75 74 74 71 67 66 67 68 67 67 67 68 69 71 72 74 75 76 77 76 76 76 75 75 76 76 78 79 79 79 79 81 81 78 76 76 74 73 73 72 72 71 70 70 64 54 54 55 56 71
76 78 77 77 76 75 77 77 77 76 76 75 77 79 78 75 72 69 69 69 68 68 68 69 70 70 70 70 72 75 76 77 77 77 77 77 78 78 78 79 80 81 81 82 82 82 81 80 78 76 73 73 71 70 71 73 71 65 54 54 54 55 63
77 77 77 75 75 76 76 76 74 74 75 76 79 78 77 76 73 72 72 71 70 71 74 73 72 71 71 71 71 74 76 77 77 79 78 78 80 79 79 80 81 82 82 83 81 80 80 81 82 81 78 77 75 74 74 74 72 72 60 54 53 54 56
70 70 69 69 70 73 72 72 72 73 74 76 76 76 77 75 72 72 72 71 72 75 75 74 73 73 72 72 73 74 74 75 77 77 79 79 80 79 79 80 80 79 80 79 79 78 78 79 80 81 80 79 79 78 77 75 74 69 70 58 54 53 57
72 73 75 77 78 77 77 73 73 75 78 78 78 77 76 73 71 71 71 71 75 75 75 74 72 73 74 73 74 75 77 77 77 78 79 79 78 78 78 79 80 80 80 80 81 81 80 79 80 81 81 80 79 79 78 78 76 70 68 67 57 56 53
75 76 77 77 78 78 78 78 77 77 76 77 76 75 74 74 72 71 70 72 74 74 75 74 74 74 74 75 76 76 77 78 79 79 79 79 78 78 78 78 79 78 78 80 80 79 79 78 80 79 79 79 80 81 81 81 79 77 71 67 63 57 59
76 77 77 77 78 78 79 79 78 76 74 74 76 75 75 74 74 70 71 73 74 74 75 75 75 74 74 75 76 78 79 79 80 80 80 80 81 80 81 80 80 79 78 78 78 78 77 77 79 80 79 79 80 80 80 80 81 79 76 72 73 69 60
75 75 75 75 77 78 78 78 76 74 74 74 76 78 79 77 76 74 74 74 76 76 74 73 73 73 73 74 76 77 78 79 80 81 81 81 83 83 82 81 81 79 77 78 79 78 78 79 78 78 79 78 79 79 78 78 79 80 79 76 76 79 76
70 70 72 75 75 77 77 76 74 73 72 72 74 76 76 76 75 76 77 78 78 76 74 73 73 73 74 74 76 77 77 77 75 77 81 82 84 84 83 83 84 80 78 77 76 77 77 79 78 78 80 80 79 78 78 78 76 72 71 71 70 73 75
71 70 68 70 72 74 73 74 73 73 73 73 75 75 75 76 77 77 76 76 76 75 74 73 72 73 75 76 76 75 76 77 78 79 80 80 79 74 72 73 75 77 77 73 72 70 71 75 78 78 80 81 78 78 78 76 68 65 55 57 50 55 65
69 70 71 73 73 73 72 72 72 72 71 71 73 73 73 73 74 76 78 76 75 75 73 72 73 73 73 74 74 75 76 77 79 79 79 80 80 75 69 56 51 59 73 73 59 48 47 55 68 67 71 76 73 71 71 69 65 50 43 42 42 42 43
69 68 67 69 70 71 72 72 72 71 69 70 71 72 72 72 73 74 75 75 75 74 73 73 73 73 74 74 73 72 74 75 75 75 75 78 78 76 74 74 65 45 45 53 53 48 41 41 41 44 50 64 71 58 50 51 46 42 42 42 42 41 41
71 70 67 67 67 68 70 71 72 71 71 71 72 72 72 72 73 73 74 74 74 74 73 73 73 73 74 75 73 72 74 75 74 75 75 75 75 76 75 74 71 69 49 43 49 47 42 41 41 42 44 45 53 65 63 50 43 41 43 41 42 42 40

ECMWFFLT1_sfc_temp_129.txt.gz
Temp
80 80 80 79 84 83 84 83 84 84 84 85 85 85 84 84 83 82 81 80 79 78 79 80 80 80 79 79 80 80 80 80 81 80 80 80 81 80 79 80 80 79 80 79 80 80 81 83 82 83 82 82 81 81 81 81 81 83 81 80 80 79 79
79 80 81 79 82 82 83 84 84 85 84 85 86 85 85 84 83 82 81 80 80 79 80 80 80 80 79 79 80 80 80 80 81 82 82 80 81 80 81 80 80 80 80 81 81 82 83 83 83 83 82 82 81 81 82 81 81 81 81 80 80 80 80
78 80 81 79 81 82 82 84 84 84 84 85 86 86 85 83 83 83 81 81 80 80 81 81 80 80 80 80 80 80 81 81 81 82 81 81 81 83 82 81 81 81 82 82 82 83 84 82 82 83 83 83 82 82 81 81 81 81 81 80 80 80 79
78 81 81 80 81 82 82 83 83 83 85 86 86 86 84 83 85 84 83 83 81 80 80 81 81 82 81 81 80 80 81 81 82 83 84 83 82 82 82 81 81 82 82 82 85 85 88 84 83 82 84 82 81 82 82 82 82 81 81 81 80 80 79
75 80 81 79 81 81 83 83 83 82 84 84 86 85 84 85 86 85 84 84 84 82 82 83 84 83 83 82 84 83 82 83 83 83 84 84 83 83 83 83 82 83 82 84 83 83 81 83 83 82 82 82 81 82 82 81 82 82 80 81 80 80 80
74 78 80 80 81 81 82 83 85 83 85 84 85 83 85 86 85 85 84 84 84 84 84 83 83 83 82 84 85 85 83 82 82 82 82 83 82 83 83 83 84 83 83 84 84 84 83 84 83 82 83 83 83 84 83 82 82 83 81 81 81 81 81
72 75 80 81 83 82 83 84 86 86 85 84 86 84 86 86 84 85 85 84 84 83 84 84 84 83 82 84 83 83 82 83 83 83 83 84 83 83 82 83 84 84 84 83 84 84 84 83 84 83 83 84 82 84 83 81 81 81 81 80 80 80 79
73 74 79 83 84 84 85 84 86 85 85 85 85 84 86 86 85 84 84 83 84 83 83 83 84 83 82 83 84 84 84 84 84 84 83 84 83 82 83 84 83 84 84 85 84 85 86 85 86 84 84 85 83 82 83 82 81 83 82 81 80 80 85
74 73 73 82 85 86 85 85 86 85 84 83 84 83 84 84 83 83 83 83 83 83 82 83 83 85 83 83 82 82 85 85 84 84 84 85 84 84 86 85 85 85 85 85 85 84 86 85 86 83 84 83 83 82 83 81 82 83 82 81 81 80 83
73 74 72 72 83 84 84 85 86 83 83 82 81 81 82 82 83 83 83 83 83 83 82 83 83 84 82 82 82 84 85 83 85 85 85 85 85 85 86 88 86 86 86 86 86 86 84 85 86 85 83 84 82 82 82 82 83 83 83 82 82 81 81
71 71 71 71 73 80 82 85 85 81 82 81 81 82 80 80 82 82 82 83 82 83 83 85 84 84 84 83 82 82 83 84 85 86 85 86 86 87 87 88 87 86 87 87 86 87 86 84 84 84 83 86 82 82 81 82 82 82 83 83 83 83 83
71 71 70 72 73 75 79 81 80 79 80 79 82 81 79 80 81 81 82 82 83 83 83 84 82 83 82 82 82 80 81 82 84 86 86 86 87 87 88 88 87 87 87 87 87 85 87 86 86 85 84 83 83 82 82 81 82 81 82 84 84 84 84
72 70 70 71 71 73 73 75 77 78 79 80 81 81 80 80 80 80 82 81 83 82 82 83 81 82 81 82 82 79 79 82 85 84 86 86 86 87 88 89 89 88 88 87 87 87 87 86 85 83 85 84 84 84 83 82 83 82 82 83 83 83 83
73 71 72 70 72 72 73 73 76 77 78 79 79 81 80 79 81 81 81 80 81 82 82 83 81 81 81 81 80 79 80 81 81 82 82 85 84 84 86 89 89 88 87 87 86 87 87 86 86 85 85 85 85 83 84 83 83 82 82 82 83 83 82
68 69 71 72 71 72 73 73 74 76 78 77 77 79 79 79 78 77 78 79 79 82 80 81 80 81 80 80 80 79 80 79 79 80 81 81 82 84 83 84 86 86 86 86 87 89 87 88 87 83 83 84 83 83 84 85 84 84 83 83 83 83 82
69 69 70 71 72 73 73 73 74 75 75 74 73 74 74 74 74 74 74 74 74 76 77 78 79 80 79 79 78 79 79 79 79 79 80 80 79 81 81 83 82 84 85 85 86 85 85 84 84 85 85 83 83 83 86 85 87 82 81 84 84 82 85
68 68 69 69 69 69 70 72 73 73 72 72 72 71 71 73 73 73 73 73 74 74 73 73 73 77 80 78 78 79 79 79 79 79 79 78 77 78 79 79 79 80 81 82 83 83 83 84 85 85 85 85 85 84 86 83 74 71 66 70 78 85 82
65 66 67 69 69 69 69 69 69 69 70 72 72 72 72 71 72 72 73 74 74 74 76 74 74 74 75 75 75 77 77 79 79 79 78 78 78 77 78 78 78 79 79 80 81 80 81 81 82 82 84 86 84 79 74 71 66 64 65 67 70 78 79
65 67 67 68 68 68 69 69 69 69 70 71 70 71 72 72 72 72 72 73 74 75 75 74 72 73 74 75 74 75 75 76 77 77 75 73 73 74 75 77 77 76 75 75 76 77 77 77 78 77 78 78 76 76 74 69 64 63 64 65 65 67 76
67 67 68 67 67 68 69 69 69 69 70 71 72 72 73 74 74 74 73 72 73 73 74 72 72 73 74 74 74 73 74 73 74 73 72 72 72 72 72 72 72 72 72 72 73 73 74 77 76 76 76 76 74 72 70 68 63 62 63 63 64 66 71
65 66 66 66 67 68 68 68 68 68 69 70 72 72 72 72 73 73 74 73 74 74 73 72 72 72 72 72 73 74 74 74 72 73 73 72 72 72 72 72 72 73 72 72 72 71 72 73 74 74 75 76 74 72 69 66 60 61 62 62 63 65 73
66 66 65 65 65 66 67 67 67 68 69 71 71 71 71 70 72 72 72 73 72 72 72 72 71 71 71 71 72 73 74 74 73 73 73 72 72 72 72 72 72 72 72 72 71 71 72 73 74 74 74 73 71 69 66 64 59 60 60 61 61 69 77
66 66 66 67 67 67 67 68 68 68 69 69 69 70 70 71 72 71 70 69 69 70 70 70 70 70 72 72 73 74 75 74 74 73 72 73 73 73 73 73 72 71 72 71 71 72 72 72 73 72 73 72 70 67 65 64 60 58 57 59 59 68 75
67 67 67 67 68 68 68 68 68 68 68 68 67 68 68 69 69 68 67 68 69 69 68 69 69 70 71 71 71 72 73 73 72 71 71 72 73 73 72 72 72 72 73 71 71 71 71 71 71 71 71 70 69 68 66 64 61 56 56 56 57 67 72
68 68 68 68 68 67 67 67 68 68 67 67 66 66 67 67 67 67 66 66 66 67 66 66 67 68 69 70 71 72 72 72 72 71 71 71 70 72 71 71 70 71 71 71 71 71 71 72 70 70 70 70 70 72 68 66 64 56 56 56 56 64 69
68 69 69 70 70 70 70 70 69 68 67 66 67 69 68 68 66 66 65 65 66 65 65 66 67 68 69 69 70 70 70 71 71 71 70 70 70 70 70 71 70 70 71 71 71 71 71 71 70 69 68 69 69 69 68 66 65 61 54 55 56 58 68
70 71 70 70 70 70 69 70 69 68 68 68 69 71 70 69 67 65 65 64 64 64 65 66 68 68 68 68 69 69 69 69 70 70 70 70 70 71 71 71 70 70 70 70 70 70 70 70 70 69 68 68 68 68 68 69 66 63 55 56 57 59 67
69 69 70 70 69 69 69 69 69 69 69 70 72 72 71 69 67 65 65 64 63 64 66 67 67 68 69 69 68 68 68 69 69 70 70 71 70 69 69 71 71 71 71 71 70 70 69 69 69 68 68 69 69 69 69 72 71 67 60 56 56 56 63
66 66 67 66 67 68 68 66 68 69 70 71 71 70 70 69 67 67 66 65 65 67 67 67 67 68 68 68 67 67 68 69 69 69 69 69 69 69 68 68 69 70 70 69 69 70 69 69 69 69 68 68 69 69 69 69 71 69 67 58 55 55 58
67 68 69 70 70 69 69 67 67 67 68 69 69 68 68 67 66 66 67 66 68 69 69 68 68 69 69 68 66 65 64 67 69 69 68 69 69 67 67 68 68 68 69 69 70 69 69 69 69 69 68 68 68 69 68 69 69 69 69 65 58 55 56
67 67 68 68 69 69 70 69 67 67 66 66 66 66 66 67 66 66 65 66 68 69 70 69 69 68 68 69 69 69 69 69 68 70 70 70 67 67 67 67 68 66 67 68 66 67 68 68 71 69 69 69 68 68 69 69 69 69 70 71 67 60 59
66 67 68 69 68 70 70 69 68 67 65 65 66 65 66 65 65 64 64 66 67 67 68 69 68 67 66 68 69 69 70 70 71 71 71 71 71 71 69 69 69 67 66 66 65 65 65 67 68 68 70 70 69 69 69 69 68 66 66 68 71 68 63
65 66 67 66 68 69 68 68 67 66 65 65 65 65 67 66 66 64 64 65 68 68 67 68 68 68 68 67 67 67 67 67 68 69 71 71 72 73 72 71 68 68 68 65 65 66 65 67 67 66 66 68 68 67 65 64 63 62 62 62 63 63 64
65 66 66 67 68 68 67 66 65 65 64 64 65 65 65 65 65 66 67 68 68 67 66 68 68 66 66 68 68 68 69 69 72 69 67 67 67 69 69 68 68 65 63 64 65 65 64 65 65 64 64 64 65 64 63 60 58 57 57 58 59 62 61
64 64 65 66 66 66 65 65 64 64 65 64 66 66 66 66 67 68 67 67 67 66 66 67 69 68 66 67 67 68 71 69 69 67 65 63 61 58 58 62 67 64 61 62 62 66 66 64 64 64 62 62 61 62 60 60 58 57 52 52 49 52 57
64 64 65 65 66 66 65 64 63 63 63 63 64 64 65 65 66 66 68 66 66 65 65 67 67 65 65 65 65 66 67 68 66 66 65 65 63 61 60 54 48 53 63 60 58 53 55 59 64 64 63 59 57 57 61 60 58 50 43 43 42 42 44
63 63 63 64 64 64 63 63 64 63 62 62 63 64 64 64 65 65 67 66 66 65 65 65 66 65 65 66 65 67 68 67 66 66 65 64 62 62 60 60 57 44 44 51 52 48 44 45 47 53 59 62 59 53 49 50 46 42 42 43 43 41 41
65 64 64 63 63 62 62 63 62 62 62 62 63 63 63 63 64 64 66 66 67 67 65 65 65 64 65 65 65 68 68 65 68 67 66 64 64 63 62 60 58 57 46 42 46 45 42 42 45 48 50 53 56 58 53 47 44 42 42 42 41 42 41

ECMWFFLT1_sfc_temp_132.txt.gz
Temp
76 77 76 78 80 80 81 81 81 81 80 80 81 81 81 81 79 79 78 77 77 76 77 77 77 77 77 77 77 77 78 77 78 78 77 77 78 77 77 77 78 77 77 77 77 77 78 79 79 79 79 79 78 78 78 78 78 80 78 78 77 77 77
74 78 77 78 78 79 80 81 82 81 80 81 81 80 81 80 79 78 78 77 77 77 77 77 77 77 77 77 78 77 78 78 79 79 79 78 79 77 78 78 78 77 77 78 77 78 78 80 79 79 79 79 78 78 79 78 78 78 78 77 77 77 77
71 76 78 76 78 79 80 81 82 81 80 81 81 81 81 79 80 79 78 77 77 77 78 78 78 77 77 77 77 77 78 78 79 79 78 79 78 80 79 78 78 78 79 79 79 79 81 79 79 79 80 79 79 78 78 78 78 78 78 77 78 77 76
72 74 76 77 79 79 80 80 81 80 81 82 82 82 81 80 81 80 79 79 77 77 77 78 78 78 78 77 78 78 78 78 79 80 80 80 80 80 79 78 78 79 78 79 81 81 84 81 80 79 82 79 78 79 78 79 79 78 77 77 77 77 77
72 75 76 73 75 78 80 80 80 79 80 81 81 82 81 81 82 81 80 80 80 78 79 79 80 80 79 79 80 80 79 79 79 80 80 80 80 79 79 79 79 79 80 81 81 80 80 79 80 79 80 79 79 78 79 78 78 78 77 77 77 77 77
72 72 75 76 77 79 80 81 82 80 81 80 81 81 81 82 81 81 80 80 80 80 80 79 80 79 79 80 81 81 80 79 79 79 80 80 79 79 80 80 80 80 80 81 81 81 80 80 80 80 80 80 80 80 80 79 79 79 77 77 78 78 78
72 72 76 78 78 79 80 81 82 82 82 81 81 82 82 82 80 81 81 80 80 79 79 79 80 79 79 80 80 80 79 80 79 80 80 81 80 80 80 80 81 81 81 80 81 81 81 80 81 80 81 81 80 81 79 78 78 78 77 77 77 77 77
72 70 74 79 80 80 81 81 82 82 82 81 80 80 81 82 81 80 80 80 80 79 79 79 80 79 79 79 80 80 80 81 81 81 80 81 81 80 80 81 80 81 81 81 81 81 82 81 82 81 81 81 80 80 80 79 78 79 79 78 77 77 80
69 69 71 79 81 82 82 82 82 82 81 80 80 80 80 80 80 80 80 80 80 79 79 79 80 81 79 79 78 79 81 81 81 80 80 81 81 81 82 82 82 81 81 82 82 81 82 82 83 81 81 81 80 79 79 79 80 79 79 78 78 78 79
69 69 70 72 77 80 81 82 82 81 80 79 78 79 79 79 79 80 80 80 80 79 79 80 80 80 79 79 79 80 81 80 81 82 81 82 81 82 82 83 82 82 82 83 83 82 82 83 83 81 80 80 80 79 79 79 80 80 80 79 79 79 78
70 70 70 71 72 76 80 82 81 80 80 78 78 79 79 78 79 79 79 79 80 80 80 81 81 81 80 80 79 79 80 81 82 82 82 82 82 83 83 84 84 82 83 83 83 83 83 81 82 81 80 82 80 80 79 80 80 80 81 80 80 80 80
68 68 69 68 69 73 78 79 78 79 79 78 79 79 78 78 79 79 79 80 80 80 80 81 80 80 79 80 79 78 78 79 81 82 82 82 83 83 84 84 84 84 84 84 83 83 83 83 82 82 80 81 81 81 80 80 80 80 80 81 81 80 81
67 68 69 69 68 68 69 73 76 78 78 78 79 79 79 79 79 79 79 80 80 80 80 80 80 80 79 80 80 77 78 79 81 82 82 82 83 84 85 85 85 85 85 84 84 84 84 84 82 81 82 82 81 81 80 80 80 79 79 80 80 80 80
70 70 69 68 69 68 68 67 69 74 77 78 79 80 79 80 80 79 79 79 80 80 80 80 79 79 79 79 78 77 78 79 80 80 81 82 81 82 84 85 85 85 85 84 84 84 85 85 84 82 82 82 82 81 81 80 80 79 79 80 80 80 80
69 69 68 68 67 68 68 68 68 68 73 78 78 79 79 80 79 79 79 80 80 80 80 80 79 79 79 78 78 78 78 78 78 79 79 81 80 81 82 83 83 84 84 83 84 86 85 85 85 82 81 82 81 81 82 81 81 81 80 80 80 80 80
69 69 69 67 67 68 68 69 69 70 70 72 77 77 77 78 78 78 78 77 77 77 77 78 78 78 78 78 78 78 78 78 78 78 77 78 79 79 79 81 82 83 83 83 84 83 83 83 83 83 82 81 81 81 82 82 83 83 83 84 82 80 82
66 66 67 66 66 68 68 69 70 71 70 69 70 73 75 74 75 76 76 75 75 75 74 76 76 77 77 77 78 78 77 77 77 78 77 77 78 78 77 77 80 81 80 79 80 79 80 82 82 83 83 83 82 81 81 79 74 70 66 70 75 80 78
64 64 66 66 66 67 67 69 70 70 69 70 70 70 69 70 72 75 74 74 75 74 74 75 76 76 76 76 75 76 76 77 77 76 75 75 74 75 75 75 75 75 76 78 78 76 78 79 79 80 82 82 80 77 75 71 67 63 65 67 69 76 77
64 65 66 66 66 67 68 68 68 69 69 70 70 70 70 70 70 69 70 71 72 74 75 74 73 73 74 74 74 75 76 76 76 76 74 74 75 75 75 74 73 73 74 74 75 76 76 75 77 76 78 78 75 74 72 69 64 63 65 65 65 67 76
65 65 66 67 67 67 67 67 68 68 69 70 70 70 71 72 71 70 70 71 71 71 70 70 70 71 71 72 72 71 72 73 74 74 74 73 73 73 73 73 72 72 72 73 73 74 74 75 74 74 74 75 74 70 69 67 64 62 64 64 65 66 70
65 65 65 66 66 66 67 67 67 68 68 69 69 69 69 69 70 70 70 71 71 71 70 70 69 69 70 70 70 71 70 70 68 68 69 70 71 71 71 71 70 70 70 71 72 73 73 72 72 72 72 71 70 69 67 66 60 60 62 62 64 64 72
64 65 64 64 65 65 66 66 66 66 67 68 69 69 69 68 70 70 70 71 70 70 70 70 70 71 71 70 71 71 71 70 69 69 69 69 69 70 71 70 69 69 71 70 70 71 72 72 73 72 70 69 68 66 64 63 59 59 60 60 62 72 74
65 65 65 66 66 65 66 66 66 66 67 67 67 68 68 69 70 70 69 69 69 69 69 69 69 70 70 71 71 72 72 71 70 70 70 70 70 70 71 70 70 69 70 69 70 71 72 72 72 71 69 68 67 65 63 63 60 57 57 58 59 70 71
66 66 66 66 67 66 66 66 66 67 66 66 66 67 68 68 69 69 68 68 68 68 67 68 68 70 70 69 71 71 71 71 71 70 70 70 70 70 71 72 72 71 72 69 70 71 71 71 71 71 69 67 65 65 64 63 61 56 56 56 58 69 69
66 66 66 66 66 65 65 65 66 66 66 66 65 65 66 67 67 66 65 66 66 66 66 66 67 68 69 69 70 71 71 71 71 70 70 69 69 70 70 70 70 70 70 70 70 70 71 71 70 69 68 68 68 70 65 64 63 57 56 56 58 66 68
66 66 66 67 67 66 66 67 66 65 65 64 64 66 66 66 66 66 65 64 65 65 65 66 66 68 68 69 69 70 71 71 71 70 70 69 69 70 70 70 70 69 69 69 70 70 70 70 69 68 68 69 68 67 66 64 64 62 56 57 59 64 70
66 67 66 66 66 67 65 65 65 65 64 64 65 66 66 65 64 64 65 64 64 64 65 66 67 67 67 67 68 69 69 69 70 70 70 70 69 70 70 70 69 70 70 70 70 70 69 69 68 68 67 67 68 67 67 67 64 61 55 56 57 60 68
66 66 67 67 68 66 65 66 66 66 65 66 67 66 66 65 64 64 64 64 63 64 65 66 66 65 65 66 67 68 68 68 69 69 69 70 70 69 69 70 70 70 70 70 69 68 68 68 67 65 65 67 67 68 68 70 68 65 60 56 56 57 62
62 63 63 64 64 66 66 65 65 66 66 67 67 67 67 67 65 65 65 64 64 65 66 66 66 65 64 64 65 66 67 67 68 68 68 68 69 68 67 68 68 69 70 69 69 68 67 66 65 65 65 66 67 67 68 68 69 67 64 59 57 56 58
64 65 66 67 67 66 66 64 64 64 65 66 66 66 67 66 65 65 64 64 66 68 68 67 67 67 67 66 65 65 65 67 68 67 67 68 67 67 66 66 67 68 68 68 69 68 67 66 66 65 66 65 66 67 66 67 67 67 65 63 58 56 56
63 64 65 65 66 66 66 65 63 64 63 64 64 65 65 66 66 66 64 65 68 67 68 67 67 67 67 67 67 67 67 67 67 67 67 67 67 67 67 67 67 65 65 65 64 64 65 66 67 66 65 65 66 65 66 66 65 66 68 68 64 59 57
63 63 64 64 64 66 65 64 63 63 62 62 63 63 64 63 64 64 63 65 66 66 66 67 67 67 66 66 67 68 69 69 69 69 69 69 68 68 67 67 66 65 64 64 64 64 64 64 66 66 66 65 65 63 62 63 63 63 63 66 67 65 61
61 61 61 62 63 64 63 63 62 62 61 61 62 63 64 63 62 62 63 64 65 65 63 64 65 65 64 63 65 66 66 66 67 67 67 68 69 68 67 66 64 66 66 64 63 64 64 65 65 65 66 64 61 59 59 59 58 59 60 60 61 61 62
60 61 62 61 62 63 62 61 60 60 60 61 62 62 62 62 62 62 63 64 64 63 65 66 66 63 63 64 65 65 65 66 70 65 61 62 63 64 65 64 64 62 62 62 62 62 63 64 63 63 64 61 60 60 60 59 58 57 56 57 58 59 58
59 60 61 62 62 62 61 61 60 60 61 61 61 61 61 62 63 63 62 63 62 60 64 66 67 63 61 62 63 65 67 65 64 62 60 59 58 55 53 56 60 61 59 58 59 63 65 62 61 62 62 63 61 60 59 60 59 58 54 53 50 52 57
59 60 60 61 63 62 62 61 60 60 60 59 59 60 60 61 62 62 63 62 61 61 63 64 63 61 60 61 62 63 64 64 63 63 62 61 59 58 57 53 46 48 57 58 58 51 52 59 62 62 62 60 58 58 61 60 60 52 44 44 43 42 44
60 60 60 60 61 60 60 60 62 61 60 59 60 61 61 61 60 61 62 62 61 61 61 61 63 62 61 63 62 64 64 62 60 61 60 61 60 59 58 57 55 45 44 49 50 47 45 48 52 56 59 63 60 54 50 52 47 43 43 42 41 40 40
60 60 60 60 61 60 60 60 60 60 60 58 60 60 60 61 60 61 62 62 61 61 60 61 62 61 61 60 63 66 64 61 62 62 61 59 59 60 59 57 56 56 47 42 45 46 42 43 45 47 50 53 56 58 54 48 44 42 41 41 41 40 39

ECMWFFLT1_sfc_temp_135.txt.gz
Temp
74 74 74 75 76 76 77 77 77 77 77 77 78 78 78 78 77 77 76 75 76 75 75 75 75 75 75 75 75 75 75 75 75 75 75 75 76 75 75 75 76 75 76 75 75 76 77 77 77 78 77 76 76 77 76 76 76 78 76 76 75 76 74
72 74 74 75 75 76 77 77 77 78 78 78 78 78 78 78 77 76 76 76 76 76 75 76 76 75 75 75 75 75 75 75 76 77 77 76 77 76 76 76 76 76 76 76 76 76 76 77 77 77 77 76 77 76 77 76 76 76 77 75 75 75 75
70 73 74 74 75 76 76 77 78 78 78 78 79 78 78 77 77 77 76 76 75 76 76 76 76 76 76 75 75 75 75 75 76 76 76 76 76 77 77 77 77 77 77 77 77 77 78 77 76 77 77 77 78 77 76 76 76 76 76 75 76 76 74
69 72 74 75 76 76 77 77 77 78 79 79 79 79 78 77 78 78 77 77 76 76 75 76 76 76 76 75 75 75 75 75 76 77 78 77 77 77 76 76 76 77 76 76 78 78 80 78 77 77 79 77 77 77 76 77 77 76 76 75 75 75 75
71 71 73 73 75 76 77 77 77 77 78 79 79 79 79 79 79 78 78 78 78 77 77 77 78 78 77 77 78 78 76 76 76 77 78 78 78 77 77 77 76 77 77 78 77 78 77 77 78 77 77 77 77 76 77 76 77 77 76 75 75 75 75
71 69 71 73 74 76 77 78 79 78 78 78 78 79 79 79 79 78 78 77 77 78 77 77 77 77 76 77 78 79 77 77 77 77 77 77 77 77 77 77 78 77 77 78 78 78 78 77 78 78 78 78 78 78 77 77 77 77 76 75 75 76 77
72 70 71 73 75 76 77 78 79 79 79 79 79 80 80 79 78 78 78 77 78 76 76 77 78 77 77 77 77 78 77 77 76 77 77 78 77 77 77 78 78 78 79 78 78 79 78 78 78 78 78 79 78 78 77 76 77 76 75 75 75 75 75
73 70 71 74 76 77 78 78 79 79 79 79 78 78 79 79 79 78 77 77 77 77 76 76 77 77 76 77 77 78 78 78 78 78 77 78 78 77 78 78 78 78 78 78 79 79 79 79 79 79 79 79 78 78 78 77 76 77 76 76 75 75 77
72 71 71 74 77 78 79 79 79 79 78 77 77 77 78 78 77 77 77 77 77 77 76 77 77 78 77 77 76 77 78 78 78 78 77 78 78 78 79 79 79 79 79 79 79 79 80 80 80 78 78 79 78 77 77 77 77 77 76 76 76 76 76
68 69 68 69 73 77 77 79 79 78 77 76 76 76 77 77 77 77 77 77 77 77 77 77 77 77 76 76 76 77 78 77 78 79 79 78 78 78 79 80 80 79 79 80 80 79 79 80 80 79 78 78 78 77 77 77 77 78 77 77 77 76 76
68 68 68 68 69 73 76 78 78 76 76 76 76 77 77 76 76 77 77 77 77 77 78 78 78 77 77 77 76 76 77 78 78 78 79 79 79 80 80 81 81 80 80 80 80 80 80 79 79 78 78 79 78 78 77 77 78 77 78 78 78 78 78
67 68 66 66 66 69 73 76 76 76 75 75 76 77 76 76 77 77 77 77 78 78 77 78 77 77 76 76 76 75 76 77 78 79 79 79 80 80 81 81 81 80 80 81 80 80 80 80 79 80 78 78 79 79 78 78 78 77 78 79 79 78 78
68 68 67 66 66 66 68 69 71 72 74 76 77 77 77 77 77 77 77 77 78 78 78 78 77 77 76 76 77 75 75 76 78 79 79 79 80 81 81 81 82 82 81 81 81 81 80 80 80 79 79 79 79 79 79 78 78 77 78 78 78 78 78
69 67 67 67 66 67 68 68 69 70 70 71 75 77 77 77 78 77 77 77 77 78 78 78 77 77 76 76 76 76 76 77 77 78 78 79 79 79 81 82 81 81 82 81 80 81 81 81 81 80 80 80 80 79 79 78 78 77 78 78 79 78 78
66 67 66 67 66 67 68 68 69 69 69 69 71 73 75 77 77 77 77 77 77 78 77 78 77 76 76 76 76 76 76 76 77 77 77 79 78 78 79 80 80 80 80 80 81 83 82 83 82 80 79 80 79 79 79 79 79 79 78 78 77 78 78
66 66 66 66 66 67 68 69 69 69 70 69 69 70 73 74 75 77 77 76 76 76 77 77 76 76 76 75 76 76 76 76 76 76 76 76 77 77 77 78 79 80 80 80 81 81 81 81 81 82 81 80 79 79 80 80 80 81 82 81 80 78 80
65 66 66 66 66 67 68 68 69 69 68 68 68 68 68 69 70 73 75 74 74 74 75 76 76 76 76 75 76 76 76 75 76 76 75 76 76 76 76 76 77 77 78 78 79 79 79 80 80 81 81 81 80 79 80 81 81 81 73 73 78 81 78
65 65 65 66 66 67 67 67 68 68 68 68 68 68 68 68 69 69 69 70 70 70 71 71 72 75 75 76 75 75 75 75 75 75 75 75 75 76 75 75 75 75 75 77 78 77 78 78 78 79 80 81 80 79 79 78 74 67 66 70 71 78 78
63 65 65 65 66 66 67 67 67 68 68 69 68 68 69 69 69 68 68 69 70 71 71 71 71 71 73 74 74 74 74 74 74 75 75 74 73 73 75 75 75 75 75 75 77 77 77 77 77 77 77 78 77 77 77 75 66 64 66 66 66 69 78
64 65 65 66 66 66 67 67 68 69 69 69 69 70 70 71 70 70 70 70 71 71 72 72 71 72 72 71 72 73 73 72 72 71 69 69 70 70 70 71 71 70 70 73 74 75 76 76 76 76 76 76 76 75 72 69 65 63 65 65 65 66 70
64 64 64 65 65 66 67 67 68 68 68 68 69 69 69 69 70 70 70 70 69 69 69 70 68 68 68 68 68 69 70 71 71 70 69 69 70 70 70 69 68 69 69 69 70 72 73 73 74 75 75 75 73 71 69 68 61 61 63 62 64 65 70
64 64 64 65 65 65 65 66 67 67 67 69 68 69 69 69 70 70 69 70 69 69 69 68 69 69 69 69 70 70 69 69 69 70 70 70 70 71 70 69 69 69 70 69 69 71 71 70 72 72 70 69 69 69 66 63 58 59 60 60 61 68 73
64 64 65 65 66 65 65 66 66 67 67 67 68 68 68 69 70 69 69 68 68 69 68 68 68 69 69 70 70 71 70 70 70 70 70 70 70 70 70 69 69 69 70 69 70 71 70 69 69 67 67 67 66 65 63 63 60 57 57 58 59 69 70
66 66 65 65 65 65 65 66 66 67 67 66 67 67 68 69 69 68 67 67 67 68 67 68 68 69 69 69 71 71 70 70 70 69 69 69 70 69 70 71 71 70 71 68 69 70 70 71 69 68 67 66 64 65 63 62 61 56 56 56 58 69 69
65 65 65 65 65 64 65 65 65 66 66 66 65 66 67 67 67 67 66 66 66 66 66 67 67 68 69 70 70 70 70 70 69 68 68 68 68 69 68 69 70 70 70 69 69 69 69 69 68 67 66 66 67 71 65 63 64 58 55 56 58 65 68
65 65 65 65 65 65 65 65 65 65 64 64 64 66 67 67 67 66 65 65 65 65 65 65 66 67 68 69 70 70 70 70 70 69 69 68 68 69 69 70 69 69 69 69 69 69 69 70 69 67 67 67 66 66 65 64 64 62 54 55 58 64 68
64 65 64 64 64 66 64 64 64 63 63 63 64 65 66 66 65 64 65 64 64 64 64 65 66 67 68 68 69 69 69 69 69 69 68 69 68 69 70 69 69 69 69 69 69 69 68 68 67 66 66 66 67 66 66 67 64 63 56 55 55 59 67
64 64 65 65 66 65 65 65 64 64 64 64 65 65 65 65 64 63 63 63 62 63 64 65 65 65 66 66 67 68 68 68 69 69 69 69 69 68 68 69 69 69 69 69 68 67 67 66 66 65 65 66 67 67 66 68 68 64 60 56 55 56 61
60 61 61 62 62 65 65 63 63 64 65 66 66 66 66 65 64 63 63 62 63 64 64 64 64 64 64 65 65 66 67 67 68 68 68 68 68 67 67 68 68 69 69 68 68 66 65 64 64 64 65 65 65 65 65 64 65 66 64 59 55 55 57
61 62 63 64 64 64 64 62 63 62 63 65 66 66 66 66 64 64 64 63 65 67 67 66 65 64 64 65 64 64 64 66 66 66 66 67 66 66 65 66 67 68 69 68 68 65 63 63 64 64 64 63 63 63 64 64 63 65 64 63 58 54 54
61 61 61 62 63 63 63 62 61 62 62 62 63 63 64 65 65 64 63 64 66 65 66 66 66 66 65 64 64 64 64 65 65 65 66 66 67 66 66 65 66 65 66 66 65 64 64 64 65 64 64 63 62 61 60 60 60 61 64 65 63 58 56
60 60 60 61 61 62 62 61 61 61 61 61 62 62 62 61 62 62 61 63 65 64 65 66 66 66 65 65 66 66 67 67 67 67 68 67 65 66 65 65 65 64 64 64 65 65 64 65 65 64 63 62 61 60 59 59 59 58 59 63 64 63 60
58 58 59 59 60 61 60 60 60 60 60 59 60 61 62 62 62 61 62 63 63 64 64 65 65 64 63 63 65 65 65 65 65 65 64 64 65 65 65 65 64 65 65 64 63 64 65 66 65 64 63 61 58 58 58 58 57 58 58 58 58 58 60
58 58 58 58 59 59 59 58 57 58 59 59 58 59 60 60 60 60 61 62 62 62 64 65 65 62 61 62 63 64 64 66 68 63 59 59 59 58 60 61 62 61 61 60 61 62 64 66 66 64 63 59 58 58 57 56 56 57 56 57 57 59 58
56 57 58 59 59 59 58 58 58 57 59 58 57 58 59 59 60 60 60 61 60 61 64 64 65 63 60 61 62 62 65 61 61 59 57 56 55 53 52 54 56 58 59 58 56 58 62 63 63 64 61 60 59 59 59 59 59 59 52 51 47 48 54
55 56 57 58 59 58 59 59 58 58 58 56 57 58 59 59 59 60 61 60 60 61 63 63 62 60 60 61 61 62 62 61 60 59 59 58 57 55 54 51 47 49 54 55 56 51 48 55 61 62 62 61 60 58 59 61 58 48 43 41 41 42 43
57 57 57 57 58 57 57 58 60 59 59 57 58 59 59 59 59 59 60 60 59 60 60 61 61 60 59 62 60 62 63 60 58 58 56 57 56 57 57 56 53 43 44 49 50 47 43 45 49 53 57 61 58 53 49 47 45 42 40 41 40 40 39
56 56 57 57 57 57 57 58 58 59 58 57 58 58 58 59 59 58 59 59 59 59 59 60 60 60 59 59 61 63 61 58 61 60 58 56 56 57 57 56 56 57 48 43 44 44 42 42 42 42 44 47 53 58 53 48 43 41 41 40 41 40 39